GEFSSE_prec_meanprecacc_006.txt.gz
Total_Precipitation_Accumulation
0.00 0.00 0.00 0.00 0.00 0.00 0.00 0.00 0.00 0.00 0.01 0.00 0.00 0.00 0.00 0.00 0.01 0.02 0.03 0.03 0.02 0.01 0.01 0.02 0.01 0.00 0.00 0.00 0.00 0.00 0.01 0.02 0.01 0.02 0.03 0.03 0.03 0.02 0.02 0.06 0.08 0.04 0.02
0.00 0.00 0.00 0.00 0.00 0.00 0.00 0.00 0.00 0.00 0.00 0.00 0.00 0.00 0.00 0.01 0.01 0.01 0.01 0.01 0.02 0.01 0.01 0.02 0.02 0.01 0.01 0.01 0.01 0.01 0.02 0.02 0.01 0.01 0.02 0.01 0.01 0.01 0.01 0.04 0.06 0.04 0.01
0.00 0.00 0.00 0.00 0.00 0.00 0.00 0.00 0.00 0.00 0.00 0.00 0.00 0.00 0.00 0.00 0.01 0.03 0.03 0.01 0.01 0.01 0.02 0.03 0.02 0.03 0.05 0.04 0.03 0.02 0.03 0.02 0.00 0.00 0.01 0.01 0.01 0.00 0.00 0.01 0.02 0.01 0.00
0.00 0.00 0.00 0.00 0.00 0.00 0.00 0.00 0.00 0.00 0.00 0.00 0.00 0.00 0.00 0.00 0.00 0.00 0.02 0.03 0.05 0.06 0.09 0.08 0.05 0.07 0.07 0.06 0.06 0.05 0.07 0.04 0.01 0.00 0.00 0.01 0.02 0.01 0.00 0.00 0.00 0.00 0.00
0.00 0.00 0.00 0.00 0.00 0.00 0.00 0.00 0.00 0.01 0.01 0.01 0.01 0.00 0.00 0.00 0.00 0.00 0.00 0.02 0.08 0.12 0.14 0.15 0.12 0.11 0.12 0.11 0.09 0.10 0.10 0.07 0.02 0.00 0.00 0.00 0.02 0.01 0.00 0.00 0.00 0.00 0.00
0.00 0.00 0.00 0.01 0.01 0.01 0.01 0.01 0.01 0.01 0.01 0.01 0.01 0.01 0.01 0.01 0.00 0.00 0.00 0.00 0.03 0.09 0.13 0.15 0.15 0.15 0.17 0.12 0.09 0.11 0.12 0.11 0.04 0.00 0.00 0.00 0.01 0.04 0.03 0.01 0.00 0.00 0.00
0.00 0.01 0.03 0.03 0.02 0.01 0.01 0.00 0.01 0.01 0.01 0.01 0.01 0.01 0.01 0.01 0.01 0.00 0.01 0.01 0.01 0.03 0.07 0.11 0.12 0.13 0.15 0.13 0.10 0.10 0.15 0.11 0.03 0.00 0.00 0.01 0.03 0.16 0.14 0.04 0.00 0.00 0.00
0.00 0.02 0.04 0.03 0.03 0.02 0.02 0.01 0.01 0.01 0.01 0.01 0.02 0.01 0.01 0.02 0.02 0.01 0.01 0.02 0.02 0.01 0.02 0.05 0.09 0.11 0.13 0.13 0.11 0.10 0.15 0.09 0.03 0.00 0.00 0.00 0.08 0.24 0.20 0.09 0.02 0.00 0.00
0.00 0.00 0.01 0.01 0.01 0.02 0.03 0.03 0.02 0.02 0.02 0.02 0.01 0.01 0.02 0.02 0.04 0.05 0.05 0.03 0.02 0.01 0.01 0.01 0.02 0.03 0.05 0.08 0.10 0.09 0.11 0.07 0.02 0.00 0.00 0.00 0.05 0.24 0.26 0.16 0.05 0.01 0.00
0.00 0.00 0.00 0.00 0.00 0.00 0.02 0.04 0.04 0.03 0.02 0.02 0.01 0.01 0.03 0.03 0.02 0.04 0.05 0.04 0.02 0.01 0.01 0.01 0.01 0.01 0.01 0.02 0.04 0.05 0.05 0.04 0.01 0.00 0.00 0.01 0.07 0.26 0.31 0.25 0.08 0.01 0.00
0.00 0.00 0.00 0.00 0.00 0.00 0.01 0.03 0.04 0.04 0.03 0.03 0.02 0.02 0.02 0.02 0.01 0.01 0.01 0.02 0.02 0.01 0.01 0.01 0.01 0.01 0.01 0.00 0.01 0.01 0.01 0.01 0.00 0.01 0.01 0.01 0.09 0.26 0.30 0.27 0.12 0.02 0.00
0.00 0.00 0.00 0.00 0.00 0.00 0.01 0.02 0.04 0.05 0.04 0.04 0.05 0.05 0.06 0.04 0.03 0.03 0.02 0.03 0.03 0.03 0.03 0.02 0.02 0.01 0.01 0.00 0.00 0.00 0.00 0.00 0.00 0.00 0.00 0.01 0.08 0.24 0.30 0.25 0.16 0.06 0.01
0.00 0.00 0.00 0.00 0.00 0.00 0.00 0.02 0.02 0.02 0.04 0.07 0.08 0.10 0.10 0.08 0.10 0.11 0.10 0.09 0.05 0.04 0.03 0.03 0.03 0.01 0.01 0.00 0.00 0.00 0.00 0.00 0.00 0.00 0.00 0.00 0.02 0.12 0.27 0.28 0.20 0.08 0.02
0.00 0.00 0.00 0.00 0.00 0.00 0.00 0.01 0.01 0.02 0.03 0.04 0.06 0.07 0.07 0.07 0.10 0.13 0.13 0.12 0.08 0.07 0.06 0.03 0.01 0.01 0.00 0.00 0.00 0.00 0.00 0.00 0.00 0.00 0.00 0.00 0.00 0.02 0.11 0.19 0.17 0.10 0.03
0.00 0.00 0.00 0.00 0.00 0.00 0.00 0.00 0.00 0.01 0.01 0.02 0.03 0.03 0.03 0.05 0.04 0.04 0.03 0.03 0.04 0.05 0.05 0.03 0.01 0.01 0.00 0.00 0.00 0.00 0.00 0.00 0.00 0.00 0.00 0.00 0.00 0.01 0.04 0.11 0.14 0.12 0.06
0.00 0.00 0.00 0.00 0.00 0.00 0.00 0.00 0.00 0.00 0.00 0.00 0.00 0.00 0.01 0.02 0.01 0.01 0.01 0.02 0.02 0.02 0.02 0.01 0.01 0.00 0.00 0.00 0.00 0.00 0.00 0.00 0.00 0.00 0.00 0.00 0.00 0.01 0.02 0.07 0.10 0.15 0.13
0.00 0.00 0.00 0.00 0.00 0.00 0.00 0.00 0.00 0.00 0.00 0.00 0.00 0.00 0.00 0.00 0.00 0.00 0.01 0.01 0.01 0.01 0.01 0.00 0.00 0.00 0.00 0.00 0.00 0.00 0.00 0.00 0.00 0.00 0.00 0.00 0.01 0.01 0.02 0.05 0.06 0.10 0.16
0.00 0.00 0.00 0.00 0.00 0.00 0.00 0.00 0.00 0.00 0.00 0.00 0.00 0.00 0.00 0.00 0.00 0.00 0.00 0.00 0.00 0.00 0.00 0.00 0.00 0.00 0.00 0.00 0.00 0.00 0.00 0.00 0.00 0.00 0.00 0.00 0.01 0.02 0.03 0.04 0.06 0.07 0.14
0.00 0.00 0.00 0.00 0.00 0.00 0.00 0.00 0.00 0.00 0.00 0.00 0.00 0.00 0.00 0.00 0.00 0.00 0.00 0.00 0.00 0.00 0.00 0.00 0.00 0.00 0.00 0.00 0.00 0.00 0.00 0.00 0.00 0.01 0.02 0.01 0.01 0.01 0.03 0.04 0.06 0.07 0.11
0.00 0.00 0.00 0.00 0.00 0.00 0.00 0.00 0.00 0.00 0.00 0.00 0.00 0.00 0.00 0.00 0.00 0.00 0.00 0.00 0.00 0.00 0.00 0.00 0.00 0.00 0.00 0.00 0.00 0.00 0.00 0.00 0.00 0.00 0.01 0.03 0.03 0.02 0.03 0.04 0.06 0.05 0.05
0.00 0.00 0.00 0.00 0.00 0.00 0.00 0.00 0.00 0.00 0.00 0.00 0.00 0.00 0.00 0.00 0.00 0.00 0.00 0.00 0.00 0.00 0.00 0.00 0.00 0.00 0.01 0.01 0.01 0.00 0.00 0.00 0.00 0.00 0.00 0.01 0.02 0.02 0.02 0.04 0.05 0.05 0.04
0.00 0.00 0.00 0.00 0.00 0.00 0.00 0.00 0.00 0.00 0.00 0.00 0.00 0.00 0.00 0.00 0.00 0.00 0.00 0.00 0.00 0.00 0.00 0.00 0.01 0.01 0.01 0.02 0.02 0.01 0.00 0.00 0.00 0.00 0.00 0.00 0.00 0.01 0.02 0.03 0.03 0.04 0.05
0.00 0.00 0.00 0.00 0.00 0.00 0.00 0.00 0.00 0.00 0.00 0.00 0.00 0.00 0.00 0.00 0.00 0.00 0.00 0.00 0.00 0.00 0.01 0.01 0.01 0.02 0.02 0.02 0.03 0.03 0.01 0.00 0.00 0.00 0.00 0.00 0.00 0.00 0.01 0.02 0.03 0.04 0.06
0.00 0.00 0.00 0.00 0.00 0.00 0.00 0.00 0.00 0.00 0.00 0.00 0.00 0.00 0.00 0.00 0.00 0.00 0.00 0.00 0.00 0.00 0.01 0.02 0.03 0.02 0.03 0.02 0.03 0.04 0.02 0.00 0.00 0.00 0.00 0.00 0.00 0.00 0.00 0.01 0.03 0.04 0.05
0.00 0.00 0.00 0.00 0.00 0.00 0.00 0.00 0.00 0.00 0.00 0.00 0.00 0.00 0.00 0.00 0.00 0.00 0.00 0.00 0.00 0.00 0.01 0.02 0.03 0.04 0.05 0.04 0.04 0.04 0.04 0.02 0.00 0.00 0.00 0.00 0.00 0.01 0.01 0.01 0.02 0.04 0.05
0.00 0.00 0.00 0.00 0.00 0.00 0.00 0.00 0.00 0.00 0.00 0.00 0.00 0.00 0.00 0.00 0.00 0.00 0.00 0.00 0.00 0.00 0.01 0.02 0.03 0.05 0.05 0.06 0.05 0.05 0.04 0.02 0.01 0.00 0.00 0.00 0.00 0.00 0.01 0.01 0.02 0.04 0.06

GEFSSE_prec_meanprecacc_012.txt.gz
Total_Precipitation_Accumulation
0.00 0.00 0.01 0.00 0.01 0.01 0.01 0.01 0.01 0.01 0.02 0.01 0.01 0.01 0.02 0.03 0.04 0.05 0.05 0.05 0.05 0.03 0.02 0.03 0.02 0.01 0.00 0.01 0.01 0.01 0.02 0.02 0.02 0.02 0.03 0.03 0.03 0.02 0.02 0.06 0.08 0.04 0.02
0.01 0.01 0.01 0.01 0.01 0.01 0.01 0.01 0.00 0.00 0.01 0.01 0.01 0.00 0.00 0.01 0.03 0.04 0.04 0.05 0.06 0.05 0.04 0.04 0.03 0.03 0.02 0.02 0.03 0.03 0.03 0.03 0.02 0.02 0.03 0.02 0.02 0.01 0.01 0.04 0.07 0.04 0.01
0.02 0.02 0.02 0.02 0.01 0.01 0.01 0.01 0.00 0.00 0.01 0.01 0.00 0.00 0.00 0.00 0.02 0.04 0.05 0.04 0.05 0.05 0.05 0.05 0.06 0.09 0.08 0.07 0.08 0.06 0.06 0.04 0.02 0.01 0.01 0.02 0.03 0.01 0.00 0.01 0.02 0.01 0.00
0.01 0.01 0.02 0.03 0.03 0.02 0.02 0.01 0.01 0.01 0.01 0.01 0.00 0.00 0.00 0.00 0.00 0.00 0.02 0.04 0.08 0.09 0.13 0.12 0.11 0.15 0.13 0.11 0.12 0.10 0.11 0.08 0.03 0.01 0.00 0.01 0.03 0.01 0.00 0.00 0.00 0.00 0.00
0.00 0.01 0.02 0.04 0.05 0.04 0.04 0.03 0.02 0.02 0.02 0.02 0.02 0.01 0.01 0.01 0.00 0.00 0.00 0.02 0.09 0.15 0.17 0.19 0.17 0.17 0.17 0.16 0.14 0.14 0.16 0.13 0.06 0.01 0.00 0.01 0.03 0.02 0.00 0.00 0.00 0.00 0.00
0.00 0.00 0.02 0.05 0.06 0.06 0.05 0.05 0.04 0.03 0.03 0.03 0.03 0.03 0.04 0.04 0.02 0.01 0.01 0.01 0.03 0.10 0.15 0.19 0.21 0.24 0.23 0.17 0.15 0.18 0.20 0.18 0.07 0.01 0.00 0.01 0.05 0.09 0.05 0.01 0.00 0.00 0.00
0.00 0.02 0.04 0.06 0.05 0.05 0.05 0.05 0.05 0.05 0.04 0.04 0.04 0.05 0.06 0.05 0.04 0.03 0.03 0.03 0.02 0.03 0.08 0.13 0.17 0.22 0.23 0.19 0.17 0.19 0.24 0.17 0.05 0.03 0.01 0.01 0.06 0.25 0.29 0.12 0.04 0.01 0.00
0.00 0.02 0.04 0.04 0.03 0.04 0.05 0.06 0.06 0.07 0.07 0.06 0.07 0.06 0.05 0.05 0.06 0.07 0.06 0.06 0.04 0.04 0.05 0.07 0.11 0.17 0.22 0.21 0.18 0.19 0.23 0.12 0.04 0.03 0.02 0.01 0.12 0.43 0.44 0.34 0.17 0.03 0.00
0.00 0.00 0.01 0.01 0.01 0.02 0.04 0.06 0.06 0.06 0.06 0.06 0.06 0.05 0.04 0.04 0.08 0.11 0.09 0.07 0.06 0.06 0.05 0.03 0.03 0.05 0.12 0.20 0.22 0.18 0.16 0.09 0.05 0.07 0.04 0.02 0.10 0.43 0.50 0.50 0.32 0.11 0.02
0.00 0.00 0.00 0.00 0.00 0.00 0.02 0.05 0.05 0.05 0.04 0.04 0.04 0.04 0.05 0.05 0.06 0.08 0.08 0.06 0.06 0.06 0.05 0.03 0.03 0.02 0.03 0.06 0.09 0.10 0.07 0.06 0.07 0.08 0.08 0.05 0.10 0.42 0.52 0.54 0.37 0.20 0.08
0.00 0.00 0.00 0.00 0.00 0.00 0.01 0.04 0.05 0.05 0.04 0.03 0.03 0.03 0.04 0.03 0.02 0.03 0.03 0.04 0.06 0.06 0.04 0.03 0.04 0.04 0.02 0.01 0.01 0.01 0.01 0.01 0.03 0.05 0.06 0.04 0.14 0.40 0.45 0.47 0.40 0.26 0.17
0.00 0.00 0.00 0.00 0.00 0.00 0.01 0.03 0.04 0.05 0.04 0.04 0.05 0.06 0.06 0.05 0.04 0.04 0.04 0.06 0.07 0.06 0.06 0.05 0.06 0.05 0.02 0.01 0.00 0.00 0.00 0.00 0.00 0.01 0.01 0.01 0.12 0.32 0.38 0.37 0.38 0.31 0.24
0.00 0.00 0.00 0.00 0.00 0.00 0.00 0.02 0.02 0.02 0.04 0.07 0.08 0.10 0.10 0.08 0.10 0.11 0.11 0.11 0.09 0.07 0.09 0.10 0.10 0.08 0.06 0.04 0.03 0.01 0.00 0.00 0.00 0.00 0.00 0.00 0.02 0.13 0.31 0.38 0.38 0.32 0.27
0.00 0.00 0.00 0.00 0.00 0.00 0.00 0.01 0.01 0.02 0.03 0.04 0.06 0.07 0.07 0.07 0.10 0.13 0.13 0.12 0.09 0.10 0.12 0.14 0.13 0.10 0.07 0.04 0.03 0.01 0.01 0.00 0.00 0.00 0.00 0.00 0.00 0.02 0.12 0.26 0.33 0.34 0.30
0.00 0.00 0.00 0.00 0.00 0.00 0.00 0.00 0.00 0.01 0.01 0.02 0.03 0.03 0.03 0.05 0.04 0.04 0.03 0.03 0.04 0.06 0.06 0.05 0.05 0.04 0.04 0.04 0.03 0.01 0.01 0.00 0.00 0.00 0.00 0.00 0.00 0.01 0.04 0.12 0.23 0.31 0.33
0.00 0.00 0.00 0.00 0.00 0.00 0.00 0.00 0.00 0.00 0.00 0.00 0.00 0.00 0.01 0.02 0.01 0.01 0.01 0.02 0.02 0.02 0.02 0.01 0.01 0.01 0.01 0.01 0.01 0.01 0.01 0.01 0.00 0.00 0.00 0.00 0.00 0.01 0.02 0.07 0.13 0.26 0.33
0.00 0.00 0.00 0.00 0.00 0.00 0.00 0.00 0.00 0.00 0.00 0.00 0.00 0.00 0.00 0.00 0.00 0.00 0.01 0.01 0.01 0.01 0.01 0.00 0.00 0.00 0.00 0.00 0.00 0.00 0.00 0.00 0.00 0.00 0.00 0.00 0.01 0.01 0.02 0.05 0.06 0.15 0.27
0.00 0.00 0.00 0.00 0.00 0.00 0.00 0.00 0.00 0.00 0.00 0.00 0.00 0.00 0.00 0.00 0.00 0.00 0.00 0.00 0.00 0.00 0.00 0.00 0.00 0.00 0.00 0.00 0.00 0.00 0.00 0.00 0.00 0.00 0.00 0.00 0.01 0.02 0.03 0.04 0.06 0.08 0.19
0.00 0.00 0.00 0.00 0.00 0.00 0.00 0.00 0.00 0.00 0.00 0.00 0.00 0.00 0.00 0.00 0.00 0.00 0.00 0.00 0.00 0.00 0.00 0.00 0.00 0.00 0.00 0.00 0.00 0.00 0.00 0.00 0.00 0.01 0.02 0.01 0.01 0.01 0.03 0.04 0.06 0.07 0.13
0.00 0.00 0.00 0.00 0.00 0.00 0.00 0.00 0.00 0.00 0.00 0.00 0.00 0.00 0.00 0.00 0.00 0.00 0.00 0.00 0.00 0.00 0.00 0.00 0.00 0.00 0.00 0.00 0.00 0.00 0.00 0.00 0.00 0.00 0.01 0.03 0.03 0.02 0.03 0.04 0.06 0.05 0.06
0.00 0.00 0.00 0.00 0.00 0.00 0.00 0.00 0.00 0.00 0.00 0.00 0.00 0.00 0.00 0.00 0.00 0.00 0.00 0.00 0.00 0.00 0.00 0.00 0.00 0.00 0.01 0.01 0.01 0.00 0.00 0.00 0.00 0.00 0.00 0.01 0.02 0.02 0.03 0.04 0.06 0.05 0.04
0.00 0.00 0.00 0.00 0.00 0.00 0.00 0.00 0.00 0.00 0.00 0.00 0.00 0.00 0.00 0.00 0.00 0.00 0.00 0.00 0.00 0.00 0.00 0.00 0.01 0.01 0.01 0.02 0.02 0.02 0.00 0.00 0.00 0.00 0.00 0.00 0.00 0.01 0.02 0.03 0.04 0.05 0.05
0.00 0.00 0.00 0.00 0.00 0.00 0.00 0.00 0.00 0.00 0.00 0.00 0.00 0.00 0.00 0.00 0.00 0.00 0.00 0.00 0.00 0.00 0.01 0.01 0.01 0.02 0.02 0.02 0.04 0.05 0.03 0.00 0.00 0.00 0.00 0.00 0.00 0.00 0.01 0.02 0.04 0.05 0.06
0.00 0.00 0.00 0.00 0.00 0.00 0.00 0.00 0.00 0.00 0.00 0.00 0.00 0.00 0.00 0.00 0.00 0.00 0.00 0.00 0.00 0.00 0.01 0.02 0.03 0.03 0.03 0.03 0.04 0.05 0.04 0.03 0.02 0.01 0.00 0.00 0.00 0.00 0.00 0.01 0.03 0.04 0.06
0.00 0.00 0.00 0.00 0.00 0.00 0.00 0.00 0.00 0.00 0.00 0.00 0.00 0.00 0.00 0.00 0.00 0.00 0.00 0.00 0.00 0.00 0.01 0.02 0.03 0.04 0.05 0.05 0.04 0.04 0.04 0.04 0.03 0.03 0.01 0.00 0.00 0.01 0.01 0.01 0.03 0.04 0.05
0.00 0.00 0.00 0.00 0.00 0.00 0.00 0.00 0.00 0.00 0.00 0.00 0.00 0.00 0.00 0.00 0.00 0.00 0.00 0.00 0.00 0.00 0.01 0.02 0.03 0.05 0.06 0.06 0.06 0.05 0.04 0.03 0.03 0.04 0.03 0.02 0.01 0.01 0.01 0.01 0.02 0.04 0.06

GEFSSE_prec_meanprecacc_018.txt.gz
Total_Precipitation_Accumulation
0.02 0.05 0.09 0.10 0.07 0.05 0.03 0.03 0.02 0.02 0.03 0.03 0.02 0.02 0.02 0.04 0.06 0.07 0.08 0.08 0.08 0.06 0.05 0.05 0.05 0.04 0.03 0.02 0.02 0.04 0.04 0.03 0.03 0.03 0.04 0.04 0.03 0.02 0.02 0.06 0.09 0.07 0.03
0.04 0.06 0.08 0.09 0.07 0.05 0.04 0.03 0.02 0.01 0.02 0.02 0.01 0.01 0.01 0.02 0.04 0.05 0.06 0.08 0.09 0.08 0.06 0.07 0.07 0.06 0.05 0.07 0.09 0.08 0.06 0.05 0.04 0.04 0.05 0.04 0.02 0.01 0.01 0.04 0.08 0.08 0.01
0.03 0.04 0.05 0.07 0.06 0.05 0.04 0.03 0.02 0.01 0.02 0.02 0.01 0.01 0.01 0.01 0.03 0.05 0.06 0.06 0.07 0.08 0.09 0.09 0.10 0.12 0.10 0.11 0.14 0.11 0.10 0.08 0.05 0.03 0.03 0.08 0.10 0.02 0.00 0.01 0.02 0.01 0.00
0.01 0.03 0.03 0.05 0.06 0.05 0.04 0.04 0.03 0.02 0.02 0.02 0.02 0.01 0.02 0.02 0.01 0.01 0.03 0.05 0.09 0.12 0.16 0.14 0.14 0.17 0.14 0.12 0.14 0.13 0.14 0.12 0.06 0.02 0.01 0.06 0.18 0.10 0.03 0.01 0.00 0.00 0.00
0.01 0.01 0.02 0.04 0.05 0.05 0.05 0.04 0.04 0.03 0.03 0.04 0.03 0.03 0.03 0.03 0.03 0.02 0.01 0.03 0.10 0.15 0.18 0.20 0.19 0.19 0.18 0.17 0.16 0.16 0.18 0.17 0.08 0.02 0.00 0.02 0.14 0.18 0.08 0.02 0.00 0.00 0.00
0.00 0.01 0.02 0.05 0.06 0.06 0.06 0.05 0.04 0.03 0.04 0.04 0.04 0.04 0.05 0.06 0.04 0.03 0.03 0.03 0.04 0.10 0.16 0.20 0.22 0.25 0.25 0.19 0.17 0.21 0.25 0.23 0.08 0.01 0.01 0.02 0.12 0.22 0.14 0.05 0.02 0.01 0.00
0.00 0.02 0.04 0.06 0.05 0.05 0.05 0.05 0.05 0.05 0.04 0.04 0.05 0.05 0.06 0.07 0.07 0.06 0.06 0.05 0.04 0.05 0.09 0.14 0.18 0.23 0.26 0.23 0.22 0.26 0.33 0.23 0.06 0.06 0.04 0.03 0.10 0.34 0.39 0.20 0.07 0.02 0.00
0.00 0.02 0.04 0.04 0.03 0.04 0.05 0.06 0.06 0.07 0.07 0.06 0.07 0.06 0.06 0.06 0.07 0.09 0.09 0.08 0.07 0.06 0.07 0.10 0.14 0.20 0.24 0.26 0.26 0.30 0.34 0.19 0.06 0.09 0.09 0.08 0.18 0.48 0.53 0.45 0.25 0.07 0.01
0.00 0.00 0.01 0.01 0.01 0.02 0.04 0.06 0.06 0.06 0.06 0.06 0.06 0.05 0.04 0.05 0.08 0.11 0.10 0.08 0.08 0.08 0.08 0.07 0.07 0.09 0.15 0.24 0.27 0.25 0.24 0.15 0.08 0.15 0.14 0.18 0.20 0.49 0.55 0.57 0.41 0.19 0.05
0.00 0.00 0.00 0.00 0.00 0.00 0.02 0.05 0.05 0.05 0.04 0.04 0.04 0.04 0.05 0.05 0.06 0.08 0.08 0.07 0.07 0.08 0.08 0.07 0.06 0.06 0.07 0.10 0.13 0.13 0.11 0.08 0.08 0.16 0.27 0.23 0.20 0.49 0.56 0.56 0.42 0.28 0.16
0.00 0.00 0.00 0.00 0.00 0.00 0.01 0.04 0.05 0.05 0.04 0.03 0.03 0.03 0.04 0.03 0.02 0.03 0.03 0.05 0.06 0.06 0.06 0.07 0.08 0.07 0.06 0.03 0.03 0.04 0.03 0.02 0.06 0.17 0.22 0.22 0.30 0.54 0.52 0.50 0.43 0.32 0.26
0.00 0.00 0.00 0.00 0.00 0.00 0.01 0.03 0.04 0.05 0.04 0.04 0.05 0.06 0.06 0.05 0.04 0.04 0.04 0.06 0.07 0.07 0.07 0.09 0.10 0.08 0.06 0.04 0.06 0.09 0.02 0.00 0.01 0.04 0.07 0.11 0.30 0.54 0.54 0.44 0.42 0.36 0.33
0.00 0.00 0.00 0.00 0.00 0.00 0.00 0.02 0.02 0.02 0.04 0.07 0.08 0.10 0.10 0.08 0.10 0.11 0.11 0.11 0.09 0.08 0.11 0.13 0.14 0.15 0.17 0.17 0.18 0.16 0.09 0.05 0.02 0.01 0.02 0.05 0.11 0.22 0.40 0.46 0.45 0.41 0.39
0.00 0.00 0.00 0.00 0.00 0.00 0.00 0.01 0.01 0.02 0.03 0.04 0.06 0.07 0.07 0.07 0.10 0.13 0.13 0.12 0.09 0.10 0.12 0.15 0.15 0.15 0.15 0.14 0.16 0.14 0.12 0.10 0.07 0.05 0.02 0.02 0.03 0.04 0.14 0.29 0.38 0.40 0.39
0.00 0.00 0.00 0.00 0.00 0.00 0.00 0.00 0.00 0.01 0.01 0.02 0.03 0.03 0.03 0.05 0.04 0.04 0.03 0.03 0.04 0.06 0.06 0.05 0.05 0.06 0.08 0.09 0.10 0.11 0.13 0.13 0.12 0.09 0.06 0.03 0.01 0.01 0.04 0.12 0.24 0.34 0.38
0.00 0.00 0.00 0.00 0.00 0.00 0.00 0.00 0.00 0.00 0.00 0.00 0.00 0.00 0.01 0.02 0.01 0.01 0.01 0.02 0.02 0.02 0.02 0.01 0.01 0.01 0.01 0.03 0.04 0.06 0.09 0.09 0.10 0.10 0.09 0.07 0.03 0.01 0.03 0.07 0.13 0.27 0.35
0.00 0.00 0.00 0.00 0.00 0.00 0.00 0.00 0.00 0.00 0.00 0.00 0.00 0.00 0.00 0.00 0.00 0.00 0.01 0.01 0.01 0.01 0.01 0.00 0.00 0.00 0.00 0.00 0.01 0.01 0.02 0.04 0.06 0.06 0.07 0.09 0.07 0.03 0.02 0.05 0.06 0.15 0.27
0.00 0.00 0.00 0.00 0.00 0.00 0.00 0.00 0.00 0.00 0.00 0.00 0.00 0.00 0.00 0.00 0.00 0.00 0.00 0.00 0.00 0.00 0.00 0.00 0.00 0.00 0.00 0.00 0.00 0.00 0.00 0.01 0.02 0.02 0.03 0.05 0.09 0.07 0.04 0.04 0.06 0.08 0.19
0.00 0.00 0.00 0.00 0.00 0.00 0.00 0.00 0.00 0.00 0.00 0.00 0.00 0.00 0.00 0.00 0.00 0.00 0.00 0.00 0.00 0.00 0.00 0.00 0.00 0.00 0.00 0.00 0.00 0.00 0.00 0.00 0.01 0.02 0.02 0.03 0.03 0.05 0.06 0.05 0.06 0.07 0.13
0.00 0.00 0.00 0.00 0.00 0.00 0.00 0.00 0.00 0.00 0.00 0.00 0.00 0.00 0.00 0.00 0.00 0.00 0.00 0.00 0.00 0.00 0.00 0.00 0.00 0.00 0.00 0.00 0.00 0.00 0.00 0.00 0.00 0.01 0.02 0.03 0.03 0.03 0.03 0.05 0.06 0.05 0.06
0.00 0.00 0.00 0.00 0.00 0.00 0.00 0.00 0.00 0.00 0.00 0.00 0.00 0.00 0.00 0.00 0.00 0.00 0.00 0.00 0.00 0.00 0.00 0.00 0.00 0.00 0.01 0.01 0.01 0.00 0.00 0.00 0.00 0.00 0.00 0.01 0.02 0.02 0.03 0.04 0.06 0.05 0.04
0.00 0.00 0.00 0.00 0.00 0.00 0.00 0.00 0.00 0.00 0.00 0.00 0.00 0.00 0.00 0.00 0.00 0.00 0.00 0.00 0.00 0.00 0.00 0.00 0.01 0.01 0.01 0.02 0.03 0.02 0.01 0.00 0.00 0.00 0.00 0.00 0.00 0.01 0.03 0.04 0.04 0.05 0.06
0.00 0.00 0.00 0.00 0.00 0.00 0.00 0.00 0.00 0.00 0.00 0.00 0.00 0.00 0.00 0.00 0.00 0.00 0.00 0.00 0.00 0.00 0.01 0.01 0.02 0.02 0.03 0.02 0.04 0.06 0.04 0.01 0.00 0.00 0.00 0.00 0.00 0.00 0.01 0.03 0.06 0.06 0.08
0.00 0.00 0.00 0.00 0.00 0.00 0.00 0.00 0.00 0.00 0.00 0.00 0.00 0.00 0.00 0.00 0.00 0.00 0.00 0.00 0.00 0.00 0.01 0.02 0.03 0.03 0.04 0.04 0.04 0.05 0.05 0.04 0.04 0.01 0.00 0.01 0.01 0.01 0.01 0.01 0.04 0.06 0.08
0.00 0.00 0.00 0.00 0.00 0.00 0.00 0.00 0.00 0.00 0.00 0.00 0.00 0.00 0.00 0.00 0.00 0.00 0.00 0.00 0.00 0.00 0.02 0.03 0.04 0.05 0.07 0.07 0.06 0.06 0.05 0.04 0.04 0.04 0.02 0.01 0.02 0.03 0.02 0.02 0.03 0.05 0.07
0.00 0.00 0.00 0.00 0.00 0.00 0.00 0.00 0.00 0.00 0.00 0.00 0.00 0.00 0.00 0.00 0.00 0.00 0.00 0.00 0.00 0.00 0.01 0.03 0.05 0.06 0.08 0.08 0.08 0.07 0.06 0.05 0.04 0.06 0.05 0.03 0.02 0.02 0.03 0.03 0.03 0.05 0.08

GEFSSE_prec_meanprecacc_024.txt.gz
Total_Precipitation_Accumulation
0.02 0.05 0.10 0.13 0.11 0.08 0.06 0.05 0.04 0.03 0.05 0.05 0.05 0.06 0.08 0.10 0.11 0.12 0.12 0.11 0.10 0.07 0.06 0.06 0.05 0.04 0.03 0.03 0.03 0.05 0.05 0.04 0.03 0.04 0.05 0.05 0.04 0.02 0.02 0.06 0.10 0.09 0.03
0.04 0.06 0.08 0.09 0.08 0.06 0.04 0.03 0.03 0.02 0.03 0.03 0.03 0.03 0.04 0.06 0.09 0.11 0.12 0.13 0.13 0.12 0.08 0.08 0.07 0.06 0.05 0.07 0.10 0.08 0.07 0.05 0.04 0.05 0.05 0.04 0.03 0.01 0.02 0.05 0.08 0.10 0.02
0.03 0.04 0.05 0.07 0.06 0.05 0.04 0.03 0.02 0.02 0.02 0.02 0.02 0.02 0.02 0.04 0.06 0.09 0.11 0.11 0.12 0.12 0.12 0.11 0.12 0.13 0.10 0.12 0.14 0.11 0.10 0.08 0.05 0.04 0.03 0.08 0.11 0.04 0.02 0.02 0.03 0.04 0.01
0.01 0.03 0.03 0.05 0.06 0.05 0.04 0.04 0.03 0.02 0.02 0.02 0.02 0.01 0.02 0.03 0.03 0.04 0.07 0.09 0.13 0.16 0.20 0.18 0.17 0.19 0.16 0.13 0.15 0.14 0.15 0.12 0.06 0.03 0.01 0.06 0.19 0.14 0.09 0.05 0.03 0.04 0.02
0.01 0.01 0.02 0.04 0.05 0.05 0.05 0.04 0.04 0.03 0.03 0.04 0.03 0.03 0.03 0.03 0.03 0.03 0.03 0.05 0.12 0.18 0.21 0.23 0.22 0.22 0.21 0.19 0.17 0.17 0.19 0.17 0.09 0.03 0.00 0.02 0.15 0.22 0.15 0.09 0.04 0.05 0.04
0.00 0.01 0.02 0.05 0.06 0.06 0.06 0.05 0.04 0.03 0.04 0.04 0.04 0.04 0.05 0.06 0.04 0.04 0.03 0.03 0.05 0.12 0.18 0.22 0.25 0.28 0.29 0.22 0.20 0.23 0.28 0.26 0.10 0.01 0.01 0.02 0.12 0.24 0.20 0.14 0.07 0.04 0.04
0.00 0.02 0.04 0.06 0.05 0.05 0.05 0.05 0.05 0.05 0.04 0.04 0.05 0.05 0.06 0.07 0.07 0.06 0.06 0.05 0.04 0.05 0.10 0.16 0.20 0.26 0.30 0.26 0.26 0.29 0.37 0.29 0.09 0.06 0.04 0.03 0.11 0.36 0.44 0.29 0.14 0.05 0.04
0.00 0.02 0.04 0.04 0.03 0.04 0.05 0.06 0.06 0.07 0.07 0.06 0.07 0.06 0.06 0.06 0.07 0.09 0.09 0.08 0.07 0.06 0.08 0.10 0.15 0.22 0.27 0.29 0.30 0.35 0.39 0.23 0.09 0.09 0.10 0.08 0.19 0.52 0.59 0.56 0.35 0.12 0.04
0.00 0.00 0.01 0.01 0.01 0.02 0.04 0.06 0.06 0.06 0.06 0.06 0.06 0.05 0.04 0.05 0.08 0.11 0.10 0.08 0.08 0.08 0.08 0.07 0.07 0.10 0.17 0.27 0.31 0.30 0.28 0.19 0.10 0.16 0.14 0.19 0.22 0.55 0.64 0.69 0.53 0.29 0.11
0.00 0.00 0.00 0.00 0.00 0.00 0.02 0.05 0.05 0.05 0.04 0.04 0.04 0.04 0.05 0.05 0.06 0.08 0.08 0.07 0.07 0.08 0.08 0.07 0.06 0.06 0.08 0.11 0.15 0.16 0.13 0.10 0.09 0.16 0.28 0.25 0.24 0.60 0.69 0.70 0.56 0.41 0.28
0.00 0.00 0.00 0.00 0.00 0.00 0.01 0.04 0.05 0.05 0.04 0.03 0.03 0.03 0.04 0.03 0.02 0.03 0.03 0.05 0.06 0.06 0.06 0.07 0.08 0.07 0.06 0.04 0.04 0.05 0.04 0.02 0.06 0.17 0.23 0.24 0.37 0.71 0.75 0.69 0.61 0.48 0.40
0.00 0.00 0.00 0.00 0.00 0.00 0.01 0.03 0.04 0.05 0.04 0.04 0.05 0.06 0.06 0.05 0.04 0.04 0.04 0.06 0.07 0.07 0.07 0.09 0.10 0.08 0.06 0.04 0.07 0.09 0.03 0.01 0.02 0.05 0.07 0.12 0.40 0.76 0.84 0.74 0.71 0.63 0.53
0.00 0.00 0.00 0.00 0.00 0.00 0.00 0.02 0.02 0.02 0.04 0.07 0.08 0.10 0.10 0.08 0.10 0.11 0.11 0.11 0.09 0.08 0.11 0.13 0.14 0.15 0.17 0.17 0.18 0.16 0.09 0.06 0.04 0.02 0.02 0.07 0.19 0.40 0.64 0.74 0.77 0.74 0.67
0.00 0.00 0.00 0.00 0.00 0.00 0.00 0.01 0.01 0.02 0.03 0.04 0.06 0.07 0.07 0.07 0.10 0.13 0.13 0.12 0.09 0.10 0.12 0.15 0.15 0.15 0.15 0.14 0.16 0.14 0.12 0.11 0.08 0.07 0.04 0.05 0.09 0.13 0.29 0.49 0.61 0.67 0.69
0.00 0.00 0.00 0.00 0.00 0.00 0.00 0.00 0.00 0.01 0.01 0.02 0.03 0.03 0.03 0.05 0.04 0.04 0.03 0.03 0.04 0.06 0.06 0.05 0.05 0.06 0.08 0.09 0.10 0.11 0.13 0.13 0.14 0.12 0.10 0.09 0.07 0.08 0.13 0.25 0.40 0.53 0.60
0.00 0.00 0.00 0.00 0.00 0.00 0.00 0.00 0.00 0.00 0.00 0.00 0.00 0.00 0.01 0.02 0.01 0.01 0.01 0.02 0.02 0.02 0.02 0.01 0.01 0.01 0.01 0.03 0.04 0.06 0.09 0.10 0.11 0.13 0.13 0.14 0.12 0.10 0.11 0.16 0.25 0.42 0.51
0.00 0.00 0.00 0.00 0.00 0.00 0.00 0.00 0.00 0.00 0.00 0.00 0.00 0.00 0.00 0.00 0.00 0.00 0.01 0.01 0.01 0.01 0.01 0.00 0.00 0.00 0.00 0.00 0.01 0.01 0.02 0.05 0.07 0.08 0.11 0.15 0.17 0.15 0.13 0.15 0.16 0.28 0.41
0.00 0.00 0.00 0.00 0.00 0.00 0.00 0.00 0.00 0.00 0.00 0.00 0.00 0.00 0.00 0.00 0.00 0.00 0.00 0.00 0.00 0.00 0.00 0.00 0.00 0.00 0.00 0.00 0.00 0.00 0.00 0.01 0.02 0.03 0.05 0.10 0.18 0.21 0.19 0.17 0.17 0.18 0.30
0.00 0.00 0.00 0.00 0.00 0.00 0.00 0.00 0.00 0.00 0.00 0.00 0.00 0.00 0.00 0.00 0.00 0.00 0.00 0.00 0.00 0.00 0.00 0.00 0.00 0.00 0.00 0.00 0.00 0.00 0.00 0.00 0.01 0.02 0.03 0.05 0.09 0.17 0.23 0.22 0.21 0.17 0.21
0.00 0.00 0.00 0.00 0.00 0.00 0.00 0.00 0.00 0.00 0.00 0.00 0.00 0.00 0.00 0.00 0.00 0.00 0.00 0.00 0.00 0.00 0.00 0.00 0.00 0.00 0.00 0.00 0.00 0.00 0.00 0.00 0.00 0.01 0.02 0.04 0.05 0.09 0.17 0.24 0.24 0.18 0.13
0.00 0.00 0.00 0.00 0.00 0.00 0.00 0.00 0.00 0.00 0.00 0.00 0.00 0.00 0.00 0.00 0.00 0.00 0.00 0.00 0.00 0.00 0.00 0.00 0.00 0.01 0.01 0.01 0.01 0.00 0.00 0.00 0.00 0.00 0.00 0.01 0.03 0.05 0.08 0.18 0.25 0.22 0.15
0.00 0.00 0.00 0.00 0.00 0.00 0.00 0.00 0.00 0.00 0.00 0.00 0.00 0.00 0.00 0.00 0.00 0.00 0.00 0.00 0.00 0.00 0.00 0.01 0.01 0.02 0.02 0.02 0.04 0.04 0.01 0.00 0.00 0.00 0.00 0.00 0.01 0.02 0.05 0.09 0.17 0.21 0.19
0.00 0.00 0.00 0.00 0.00 0.00 0.00 0.00 0.00 0.00 0.00 0.00 0.00 0.00 0.00 0.00 0.00 0.00 0.00 0.00 0.00 0.00 0.01 0.01 0.02 0.04 0.05 0.03 0.05 0.11 0.09 0.03 0.01 0.00 0.00 0.00 0.00 0.01 0.02 0.05 0.11 0.17 0.21
0.00 0.00 0.00 0.00 0.00 0.00 0.00 0.00 0.00 0.00 0.00 0.00 0.00 0.00 0.00 0.00 0.00 0.00 0.00 0.00 0.00 0.00 0.01 0.03 0.03 0.05 0.08 0.08 0.06 0.08 0.09 0.08 0.07 0.03 0.00 0.01 0.01 0.01 0.01 0.02 0.06 0.11 0.17
0.00 0.00 0.00 0.00 0.00 0.00 0.00 0.00 0.00 0.00 0.00 0.00 0.00 0.00 0.00 0.00 0.00 0.00 0.00 0.00 0.00 0.00 0.02 0.03 0.05 0.06 0.10 0.12 0.11 0.10 0.08 0.06 0.06 0.07 0.03 0.01 0.02 0.03 0.03 0.03 0.04 0.07 0.11
0.00 0.00 0.00 0.00 0.00 0.00 0.00 0.00 0.00 0.00 0.00 0.00 0.00 0.00 0.00 0.00 0.00 0.00 0.00 0.00 0.00 0.00 0.01 0.03 0.06 0.08 0.10 0.12 0.13 0.13 0.12 0.11 0.08 0.09 0.07 0.03 0.02 0.02 0.03 0.03 0.04 0.06 0.10

GEFSSE_prec_meanprecacc_030.txt.gz
Total_Precipitation_Accumulation
0.02 0.05 0.10 0.13 0.11 0.09 0.06 0.05 0.04 0.04 0.05 0.05 0.05 0.06 0.08 0.11 0.13 0.14 0.14 0.14 0.12 0.10 0.09 0.09 0.08 0.07 0.05 0.05 0.05 0.08 0.07 0.06 0.06 0.06 0.07 0.06 0.06 0.04 0.03 0.06 0.10 0.09 0.03
0.04 0.06 0.08 0.09 0.08 0.06 0.05 0.04 0.03 0.02 0.03 0.03 0.03 0.03 0.04 0.07 0.10 0.12 0.13 0.14 0.14 0.13 0.11 0.11 0.10 0.09 0.08 0.09 0.11 0.10 0.08 0.07 0.06 0.08 0.08 0.06 0.04 0.04 0.04 0.06 0.09 0.11 0.04
0.03 0.04 0.05 0.07 0.06 0.05 0.05 0.03 0.02 0.02 0.02 0.02 0.02 0.02 0.02 0.04 0.06 0.09 0.11 0.11 0.12 0.13 0.14 0.13 0.14 0.15 0.12 0.13 0.16 0.13 0.12 0.10 0.06 0.06 0.06 0.09 0.11 0.05 0.05 0.06 0.05 0.09 0.07
0.01 0.03 0.03 0.05 0.06 0.05 0.05 0.04 0.03 0.03 0.02 0.02 0.02 0.02 0.02 0.03 0.04 0.04 0.07 0.09 0.13 0.16 0.20 0.18 0.18 0.20 0.17 0.15 0.16 0.15 0.16 0.14 0.09 0.06 0.02 0.07 0.19 0.14 0.12 0.11 0.06 0.09 0.10
0.01 0.01 0.02 0.04 0.05 0.05 0.05 0.04 0.04 0.04 0.04 0.04 0.03 0.03 0.03 0.04 0.04 0.03 0.03 0.05 0.12 0.18 0.21 0.23 0.22 0.22 0.22 0.20 0.18 0.19 0.21 0.19 0.12 0.05 0.01 0.02 0.15 0.22 0.17 0.16 0.11 0.10 0.11
0.00 0.01 0.02 0.05 0.06 0.06 0.06 0.05 0.04 0.04 0.04 0.04 0.04 0.05 0.06 0.06 0.05 0.04 0.03 0.03 0.06 0.12 0.18 0.22 0.25 0.29 0.29 0.23 0.21 0.25 0.29 0.28 0.12 0.02 0.01 0.02 0.12 0.24 0.21 0.18 0.15 0.11 0.10
0.00 0.02 0.04 0.06 0.05 0.05 0.05 0.05 0.05 0.05 0.05 0.04 0.05 0.06 0.07 0.07 0.07 0.06 0.06 0.05 0.04 0.05 0.10 0.16 0.21 0.27 0.30 0.27 0.26 0.30 0.39 0.30 0.10 0.07 0.04 0.03 0.11 0.36 0.46 0.33 0.21 0.13 0.10
0.00 0.02 0.04 0.04 0.03 0.04 0.05 0.06 0.06 0.07 0.07 0.06 0.07 0.07 0.06 0.06 0.07 0.09 0.09 0.08 0.07 0.07 0.08 0.11 0.15 0.22 0.28 0.30 0.30 0.35 0.39 0.24 0.09 0.10 0.10 0.08 0.19 0.53 0.62 0.61 0.44 0.23 0.14
0.00 0.00 0.01 0.01 0.01 0.02 0.04 0.06 0.06 0.06 0.06 0.06 0.06 0.05 0.04 0.05 0.08 0.11 0.10 0.08 0.08 0.09 0.08 0.08 0.07 0.10 0.17 0.27 0.31 0.30 0.28 0.19 0.10 0.16 0.14 0.19 0.22 0.58 0.69 0.77 0.64 0.41 0.23
0.00 0.00 0.00 0.00 0.00 0.00 0.02 0.05 0.05 0.05 0.04 0.04 0.04 0.04 0.05 0.05 0.06 0.08 0.08 0.07 0.07 0.08 0.08 0.07 0.07 0.06 0.08 0.11 0.15 0.16 0.13 0.10 0.09 0.16 0.28 0.25 0.25 0.63 0.77 0.80 0.68 0.55 0.41
0.00 0.00 0.00 0.00 0.00 0.00 0.01 0.04 0.05 0.05 0.04 0.03 0.03 0.03 0.04 0.03 0.02 0.03 0.03 0.05 0.06 0.06 0.06 0.07 0.08 0.07 0.06 0.04 0.04 0.05 0.04 0.02 0.06 0.17 0.23 0.24 0.38 0.74 0.83 0.81 0.74 0.64 0.57
0.00 0.00 0.00 0.00 0.00 0.00 0.01 0.03 0.04 0.05 0.04 0.04 0.05 0.06 0.06 0.05 0.04 0.04 0.04 0.06 0.07 0.07 0.07 0.09 0.10 0.08 0.06 0.04 0.07 0.09 0.03 0.01 0.02 0.05 0.07 0.12 0.40 0.78 0.89 0.84 0.83 0.79 0.72
0.00 0.00 0.00 0.00 0.00 0.00 0.00 0.02 0.02 0.02 0.04 0.07 0.08 0.10 0.10 0.08 0.10 0.11 0.11 0.11 0.09 0.08 0.11 0.13 0.14 0.15 0.17 0.17 0.18 0.16 0.09 0.06 0.04 0.02 0.02 0.07 0.20 0.41 0.67 0.80 0.87 0.88 0.86
0.00 0.00 0.00 0.00 0.00 0.00 0.00 0.01 0.01 0.02 0.03 0.04 0.06 0.07 0.07 0.07 0.10 0.13 0.13 0.12 0.09 0.10 0.12 0.15 0.15 0.15 0.15 0.14 0.16 0.14 0.12 0.11 0.08 0.07 0.04 0.05 0.09 0.13 0.30 0.51 0.67 0.78 0.86
0.00 0.00 0.00 0.00 0.00 0.00 0.00 0.00 0.00 0.01 0.01 0.02 0.03 0.03 0.03 0.05 0.04 0.04 0.03 0.03 0.04 0.06 0.06 0.05 0.05 0.06 0.08 0.09 0.10 0.11 0.13 0.13 0.14 0.12 0.10 0.09 0.08 0.08 0.13 0.25 0.44 0.62 0.76
0.00 0.00 0.00 0.00 0.00 0.00 0.00 0.00 0.00 0.00 0.00 0.00 0.00 0.00 0.01 0.02 0.01 0.01 0.01 0.02 0.02 0.02 0.02 0.01 0.01 0.01 0.01 0.03 0.04 0.06 0.09 0.10 0.11 0.13 0.13 0.14 0.12 0.10 0.11 0.16 0.27 0.50 0.69
0.00 0.00 0.00 0.00 0.00 0.00 0.00 0.00 0.00 0.00 0.00 0.00 0.00 0.00 0.00 0.00 0.00 0.00 0.01 0.01 0.01 0.01 0.01 0.00 0.00 0.00 0.00 0.00 0.01 0.01 0.02 0.05 0.07 0.08 0.11 0.15 0.17 0.15 0.14 0.15 0.17 0.31 0.55
0.00 0.00 0.00 0.00 0.00 0.00 0.00 0.00 0.00 0.00 0.00 0.00 0.00 0.00 0.00 0.00 0.00 0.00 0.00 0.00 0.00 0.00 0.00 0.00 0.00 0.00 0.00 0.00 0.00 0.00 0.00 0.01 0.02 0.03 0.05 0.10 0.18 0.21 0.19 0.18 0.18 0.19 0.36
0.00 0.00 0.00 0.00 0.00 0.00 0.00 0.00 0.00 0.00 0.00 0.00 0.00 0.00 0.00 0.00 0.00 0.00 0.00 0.00 0.00 0.00 0.00 0.00 0.00 0.00 0.00 0.00 0.00 0.00 0.00 0.00 0.01 0.02 0.03 0.05 0.09 0.17 0.23 0.23 0.22 0.18 0.23
0.00 0.00 0.00 0.00 0.00 0.00 0.00 0.00 0.00 0.00 0.00 0.00 0.00 0.00 0.00 0.00 0.00 0.00 0.00 0.00 0.00 0.00 0.00 0.00 0.00 0.00 0.00 0.00 0.00 0.00 0.00 0.00 0.00 0.01 0.02 0.04 0.05 0.09 0.17 0.24 0.26 0.20 0.16
0.00 0.00 0.00 0.00 0.00 0.00 0.00 0.00 0.00 0.00 0.00 0.00 0.00 0.00 0.00 0.00 0.00 0.00 0.00 0.00 0.00 0.00 0.00 0.00 0.00 0.01 0.01 0.01 0.02 0.00 0.00 0.00 0.00 0.00 0.00 0.01 0.03 0.05 0.09 0.18 0.26 0.24 0.19
0.00 0.00 0.00 0.00 0.00 0.00 0.00 0.00 0.00 0.00 0.00 0.00 0.00 0.00 0.00 0.00 0.00 0.00 0.00 0.00 0.00 0.00 0.00 0.01 0.01 0.02 0.02 0.02 0.05 0.07 0.02 0.00 0.00 0.00 0.00 0.00 0.01 0.02 0.05 0.10 0.19 0.24 0.24
0.00 0.00 0.00 0.00 0.00 0.00 0.00 0.00 0.00 0.00 0.00 0.00 0.00 0.00 0.00 0.00 0.00 0.00 0.00 0.00 0.00 0.00 0.01 0.01 0.02 0.04 0.06 0.04 0.06 0.17 0.17 0.07 0.02 0.00 0.00 0.00 0.00 0.01 0.02 0.06 0.12 0.20 0.26
0.00 0.00 0.00 0.00 0.00 0.00 0.00 0.00 0.00 0.00 0.00 0.00 0.00 0.00 0.00 0.00 0.00 0.00 0.00 0.00 0.00 0.00 0.01 0.03 0.03 0.05 0.09 0.09 0.07 0.10 0.15 0.16 0.14 0.05 0.01 0.01 0.01 0.01 0.01 0.02 0.06 0.12 0.20
0.00 0.00 0.00 0.00 0.00 0.00 0.00 0.00 0.00 0.00 0.00 0.00 0.00 0.00 0.00 0.00 0.00 0.00 0.00 0.00 0.00 0.00 0.02 0.03 0.05 0.07 0.11 0.14 0.13 0.12 0.11 0.09 0.10 0.13 0.05 0.01 0.02 0.03 0.03 0.03 0.04 0.08 0.14
0.00 0.00 0.00 0.00 0.00 0.00 0.00 0.00 0.00 0.00 0.00 0.00 0.00 0.00 0.00 0.00 0.00 0.00 0.00 0.00 0.00 0.00 0.01 0.03 0.06 0.08 0.11 0.13 0.15 0.16 0.17 0.17 0.12 0.14 0.10 0.04 0.02 0.02 0.03 0.03 0.04 0.07 0.12

GEFSSE_prec_meanprecacc_036.txt.gz
Total_Precipitation_Accumulation
0.02 0.05 0.11 0.14 0.12 0.09 0.07 0.06 0.04 0.04 0.06 0.06 0.06 0.07 0.09 0.11 0.13 0.14 0.14 0.14 0.13 0.10 0.09 0.10 0.09 0.08 0.06 0.06 0.07 0.09 0.08 0.08 0.08 0.09 0.09 0.08 0.07 0.06 0.07 0.10 0.11 0.10 0.04
0.04 0.06 0.08 0.10 0.08 0.07 0.05 0.04 0.03 0.03 0.04 0.04 0.03 0.04 0.05 0.08 0.11 0.12 0.14 0.15 0.15 0.14 0.11 0.11 0.11 0.10 0.08 0.10 0.12 0.11 0.09 0.08 0.07 0.09 0.10 0.07 0.05 0.05 0.07 0.10 0.11 0.14 0.07
0.03 0.04 0.05 0.07 0.07 0.06 0.05 0.04 0.03 0.02 0.03 0.03 0.02 0.03 0.03 0.05 0.07 0.10 0.11 0.12 0.13 0.14 0.14 0.14 0.14 0.16 0.13 0.14 0.16 0.13 0.13 0.11 0.08 0.07 0.07 0.10 0.12 0.06 0.06 0.09 0.08 0.12 0.13
0.01 0.03 0.03 0.05 0.06 0.05 0.05 0.04 0.04 0.03 0.03 0.03 0.03 0.02 0.03 0.04 0.04 0.05 0.07 0.09 0.13 0.16 0.21 0.19 0.18 0.21 0.18 0.15 0.16 0.16 0.17 0.15 0.09 0.06 0.02 0.07 0.20 0.15 0.13 0.14 0.11 0.15 0.17
0.01 0.01 0.02 0.04 0.05 0.05 0.05 0.05 0.04 0.04 0.04 0.04 0.04 0.04 0.04 0.04 0.04 0.04 0.04 0.05 0.13 0.18 0.22 0.24 0.23 0.23 0.23 0.21 0.19 0.19 0.22 0.20 0.12 0.05 0.01 0.03 0.15 0.23 0.19 0.19 0.17 0.17 0.18
0.00 0.01 0.02 0.05 0.06 0.06 0.06 0.05 0.04 0.04 0.04 0.04 0.05 0.05 0.06 0.07 0.05 0.04 0.04 0.04 0.06 0.12 0.18 0.23 0.26 0.29 0.30 0.23 0.21 0.25 0.30 0.28 0.12 0.02 0.01 0.02 0.12 0.25 0.23 0.20 0.19 0.17 0.17
0.00 0.02 0.04 0.06 0.05 0.05 0.05 0.05 0.05 0.05 0.05 0.05 0.05 0.06 0.07 0.07 0.07 0.07 0.06 0.06 0.05 0.06 0.11 0.17 0.21 0.27 0.31 0.27 0.26 0.30 0.39 0.30 0.10 0.07 0.04 0.03 0.11 0.37 0.47 0.36 0.25 0.19 0.18
0.00 0.02 0.04 0.04 0.03 0.04 0.05 0.06 0.06 0.07 0.07 0.06 0.07 0.07 0.06 0.06 0.07 0.09 0.09 0.08 0.07 0.07 0.08 0.11 0.16 0.22 0.28 0.30 0.30 0.35 0.39 0.24 0.09 0.10 0.10 0.08 0.19 0.53 0.64 0.64 0.48 0.29 0.21
0.00 0.00 0.01 0.01 0.01 0.02 0.04 0.06 0.06 0.06 0.06 0.06 0.06 0.05 0.04 0.05 0.08 0.11 0.10 0.08 0.08 0.09 0.09 0.08 0.08 0.10 0.18 0.27 0.31 0.30 0.28 0.19 0.10 0.16 0.14 0.19 0.22 0.58 0.71 0.79 0.67 0.46 0.30
0.00 0.00 0.00 0.00 0.00 0.00 0.02 0.05 0.05 0.05 0.04 0.04 0.04 0.04 0.05 0.05 0.06 0.08 0.08 0.07 0.07 0.08 0.08 0.07 0.07 0.06 0.08 0.11 0.15 0.16 0.13 0.10 0.09 0.16 0.28 0.25 0.25 0.63 0.78 0.81 0.71 0.59 0.47
0.00 0.00 0.00 0.00 0.00 0.00 0.01 0.04 0.05 0.05 0.04 0.03 0.03 0.03 0.04 0.03 0.02 0.03 0.03 0.05 0.06 0.06 0.06 0.07 0.08 0.07 0.06 0.04 0.04 0.05 0.04 0.02 0.06 0.17 0.23 0.24 0.38 0.74 0.83 0.81 0.76 0.66 0.61
0.00 0.00 0.00 0.00 0.00 0.00 0.01 0.03 0.04 0.05 0.04 0.04 0.05 0.06 0.06 0.05 0.04 0.04 0.04 0.06 0.07 0.07 0.07 0.09 0.10 0.08 0.06 0.04 0.07 0.09 0.03 0.01 0.02 0.05 0.07 0.12 0.40 0.78 0.89 0.84 0.84 0.80 0.75
0.00 0.00 0.00 0.00 0.00 0.00 0.00 0.02 0.02 0.02 0.04 0.07 0.08 0.10 0.10 0.08 0.10 0.11 0.11 0.11 0.09 0.08 0.11 0.13 0.14 0.15 0.17 0.17 0.18 0.16 0.09 0.06 0.04 0.02 0.02 0.07 0.20 0.41 0.67 0.80 0.87 0.89 0.87
0.00 0.00 0.00 0.00 0.00 0.00 0.00 0.01 0.01 0.02 0.03 0.04 0.06 0.07 0.07 0.07 0.10 0.13 0.13 0.12 0.09 0.10 0.12 0.15 0.15 0.15 0.15 0.14 0.16 0.14 0.12 0.11 0.08 0.07 0.04 0.05 0.09 0.13 0.30 0.51 0.67 0.79 0.86
0.00 0.00 0.00 0.00 0.00 0.00 0.00 0.00 0.00 0.01 0.01 0.02 0.03 0.03 0.03 0.05 0.04 0.04 0.03 0.03 0.04 0.06 0.06 0.05 0.05 0.06 0.08 0.09 0.10 0.11 0.13 0.13 0.14 0.12 0.10 0.09 0.08 0.08 0.13 0.25 0.44 0.62 0.76
0.00 0.00 0.00 0.00 0.00 0.00 0.00 0.00 0.00 0.00 0.00 0.00 0.00 0.00 0.01 0.02 0.01 0.01 0.01 0.02 0.02 0.02 0.02 0.01 0.01 0.01 0.01 0.03 0.04 0.06 0.09 0.10 0.11 0.13 0.13 0.14 0.12 0.10 0.11 0.16 0.27 0.50 0.69
0.00 0.00 0.00 0.00 0.00 0.00 0.00 0.00 0.00 0.00 0.00 0.00 0.00 0.00 0.00 0.00 0.00 0.00 0.01 0.01 0.01 0.01 0.01 0.00 0.00 0.00 0.00 0.00 0.01 0.01 0.02 0.05 0.07 0.08 0.11 0.15 0.17 0.15 0.14 0.15 0.17 0.31 0.55
0.00 0.00 0.00 0.00 0.00 0.00 0.00 0.00 0.00 0.00 0.00 0.00 0.00 0.00 0.00 0.00 0.00 0.00 0.00 0.00 0.00 0.00 0.00 0.00 0.00 0.00 0.00 0.00 0.00 0.00 0.00 0.01 0.02 0.03 0.05 0.10 0.18 0.21 0.19 0.18 0.18 0.19 0.36
0.00 0.00 0.00 0.00 0.00 0.00 0.00 0.00 0.00 0.00 0.00 0.00 0.00 0.00 0.00 0.00 0.00 0.00 0.00 0.00 0.00 0.00 0.00 0.00 0.00 0.00 0.00 0.00 0.00 0.00 0.00 0.00 0.01 0.02 0.03 0.05 0.09 0.17 0.23 0.23 0.22 0.18 0.23
0.00 0.00 0.00 0.00 0.00 0.00 0.00 0.00 0.00 0.00 0.00 0.00 0.00 0.00 0.00 0.00 0.00 0.00 0.00 0.00 0.00 0.00 0.00 0.00 0.00 0.00 0.00 0.00 0.00 0.00 0.00 0.00 0.00 0.01 0.02 0.04 0.05 0.09 0.17 0.24 0.26 0.20 0.16
0.00 0.00 0.00 0.00 0.00 0.00 0.00 0.00 0.00 0.00 0.00 0.00 0.00 0.00 0.00 0.00 0.00 0.00 0.00 0.00 0.00 0.00 0.00 0.00 0.00 0.01 0.01 0.01 0.02 0.00 0.00 0.00 0.00 0.00 0.00 0.01 0.03 0.05 0.09 0.18 0.26 0.24 0.19
0.00 0.00 0.00 0.00 0.00 0.00 0.00 0.00 0.00 0.00 0.00 0.00 0.00 0.00 0.00 0.00 0.00 0.00 0.00 0.00 0.00 0.00 0.00 0.01 0.01 0.02 0.02 0.03 0.05 0.07 0.02 0.00 0.00 0.00 0.00 0.00 0.01 0.02 0.05 0.10 0.19 0.24 0.24
0.00 0.00 0.00 0.00 0.00 0.00 0.00 0.00 0.00 0.00 0.00 0.00 0.00 0.00 0.00 0.00 0.00 0.00 0.00 0.00 0.00 0.00 0.01 0.01 0.02 0.04 0.06 0.04 0.07 0.18 0.19 0.09 0.02 0.00 0.00 0.00 0.00 0.01 0.02 0.06 0.12 0.20 0.26
0.00 0.00 0.00 0.00 0.00 0.00 0.00 0.00 0.00 0.00 0.00 0.00 0.00 0.00 0.00 0.00 0.00 0.00 0.00 0.00 0.00 0.00 0.01 0.03 0.04 0.05 0.10 0.10 0.08 0.10 0.17 0.19 0.18 0.07 0.01 0.01 0.01 0.01 0.01 0.02 0.06 0.12 0.20
0.00 0.00 0.00 0.00 0.00 0.00 0.00 0.00 0.00 0.00 0.00 0.00 0.00 0.00 0.00 0.00 0.00 0.00 0.00 0.00 0.00 0.00 0.02 0.03 0.05 0.07 0.12 0.16 0.15 0.13 0.11 0.10 0.13 0.17 0.07 0.02 0.02 0.03 0.03 0.03 0.04 0.08 0.14
0.00 0.00 0.00 0.00 0.00 0.00 0.00 0.00 0.00 0.00 0.00 0.00 0.00 0.00 0.00 0.00 0.00 0.00 0.00 0.00 0.00 0.01 0.02 0.04 0.07 0.10 0.12 0.15 0.17 0.18 0.19 0.19 0.14 0.17 0.13 0.04 0.02 0.02 0.03 0.03 0.04 0.07 0.12

GEFSSE_prec_meanprecacc_042.txt.gz
Total_Precipitation_Accumulation
0.02 0.05 0.11 0.15 0.13 0.10 0.08 0.06 0.05 0.05 0.06 0.07 0.07 0.09 0.11 0.13 0.14 0.15 0.15 0.15 0.13 0.11 0.10 0.11 0.10 0.09 0.07 0.07 0.07 0.09 0.09 0.09 0.09 0.09 0.09 0.08 0.07 0.07 0.09 0.13 0.13 0.14 0.13
0.04 0.06 0.08 0.10 0.09 0.07 0.06 0.05 0.04 0.04 0.04 0.05 0.04 0.05 0.06 0.09 0.11 0.13 0.15 0.15 0.16 0.14 0.12 0.12 0.11 0.10 0.09 0.11 0.12 0.11 0.10 0.09 0.08 0.09 0.10 0.07 0.05 0.05 0.08 0.13 0.13 0.18 0.15
0.03 0.04 0.05 0.07 0.07 0.06 0.05 0.04 0.03 0.03 0.03 0.03 0.03 0.03 0.04 0.05 0.08 0.10 0.12 0.13 0.14 0.14 0.15 0.14 0.15 0.16 0.13 0.14 0.17 0.14 0.13 0.11 0.08 0.07 0.07 0.10 0.12 0.06 0.08 0.10 0.10 0.14 0.17
0.01 0.03 0.03 0.05 0.06 0.05 0.05 0.04 0.04 0.03 0.03 0.03 0.03 0.03 0.03 0.04 0.05 0.06 0.08 0.10 0.14 0.17 0.21 0.20 0.19 0.21 0.18 0.16 0.17 0.16 0.17 0.15 0.09 0.06 0.02 0.07 0.20 0.15 0.14 0.16 0.13 0.17 0.20
0.01 0.01 0.02 0.04 0.05 0.05 0.05 0.05 0.04 0.04 0.04 0.04 0.04 0.04 0.04 0.04 0.04 0.04 0.04 0.05 0.13 0.19 0.22 0.25 0.24 0.24 0.23 0.21 0.19 0.19 0.22 0.20 0.12 0.05 0.01 0.03 0.15 0.23 0.19 0.20 0.18 0.19 0.20
0.00 0.01 0.02 0.05 0.06 0.06 0.06 0.05 0.04 0.04 0.04 0.04 0.05 0.05 0.06 0.07 0.05 0.04 0.04 0.04 0.06 0.13 0.19 0.23 0.27 0.30 0.30 0.24 0.22 0.25 0.30 0.28 0.12 0.02 0.01 0.02 0.12 0.25 0.23 0.21 0.20 0.18 0.18
0.00 0.02 0.04 0.06 0.05 0.05 0.05 0.05 0.05 0.05 0.05 0.05 0.05 0.06 0.07 0.07 0.07 0.07 0.06 0.06 0.05 0.06 0.11 0.17 0.21 0.28 0.31 0.27 0.27 0.30 0.39 0.30 0.10 0.07 0.04 0.03 0.11 0.37 0.47 0.36 0.26 0.20 0.20
0.00 0.02 0.04 0.04 0.03 0.04 0.05 0.06 0.06 0.07 0.07 0.06 0.07 0.07 0.06 0.06 0.07 0.09 0.09 0.08 0.07 0.07 0.08 0.11 0.16 0.22 0.28 0.30 0.30 0.35 0.39 0.24 0.09 0.10 0.10 0.08 0.19 0.53 0.64 0.64 0.48 0.29 0.23
0.00 0.00 0.01 0.01 0.01 0.02 0.04 0.06 0.06 0.06 0.06 0.06 0.06 0.05 0.04 0.05 0.08 0.11 0.10 0.08 0.08 0.09 0.09 0.08 0.08 0.11 0.18 0.27 0.31 0.30 0.28 0.19 0.10 0.16 0.14 0.19 0.22 0.58 0.71 0.79 0.68 0.46 0.31
0.00 0.00 0.00 0.00 0.00 0.00 0.02 0.05 0.05 0.05 0.04 0.04 0.04 0.04 0.05 0.05 0.06 0.08 0.08 0.07 0.07 0.08 0.08 0.07 0.07 0.06 0.08 0.11 0.15 0.16 0.13 0.10 0.09 0.16 0.28 0.25 0.25 0.63 0.78 0.81 0.71 0.59 0.47
0.00 0.00 0.00 0.00 0.00 0.00 0.01 0.04 0.05 0.05 0.04 0.03 0.03 0.03 0.04 0.03 0.02 0.03 0.03 0.05 0.06 0.06 0.06 0.07 0.08 0.07 0.06 0.04 0.04 0.05 0.04 0.02 0.06 0.17 0.23 0.24 0.38 0.74 0.83 0.81 0.76 0.67 0.61
0.00 0.00 0.00 0.00 0.00 0.00 0.01 0.03 0.04 0.05 0.04 0.04 0.05 0.06 0.06 0.05 0.04 0.04 0.04 0.06 0.07 0.07 0.07 0.09 0.10 0.08 0.06 0.04 0.07 0.09 0.03 0.01 0.02 0.05 0.07 0.12 0.40 0.78 0.89 0.84 0.84 0.80 0.75
0.00 0.00 0.00 0.00 0.00 0.00 0.00 0.02 0.02 0.02 0.04 0.07 0.08 0.10 0.10 0.08 0.10 0.11 0.11 0.11 0.09 0.08 0.11 0.13 0.14 0.15 0.17 0.17 0.18 0.16 0.09 0.06 0.04 0.02 0.02 0.07 0.20 0.41 0.67 0.80 0.87 0.89 0.87
0.00 0.00 0.00 0.00 0.00 0.00 0.00 0.01 0.01 0.02 0.03 0.04 0.06 0.07 0.07 0.07 0.10 0.13 0.13 0.12 0.09 0.10 0.12 0.15 0.15 0.15 0.15 0.14 0.16 0.14 0.12 0.11 0.08 0.07 0.04 0.05 0.09 0.13 0.30 0.51 0.67 0.79 0.86
0.00 0.00 0.00 0.00 0.00 0.00 0.00 0.00 0.00 0.01 0.01 0.02 0.03 0.03 0.03 0.05 0.04 0.04 0.03 0.03 0.04 0.06 0.06 0.05 0.05 0.06 0.08 0.09 0.10 0.11 0.13 0.13 0.14 0.12 0.10 0.09 0.08 0.08 0.13 0.25 0.44 0.62 0.77
0.00 0.00 0.00 0.00 0.00 0.00 0.00 0.00 0.00 0.00 0.00 0.00 0.00 0.00 0.01 0.02 0.01 0.01 0.01 0.02 0.02 0.02 0.02 0.01 0.01 0.01 0.01 0.03 0.04 0.06 0.09 0.10 0.11 0.13 0.13 0.14 0.12 0.10 0.11 0.16 0.27 0.50 0.69
0.00 0.00 0.00 0.00 0.00 0.00 0.00 0.00 0.00 0.00 0.00 0.00 0.00 0.00 0.00 0.00 0.00 0.00 0.01 0.01 0.01 0.01 0.01 0.00 0.00 0.00 0.00 0.00 0.01 0.01 0.02 0.05 0.07 0.08 0.11 0.15 0.17 0.15 0.14 0.15 0.17 0.31 0.55
0.00 0.00 0.00 0.00 0.00 0.00 0.00 0.00 0.00 0.00 0.00 0.00 0.00 0.00 0.00 0.00 0.00 0.00 0.00 0.00 0.00 0.00 0.00 0.00 0.00 0.00 0.00 0.00 0.00 0.00 0.00 0.01 0.02 0.03 0.05 0.10 0.18 0.21 0.19 0.18 0.18 0.19 0.36
0.00 0.00 0.00 0.00 0.00 0.00 0.00 0.00 0.00 0.00 0.00 0.00 0.00 0.00 0.00 0.00 0.00 0.00 0.00 0.00 0.00 0.00 0.00 0.00 0.00 0.00 0.00 0.00 0.00 0.00 0.00 0.00 0.01 0.02 0.03 0.05 0.09 0.17 0.23 0.23 0.22 0.18 0.23
0.00 0.00 0.00 0.00 0.00 0.00 0.00 0.00 0.00 0.00 0.00 0.00 0.00 0.00 0.00 0.00 0.00 0.00 0.00 0.00 0.00 0.00 0.00 0.00 0.00 0.00 0.00 0.00 0.00 0.00 0.00 0.00 0.00 0.01 0.02 0.04 0.05 0.09 0.17 0.24 0.26 0.20 0.16
0.00 0.00 0.00 0.00 0.00 0.00 0.00 0.00 0.00 0.00 0.00 0.00 0.00 0.00 0.00 0.00 0.00 0.00 0.00 0.00 0.00 0.00 0.00 0.00 0.00 0.01 0.01 0.01 0.02 0.01 0.00 0.00 0.00 0.00 0.00 0.01 0.03 0.05 0.09 0.19 0.26 0.24 0.19
0.00 0.00 0.00 0.00 0.00 0.00 0.00 0.00 0.00 0.00 0.00 0.00 0.00 0.00 0.00 0.00 0.00 0.00 0.00 0.00 0.00 0.00 0.00 0.01 0.01 0.02 0.02 0.03 0.06 0.08 0.03 0.00 0.00 0.00 0.00 0.00 0.01 0.02 0.05 0.10 0.19 0.25 0.24
0.00 0.00 0.00 0.00 0.00 0.00 0.00 0.00 0.00 0.00 0.00 0.00 0.00 0.00 0.00 0.00 0.00 0.00 0.00 0.00 0.00 0.00 0.01 0.01 0.02 0.04 0.06 0.04 0.07 0.21 0.24 0.12 0.03 0.00 0.00 0.00 0.00 0.01 0.02 0.06 0.12 0.20 0.26
0.00 0.00 0.00 0.00 0.00 0.00 0.00 0.00 0.00 0.00 0.00 0.00 0.00 0.00 0.00 0.00 0.00 0.00 0.00 0.00 0.00 0.00 0.01 0.03 0.04 0.06 0.11 0.12 0.09 0.12 0.20 0.23 0.22 0.09 0.01 0.01 0.01 0.01 0.01 0.02 0.06 0.12 0.20
0.00 0.00 0.00 0.00 0.00 0.00 0.00 0.00 0.00 0.00 0.00 0.00 0.00 0.00 0.00 0.00 0.00 0.00 0.00 0.00 0.00 0.00 0.02 0.03 0.05 0.08 0.13 0.18 0.17 0.16 0.14 0.12 0.15 0.22 0.09 0.02 0.02 0.03 0.03 0.03 0.04 0.08 0.14
0.00 0.00 0.00 0.00 0.00 0.00 0.00 0.00 0.00 0.00 0.00 0.00 0.00 0.00 0.00 0.00 0.00 0.00 0.00 0.00 0.00 0.01 0.02 0.04 0.07 0.10 0.14 0.17 0.19 0.21 0.23 0.24 0.18 0.22 0.18 0.06 0.03 0.02 0.03 0.03 0.04 0.07 0.12

GEFSSE_prec_meanprecacc_048.txt.gz
Total_Precipitation_Accumulation
0.02 0.05 0.11 0.15 0.13 0.11 0.08 0.07 0.06 0.05 0.07 0.07 0.08 0.09 0.11 0.13 0.15 0.16 0.16 0.15 0.14 0.12 0.11 0.11 0.10 0.09 0.08 0.07 0.08 0.10 0.09 0.09 0.09 0.09 0.09 0.08 0.07 0.07 0.10 0.14 0.14 0.15 0.17
0.04 0.06 0.08 0.10 0.09 0.07 0.06 0.05 0.04 0.04 0.04 0.05 0.05 0.05 0.07 0.09 0.12 0.14 0.15 0.16 0.16 0.15 0.13 0.13 0.12 0.11 0.10 0.11 0.13 0.12 0.10 0.09 0.08 0.09 0.10 0.07 0.05 0.05 0.08 0.13 0.14 0.19 0.18
0.03 0.04 0.05 0.07 0.07 0.06 0.05 0.04 0.03 0.03 0.03 0.03 0.03 0.04 0.04 0.06 0.08 0.11 0.13 0.13 0.14 0.15 0.16 0.15 0.15 0.17 0.14 0.15 0.17 0.14 0.13 0.11 0.08 0.07 0.07 0.10 0.12 0.06 0.08 0.11 0.10 0.15 0.19
0.01 0.03 0.03 0.05 0.06 0.05 0.05 0.04 0.04 0.03 0.03 0.03 0.03 0.03 0.03 0.04 0.05 0.06 0.08 0.10 0.14 0.18 0.22 0.20 0.19 0.22 0.19 0.16 0.17 0.16 0.18 0.16 0.10 0.06 0.02 0.07 0.20 0.15 0.14 0.16 0.13 0.17 0.21
0.01 0.01 0.02 0.04 0.05 0.05 0.05 0.05 0.04 0.04 0.04 0.05 0.04 0.04 0.04 0.04 0.04 0.04 0.04 0.06 0.13 0.19 0.23 0.25 0.24 0.24 0.24 0.22 0.20 0.20 0.22 0.20 0.12 0.05 0.01 0.03 0.15 0.23 0.19 0.20 0.18 0.19 0.20
0.00 0.01 0.02 0.05 0.06 0.06 0.06 0.05 0.04 0.04 0.04 0.04 0.05 0.05 0.06 0.07 0.05 0.04 0.04 0.04 0.06 0.13 0.19 0.24 0.27 0.30 0.31 0.24 0.22 0.26 0.30 0.29 0.12 0.02 0.01 0.02 0.12 0.25 0.23 0.21 0.20 0.18 0.18
0.00 0.02 0.04 0.06 0.05 0.05 0.05 0.05 0.05 0.05 0.05 0.05 0.05 0.06 0.07 0.07 0.07 0.07 0.06 0.06 0.05 0.06 0.11 0.17 0.22 0.28 0.31 0.28 0.27 0.31 0.39 0.30 0.10 0.07 0.04 0.03 0.11 0.37 0.47 0.36 0.26 0.20 0.20
0.00 0.02 0.04 0.04 0.03 0.04 0.05 0.06 0.06 0.07 0.07 0.06 0.07 0.07 0.06 0.06 0.07 0.09 0.09 0.08 0.07 0.07 0.08 0.11 0.16 0.23 0.28 0.30 0.31 0.35 0.39 0.24 0.09 0.10 0.10 0.08 0.19 0.53 0.64 0.64 0.48 0.30 0.23
0.00 0.00 0.01 0.01 0.01 0.02 0.04 0.06 0.06 0.06 0.06 0.06 0.06 0.05 0.04 0.05 0.08 0.11 0.10 0.08 0.08 0.09 0.09 0.08 0.08 0.11 0.18 0.27 0.31 0.30 0.28 0.19 0.10 0.16 0.14 0.19 0.22 0.58 0.71 0.79 0.68 0.46 0.31
0.00 0.00 0.00 0.00 0.00 0.00 0.02 0.05 0.05 0.05 0.04 0.04 0.04 0.04 0.05 0.05 0.06 0.08 0.08 0.07 0.07 0.08 0.08 0.07 0.07 0.06 0.08 0.11 0.15 0.16 0.13 0.10 0.09 0.16 0.28 0.25 0.25 0.63 0.78 0.81 0.71 0.60 0.48
0.00 0.00 0.00 0.00 0.00 0.00 0.01 0.04 0.05 0.05 0.04 0.03 0.03 0.03 0.04 0.03 0.02 0.03 0.03 0.05 0.06 0.06 0.06 0.07 0.08 0.07 0.06 0.04 0.04 0.05 0.04 0.02 0.06 0.17 0.23 0.24 0.38 0.74 0.83 0.82 0.76 0.67 0.61
0.00 0.00 0.00 0.00 0.00 0.00 0.01 0.03 0.04 0.05 0.04 0.04 0.05 0.06 0.06 0.05 0.04 0.04 0.04 0.06 0.07 0.07 0.07 0.09 0.10 0.08 0.06 0.04 0.07 0.09 0.03 0.01 0.02 0.05 0.07 0.12 0.40 0.78 0.90 0.85 0.85 0.81 0.76
0.00 0.00 0.00 0.00 0.00 0.00 0.00 0.02 0.02 0.02 0.04 0.07 0.08 0.10 0.10 0.08 0.10 0.11 0.11 0.11 0.09 0.08 0.11 0.13 0.14 0.15 0.17 0.17 0.18 0.16 0.09 0.06 0.04 0.02 0.02 0.07 0.20 0.41 0.67 0.81 0.88 0.90 0.88
0.00 0.00 0.00 0.00 0.00 0.00 0.00 0.01 0.01 0.02 0.03 0.04 0.06 0.07 0.07 0.07 0.10 0.13 0.13 0.12 0.09 0.10 0.12 0.15 0.15 0.15 0.15 0.14 0.16 0.14 0.12 0.11 0.08 0.07 0.04 0.05 0.09 0.13 0.30 0.52 0.68 0.80 0.88
0.00 0.00 0.00 0.00 0.00 0.00 0.00 0.00 0.00 0.01 0.01 0.02 0.03 0.03 0.03 0.05 0.04 0.04 0.03 0.03 0.04 0.06 0.06 0.05 0.05 0.06 0.08 0.09 0.10 0.11 0.13 0.13 0.14 0.12 0.10 0.09 0.08 0.08 0.13 0.26 0.45 0.64 0.78
0.00 0.00 0.00 0.00 0.00 0.00 0.00 0.00 0.00 0.00 0.00 0.00 0.00 0.00 0.01 0.02 0.01 0.01 0.01 0.02 0.02 0.02 0.02 0.01 0.01 0.01 0.01 0.03 0.04 0.06 0.09 0.10 0.11 0.13 0.13 0.14 0.12 0.10 0.11 0.16 0.27 0.51 0.71
0.00 0.00 0.00 0.00 0.00 0.00 0.00 0.00 0.00 0.00 0.00 0.00 0.00 0.00 0.00 0.00 0.00 0.00 0.01 0.01 0.01 0.01 0.01 0.00 0.00 0.00 0.00 0.00 0.01 0.01 0.02 0.05 0.07 0.08 0.11 0.15 0.17 0.15 0.14 0.15 0.17 0.32 0.56
0.00 0.00 0.00 0.00 0.00 0.00 0.00 0.00 0.00 0.00 0.00 0.00 0.00 0.00 0.00 0.00 0.00 0.00 0.00 0.00 0.00 0.00 0.00 0.00 0.00 0.00 0.00 0.00 0.00 0.00 0.00 0.01 0.02 0.03 0.05 0.10 0.18 0.21 0.19 0.18 0.18 0.20 0.38
0.00 0.00 0.00 0.00 0.00 0.00 0.00 0.00 0.00 0.00 0.00 0.00 0.00 0.00 0.00 0.00 0.00 0.00 0.00 0.00 0.00 0.00 0.00 0.00 0.00 0.00 0.00 0.00 0.00 0.00 0.00 0.00 0.01 0.02 0.03 0.05 0.09 0.17 0.23 0.23 0.22 0.19 0.24
0.00 0.00 0.00 0.00 0.00 0.00 0.00 0.00 0.00 0.00 0.00 0.00 0.00 0.00 0.00 0.00 0.00 0.00 0.00 0.00 0.00 0.00 0.00 0.00 0.00 0.00 0.00 0.00 0.00 0.00 0.00 0.00 0.00 0.01 0.02 0.04 0.05 0.09 0.17 0.24 0.26 0.20 0.17
0.00 0.00 0.00 0.00 0.00 0.00 0.00 0.00 0.00 0.00 0.00 0.00 0.00 0.00 0.00 0.00 0.00 0.00 0.00 0.00 0.00 0.00 0.00 0.00 0.00 0.01 0.01 0.01 0.02 0.01 0.00 0.00 0.00 0.00 0.00 0.01 0.03 0.05 0.09 0.19 0.27 0.26 0.20
0.00 0.00 0.00 0.00 0.00 0.00 0.00 0.00 0.00 0.00 0.00 0.00 0.00 0.00 0.00 0.00 0.00 0.00 0.00 0.00 0.00 0.00 0.00 0.01 0.01 0.02 0.02 0.03 0.06 0.09 0.04 0.00 0.00 0.00 0.00 0.00 0.01 0.02 0.06 0.11 0.21 0.27 0.26
0.00 0.00 0.00 0.00 0.00 0.00 0.00 0.00 0.00 0.00 0.00 0.00 0.00 0.00 0.00 0.00 0.00 0.00 0.00 0.00 0.00 0.00 0.01 0.01 0.02 0.05 0.06 0.04 0.07 0.23 0.29 0.15 0.04 0.00 0.00 0.00 0.01 0.01 0.03 0.07 0.14 0.22 0.28
0.00 0.00 0.00 0.00 0.00 0.00 0.00 0.00 0.00 0.00 0.00 0.00 0.00 0.00 0.00 0.00 0.00 0.00 0.00 0.00 0.00 0.00 0.01 0.03 0.04 0.06 0.11 0.12 0.09 0.13 0.22 0.27 0.28 0.12 0.01 0.01 0.01 0.02 0.02 0.03 0.07 0.14 0.22
0.00 0.00 0.00 0.00 0.00 0.00 0.00 0.00 0.00 0.00 0.00 0.00 0.00 0.00 0.00 0.00 0.00 0.00 0.00 0.00 0.00 0.00 0.02 0.03 0.05 0.08 0.13 0.19 0.18 0.16 0.14 0.13 0.17 0.27 0.12 0.02 0.03 0.03 0.03 0.03 0.05 0.09 0.15
0.00 0.00 0.00 0.00 0.00 0.00 0.00 0.00 0.00 0.00 0.00 0.00 0.00 0.00 0.00 0.00 0.00 0.00 0.00 0.00 0.00 0.01 0.02 0.04 0.07 0.10 0.14 0.17 0.20 0.21 0.24 0.25 0.19 0.25 0.21 0.07 0.03 0.02 0.03 0.03 0.04 0.08 0.13

GEFSSE_prec_meanprecacc_054.txt.gz
Total_Precipitation_Accumulation
0.02 0.05 0.11 0.15 0.13 0.11 0.08 0.07 0.06 0.05 0.07 0.07 0.08 0.10 0.12 0.14 0.16 0.17 0.16 0.16 0.15 0.13 0.12 0.13 0.12 0.11 0.09 0.09 0.09 0.11 0.11 0.11 0.10 0.10 0.09 0.08 0.07 0.07 0.10 0.14 0.14 0.15 0.17
0.04 0.06 0.08 0.10 0.09 0.08 0.06 0.05 0.04 0.04 0.05 0.05 0.05 0.05 0.07 0.09 0.13 0.15 0.16 0.16 0.17 0.16 0.14 0.14 0.13 0.12 0.11 0.13 0.14 0.13 0.12 0.10 0.09 0.10 0.10 0.07 0.05 0.05 0.09 0.13 0.14 0.19 0.19
0.03 0.04 0.05 0.07 0.07 0.06 0.05 0.04 0.03 0.03 0.03 0.03 0.03 0.04 0.04 0.06 0.08 0.11 0.13 0.13 0.15 0.16 0.17 0.16 0.16 0.18 0.15 0.16 0.18 0.15 0.15 0.12 0.09 0.07 0.07 0.10 0.12 0.06 0.08 0.11 0.10 0.15 0.19
0.01 0.03 0.03 0.05 0.06 0.05 0.05 0.04 0.04 0.03 0.03 0.03 0.03 0.03 0.04 0.04 0.05 0.06 0.08 0.11 0.15 0.18 0.23 0.21 0.20 0.23 0.20 0.17 0.18 0.17 0.19 0.16 0.10 0.06 0.02 0.07 0.20 0.15 0.15 0.16 0.14 0.18 0.21
0.01 0.01 0.02 0.04 0.05 0.05 0.05 0.05 0.04 0.04 0.04 0.05 0.04 0.04 0.04 0.04 0.04 0.04 0.04 0.06 0.14 0.20 0.24 0.26 0.25 0.25 0.25 0.22 0.20 0.21 0.23 0.21 0.12 0.05 0.01 0.03 0.15 0.23 0.20 0.20 0.19 0.19 0.21
0.00 0.01 0.02 0.05 0.06 0.06 0.06 0.05 0.04 0.04 0.04 0.04 0.05 0.05 0.06 0.07 0.05 0.04 0.04 0.04 0.06 0.13 0.20 0.24 0.28 0.31 0.31 0.25 0.22 0.26 0.31 0.29 0.12 0.02 0.01 0.02 0.12 0.25 0.23 0.22 0.21 0.19 0.19
0.00 0.02 0.04 0.06 0.05 0.05 0.05 0.05 0.05 0.05 0.05 0.05 0.05 0.06 0.07 0.07 0.07 0.07 0.06 0.06 0.05 0.06 0.11 0.17 0.22 0.28 0.32 0.28 0.27 0.31 0.39 0.30 0.10 0.07 0.04 0.03 0.11 0.37 0.48 0.37 0.27 0.22 0.21
0.00 0.02 0.04 0.04 0.03 0.04 0.05 0.06 0.06 0.07 0.07 0.06 0.07 0.07 0.06 0.06 0.07 0.09 0.09 0.08 0.07 0.07 0.09 0.11 0.16 0.23 0.28 0.30 0.31 0.35 0.39 0.24 0.09 0.10 0.10 0.08 0.19 0.53 0.65 0.66 0.50 0.31 0.24
0.00 0.00 0.01 0.01 0.01 0.02 0.04 0.06 0.06 0.06 0.06 0.06 0.06 0.05 0.04 0.05 0.08 0.11 0.10 0.08 0.08 0.09 0.09 0.08 0.08 0.11 0.18 0.27 0.31 0.30 0.28 0.19 0.10 0.16 0.14 0.19 0.22 0.58 0.71 0.80 0.69 0.48 0.33
0.00 0.00 0.00 0.00 0.00 0.00 0.02 0.05 0.05 0.05 0.04 0.04 0.04 0.04 0.05 0.05 0.06 0.08 0.08 0.07 0.07 0.08 0.08 0.07 0.07 0.06 0.08 0.11 0.15 0.16 0.13 0.10 0.09 0.16 0.28 0.25 0.25 0.63 0.79 0.83 0.73 0.61 0.49
0.00 0.00 0.00 0.00 0.00 0.00 0.01 0.04 0.05 0.05 0.04 0.03 0.03 0.03 0.04 0.03 0.02 0.03 0.03 0.05 0.06 0.06 0.06 0.07 0.08 0.07 0.06 0.04 0.04 0.05 0.04 0.02 0.06 0.17 0.23 0.24 0.38 0.74 0.84 0.83 0.78 0.69 0.63
0.00 0.00 0.00 0.00 0.00 0.00 0.01 0.03 0.04 0.05 0.04 0.04 0.05 0.06 0.06 0.05 0.04 0.04 0.04 0.06 0.07 0.07 0.07 0.09 0.10 0.08 0.06 0.04 0.07 0.09 0.03 0.01 0.02 0.05 0.07 0.12 0.40 0.78 0.91 0.86 0.86 0.83 0.78
0.00 0.00 0.00 0.00 0.00 0.00 0.00 0.02 0.02 0.02 0.04 0.07 0.08 0.10 0.10 0.08 0.10 0.11 0.11 0.11 0.09 0.08 0.11 0.13 0.14 0.15 0.17 0.17 0.18 0.16 0.09 0.06 0.04 0.02 0.02 0.07 0.20 0.41 0.68 0.82 0.89 0.91 0.90
0.00 0.00 0.00 0.00 0.00 0.00 0.00 0.01 0.01 0.02 0.03 0.04 0.06 0.07 0.07 0.07 0.10 0.13 0.13 0.12 0.09 0.10 0.12 0.15 0.15 0.15 0.15 0.14 0.16 0.14 0.12 0.11 0.08 0.07 0.04 0.05 0.09 0.13 0.30 0.52 0.69 0.81 0.90
0.00 0.00 0.00 0.00 0.00 0.00 0.00 0.00 0.00 0.01 0.01 0.02 0.03 0.03 0.03 0.05 0.04 0.04 0.03 0.03 0.04 0.06 0.06 0.05 0.05 0.06 0.08 0.09 0.10 0.11 0.13 0.13 0.14 0.12 0.10 0.09 0.08 0.08 0.13 0.26 0.46 0.65 0.80
0.00 0.00 0.00 0.00 0.00 0.00 0.00 0.00 0.00 0.00 0.00 0.00 0.00 0.00 0.01 0.02 0.01 0.01 0.01 0.02 0.02 0.02 0.02 0.01 0.01 0.01 0.01 0.03 0.04 0.06 0.09 0.10 0.11 0.13 0.13 0.14 0.12 0.10 0.11 0.17 0.28 0.52 0.73
0.00 0.00 0.00 0.00 0.00 0.00 0.00 0.00 0.00 0.00 0.00 0.00 0.00 0.00 0.00 0.00 0.00 0.00 0.01 0.01 0.01 0.01 0.01 0.00 0.00 0.00 0.00 0.00 0.01 0.01 0.02 0.05 0.07 0.08 0.11 0.15 0.17 0.15 0.14 0.15 0.17 0.33 0.58
0.00 0.00 0.00 0.00 0.00 0.00 0.00 0.00 0.00 0.00 0.00 0.00 0.00 0.00 0.00 0.00 0.00 0.00 0.00 0.00 0.00 0.00 0.00 0.00 0.00 0.00 0.00 0.00 0.00 0.00 0.00 0.01 0.02 0.03 0.05 0.10 0.18 0.21 0.19 0.18 0.18 0.21 0.39
0.00 0.00 0.00 0.00 0.00 0.00 0.00 0.00 0.00 0.00 0.00 0.00 0.00 0.00 0.00 0.00 0.00 0.00 0.00 0.00 0.00 0.00 0.00 0.00 0.00 0.00 0.00 0.00 0.00 0.00 0.00 0.00 0.01 0.02 0.03 0.05 0.09 0.17 0.23 0.23 0.22 0.19 0.25
0.00 0.00 0.00 0.00 0.00 0.00 0.00 0.00 0.00 0.00 0.00 0.00 0.00 0.00 0.00 0.00 0.00 0.00 0.00 0.00 0.00 0.00 0.00 0.00 0.00 0.00 0.00 0.00 0.00 0.00 0.00 0.00 0.00 0.01 0.02 0.04 0.05 0.09 0.17 0.24 0.26 0.20 0.17
0.00 0.00 0.00 0.00 0.00 0.00 0.00 0.00 0.00 0.00 0.00 0.00 0.00 0.00 0.00 0.00 0.00 0.00 0.00 0.00 0.00 0.00 0.00 0.00 0.00 0.01 0.01 0.01 0.02 0.01 0.00 0.00 0.00 0.00 0.00 0.01 0.03 0.05 0.09 0.19 0.27 0.26 0.21
0.00 0.00 0.00 0.00 0.00 0.00 0.00 0.00 0.00 0.00 0.00 0.00 0.00 0.00 0.00 0.00 0.00 0.00 0.00 0.00 0.00 0.00 0.00 0.01 0.01 0.02 0.02 0.03 0.06 0.09 0.04 0.00 0.00 0.00 0.00 0.00 0.01 0.02 0.06 0.11 0.21 0.27 0.27
0.00 0.00 0.00 0.00 0.00 0.00 0.00 0.00 0.00 0.00 0.00 0.00 0.00 0.00 0.00 0.00 0.00 0.00 0.00 0.00 0.00 0.00 0.01 0.01 0.02 0.05 0.06 0.04 0.07 0.23 0.29 0.15 0.05 0.00 0.00 0.00 0.01 0.01 0.03 0.07 0.14 0.22 0.29
0.00 0.00 0.00 0.00 0.00 0.00 0.00 0.00 0.00 0.00 0.00 0.00 0.00 0.00 0.00 0.00 0.00 0.00 0.00 0.00 0.00 0.00 0.01 0.03 0.04 0.06 0.11 0.12 0.09 0.13 0.23 0.27 0.29 0.13 0.01 0.01 0.01 0.02 0.02 0.03 0.07 0.14 0.22
0.00 0.00 0.00 0.00 0.00 0.00 0.00 0.00 0.00 0.00 0.00 0.00 0.00 0.00 0.00 0.00 0.00 0.00 0.00 0.00 0.00 0.00 0.02 0.03 0.05 0.08 0.13 0.19 0.18 0.16 0.14 0.13 0.18 0.28 0.12 0.02 0.03 0.03 0.03 0.03 0.05 0.09 0.15
0.00 0.00 0.00 0.00 0.00 0.00 0.00 0.00 0.00 0.00 0.00 0.00 0.00 0.00 0.00 0.00 0.00 0.00 0.00 0.00 0.00 0.01 0.02 0.04 0.07 0.10 0.14 0.17 0.20 0.21 0.24 0.25 0.19 0.25 0.21 0.07 0.03 0.02 0.03 0.03 0.04 0.08 0.13

GEFSSE_prec_meanprecacc_060.txt.gz
Total_Precipitation_Accumulation
0.02 0.05 0.11 0.15 0.13 0.11 0.08 0.07 0.06 0.06 0.07 0.07 0.08 0.10 0.12 0.14 0.16 0.17 0.17 0.17 0.16 0.15 0.14 0.15 0.14 0.13 0.12 0.11 0.12 0.13 0.12 0.11 0.10 0.10 0.09 0.08 0.08 0.08 0.11 0.14 0.15 0.15 0.18
0.04 0.06 0.08 0.10 0.09 0.08 0.06 0.05 0.04 0.04 0.05 0.05 0.05 0.06 0.07 0.10 0.13 0.15 0.17 0.17 0.18 0.18 0.15 0.15 0.15 0.14 0.13 0.14 0.16 0.15 0.13 0.11 0.09 0.10 0.10 0.07 0.05 0.06 0.10 0.14 0.15 0.20 0.19
0.03 0.04 0.05 0.07 0.07 0.06 0.05 0.04 0.03 0.03 0.03 0.03 0.03 0.04 0.04 0.06 0.09 0.12 0.14 0.14 0.16 0.17 0.17 0.17 0.17 0.19 0.16 0.17 0.20 0.17 0.16 0.13 0.09 0.07 0.07 0.10 0.12 0.07 0.09 0.12 0.11 0.16 0.20
0.01 0.03 0.03 0.05 0.06 0.05 0.05 0.04 0.04 0.03 0.03 0.03 0.03 0.03 0.04 0.04 0.05 0.06 0.08 0.11 0.15 0.19 0.24 0.22 0.21 0.23 0.20 0.18 0.19 0.18 0.20 0.17 0.10 0.06 0.02 0.07 0.20 0.16 0.16 0.18 0.15 0.19 0.22
0.01 0.01 0.02 0.04 0.05 0.05 0.05 0.05 0.04 0.04 0.04 0.05 0.04 0.04 0.04 0.04 0.04 0.04 0.04 0.06 0.14 0.20 0.24 0.27 0.25 0.26 0.25 0.23 0.20 0.21 0.23 0.21 0.12 0.05 0.01 0.03 0.15 0.24 0.21 0.22 0.20 0.21 0.22
0.00 0.01 0.02 0.05 0.06 0.06 0.06 0.05 0.04 0.04 0.04 0.04 0.05 0.05 0.06 0.07 0.05 0.04 0.04 0.04 0.07 0.13 0.20 0.25 0.28 0.31 0.31 0.25 0.22 0.26 0.31 0.29 0.12 0.02 0.01 0.02 0.12 0.25 0.25 0.23 0.22 0.21 0.20
0.00 0.02 0.04 0.06 0.05 0.05 0.05 0.05 0.05 0.05 0.05 0.05 0.05 0.06 0.07 0.07 0.07 0.07 0.06 0.06 0.05 0.06 0.11 0.17 0.22 0.28 0.32 0.28 0.27 0.31 0.39 0.30 0.10 0.07 0.04 0.03 0.11 0.37 0.49 0.38 0.29 0.23 0.22
0.00 0.02 0.04 0.04 0.03 0.04 0.05 0.06 0.06 0.07 0.07 0.06 0.07 0.07 0.06 0.06 0.07 0.09 0.09 0.08 0.07 0.07 0.09 0.11 0.16 0.23 0.28 0.30 0.31 0.35 0.39 0.24 0.09 0.10 0.10 0.08 0.19 0.53 0.65 0.66 0.51 0.32 0.26
0.00 0.00 0.01 0.01 0.01 0.02 0.04 0.06 0.06 0.06 0.06 0.06 0.06 0.05 0.04 0.05 0.08 0.11 0.10 0.08 0.08 0.09 0.09 0.08 0.08 0.11 0.18 0.27 0.31 0.30 0.28 0.19 0.10 0.16 0.14 0.19 0.22 0.58 0.72 0.81 0.70 0.49 0.34
0.00 0.00 0.00 0.00 0.00 0.00 0.02 0.05 0.05 0.05 0.04 0.04 0.04 0.04 0.05 0.05 0.06 0.08 0.08 0.07 0.07 0.08 0.08 0.07 0.07 0.06 0.08 0.11 0.15 0.16 0.13 0.10 0.09 0.16 0.28 0.25 0.25 0.63 0.79 0.83 0.73 0.62 0.50
0.00 0.00 0.00 0.00 0.00 0.00 0.01 0.04 0.05 0.05 0.04 0.03 0.03 0.03 0.04 0.03 0.02 0.03 0.03 0.05 0.06 0.06 0.06 0.07 0.08 0.07 0.06 0.04 0.04 0.05 0.04 0.02 0.06 0.17 0.23 0.24 0.38 0.74 0.84 0.83 0.78 0.69 0.64
0.00 0.00 0.00 0.00 0.00 0.00 0.01 0.03 0.04 0.05 0.04 0.04 0.05 0.06 0.06 0.05 0.04 0.04 0.04 0.06 0.07 0.07 0.07 0.09 0.10 0.08 0.06 0.04 0.07 0.09 0.03 0.01 0.02 0.05 0.07 0.12 0.40 0.78 0.91 0.86 0.87 0.83 0.78
0.00 0.00 0.00 0.00 0.00 0.00 0.00 0.02 0.02 0.02 0.04 0.07 0.08 0.10 0.10 0.08 0.10 0.11 0.11 0.11 0.09 0.08 0.11 0.13 0.14 0.15 0.17 0.17 0.18 0.16 0.09 0.06 0.04 0.02 0.02 0.07 0.20 0.41 0.68 0.82 0.90 0.92 0.91
0.00 0.00 0.00 0.00 0.00 0.00 0.00 0.01 0.01 0.02 0.03 0.04 0.06 0.07 0.07 0.07 0.10 0.13 0.13 0.12 0.09 0.10 0.12 0.15 0.15 0.15 0.15 0.14 0.16 0.14 0.12 0.11 0.08 0.07 0.04 0.05 0.09 0.13 0.30 0.52 0.69 0.82 0.91
0.00 0.00 0.00 0.00 0.00 0.00 0.00 0.00 0.00 0.01 0.01 0.02 0.03 0.03 0.03 0.05 0.04 0.04 0.03 0.03 0.04 0.06 0.06 0.05 0.05 0.06 0.08 0.09 0.10 0.11 0.13 0.13 0.14 0.12 0.10 0.09 0.08 0.08 0.13 0.26 0.46 0.65 0.81
0.00 0.00 0.00 0.00 0.00 0.00 0.00 0.00 0.00 0.00 0.00 0.00 0.00 0.00 0.01 0.02 0.01 0.01 0.01 0.02 0.02 0.02 0.02 0.01 0.01 0.01 0.01 0.03 0.04 0.06 0.09 0.10 0.11 0.13 0.13 0.14 0.12 0.10 0.11 0.17 0.28 0.53 0.74
0.00 0.00 0.00 0.00 0.00 0.00 0.00 0.00 0.00 0.00 0.00 0.00 0.00 0.00 0.00 0.00 0.00 0.00 0.01 0.01 0.01 0.01 0.01 0.00 0.00 0.00 0.00 0.00 0.01 0.01 0.02 0.05 0.07 0.08 0.11 0.15 0.17 0.15 0.14 0.15 0.17 0.33 0.59
0.00 0.00 0.00 0.00 0.00 0.00 0.00 0.00 0.00 0.00 0.00 0.00 0.00 0.00 0.00 0.00 0.00 0.00 0.00 0.00 0.00 0.00 0.00 0.00 0.00 0.00 0.00 0.00 0.00 0.00 0.00 0.01 0.02 0.03 0.05 0.10 0.18 0.21 0.19 0.18 0.18 0.21 0.40
0.00 0.00 0.00 0.00 0.00 0.00 0.00 0.00 0.00 0.00 0.00 0.00 0.00 0.00 0.00 0.00 0.00 0.00 0.00 0.00 0.00 0.00 0.00 0.00 0.00 0.00 0.00 0.00 0.00 0.00 0.00 0.00 0.01 0.02 0.03 0.05 0.09 0.17 0.23 0.23 0.22 0.19 0.25
0.00 0.00 0.00 0.00 0.00 0.00 0.00 0.00 0.00 0.00 0.00 0.00 0.00 0.00 0.00 0.00 0.00 0.00 0.00 0.00 0.00 0.00 0.00 0.00 0.00 0.00 0.00 0.00 0.00 0.00 0.00 0.00 0.00 0.01 0.02 0.04 0.05 0.09 0.17 0.24 0.26 0.20 0.17
0.00 0.00 0.00 0.00 0.00 0.00 0.00 0.00 0.00 0.00 0.00 0.00 0.00 0.00 0.00 0.00 0.00 0.00 0.00 0.00 0.00 0.00 0.00 0.00 0.00 0.01 0.01 0.01 0.02 0.01 0.00 0.00 0.00 0.00 0.00 0.01 0.03 0.05 0.09 0.19 0.27 0.26 0.21
0.00 0.00 0.00 0.00 0.00 0.00 0.00 0.00 0.00 0.00 0.00 0.00 0.00 0.00 0.00 0.00 0.00 0.00 0.00 0.00 0.00 0.00 0.00 0.01 0.01 0.02 0.02 0.03 0.06 0.09 0.04 0.00 0.00 0.00 0.00 0.00 0.01 0.02 0.06 0.11 0.21 0.27 0.27
0.00 0.00 0.00 0.00 0.00 0.00 0.00 0.00 0.00 0.00 0.00 0.00 0.00 0.00 0.00 0.00 0.00 0.00 0.00 0.00 0.00 0.00 0.01 0.01 0.02 0.05 0.06 0.04 0.07 0.23 0.29 0.15 0.05 0.00 0.00 0.00 0.01 0.01 0.03 0.07 0.14 0.22 0.29
0.00 0.00 0.00 0.00 0.00 0.00 0.00 0.00 0.00 0.00 0.00 0.00 0.00 0.00 0.00 0.00 0.00 0.00 0.00 0.00 0.00 0.00 0.01 0.03 0.04 0.06 0.11 0.12 0.09 0.13 0.23 0.27 0.29 0.13 0.01 0.01 0.01 0.02 0.02 0.03 0.07 0.14 0.22
0.00 0.00 0.00 0.00 0.00 0.00 0.00 0.00 0.00 0.00 0.00 0.00 0.00 0.00 0.00 0.00 0.00 0.00 0.00 0.00 0.00 0.00 0.02 0.03 0.05 0.08 0.13 0.19 0.18 0.16 0.14 0.13 0.18 0.28 0.12 0.02 0.03 0.03 0.03 0.03 0.05 0.09 0.15
0.00 0.00 0.00 0.00 0.00 0.00 0.00 0.00 0.00 0.00 0.00 0.00 0.00 0.00 0.00 0.00 0.00 0.00 0.00 0.00 0.00 0.01 0.02 0.04 0.07 0.10 0.14 0.17 0.20 0.21 0.24 0.25 0.19 0.25 0.21 0.07 0.03 0.02 0.03 0.03 0.04 0.08 0.13

GEFSSE_prec_meanprecacc_066.txt.gz
Total_Precipitation_Accumulation
0.02 0.05 0.11 0.15 0.13 0.11 0.08 0.07 0.06 0.06 0.07 0.08 0.09 0.10 0.13 0.15 0.17 0.18 0.18 0.19 0.18 0.16 0.15 0.16 0.16 0.15 0.13 0.13 0.12 0.13 0.12 0.11 0.10 0.10 0.09 0.09 0.09 0.10 0.12 0.15 0.15 0.15 0.19
0.04 0.06 0.08 0.10 0.09 0.08 0.06 0.05 0.04 0.04 0.05 0.05 0.05 0.06 0.07 0.10 0.14 0.16 0.17 0.18 0.19 0.18 0.16 0.16 0.16 0.15 0.14 0.15 0.17 0.15 0.13 0.11 0.09 0.10 0.10 0.07 0.06 0.08 0.11 0.15 0.16 0.21 0.21
0.03 0.04 0.05 0.07 0.07 0.06 0.05 0.04 0.03 0.03 0.03 0.03 0.03 0.04 0.05 0.06 0.09 0.12 0.14 0.15 0.16 0.17 0.18 0.18 0.18 0.20 0.17 0.18 0.20 0.17 0.16 0.13 0.09 0.07 0.07 0.10 0.12 0.09 0.11 0.13 0.12 0.17 0.21
0.01 0.03 0.03 0.05 0.06 0.05 0.05 0.04 0.04 0.03 0.03 0.03 0.03 0.03 0.04 0.04 0.05 0.06 0.09 0.11 0.16 0.19 0.24 0.22 0.21 0.24 0.20 0.18 0.19 0.18 0.20 0.17 0.10 0.06 0.02 0.07 0.20 0.18 0.18 0.19 0.16 0.20 0.23
0.01 0.01 0.02 0.05 0.05 0.05 0.05 0.05 0.04 0.04 0.04 0.05 0.04 0.04 0.04 0.04 0.04 0.04 0.04 0.06 0.14 0.20 0.24 0.27 0.26 0.26 0.25 0.23 0.20 0.21 0.23 0.21 0.12 0.05 0.01 0.03 0.15 0.25 0.23 0.24 0.22 0.22 0.23
0.00 0.01 0.02 0.05 0.06 0.06 0.06 0.05 0.04 0.04 0.04 0.04 0.05 0.05 0.06 0.07 0.05 0.04 0.04 0.04 0.07 0.13 0.20 0.25 0.28 0.31 0.31 0.25 0.22 0.26 0.31 0.29 0.12 0.02 0.01 0.02 0.12 0.26 0.26 0.25 0.23 0.22 0.22
0.00 0.02 0.04 0.06 0.05 0.05 0.05 0.05 0.05 0.05 0.05 0.05 0.05 0.06 0.07 0.07 0.07 0.07 0.06 0.06 0.05 0.06 0.11 0.17 0.22 0.28 0.32 0.28 0.27 0.31 0.39 0.30 0.10 0.07 0.04 0.03 0.11 0.37 0.49 0.39 0.29 0.24 0.23
0.00 0.02 0.04 0.04 0.03 0.04 0.05 0.06 0.06 0.07 0.07 0.06 0.07 0.07 0.06 0.06 0.07 0.09 0.09 0.08 0.07 0.07 0.09 0.11 0.16 0.23 0.28 0.30 0.31 0.35 0.39 0.24 0.09 0.10 0.10 0.08 0.19 0.53 0.66 0.67 0.51 0.32 0.26
0.00 0.00 0.01 0.01 0.01 0.02 0.04 0.06 0.06 0.06 0.06 0.06 0.06 0.05 0.04 0.05 0.08 0.11 0.10 0.08 0.08 0.09 0.09 0.08 0.08 0.11 0.18 0.27 0.31 0.30 0.28 0.19 0.10 0.16 0.14 0.19 0.22 0.58 0.72 0.81 0.70 0.49 0.34
0.00 0.00 0.00 0.00 0.00 0.00 0.02 0.05 0.05 0.05 0.04 0.04 0.04 0.04 0.05 0.05 0.06 0.08 0.08 0.07 0.07 0.08 0.08 0.07 0.07 0.06 0.08 0.11 0.15 0.16 0.13 0.10 0.09 0.16 0.28 0.25 0.25 0.63 0.79 0.83 0.74 0.62 0.50
0.00 0.00 0.00 0.00 0.00 0.00 0.01 0.04 0.05 0.05 0.04 0.03 0.03 0.03 0.04 0.03 0.02 0.03 0.03 0.05 0.06 0.06 0.06 0.07 0.08 0.07 0.06 0.04 0.04 0.05 0.04 0.02 0.06 0.17 0.23 0.24 0.38 0.74 0.84 0.83 0.78 0.69 0.64
0.00 0.00 0.00 0.00 0.00 0.00 0.01 0.03 0.04 0.05 0.04 0.04 0.05 0.06 0.06 0.05 0.04 0.04 0.04 0.06 0.07 0.07 0.07 0.09 0.10 0.08 0.06 0.04 0.07 0.09 0.03 0.01 0.02 0.05 0.07 0.12 0.40 0.78 0.91 0.86 0.87 0.83 0.78
0.00 0.00 0.00 0.00 0.00 0.00 0.00 0.02 0.02 0.02 0.04 0.07 0.08 0.10 0.10 0.08 0.10 0.11 0.11 0.11 0.09 0.08 0.11 0.13 0.14 0.15 0.17 0.17 0.18 0.16 0.09 0.06 0.04 0.02 0.02 0.07 0.20 0.41 0.68 0.82 0.90 0.92 0.91
0.00 0.00 0.00 0.00 0.00 0.00 0.00 0.01 0.01 0.02 0.03 0.04 0.06 0.07 0.07 0.07 0.10 0.13 0.13 0.12 0.09 0.10 0.12 0.15 0.15 0.15 0.15 0.14 0.16 0.14 0.12 0.11 0.08 0.07 0.04 0.05 0.09 0.13 0.30 0.52 0.70 0.82 0.91
0.00 0.00 0.00 0.00 0.00 0.00 0.00 0.00 0.00 0.01 0.01 0.02 0.03 0.03 0.03 0.05 0.04 0.04 0.03 0.03 0.04 0.06 0.06 0.05 0.05 0.06 0.08 0.09 0.10 0.11 0.13 0.13 0.14 0.12 0.10 0.09 0.08 0.08 0.13 0.26 0.46 0.65 0.81
0.00 0.00 0.00 0.00 0.00 0.00 0.00 0.00 0.00 0.00 0.00 0.00 0.00 0.00 0.01 0.02 0.01 0.01 0.01 0.02 0.02 0.02 0.02 0.01 0.01 0.01 0.01 0.03 0.04 0.06 0.09 0.10 0.11 0.13 0.13 0.14 0.12 0.10 0.11 0.17 0.28 0.53 0.74
0.00 0.00 0.00 0.00 0.00 0.00 0.00 0.00 0.00 0.00 0.00 0.00 0.00 0.00 0.00 0.00 0.00 0.00 0.01 0.01 0.01 0.01 0.01 0.00 0.00 0.00 0.00 0.00 0.01 0.01 0.02 0.05 0.07 0.08 0.11 0.15 0.17 0.15 0.14 0.15 0.17 0.33 0.59
0.00 0.00 0.00 0.00 0.00 0.00 0.00 0.00 0.00 0.00 0.00 0.00 0.00 0.00 0.00 0.00 0.00 0.00 0.00 0.00 0.00 0.00 0.00 0.00 0.00 0.00 0.00 0.00 0.00 0.00 0.00 0.01 0.02 0.03 0.05 0.10 0.18 0.21 0.19 0.18 0.18 0.21 0.40
0.00 0.00 0.00 0.00 0.00 0.00 0.00 0.00 0.00 0.00 0.00 0.00 0.00 0.00 0.00 0.00 0.00 0.00 0.00 0.00 0.00 0.00 0.00 0.00 0.00 0.00 0.00 0.00 0.00 0.00 0.00 0.00 0.01 0.02 0.03 0.05 0.09 0.17 0.23 0.23 0.22 0.19 0.25
0.00 0.00 0.00 0.00 0.00 0.00 0.00 0.00 0.00 0.00 0.00 0.00 0.00 0.00 0.00 0.00 0.00 0.00 0.00 0.00 0.00 0.00 0.00 0.00 0.00 0.00 0.00 0.00 0.00 0.00 0.00 0.00 0.00 0.01 0.02 0.04 0.05 0.09 0.17 0.24 0.26 0.20 0.17
0.00 0.00 0.00 0.00 0.00 0.00 0.00 0.00 0.00 0.00 0.00 0.00 0.00 0.00 0.00 0.00 0.00 0.00 0.00 0.00 0.00 0.00 0.00 0.00 0.00 0.01 0.01 0.01 0.02 0.01 0.00 0.00 0.00 0.00 0.00 0.01 0.03 0.05 0.09 0.19 0.27 0.26 0.21
0.00 0.00 0.00 0.00 0.00 0.00 0.00 0.00 0.00 0.00 0.00 0.00 0.00 0.00 0.00 0.00 0.00 0.00 0.00 0.00 0.00 0.00 0.00 0.01 0.01 0.02 0.02 0.03 0.06 0.09 0.04 0.00 0.00 0.00 0.00 0.00 0.01 0.02 0.06 0.11 0.21 0.27 0.27
0.00 0.00 0.00 0.00 0.00 0.00 0.00 0.00 0.00 0.00 0.00 0.00 0.00 0.00 0.00 0.00 0.00 0.00 0.00 0.00 0.00 0.00 0.01 0.01 0.02 0.05 0.06 0.04 0.07 0.23 0.29 0.15 0.05 0.00 0.00 0.00 0.01 0.01 0.03 0.07 0.14 0.22 0.29
0.00 0.00 0.00 0.00 0.00 0.00 0.00 0.00 0.00 0.00 0.00 0.00 0.00 0.00 0.00 0.00 0.00 0.00 0.00 0.00 0.00 0.00 0.01 0.03 0.04 0.06 0.11 0.12 0.09 0.13 0.23 0.27 0.29 0.13 0.01 0.01 0.01 0.02 0.02 0.03 0.07 0.14 0.22
0.00 0.00 0.00 0.00 0.00 0.00 0.00 0.00 0.00 0.00 0.00 0.00 0.00 0.00 0.00 0.00 0.00 0.00 0.00 0.00 0.00 0.00 0.02 0.03 0.05 0.08 0.13 0.19 0.18 0.16 0.14 0.13 0.18 0.28 0.12 0.02 0.03 0.03 0.03 0.03 0.05 0.09 0.15
0.00 0.00 0.00 0.00 0.00 0.00 0.00 0.00 0.00 0.00 0.00 0.00 0.00 0.00 0.00 0.00 0.00 0.00 0.00 0.00 0.00 0.01 0.02 0.04 0.07 0.10 0.14 0.17 0.20 0.21 0.24 0.25 0.19 0.25 0.21 0.07 0.03 0.02 0.03 0.03 0.04 0.08 0.13

GEFSSE_prec_meanprecacc_072.txt.gz
Total_Precipitation_Accumulation
0.02 0.05 0.11 0.15 0.13 0.11 0.08 0.07 0.06 0.06 0.07 0.08 0.09 0.11 0.13 0.15 0.18 0.19 0.19 0.19 0.18 0.17 0.16 0.17 0.17 0.16 0.14 0.13 0.12 0.13 0.12 0.11 0.10 0.11 0.11 0.11 0.12 0.12 0.14 0.16 0.16 0.16 0.20
0.04 0.06 0.08 0.10 0.09 0.08 0.06 0.05 0.04 0.04 0.05 0.05 0.05 0.06 0.08 0.11 0.14 0.16 0.18 0.19 0.19 0.19 0.17 0.17 0.17 0.15 0.14 0.15 0.17 0.15 0.13 0.11 0.09 0.10 0.10 0.07 0.08 0.10 0.13 0.16 0.17 0.22 0.22
0.03 0.04 0.05 0.07 0.07 0.06 0.05 0.04 0.03 0.03 0.03 0.04 0.04 0.04 0.05 0.07 0.09 0.12 0.14 0.15 0.17 0.18 0.18 0.18 0.18 0.20 0.17 0.18 0.20 0.17 0.16 0.13 0.09 0.07 0.07 0.10 0.13 0.11 0.13 0.15 0.14 0.19 0.22
0.01 0.03 0.03 0.05 0.06 0.05 0.05 0.04 0.04 0.03 0.03 0.03 0.03 0.03 0.04 0.04 0.05 0.06 0.09 0.11 0.16 0.19 0.24 0.22 0.21 0.24 0.20 0.18 0.19 0.18 0.20 0.17 0.10 0.06 0.02 0.07 0.20 0.19 0.20 0.21 0.18 0.22 0.24
0.01 0.01 0.02 0.05 0.06 0.05 0.05 0.05 0.04 0.04 0.04 0.05 0.04 0.04 0.04 0.04 0.04 0.04 0.04 0.06 0.14 0.20 0.24 0.27 0.26 0.26 0.25 0.23 0.20 0.21 0.23 0.21 0.12 0.05 0.01 0.03 0.15 0.25 0.24 0.24 0.23 0.23 0.24
0.00 0.01 0.02 0.05 0.06 0.06 0.06 0.05 0.04 0.04 0.04 0.04 0.05 0.05 0.06 0.07 0.05 0.04 0.04 0.04 0.07 0.13 0.20 0.25 0.28 0.31 0.31 0.25 0.22 0.26 0.31 0.29 0.12 0.02 0.01 0.02 0.12 0.26 0.27 0.25 0.24 0.23 0.23
0.00 0.02 0.04 0.06 0.05 0.05 0.05 0.05 0.05 0.05 0.05 0.05 0.05 0.06 0.07 0.07 0.07 0.07 0.06 0.06 0.05 0.06 0.11 0.17 0.22 0.28 0.32 0.28 0.27 0.31 0.39 0.30 0.10 0.07 0.04 0.03 0.11 0.38 0.50 0.40 0.30 0.25 0.24
0.00 0.02 0.04 0.04 0.04 0.04 0.05 0.06 0.06 0.07 0.07 0.06 0.07 0.07 0.06 0.06 0.07 0.09 0.09 0.08 0.07 0.07 0.09 0.11 0.16 0.23 0.28 0.30 0.31 0.35 0.39 0.24 0.09 0.10 0.10 0.08 0.19 0.53 0.66 0.67 0.51 0.33 0.27
0.00 0.00 0.01 0.01 0.01 0.02 0.04 0.06 0.06 0.06 0.06 0.06 0.06 0.05 0.04 0.05 0.08 0.11 0.10 0.08 0.08 0.09 0.09 0.08 0.08 0.11 0.18 0.27 0.31 0.30 0.28 0.19 0.10 0.16 0.14 0.19 0.22 0.58 0.72 0.81 0.70 0.49 0.34
0.00 0.00 0.00 0.00 0.00 0.00 0.02 0.05 0.05 0.05 0.04 0.04 0.04 0.04 0.05 0.05 0.06 0.08 0.08 0.07 0.07 0.08 0.08 0.07 0.07 0.06 0.08 0.11 0.15 0.16 0.13 0.10 0.09 0.16 0.28 0.25 0.25 0.63 0.79 0.83 0.74 0.62 0.50
0.00 0.00 0.00 0.00 0.00 0.00 0.01 0.04 0.05 0.05 0.04 0.03 0.03 0.03 0.04 0.03 0.02 0.03 0.03 0.05 0.06 0.06 0.06 0.07 0.08 0.07 0.06 0.04 0.04 0.05 0.04 0.02 0.06 0.17 0.23 0.24 0.38 0.74 0.84 0.83 0.78 0.69 0.64
0.00 0.00 0.00 0.00 0.00 0.00 0.01 0.03 0.04 0.05 0.04 0.04 0.05 0.06 0.06 0.05 0.04 0.04 0.04 0.06 0.07 0.07 0.07 0.09 0.10 0.08 0.06 0.04 0.07 0.09 0.03 0.01 0.02 0.05 0.07 0.12 0.40 0.78 0.91 0.86 0.87 0.83 0.78
0.00 0.00 0.00 0.00 0.00 0.00 0.00 0.02 0.02 0.02 0.04 0.07 0.08 0.10 0.10 0.08 0.10 0.11 0.11 0.11 0.09 0.08 0.11 0.13 0.14 0.15 0.17 0.17 0.18 0.16 0.09 0.06 0.04 0.02 0.02 0.07 0.20 0.41 0.68 0.82 0.90 0.92 0.91
0.00 0.00 0.00 0.00 0.00 0.00 0.00 0.01 0.01 0.02 0.03 0.04 0.06 0.07 0.07 0.07 0.10 0.13 0.13 0.12 0.09 0.10 0.12 0.15 0.15 0.15 0.15 0.14 0.16 0.14 0.12 0.11 0.08 0.07 0.04 0.05 0.09 0.13 0.30 0.52 0.70 0.82 0.91
0.00 0.00 0.00 0.00 0.00 0.00 0.00 0.00 0.00 0.01 0.01 0.02 0.03 0.03 0.03 0.05 0.04 0.04 0.03 0.03 0.04 0.06 0.06 0.05 0.05 0.06 0.08 0.09 0.10 0.11 0.13 0.13 0.14 0.12 0.10 0.09 0.08 0.08 0.13 0.26 0.46 0.65 0.81
0.00 0.00 0.00 0.00 0.00 0.00 0.00 0.00 0.00 0.00 0.00 0.00 0.00 0.00 0.01 0.02 0.01 0.01 0.01 0.02 0.02 0.02 0.02 0.01 0.01 0.01 0.01 0.03 0.04 0.06 0.09 0.10 0.11 0.13 0.13 0.14 0.12 0.10 0.11 0.17 0.28 0.53 0.74
0.00 0.00 0.00 0.00 0.00 0.00 0.00 0.00 0.00 0.00 0.00 0.00 0.00 0.00 0.00 0.00 0.00 0.00 0.01 0.01 0.01 0.01 0.01 0.00 0.00 0.00 0.00 0.00 0.01 0.01 0.02 0.05 0.07 0.08 0.11 0.15 0.17 0.15 0.14 0.15 0.17 0.33 0.59
0.00 0.00 0.00 0.00 0.00 0.00 0.00 0.00 0.00 0.00 0.00 0.00 0.00 0.00 0.00 0.00 0.00 0.00 0.00 0.00 0.00 0.00 0.00 0.00 0.00 0.00 0.00 0.00 0.00 0.00 0.00 0.01 0.02 0.03 0.05 0.10 0.18 0.21 0.19 0.18 0.18 0.21 0.40
0.00 0.00 0.00 0.00 0.00 0.00 0.00 0.00 0.00 0.00 0.00 0.00 0.00 0.00 0.00 0.00 0.00 0.00 0.00 0.00 0.00 0.00 0.00 0.00 0.00 0.00 0.00 0.00 0.00 0.00 0.00 0.00 0.01 0.02 0.03 0.05 0.09 0.17 0.23 0.23 0.22 0.19 0.25
0.00 0.00 0.00 0.00 0.00 0.00 0.00 0.00 0.00 0.00 0.00 0.00 0.00 0.00 0.00 0.00 0.00 0.00 0.00 0.00 0.00 0.00 0.00 0.00 0.00 0.00 0.00 0.00 0.00 0.00 0.00 0.00 0.00 0.01 0.02 0.04 0.05 0.09 0.17 0.24 0.26 0.20 0.17
0.00 0.00 0.00 0.00 0.00 0.00 0.00 0.00 0.00 0.00 0.00 0.00 0.00 0.00 0.00 0.00 0.00 0.00 0.00 0.00 0.00 0.00 0.00 0.00 0.00 0.01 0.01 0.01 0.02 0.01 0.00 0.00 0.00 0.00 0.00 0.01 0.03 0.05 0.09 0.19 0.27 0.26 0.21
0.00 0.00 0.00 0.00 0.00 0.00 0.00 0.00 0.00 0.00 0.00 0.00 0.00 0.00 0.00 0.00 0.00 0.00 0.00 0.00 0.00 0.00 0.00 0.01 0.01 0.02 0.02 0.03 0.06 0.09 0.04 0.00 0.00 0.00 0.00 0.00 0.01 0.02 0.06 0.11 0.21 0.27 0.27
0.00 0.00 0.00 0.00 0.00 0.00 0.00 0.00 0.00 0.00 0.00 0.00 0.00 0.00 0.00 0.00 0.00 0.00 0.00 0.00 0.00 0.00 0.01 0.01 0.02 0.05 0.06 0.04 0.07 0.23 0.29 0.15 0.05 0.00 0.00 0.00 0.01 0.01 0.03 0.07 0.14 0.22 0.29
0.00 0.00 0.00 0.00 0.00 0.00 0.00 0.00 0.00 0.00 0.00 0.00 0.00 0.00 0.00 0.00 0.00 0.00 0.00 0.00 0.00 0.00 0.01 0.03 0.04 0.06 0.11 0.12 0.09 0.13 0.23 0.27 0.29 0.13 0.01 0.01 0.01 0.02 0.02 0.03 0.07 0.14 0.22
0.00 0.00 0.00 0.00 0.00 0.00 0.00 0.00 0.00 0.00 0.00 0.00 0.00 0.00 0.00 0.00 0.00 0.00 0.00 0.00 0.00 0.00 0.02 0.03 0.05 0.08 0.13 0.19 0.18 0.16 0.14 0.13 0.18 0.28 0.12 0.02 0.03 0.03 0.03 0.03 0.05 0.09 0.15
0.00 0.00 0.00 0.00 0.00 0.00 0.00 0.00 0.00 0.00 0.00 0.00 0.00 0.00 0.00 0.00 0.00 0.00 0.00 0.00 0.00 0.01 0.02 0.04 0.07 0.10 0.14 0.17 0.20 0.21 0.24 0.25 0.19 0.25 0.21 0.07 0.03 0.02 0.03 0.03 0.04 0.08 0.13

GEFSSE_prec_meanprecacc_078.txt.gz
Total_Precipitation_Accumulation
0.02 0.05 0.11 0.15 0.14 0.11 0.08 0.07 0.06 0.06 0.07 0.08 0.09 0.11 0.14 0.16 0.18 0.20 0.20 0.20 0.19 0.17 0.17 0.18 0.17 0.16 0.14 0.13 0.13 0.14 0.13 0.12 0.11 0.12 0.12 0.12 0.13 0.13 0.15 0.17 0.16 0.16 0.21
0.04 0.06 0.09 0.10 0.09 0.08 0.06 0.05 0.04 0.04 0.05 0.06 0.06 0.07 0.08 0.11 0.14 0.16 0.18 0.19 0.20 0.19 0.17 0.17 0.17 0.16 0.14 0.15 0.17 0.16 0.14 0.12 0.09 0.10 0.10 0.08 0.09 0.11 0.14 0.17 0.18 0.23 0.23
0.03 0.04 0.05 0.07 0.07 0.06 0.05 0.04 0.03 0.03 0.03 0.04 0.04 0.04 0.05 0.07 0.10 0.12 0.14 0.15 0.17 0.18 0.19 0.18 0.18 0.20 0.17 0.18 0.20 0.17 0.16 0.13 0.09 0.07 0.07 0.10 0.13 0.12 0.14 0.16 0.15 0.20 0.23
0.01 0.03 0.03 0.05 0.06 0.06 0.05 0.04 0.04 0.03 0.04 0.04 0.03 0.03 0.04 0.05 0.05 0.07 0.09 0.11 0.16 0.19 0.24 0.22 0.21 0.24 0.20 0.18 0.19 0.18 0.20 0.17 0.10 0.06 0.02 0.07 0.20 0.20 0.21 0.22 0.19 0.23 0.25
0.01 0.01 0.02 0.05 0.06 0.06 0.05 0.05 0.04 0.04 0.04 0.05 0.04 0.04 0.04 0.05 0.04 0.04 0.04 0.06 0.14 0.20 0.24 0.27 0.26 0.26 0.25 0.23 0.20 0.21 0.23 0.21 0.12 0.05 0.01 0.03 0.15 0.26 0.25 0.25 0.23 0.24 0.25
0.00 0.01 0.02 0.05 0.06 0.06 0.06 0.05 0.04 0.04 0.04 0.04 0.05 0.05 0.07 0.07 0.05 0.04 0.04 0.04 0.07 0.13 0.20 0.25 0.28 0.31 0.31 0.25 0.22 0.26 0.31 0.29 0.12 0.02 0.01 0.02 0.12 0.27 0.27 0.26 0.25 0.23 0.23
0.00 0.02 0.04 0.06 0.06 0.05 0.06 0.05 0.05 0.05 0.05 0.05 0.05 0.06 0.07 0.07 0.07 0.07 0.06 0.06 0.05 0.06 0.11 0.17 0.22 0.28 0.32 0.28 0.27 0.31 0.39 0.30 0.10 0.07 0.04 0.03 0.11 0.38 0.50 0.40 0.30 0.25 0.25
0.00 0.02 0.04 0.04 0.04 0.05 0.06 0.06 0.07 0.07 0.07 0.07 0.07 0.07 0.06 0.06 0.07 0.09 0.09 0.08 0.07 0.07 0.09 0.11 0.16 0.23 0.28 0.30 0.31 0.35 0.39 0.24 0.09 0.10 0.10 0.08 0.19 0.54 0.66 0.67 0.52 0.33 0.27
0.00 0.00 0.01 0.01 0.02 0.03 0.05 0.07 0.06 0.06 0.06 0.06 0.06 0.05 0.04 0.05 0.08 0.11 0.10 0.08 0.08 0.09 0.09 0.08 0.08 0.11 0.18 0.27 0.31 0.30 0.28 0.19 0.10 0.16 0.14 0.19 0.22 0.58 0.72 0.81 0.70 0.49 0.34
0.00 0.00 0.00 0.00 0.00 0.01 0.03 0.06 0.06 0.05 0.04 0.04 0.04 0.04 0.05 0.05 0.06 0.08 0.08 0.07 0.07 0.08 0.08 0.07 0.07 0.06 0.08 0.11 0.15 0.16 0.13 0.10 0.09 0.16 0.28 0.25 0.25 0.63 0.79 0.83 0.74 0.62 0.50
0.00 0.00 0.00 0.00 0.00 0.00 0.01 0.04 0.06 0.06 0.04 0.04 0.03 0.04 0.04 0.03 0.02 0.03 0.03 0.05 0.06 0.06 0.06 0.07 0.08 0.07 0.06 0.04 0.04 0.05 0.04 0.02 0.06 0.17 0.23 0.24 0.38 0.74 0.84 0.83 0.78 0.69 0.64
0.00 0.00 0.00 0.00 0.00 0.00 0.01 0.03 0.05 0.05 0.05 0.05 0.05 0.06 0.06 0.05 0.04 0.04 0.04 0.06 0.07 0.07 0.07 0.09 0.10 0.08 0.06 0.04 0.07 0.09 0.03 0.01 0.02 0.05 0.07 0.12 0.40 0.78 0.91 0.86 0.87 0.83 0.78
0.00 0.00 0.00 0.00 0.00 0.00 0.00 0.02 0.02 0.03 0.04 0.07 0.08 0.10 0.10 0.08 0.10 0.11 0.11 0.11 0.09 0.08 0.11 0.13 0.14 0.15 0.17 0.17 0.18 0.16 0.09 0.06 0.04 0.02 0.02 0.07 0.20 0.41 0.68 0.82 0.90 0.92 0.91
0.00 0.00 0.00 0.00 0.00 0.00 0.00 0.01 0.01 0.02 0.03 0.04 0.06 0.07 0.07 0.07 0.10 0.13 0.13 0.12 0.09 0.10 0.12 0.15 0.15 0.15 0.15 0.14 0.16 0.14 0.12 0.11 0.08 0.07 0.04 0.05 0.09 0.13 0.30 0.52 0.70 0.82 0.91
0.00 0.00 0.00 0.00 0.00 0.00 0.00 0.00 0.00 0.01 0.01 0.02 0.03 0.03 0.03 0.05 0.04 0.04 0.03 0.03 0.04 0.06 0.06 0.05 0.05 0.06 0.08 0.09 0.10 0.11 0.13 0.13 0.14 0.12 0.10 0.09 0.08 0.08 0.13 0.26 0.46 0.65 0.81
0.00 0.00 0.00 0.00 0.00 0.00 0.00 0.00 0.00 0.00 0.00 0.00 0.00 0.00 0.01 0.02 0.01 0.01 0.01 0.02 0.02 0.02 0.02 0.01 0.01 0.01 0.01 0.03 0.04 0.06 0.09 0.10 0.11 0.13 0.13 0.14 0.12 0.10 0.11 0.17 0.28 0.53 0.74
0.00 0.00 0.00 0.00 0.00 0.00 0.00 0.00 0.00 0.00 0.00 0.00 0.00 0.00 0.00 0.00 0.00 0.00 0.01 0.01 0.01 0.01 0.01 0.00 0.00 0.00 0.00 0.00 0.01 0.01 0.02 0.05 0.07 0.08 0.11 0.15 0.17 0.15 0.14 0.15 0.17 0.33 0.59
0.00 0.00 0.00 0.00 0.00 0.00 0.00 0.00 0.00 0.00 0.00 0.00 0.00 0.00 0.00 0.00 0.00 0.00 0.00 0.00 0.00 0.00 0.00 0.00 0.00 0.00 0.00 0.00 0.00 0.00 0.00 0.01 0.02 0.03 0.05 0.10 0.18 0.21 0.19 0.18 0.18 0.21 0.40
0.00 0.00 0.00 0.00 0.00 0.00 0.00 0.00 0.00 0.00 0.00 0.00 0.00 0.00 0.00 0.00 0.00 0.00 0.00 0.00 0.00 0.00 0.00 0.00 0.00 0.00 0.00 0.00 0.00 0.00 0.00 0.00 0.01 0.02 0.03 0.05 0.09 0.17 0.23 0.23 0.22 0.19 0.25
0.00 0.00 0.00 0.00 0.00 0.00 0.00 0.00 0.00 0.00 0.00 0.00 0.00 0.00 0.00 0.00 0.00 0.00 0.00 0.00 0.00 0.00 0.00 0.00 0.00 0.00 0.00 0.00 0.00 0.00 0.00 0.00 0.00 0.01 0.02 0.04 0.05 0.09 0.17 0.24 0.26 0.20 0.17
0.00 0.00 0.00 0.00 0.00 0.00 0.00 0.00 0.00 0.00 0.00 0.00 0.00 0.00 0.00 0.00 0.00 0.00 0.00 0.00 0.00 0.00 0.00 0.00 0.00 0.01 0.01 0.01 0.02 0.01 0.00 0.00 0.00 0.00 0.00 0.01 0.03 0.05 0.09 0.19 0.27 0.26 0.21
0.00 0.00 0.00 0.00 0.00 0.00 0.00 0.00 0.00 0.00 0.00 0.00 0.00 0.00 0.00 0.00 0.00 0.00 0.00 0.00 0.00 0.00 0.00 0.01 0.01 0.02 0.02 0.03 0.06 0.09 0.04 0.00 0.00 0.00 0.00 0.00 0.01 0.02 0.06 0.11 0.21 0.27 0.27
0.00 0.00 0.00 0.00 0.00 0.00 0.00 0.00 0.00 0.00 0.00 0.00 0.00 0.00 0.00 0.00 0.00 0.00 0.00 0.00 0.00 0.00 0.01 0.01 0.02 0.05 0.06 0.04 0.07 0.23 0.29 0.15 0.05 0.00 0.00 0.00 0.01 0.01 0.03 0.07 0.14 0.22 0.29
0.00 0.00 0.00 0.00 0.00 0.00 0.00 0.00 0.00 0.00 0.00 0.00 0.00 0.00 0.00 0.00 0.00 0.00 0.00 0.00 0.00 0.00 0.01 0.03 0.04 0.06 0.11 0.12 0.09 0.13 0.23 0.27 0.29 0.13 0.01 0.01 0.01 0.02 0.02 0.03 0.07 0.14 0.22
0.00 0.00 0.00 0.00 0.00 0.00 0.00 0.00 0.00 0.00 0.00 0.00 0.00 0.00 0.00 0.00 0.00 0.00 0.00 0.00 0.00 0.00 0.02 0.03 0.05 0.08 0.13 0.19 0.18 0.16 0.14 0.13 0.18 0.28 0.12 0.02 0.03 0.03 0.03 0.03 0.05 0.09 0.15
0.00 0.00 0.00 0.00 0.00 0.00 0.00 0.00 0.00 0.00 0.00 0.00 0.00 0.00 0.00 0.00 0.00 0.00 0.00 0.00 0.00 0.01 0.02 0.04 0.07 0.10 0.14 0.17 0.20 0.21 0.24 0.25 0.19 0.25 0.21 0.07 0.03 0.02 0.03 0.03 0.04 0.08 0.13

GEFSSE_prec_meanprecacc_084.txt.gz
Total_Precipitation_Accumulation
0.02 0.05 0.11 0.16 0.14 0.11 0.08 0.07 0.06 0.06 0.08 0.09 0.10 0.12 0.15 0.17 0.19 0.20 0.20 0.20 0.19 0.17 0.17 0.18 0.17 0.16 0.14 0.13 0.13 0.15 0.14 0.13 0.12 0.13 0.13 0.14 0.15 0.15 0.16 0.17 0.16 0.17 0.22
0.04 0.06 0.09 0.11 0.09 0.08 0.06 0.05 0.04 0.04 0.05 0.06 0.06 0.07 0.09 0.12 0.15 0.17 0.18 0.19 0.20 0.20 0.17 0.17 0.17 0.16 0.14 0.16 0.17 0.16 0.14 0.12 0.10 0.10 0.10 0.08 0.10 0.13 0.15 0.18 0.19 0.24 0.24
0.03 0.04 0.05 0.08 0.07 0.06 0.06 0.04 0.03 0.03 0.04 0.04 0.04 0.05 0.06 0.07 0.10 0.13 0.15 0.15 0.17 0.18 0.19 0.18 0.18 0.20 0.17 0.18 0.20 0.18 0.17 0.14 0.09 0.07 0.07 0.10 0.14 0.13 0.15 0.17 0.16 0.21 0.24
0.01 0.03 0.03 0.05 0.06 0.06 0.05 0.05 0.04 0.04 0.04 0.04 0.04 0.04 0.04 0.05 0.06 0.07 0.09 0.11 0.16 0.19 0.24 0.22 0.21 0.24 0.20 0.18 0.19 0.19 0.20 0.17 0.10 0.06 0.02 0.07 0.21 0.21 0.22 0.23 0.20 0.23 0.26
0.01 0.01 0.02 0.05 0.06 0.06 0.06 0.05 0.04 0.04 0.05 0.05 0.05 0.04 0.05 0.05 0.05 0.05 0.04 0.06 0.14 0.21 0.24 0.27 0.26 0.26 0.25 0.23 0.20 0.21 0.23 0.21 0.12 0.05 0.01 0.03 0.15 0.27 0.25 0.26 0.24 0.25 0.26
0.00 0.01 0.02 0.06 0.07 0.07 0.06 0.06 0.05 0.04 0.05 0.05 0.05 0.06 0.07 0.07 0.05 0.04 0.04 0.04 0.07 0.13 0.20 0.25 0.28 0.31 0.31 0.25 0.22 0.26 0.31 0.29 0.12 0.02 0.01 0.02 0.12 0.28 0.28 0.26 0.25 0.24 0.24
0.00 0.02 0.04 0.06 0.06 0.06 0.06 0.06 0.05 0.05 0.05 0.05 0.05 0.06 0.07 0.08 0.07 0.07 0.06 0.06 0.05 0.06 0.11 0.17 0.22 0.28 0.32 0.28 0.27 0.31 0.39 0.30 0.10 0.07 0.04 0.03 0.11 0.38 0.51 0.40 0.31 0.25 0.25
0.00 0.02 0.04 0.04 0.05 0.05 0.06 0.07 0.07 0.08 0.07 0.07 0.07 0.07 0.06 0.06 0.08 0.09 0.09 0.08 0.07 0.07 0.09 0.11 0.16 0.23 0.28 0.30 0.31 0.35 0.39 0.24 0.09 0.10 0.10 0.08 0.19 0.54 0.66 0.67 0.52 0.33 0.27
0.00 0.00 0.01 0.01 0.02 0.03 0.06 0.07 0.07 0.07 0.07 0.06 0.06 0.06 0.05 0.05 0.08 0.11 0.10 0.08 0.08 0.09 0.09 0.08 0.08 0.11 0.18 0.27 0.31 0.30 0.28 0.19 0.10 0.16 0.14 0.19 0.22 0.58 0.72 0.81 0.70 0.49 0.35
0.00 0.00 0.00 0.00 0.00 0.01 0.03 0.07 0.07 0.06 0.05 0.05 0.04 0.04 0.05 0.06 0.06 0.09 0.08 0.07 0.07 0.08 0.08 0.07 0.07 0.06 0.08 0.11 0.15 0.16 0.13 0.10 0.09 0.16 0.28 0.25 0.25 0.63 0.79 0.83 0.74 0.62 0.50
0.00 0.00 0.00 0.00 0.00 0.00 0.01 0.04 0.06 0.06 0.05 0.04 0.04 0.04 0.04 0.03 0.02 0.03 0.03 0.05 0.06 0.06 0.06 0.07 0.08 0.07 0.06 0.04 0.04 0.05 0.04 0.02 0.06 0.17 0.23 0.24 0.38 0.74 0.84 0.83 0.78 0.69 0.64
0.00 0.00 0.00 0.00 0.00 0.00 0.01 0.03 0.05 0.06 0.05 0.05 0.05 0.06 0.06 0.05 0.04 0.04 0.04 0.06 0.07 0.07 0.07 0.09 0.10 0.08 0.06 0.04 0.07 0.09 0.03 0.01 0.02 0.05 0.07 0.12 0.40 0.78 0.91 0.86 0.87 0.83 0.78
0.00 0.00 0.00 0.00 0.00 0.00 0.00 0.02 0.02 0.03 0.05 0.07 0.09 0.10 0.10 0.08 0.10 0.11 0.11 0.11 0.09 0.08 0.11 0.13 0.14 0.15 0.17 0.17 0.18 0.16 0.09 0.06 0.04 0.02 0.02 0.07 0.20 0.41 0.68 0.82 0.90 0.92 0.91
0.00 0.00 0.00 0.00 0.00 0.00 0.00 0.01 0.01 0.02 0.03 0.04 0.06 0.07 0.07 0.07 0.10 0.13 0.13 0.12 0.09 0.10 0.12 0.15 0.15 0.15 0.15 0.14 0.16 0.14 0.12 0.11 0.08 0.07 0.04 0.05 0.09 0.13 0.30 0.52 0.70 0.82 0.91
0.00 0.00 0.00 0.00 0.00 0.00 0.00 0.00 0.00 0.01 0.01 0.02 0.03 0.03 0.03 0.05 0.04 0.04 0.03 0.03 0.04 0.06 0.06 0.05 0.05 0.06 0.08 0.09 0.10 0.11 0.13 0.13 0.14 0.12 0.10 0.09 0.08 0.08 0.13 0.26 0.46 0.65 0.81
0.00 0.00 0.00 0.00 0.00 0.00 0.00 0.00 0.00 0.00 0.00 0.00 0.00 0.00 0.01 0.02 0.01 0.01 0.01 0.02 0.02 0.02 0.02 0.01 0.01 0.01 0.01 0.03 0.04 0.06 0.09 0.10 0.11 0.13 0.13 0.14 0.12 0.10 0.11 0.17 0.28 0.53 0.74
0.00 0.00 0.00 0.00 0.00 0.00 0.00 0.00 0.00 0.00 0.00 0.00 0.00 0.00 0.00 0.00 0.00 0.00 0.01 0.01 0.01 0.01 0.01 0.00 0.00 0.00 0.00 0.00 0.01 0.01 0.02 0.05 0.07 0.08 0.11 0.15 0.17 0.15 0.14 0.15 0.17 0.33 0.59
0.00 0.00 0.00 0.00 0.00 0.00 0.00 0.00 0.00 0.00 0.00 0.00 0.00 0.00 0.00 0.00 0.00 0.00 0.00 0.00 0.00 0.00 0.00 0.00 0.00 0.00 0.00 0.00 0.00 0.00 0.00 0.01 0.02 0.03 0.05 0.10 0.18 0.21 0.19 0.18 0.18 0.21 0.40
0.00 0.00 0.00 0.00 0.00 0.00 0.00 0.00 0.00 0.00 0.00 0.00 0.00 0.00 0.00 0.00 0.00 0.00 0.00 0.00 0.00 0.00 0.00 0.00 0.00 0.00 0.00 0.00 0.00 0.00 0.00 0.00 0.01 0.02 0.03 0.05 0.09 0.17 0.23 0.23 0.22 0.19 0.25
0.00 0.00 0.00 0.00 0.00 0.00 0.00 0.00 0.00 0.00 0.00 0.00 0.00 0.00 0.00 0.00 0.00 0.00 0.00 0.00 0.00 0.00 0.00 0.00 0.00 0.00 0.00 0.00 0.00 0.00 0.00 0.00 0.00 0.01 0.02 0.04 0.05 0.09 0.17 0.24 0.26 0.20 0.17
0.00 0.00 0.00 0.00 0.00 0.00 0.00 0.00 0.00 0.00 0.00 0.00 0.00 0.00 0.00 0.00 0.00 0.00 0.00 0.00 0.00 0.00 0.00 0.00 0.00 0.01 0.01 0.01 0.02 0.01 0.00 0.00 0.00 0.00 0.00 0.01 0.03 0.05 0.09 0.19 0.27 0.26 0.21
0.00 0.00 0.00 0.00 0.00 0.00 0.00 0.00 0.00 0.00 0.00 0.00 0.00 0.00 0.00 0.00 0.00 0.00 0.00 0.00 0.00 0.00 0.00 0.01 0.01 0.02 0.02 0.03 0.06 0.10 0.04 0.00 0.00 0.00 0.00 0.00 0.01 0.02 0.06 0.11 0.21 0.27 0.27
0.00 0.00 0.00 0.00 0.00 0.00 0.00 0.00 0.00 0.00 0.00 0.00 0.00 0.00 0.00 0.00 0.00 0.00 0.00 0.00 0.00 0.00 0.01 0.01 0.02 0.05 0.06 0.04 0.07 0.23 0.29 0.15 0.05 0.00 0.00 0.00 0.01 0.01 0.03 0.07 0.14 0.22 0.29
0.00 0.00 0.00 0.00 0.00 0.00 0.00 0.00 0.00 0.00 0.00 0.00 0.00 0.00 0.00 0.00 0.00 0.00 0.00 0.00 0.00 0.00 0.01 0.03 0.04 0.06 0.11 0.12 0.09 0.13 0.23 0.27 0.29 0.13 0.01 0.01 0.01 0.02 0.02 0.03 0.07 0.14 0.22
0.00 0.00 0.00 0.00 0.00 0.00 0.00 0.00 0.00 0.00 0.00 0.00 0.00 0.00 0.00 0.00 0.00 0.00 0.00 0.00 0.00 0.00 0.02 0.03 0.05 0.08 0.13 0.19 0.18 0.16 0.14 0.13 0.18 0.28 0.12 0.02 0.03 0.03 0.03 0.03 0.05 0.09 0.15
0.00 0.00 0.00 0.00 0.00 0.00 0.00 0.00 0.00 0.00 0.00 0.00 0.00 0.00 0.00 0.00 0.00 0.00 0.00 0.00 0.00 0.01 0.02 0.04 0.07 0.10 0.14 0.17 0.20 0.21 0.24 0.25 0.19 0.25 0.21 0.07 0.03 0.02 0.03 0.03 0.04 0.08 0.13

GEFSSE_prec_meanprecacc_090.txt.gz
Total_Precipitation_Accumulation
0.02 0.05 0.11 0.16 0.14 0.11 0.08 0.07 0.07 0.06 0.08 0.10 0.12 0.14 0.16 0.18 0.20 0.21 0.21 0.21 0.19 0.17 0.17 0.18 0.17 0.16 0.15 0.14 0.14 0.15 0.15 0.14 0.13 0.13 0.14 0.15 0.16 0.16 0.16 0.18 0.17 0.17 0.22
0.04 0.06 0.09 0.11 0.09 0.08 0.06 0.05 0.05 0.04 0.05 0.07 0.07 0.08 0.10 0.12 0.15 0.17 0.19 0.20 0.21 0.20 0.17 0.17 0.17 0.16 0.15 0.17 0.18 0.17 0.15 0.13 0.10 0.10 0.11 0.08 0.11 0.14 0.16 0.19 0.19 0.24 0.24
0.03 0.04 0.05 0.08 0.07 0.06 0.06 0.05 0.04 0.03 0.04 0.05 0.05 0.06 0.07 0.08 0.10 0.13 0.15 0.16 0.17 0.18 0.19 0.18 0.18 0.20 0.17 0.18 0.21 0.18 0.17 0.14 0.09 0.07 0.07 0.10 0.14 0.14 0.16 0.18 0.17 0.22 0.25
0.01 0.03 0.03 0.05 0.06 0.06 0.05 0.05 0.04 0.04 0.04 0.05 0.05 0.05 0.05 0.05 0.06 0.07 0.09 0.12 0.16 0.20 0.24 0.22 0.21 0.24 0.21 0.18 0.19 0.19 0.20 0.17 0.10 0.06 0.02 0.07 0.21 0.22 0.23 0.23 0.21 0.24 0.27
0.01 0.01 0.02 0.05 0.06 0.06 0.06 0.05 0.05 0.05 0.05 0.06 0.05 0.05 0.05 0.05 0.05 0.05 0.04 0.06 0.14 0.21 0.24 0.27 0.26 0.26 0.25 0.23 0.20 0.21 0.23 0.21 0.12 0.05 0.01 0.03 0.16 0.27 0.26 0.26 0.24 0.25 0.27
0.00 0.01 0.02 0.06 0.07 0.07 0.06 0.06 0.05 0.04 0.05 0.06 0.05 0.06 0.07 0.07 0.05 0.04 0.04 0.04 0.07 0.13 0.20 0.25 0.28 0.31 0.31 0.25 0.22 0.26 0.31 0.29 0.12 0.02 0.01 0.02 0.13 0.28 0.28 0.27 0.25 0.24 0.24
0.00 0.02 0.04 0.06 0.06 0.06 0.06 0.06 0.06 0.05 0.05 0.06 0.06 0.07 0.08 0.08 0.07 0.07 0.06 0.06 0.05 0.06 0.11 0.17 0.22 0.28 0.32 0.28 0.27 0.31 0.39 0.30 0.10 0.07 0.04 0.03 0.11 0.38 0.51 0.40 0.31 0.25 0.25
0.00 0.02 0.04 0.04 0.05 0.05 0.07 0.08 0.08 0.08 0.08 0.07 0.08 0.08 0.07 0.06 0.08 0.09 0.09 0.08 0.07 0.07 0.09 0.11 0.16 0.23 0.28 0.30 0.31 0.35 0.39 0.24 0.09 0.10 0.10 0.08 0.19 0.54 0.66 0.67 0.52 0.33 0.27
0.00 0.00 0.01 0.01 0.02 0.04 0.06 0.08 0.08 0.07 0.07 0.07 0.07 0.06 0.05 0.05 0.09 0.11 0.10 0.08 0.08 0.09 0.09 0.08 0.08 0.11 0.18 0.27 0.31 0.30 0.28 0.19 0.10 0.16 0.14 0.19 0.22 0.58 0.72 0.81 0.70 0.49 0.35
0.00 0.00 0.00 0.00 0.00 0.01 0.04 0.07 0.08 0.06 0.06 0.05 0.05 0.05 0.06 0.06 0.07 0.09 0.08 0.07 0.07 0.08 0.08 0.07 0.07 0.06 0.08 0.11 0.15 0.16 0.13 0.10 0.09 0.16 0.28 0.25 0.25 0.63 0.79 0.83 0.74 0.62 0.50
0.00 0.00 0.00 0.00 0.00 0.00 0.02 0.05 0.07 0.07 0.06 0.05 0.05 0.04 0.05 0.04 0.03 0.03 0.03 0.05 0.06 0.06 0.06 0.07 0.08 0.07 0.06 0.04 0.04 0.05 0.04 0.02 0.06 0.17 0.23 0.24 0.38 0.74 0.84 0.83 0.78 0.69 0.64
0.00 0.00 0.00 0.00 0.00 0.00 0.01 0.03 0.05 0.06 0.06 0.05 0.06 0.06 0.06 0.05 0.04 0.04 0.04 0.06 0.07 0.07 0.07 0.09 0.10 0.08 0.06 0.04 0.07 0.09 0.03 0.01 0.02 0.05 0.07 0.12 0.40 0.78 0.91 0.86 0.87 0.83 0.78
0.00 0.00 0.00 0.00 0.00 0.00 0.00 0.02 0.03 0.03 0.05 0.07 0.09 0.10 0.10 0.09 0.10 0.11 0.11 0.11 0.09 0.08 0.11 0.13 0.14 0.15 0.17 0.17 0.18 0.16 0.09 0.06 0.04 0.02 0.02 0.07 0.20 0.41 0.68 0.82 0.90 0.92 0.91
0.00 0.00 0.00 0.00 0.00 0.00 0.00 0.01 0.01 0.02 0.04 0.05 0.07 0.07 0.07 0.08 0.10 0.13 0.14 0.12 0.09 0.10 0.12 0.15 0.15 0.15 0.15 0.14 0.16 0.14 0.12 0.11 0.08 0.07 0.04 0.05 0.09 0.13 0.30 0.52 0.70 0.82 0.91
0.00 0.00 0.00 0.00 0.00 0.00 0.00 0.00 0.00 0.01 0.01 0.03 0.03 0.03 0.03 0.05 0.05 0.04 0.03 0.03 0.04 0.06 0.06 0.05 0.05 0.06 0.08 0.09 0.10 0.11 0.13 0.13 0.14 0.12 0.10 0.09 0.08 0.08 0.13 0.26 0.46 0.65 0.81
0.00 0.00 0.00 0.00 0.00 0.00 0.00 0.00 0.00 0.00 0.00 0.00 0.00 0.01 0.01 0.02 0.02 0.02 0.02 0.02 0.02 0.02 0.02 0.01 0.01 0.01 0.01 0.03 0.04 0.06 0.09 0.10 0.11 0.13 0.13 0.14 0.12 0.10 0.11 0.17 0.28 0.53 0.74
0.00 0.00 0.00 0.00 0.00 0.00 0.00 0.00 0.00 0.00 0.00 0.00 0.00 0.00 0.00 0.00 0.00 0.01 0.01 0.01 0.01 0.01 0.01 0.00 0.00 0.00 0.00 0.00 0.01 0.01 0.02 0.05 0.07 0.08 0.11 0.15 0.17 0.15 0.14 0.15 0.17 0.33 0.59
0.00 0.00 0.00 0.00 0.00 0.00 0.00 0.00 0.00 0.00 0.00 0.00 0.00 0.00 0.00 0.00 0.00 0.00 0.00 0.01 0.00 0.00 0.00 0.00 0.00 0.00 0.00 0.00 0.00 0.00 0.00 0.01 0.02 0.03 0.05 0.10 0.18 0.21 0.19 0.18 0.18 0.21 0.40
0.00 0.00 0.00 0.00 0.00 0.00 0.00 0.00 0.00 0.00 0.00 0.00 0.00 0.00 0.00 0.00 0.00 0.00 0.00 0.00 0.00 0.00 0.00 0.00 0.00 0.00 0.00 0.00 0.00 0.00 0.00 0.00 0.01 0.02 0.03 0.05 0.09 0.17 0.23 0.23 0.22 0.19 0.25
0.00 0.00 0.00 0.00 0.00 0.00 0.00 0.00 0.00 0.00 0.00 0.00 0.00 0.00 0.00 0.00 0.00 0.00 0.00 0.00 0.00 0.00 0.00 0.00 0.00 0.00 0.01 0.01 0.01 0.00 0.00 0.00 0.00 0.01 0.02 0.04 0.05 0.09 0.17 0.24 0.26 0.20 0.17
0.00 0.00 0.00 0.00 0.00 0.00 0.00 0.00 0.00 0.00 0.00 0.00 0.00 0.00 0.00 0.00 0.00 0.00 0.00 0.00 0.00 0.00 0.00 0.00 0.01 0.01 0.01 0.01 0.02 0.01 0.00 0.00 0.00 0.00 0.00 0.01 0.03 0.05 0.09 0.19 0.27 0.26 0.21
0.00 0.00 0.00 0.00 0.00 0.00 0.00 0.00 0.00 0.00 0.00 0.00 0.00 0.00 0.00 0.00 0.00 0.00 0.00 0.00 0.00 0.00 0.01 0.01 0.01 0.02 0.02 0.03 0.06 0.10 0.04 0.00 0.00 0.00 0.00 0.00 0.01 0.02 0.06 0.11 0.21 0.27 0.27
0.00 0.00 0.00 0.00 0.00 0.00 0.00 0.00 0.00 0.00 0.00 0.00 0.00 0.00 0.00 0.00 0.00 0.00 0.00 0.00 0.00 0.00 0.01 0.01 0.02 0.05 0.07 0.04 0.07 0.23 0.29 0.15 0.05 0.00 0.00 0.00 0.01 0.01 0.03 0.07 0.14 0.22 0.29
0.00 0.00 0.00 0.00 0.00 0.00 0.00 0.00 0.00 0.00 0.00 0.00 0.00 0.00 0.00 0.00 0.00 0.00 0.00 0.00 0.00 0.00 0.01 0.03 0.04 0.06 0.11 0.12 0.09 0.13 0.23 0.27 0.29 0.13 0.01 0.01 0.01 0.02 0.02 0.03 0.07 0.14 0.22
0.00 0.00 0.00 0.00 0.00 0.00 0.00 0.00 0.00 0.00 0.00 0.00 0.00 0.00 0.00 0.00 0.00 0.00 0.00 0.00 0.00 0.01 0.02 0.03 0.05 0.08 0.13 0.19 0.18 0.17 0.14 0.13 0.18 0.28 0.12 0.02 0.03 0.03 0.03 0.03 0.05 0.09 0.15
0.00 0.00 0.00 0.00 0.00 0.00 0.00 0.00 0.00 0.00 0.00 0.00 0.00 0.00 0.00 0.00 0.00 0.00 0.00 0.00 0.00 0.01 0.02 0.04 0.07 0.10 0.14 0.17 0.20 0.21 0.24 0.25 0.19 0.25 0.21 0.07 0.03 0.02 0.03 0.03 0.04 0.08 0.13

GEFSSE_prec_meanprecacc_096.txt.gz
Total_Precipitation_Accumulation
0.02 0.05 0.11 0.16 0.14 0.11 0.09 0.08 0.07 0.07 0.09 0.11 0.13 0.15 0.17 0.18 0.20 0.21 0.21 0.21 0.19 0.18 0.17 0.19 0.18 0.17 0.16 0.15 0.15 0.16 0.15 0.14 0.13 0.14 0.16 0.17 0.18 0.17 0.17 0.18 0.17 0.17 0.22
0.04 0.06 0.09 0.11 0.09 0.08 0.07 0.06 0.05 0.05 0.06 0.08 0.08 0.09 0.10 0.13 0.16 0.18 0.19 0.20 0.21 0.20 0.18 0.18 0.18 0.17 0.16 0.18 0.19 0.18 0.15 0.13 0.10 0.10 0.11 0.09 0.12 0.15 0.17 0.20 0.20 0.25 0.25
0.03 0.04 0.06 0.08 0.07 0.07 0.06 0.05 0.04 0.04 0.05 0.05 0.05 0.06 0.07 0.08 0.11 0.14 0.15 0.16 0.17 0.18 0.19 0.18 0.19 0.21 0.18 0.19 0.22 0.19 0.18 0.14 0.09 0.07 0.07 0.10 0.15 0.15 0.17 0.19 0.18 0.23 0.25
0.01 0.03 0.03 0.05 0.06 0.06 0.06 0.05 0.04 0.04 0.05 0.05 0.05 0.05 0.06 0.06 0.06 0.07 0.09 0.12 0.16 0.20 0.24 0.22 0.21 0.24 0.21 0.18 0.19 0.19 0.20 0.17 0.10 0.06 0.02 0.07 0.21 0.22 0.23 0.24 0.21 0.25 0.28
0.01 0.01 0.02 0.05 0.06 0.06 0.06 0.05 0.05 0.05 0.05 0.07 0.06 0.05 0.06 0.06 0.05 0.05 0.04 0.06 0.14 0.21 0.24 0.27 0.26 0.26 0.25 0.23 0.21 0.21 0.23 0.21 0.12 0.05 0.01 0.03 0.16 0.28 0.26 0.27 0.25 0.26 0.27
0.00 0.01 0.02 0.06 0.07 0.07 0.07 0.06 0.05 0.05 0.05 0.06 0.06 0.07 0.08 0.08 0.06 0.04 0.04 0.04 0.07 0.13 0.20 0.25 0.28 0.31 0.31 0.25 0.22 0.26 0.31 0.29 0.12 0.02 0.01 0.02 0.13 0.28 0.29 0.27 0.26 0.24 0.24
0.00 0.02 0.04 0.07 0.07 0.06 0.07 0.07 0.06 0.06 0.06 0.06 0.06 0.07 0.08 0.08 0.07 0.07 0.06 0.06 0.05 0.06 0.11 0.17 0.22 0.28 0.32 0.28 0.27 0.31 0.39 0.30 0.10 0.07 0.04 0.03 0.11 0.38 0.51 0.41 0.31 0.26 0.25
0.00 0.02 0.04 0.05 0.05 0.06 0.07 0.08 0.08 0.08 0.08 0.08 0.08 0.08 0.07 0.07 0.08 0.09 0.09 0.08 0.07 0.07 0.09 0.11 0.16 0.23 0.28 0.30 0.31 0.35 0.39 0.24 0.09 0.10 0.10 0.08 0.19 0.54 0.66 0.67 0.52 0.33 0.27
0.00 0.00 0.01 0.01 0.02 0.04 0.07 0.09 0.08 0.08 0.07 0.07 0.07 0.07 0.06 0.06 0.09 0.12 0.10 0.08 0.08 0.09 0.09 0.08 0.08 0.11 0.18 0.27 0.31 0.30 0.28 0.19 0.10 0.16 0.14 0.19 0.22 0.58 0.72 0.81 0.70 0.49 0.35
0.00 0.00 0.00 0.00 0.00 0.01 0.04 0.08 0.08 0.07 0.06 0.06 0.06 0.06 0.06 0.07 0.07 0.09 0.08 0.07 0.07 0.08 0.08 0.07 0.07 0.06 0.08 0.11 0.15 0.16 0.13 0.10 0.09 0.16 0.28 0.25 0.25 0.63 0.79 0.83 0.74 0.62 0.50
0.00 0.00 0.00 0.00 0.00 0.00 0.02 0.05 0.08 0.08 0.06 0.05 0.05 0.05 0.05 0.04 0.03 0.03 0.04 0.05 0.06 0.06 0.06 0.07 0.08 0.07 0.06 0.04 0.04 0.05 0.04 0.02 0.06 0.17 0.23 0.24 0.38 0.74 0.84 0.83 0.78 0.69 0.64
0.00 0.00 0.00 0.00 0.00 0.00 0.01 0.03 0.06 0.07 0.06 0.06 0.06 0.06 0.07 0.05 0.04 0.04 0.04 0.06 0.08 0.07 0.07 0.09 0.10 0.08 0.06 0.04 0.07 0.09 0.03 0.01 0.02 0.05 0.07 0.12 0.40 0.78 0.91 0.86 0.87 0.83 0.78
0.00 0.00 0.00 0.00 0.00 0.00 0.01 0.02 0.03 0.03 0.05 0.08 0.09 0.11 0.10 0.09 0.10 0.12 0.11 0.11 0.09 0.08 0.11 0.13 0.15 0.15 0.17 0.17 0.18 0.16 0.09 0.06 0.04 0.02 0.02 0.07 0.20 0.41 0.68 0.82 0.90 0.92 0.91
0.00 0.00 0.00 0.00 0.00 0.00 0.00 0.01 0.01 0.02 0.04 0.05 0.07 0.08 0.07 0.08 0.10 0.13 0.14 0.12 0.10 0.10 0.13 0.15 0.15 0.15 0.15 0.14 0.16 0.14 0.12 0.11 0.08 0.07 0.04 0.05 0.09 0.13 0.30 0.52 0.70 0.82 0.91
0.00 0.00 0.00 0.00 0.00 0.00 0.00 0.00 0.00 0.01 0.02 0.03 0.04 0.04 0.04 0.05 0.05 0.04 0.03 0.03 0.04 0.06 0.06 0.05 0.05 0.06 0.08 0.09 0.10 0.11 0.13 0.13 0.14 0.12 0.10 0.09 0.08 0.08 0.13 0.26 0.46 0.66 0.82
0.00 0.00 0.00 0.00 0.00 0.00 0.00 0.00 0.00 0.00 0.01 0.01 0.01 0.01 0.02 0.02 0.02 0.02 0.02 0.02 0.02 0.02 0.02 0.02 0.01 0.01 0.01 0.03 0.04 0.06 0.09 0.10 0.11 0.13 0.13 0.14 0.12 0.10 0.11 0.17 0.28 0.53 0.74
0.00 0.00 0.00 0.00 0.00 0.00 0.00 0.00 0.00 0.00 0.00 0.01 0.01 0.01 0.01 0.01 0.01 0.01 0.01 0.01 0.01 0.01 0.01 0.01 0.01 0.00 0.00 0.01 0.01 0.01 0.03 0.05 0.07 0.08 0.11 0.15 0.17 0.15 0.14 0.15 0.17 0.33 0.59
0.00 0.00 0.00 0.00 0.00 0.00 0.00 0.00 0.00 0.00 0.00 0.00 0.00 0.00 0.01 0.00 0.00 0.01 0.01 0.01 0.01 0.01 0.01 0.01 0.00 0.00 0.00 0.00 0.00 0.00 0.00 0.01 0.02 0.03 0.05 0.10 0.18 0.21 0.19 0.18 0.18 0.21 0.40
0.00 0.00 0.00 0.00 0.00 0.00 0.00 0.00 0.00 0.00 0.00 0.00 0.00 0.00 0.00 0.00 0.00 0.01 0.01 0.01 0.00 0.01 0.01 0.01 0.01 0.00 0.00 0.00 0.01 0.00 0.00 0.00 0.01 0.02 0.03 0.05 0.09 0.17 0.23 0.23 0.22 0.19 0.25
0.00 0.00 0.00 0.00 0.00 0.00 0.00 0.00 0.00 0.00 0.00 0.00 0.00 0.00 0.00 0.00 0.00 0.00 0.00 0.00 0.00 0.00 0.00 0.00 0.01 0.01 0.01 0.01 0.01 0.00 0.00 0.00 0.00 0.01 0.02 0.04 0.05 0.09 0.17 0.24 0.26 0.20 0.17
0.00 0.00 0.00 0.00 0.00 0.00 0.00 0.00 0.00 0.00 0.00 0.00 0.00 0.00 0.00 0.00 0.00 0.00 0.00 0.00 0.00 0.00 0.00 0.00 0.01 0.01 0.01 0.01 0.02 0.01 0.00 0.00 0.00 0.00 0.00 0.01 0.03 0.05 0.09 0.19 0.27 0.26 0.21
0.00 0.00 0.00 0.00 0.00 0.00 0.00 0.00 0.00 0.00 0.00 0.00 0.00 0.00 0.00 0.00 0.00 0.00 0.00 0.00 0.00 0.00 0.01 0.01 0.01 0.02 0.02 0.03 0.06 0.10 0.04 0.00 0.00 0.00 0.00 0.00 0.01 0.02 0.06 0.11 0.21 0.27 0.27
0.00 0.00 0.00 0.00 0.00 0.00 0.00 0.00 0.00 0.00 0.00 0.00 0.00 0.00 0.00 0.00 0.00 0.00 0.00 0.00 0.00 0.00 0.01 0.01 0.02 0.05 0.07 0.04 0.07 0.23 0.29 0.15 0.05 0.00 0.00 0.00 0.01 0.01 0.03 0.07 0.14 0.22 0.29
0.00 0.00 0.00 0.00 0.00 0.00 0.00 0.00 0.00 0.00 0.00 0.00 0.00 0.00 0.00 0.00 0.00 0.00 0.00 0.00 0.00 0.00 0.01 0.03 0.04 0.06 0.11 0.12 0.09 0.13 0.23 0.27 0.29 0.13 0.01 0.01 0.01 0.02 0.02 0.03 0.07 0.14 0.22
0.00 0.00 0.00 0.00 0.00 0.00 0.00 0.00 0.00 0.00 0.00 0.00 0.00 0.00 0.00 0.00 0.00 0.00 0.00 0.00 0.00 0.01 0.02 0.03 0.05 0.08 0.13 0.19 0.18 0.17 0.14 0.13 0.18 0.28 0.12 0.02 0.03 0.03 0.03 0.03 0.05 0.09 0.15
0.00 0.00 0.00 0.00 0.00 0.00 0.00 0.00 0.00 0.00 0.00 0.00 0.00 0.00 0.00 0.00 0.00 0.00 0.00 0.00 0.00 0.01 0.02 0.04 0.07 0.10 0.14 0.17 0.20 0.21 0.24 0.25 0.19 0.25 0.21 0.07 0.03 0.02 0.03 0.03 0.04 0.08 0.13

GEFSSE_prec_meanprecacc_102.txt.gz
Total_Precipitation_Accumulation
0.02 0.05 0.13 0.17 0.15 0.12 0.09 0.09 0.08 0.09 0.10 0.12 0.13 0.15 0.17 0.19 0.20 0.21 0.21 0.21 0.19 0.18 0.18 0.19 0.19 0.18 0.17 0.16 0.15 0.16 0.15 0.14 0.14 0.15 0.16 0.18 0.19 0.18 0.18 0.18 0.17 0.17 0.22
0.04 0.06 0.10 0.12 0.10 0.09 0.07 0.06 0.06 0.06 0.07 0.08 0.09 0.09 0.11 0.13 0.16 0.18 0.19 0.20 0.21 0.20 0.18 0.18 0.18 0.17 0.17 0.18 0.20 0.18 0.16 0.13 0.10 0.10 0.11 0.09 0.13 0.17 0.19 0.21 0.20 0.25 0.25
0.03 0.04 0.06 0.09 0.08 0.07 0.07 0.05 0.05 0.05 0.05 0.06 0.06 0.07 0.08 0.09 0.11 0.14 0.15 0.16 0.17 0.18 0.19 0.18 0.19 0.21 0.18 0.19 0.22 0.19 0.18 0.14 0.09 0.07 0.07 0.10 0.15 0.16 0.18 0.20 0.19 0.23 0.26
0.01 0.03 0.04 0.06 0.07 0.07 0.06 0.06 0.05 0.05 0.05 0.06 0.06 0.06 0.06 0.06 0.07 0.07 0.09 0.12 0.16 0.20 0.24 0.22 0.22 0.24 0.21 0.18 0.20 0.19 0.21 0.17 0.10 0.06 0.02 0.07 0.21 0.23 0.24 0.25 0.22 0.26 0.28
0.01 0.01 0.02 0.06 0.07 0.07 0.07 0.06 0.06 0.05 0.06 0.07 0.06 0.06 0.06 0.06 0.05 0.05 0.04 0.06 0.14 0.21 0.24 0.27 0.26 0.26 0.25 0.23 0.21 0.21 0.23 0.21 0.12 0.05 0.01 0.03 0.16 0.28 0.27 0.27 0.25 0.26 0.27
0.00 0.01 0.02 0.06 0.08 0.08 0.08 0.07 0.06 0.05 0.06 0.07 0.06 0.07 0.08 0.08 0.06 0.04 0.04 0.04 0.07 0.13 0.20 0.25 0.28 0.31 0.31 0.25 0.22 0.26 0.31 0.29 0.12 0.02 0.01 0.02 0.13 0.28 0.29 0.27 0.26 0.24 0.25
0.00 0.02 0.04 0.07 0.07 0.07 0.08 0.08 0.07 0.06 0.07 0.07 0.06 0.07 0.08 0.08 0.08 0.07 0.06 0.06 0.05 0.06 0.11 0.17 0.22 0.28 0.32 0.28 0.27 0.31 0.39 0.30 0.10 0.07 0.04 0.03 0.11 0.38 0.51 0.41 0.31 0.26 0.25
0.00 0.02 0.04 0.05 0.06 0.07 0.08 0.09 0.09 0.09 0.09 0.09 0.09 0.08 0.07 0.07 0.08 0.09 0.09 0.08 0.07 0.07 0.09 0.11 0.16 0.23 0.28 0.30 0.31 0.35 0.39 0.24 0.09 0.10 0.10 0.08 0.19 0.54 0.66 0.67 0.52 0.33 0.27
0.00 0.00 0.01 0.01 0.03 0.05 0.08 0.10 0.09 0.08 0.08 0.08 0.08 0.07 0.06 0.06 0.09 0.12 0.10 0.08 0.08 0.09 0.09 0.08 0.08 0.11 0.18 0.27 0.31 0.30 0.28 0.19 0.10 0.16 0.14 0.19 0.22 0.58 0.72 0.81 0.70 0.49 0.35
0.00 0.00 0.00 0.00 0.01 0.02 0.05 0.09 0.09 0.08 0.07 0.06 0.07 0.06 0.07 0.07 0.08 0.10 0.09 0.07 0.07 0.08 0.08 0.07 0.07 0.07 0.08 0.12 0.15 0.16 0.13 0.10 0.09 0.16 0.28 0.25 0.25 0.63 0.79 0.83 0.74 0.62 0.50
0.00 0.00 0.00 0.00 0.00 0.01 0.02 0.06 0.09 0.09 0.07 0.06 0.06 0.06 0.06 0.04 0.03 0.04 0.04 0.05 0.06 0.07 0.06 0.07 0.08 0.08 0.06 0.04 0.04 0.05 0.04 0.02 0.06 0.17 0.23 0.24 0.38 0.74 0.84 0.83 0.78 0.69 0.64
0.00 0.00 0.00 0.00 0.00 0.00 0.01 0.04 0.07 0.07 0.07 0.06 0.06 0.07 0.07 0.05 0.04 0.04 0.04 0.06 0.08 0.07 0.07 0.09 0.10 0.08 0.06 0.04 0.07 0.09 0.03 0.01 0.02 0.05 0.07 0.12 0.40 0.78 0.91 0.86 0.87 0.83 0.79
0.00 0.00 0.00 0.00 0.00 0.00 0.01 0.03 0.03 0.04 0.06 0.08 0.10 0.11 0.11 0.09 0.10 0.12 0.11 0.11 0.09 0.08 0.11 0.13 0.15 0.15 0.17 0.17 0.18 0.16 0.09 0.06 0.04 0.02 0.02 0.07 0.20 0.41 0.68 0.82 0.90 0.93 0.92
0.00 0.00 0.00 0.00 0.00 0.00 0.00 0.01 0.02 0.03 0.04 0.06 0.08 0.08 0.08 0.08 0.11 0.13 0.14 0.12 0.10 0.10 0.13 0.15 0.16 0.15 0.15 0.14 0.16 0.14 0.12 0.11 0.08 0.07 0.04 0.05 0.09 0.13 0.30 0.53 0.70 0.83 0.92
0.00 0.00 0.00 0.00 0.00 0.00 0.00 0.00 0.01 0.01 0.02 0.04 0.04 0.04 0.04 0.06 0.05 0.04 0.03 0.04 0.05 0.06 0.06 0.05 0.05 0.06 0.08 0.10 0.10 0.11 0.13 0.13 0.14 0.12 0.10 0.09 0.08 0.08 0.13 0.27 0.46 0.66 0.83
0.00 0.00 0.00 0.00 0.00 0.00 0.00 0.00 0.01 0.01 0.01 0.01 0.01 0.02 0.02 0.03 0.03 0.02 0.02 0.02 0.02 0.02 0.02 0.02 0.01 0.01 0.01 0.03 0.04 0.06 0.09 0.10 0.11 0.13 0.13 0.14 0.12 0.10 0.11 0.17 0.28 0.53 0.75
0.00 0.00 0.00 0.00 0.00 0.00 0.00 0.01 0.01 0.01 0.01 0.01 0.01 0.01 0.01 0.01 0.01 0.01 0.02 0.02 0.01 0.01 0.01 0.01 0.01 0.00 0.00 0.01 0.01 0.01 0.03 0.05 0.07 0.08 0.11 0.15 0.17 0.15 0.14 0.15 0.18 0.34 0.59
0.00 0.00 0.00 0.00 0.00 0.00 0.00 0.00 0.00 0.00 0.01 0.01 0.01 0.01 0.01 0.01 0.01 0.01 0.01 0.01 0.01 0.01 0.01 0.01 0.01 0.00 0.00 0.00 0.00 0.00 0.00 0.01 0.02 0.03 0.05 0.10 0.18 0.21 0.19 0.18 0.18 0.21 0.40
0.00 0.00 0.00 0.00 0.00 0.00 0.00 0.00 0.00 0.00 0.00 0.01 0.01 0.01 0.01 0.00 0.00 0.01 0.01 0.01 0.01 0.01 0.01 0.01 0.01 0.01 0.01 0.01 0.01 0.00 0.00 0.00 0.01 0.02 0.03 0.05 0.09 0.17 0.23 0.23 0.22 0.19 0.25
0.00 0.00 0.00 0.00 0.00 0.00 0.00 0.00 0.00 0.00 0.00 0.00 0.00 0.00 0.00 0.00 0.00 0.01 0.01 0.01 0.01 0.01 0.01 0.01 0.01 0.01 0.01 0.01 0.01 0.00 0.00 0.00 0.00 0.01 0.02 0.04 0.05 0.09 0.17 0.24 0.26 0.20 0.17
0.00 0.00 0.00 0.00 0.00 0.00 0.00 0.00 0.00 0.00 0.00 0.00 0.00 0.00 0.00 0.00 0.00 0.00 0.00 0.00 0.00 0.01 0.01 0.00 0.01 0.01 0.01 0.01 0.02 0.01 0.00 0.00 0.00 0.00 0.00 0.01 0.03 0.05 0.09 0.19 0.27 0.26 0.21
0.00 0.00 0.00 0.00 0.00 0.00 0.00 0.00 0.00 0.00 0.00 0.00 0.00 0.00 0.00 0.00 0.00 0.00 0.00 0.00 0.00 0.00 0.01 0.01 0.01 0.02 0.03 0.03 0.06 0.10 0.04 0.00 0.00 0.00 0.00 0.00 0.01 0.02 0.06 0.11 0.21 0.27 0.27
0.00 0.00 0.00 0.00 0.00 0.00 0.00 0.00 0.00 0.00 0.00 0.00 0.00 0.00 0.00 0.00 0.00 0.00 0.00 0.00 0.00 0.00 0.01 0.01 0.02 0.05 0.07 0.04 0.08 0.23 0.30 0.15 0.05 0.00 0.00 0.00 0.01 0.01 0.03 0.07 0.14 0.22 0.29
0.00 0.00 0.00 0.00 0.00 0.00 0.00 0.00 0.00 0.00 0.00 0.00 0.00 0.00 0.00 0.00 0.00 0.00 0.00 0.00 0.00 0.00 0.01 0.03 0.04 0.06 0.11 0.12 0.09 0.13 0.23 0.27 0.29 0.13 0.01 0.01 0.01 0.02 0.02 0.03 0.07 0.14 0.22
0.00 0.00 0.00 0.00 0.00 0.00 0.00 0.00 0.00 0.00 0.00 0.00 0.00 0.00 0.00 0.00 0.00 0.00 0.00 0.00 0.00 0.01 0.02 0.03 0.05 0.08 0.13 0.19 0.18 0.17 0.14 0.13 0.18 0.28 0.12 0.02 0.03 0.03 0.03 0.03 0.05 0.09 0.15
0.00 0.00 0.00 0.00 0.00 0.00 0.00 0.00 0.00 0.00 0.00 0.00 0.00 0.00 0.00 0.00 0.00 0.00 0.00 0.00 0.00 0.01 0.02 0.04 0.07 0.10 0.14 0.17 0.20 0.21 0.24 0.25 0.19 0.25 0.22 0.07 0.03 0.02 0.03 0.03 0.04 0.08 0.13

GEFSSE_prec_meanprecacc_108.txt.gz
Total_Precipitation_Accumulation
0.02 0.05 0.14 0.18 0.16 0.13 0.11 0.11 0.11 0.10 0.11 0.12 0.14 0.16 0.18 0.19 0.20 0.21 0.21 0.21 0.20 0.19 0.19 0.21 0.20 0.19 0.18 0.17 0.16 0.17 0.16 0.15 0.14 0.15 0.17 0.20 0.21 0.19 0.19 0.19 0.17 0.17 0.23
0.04 0.06 0.11 0.13 0.11 0.10 0.09 0.09 0.08 0.07 0.08 0.09 0.09 0.10 0.11 0.14 0.16 0.18 0.19 0.20 0.21 0.20 0.18 0.19 0.19 0.18 0.17 0.19 0.20 0.18 0.16 0.14 0.10 0.10 0.11 0.10 0.15 0.18 0.20 0.21 0.21 0.25 0.25
0.03 0.04 0.07 0.10 0.09 0.09 0.08 0.07 0.06 0.06 0.06 0.06 0.06 0.07 0.08 0.09 0.11 0.14 0.16 0.16 0.17 0.19 0.19 0.19 0.19 0.21 0.18 0.19 0.22 0.19 0.18 0.14 0.09 0.07 0.07 0.10 0.15 0.17 0.19 0.21 0.20 0.24 0.27
0.01 0.03 0.04 0.07 0.08 0.08 0.07 0.07 0.06 0.06 0.06 0.06 0.06 0.06 0.07 0.07 0.07 0.08 0.09 0.12 0.16 0.20 0.24 0.22 0.22 0.24 0.21 0.19 0.20 0.19 0.21 0.17 0.10 0.06 0.02 0.07 0.21 0.23 0.24 0.25 0.22 0.26 0.29
0.01 0.01 0.03 0.06 0.08 0.08 0.08 0.07 0.07 0.06 0.07 0.07 0.07 0.07 0.07 0.06 0.05 0.05 0.05 0.06 0.14 0.21 0.24 0.27 0.26 0.26 0.25 0.23 0.21 0.21 0.23 0.21 0.12 0.05 0.01 0.03 0.16 0.28 0.27 0.27 0.25 0.26 0.28
0.00 0.01 0.03 0.07 0.09 0.09 0.08 0.08 0.07 0.06 0.07 0.08 0.07 0.07 0.08 0.08 0.06 0.04 0.04 0.04 0.07 0.13 0.20 0.25 0.28 0.31 0.31 0.25 0.22 0.26 0.31 0.29 0.12 0.02 0.01 0.02 0.13 0.28 0.29 0.27 0.26 0.24 0.25
0.00 0.02 0.04 0.08 0.09 0.08 0.09 0.09 0.08 0.07 0.08 0.08 0.07 0.08 0.09 0.08 0.08 0.07 0.06 0.06 0.05 0.06 0.12 0.17 0.22 0.28 0.32 0.28 0.27 0.31 0.39 0.30 0.10 0.07 0.04 0.03 0.11 0.38 0.51 0.41 0.31 0.26 0.25
0.00 0.02 0.04 0.06 0.07 0.08 0.09 0.11 0.10 0.10 0.10 0.10 0.09 0.09 0.07 0.07 0.08 0.09 0.09 0.08 0.07 0.07 0.09 0.11 0.16 0.23 0.28 0.30 0.31 0.35 0.39 0.24 0.09 0.10 0.10 0.08 0.19 0.54 0.66 0.67 0.52 0.33 0.27
0.00 0.00 0.01 0.02 0.04 0.07 0.09 0.12 0.10 0.09 0.10 0.10 0.09 0.08 0.07 0.06 0.09 0.12 0.11 0.08 0.08 0.09 0.09 0.08 0.08 0.11 0.18 0.27 0.31 0.30 0.28 0.19 0.10 0.16 0.14 0.19 0.22 0.58 0.72 0.81 0.70 0.49 0.35
0.00 0.00 0.00 0.01 0.01 0.03 0.06 0.11 0.10 0.09 0.08 0.08 0.08 0.07 0.07 0.08 0.08 0.10 0.09 0.07 0.07 0.09 0.09 0.08 0.07 0.07 0.08 0.12 0.15 0.16 0.13 0.10 0.09 0.16 0.28 0.25 0.25 0.63 0.79 0.83 0.74 0.63 0.51
0.00 0.00 0.00 0.00 0.01 0.02 0.03 0.07 0.10 0.10 0.08 0.07 0.07 0.06 0.06 0.05 0.04 0.04 0.04 0.05 0.06 0.07 0.07 0.08 0.09 0.08 0.06 0.04 0.04 0.05 0.04 0.02 0.06 0.17 0.23 0.24 0.38 0.74 0.84 0.84 0.79 0.70 0.64
0.00 0.00 0.00 0.00 0.00 0.01 0.02 0.05 0.08 0.08 0.08 0.07 0.07 0.08 0.07 0.06 0.04 0.05 0.04 0.06 0.08 0.08 0.08 0.10 0.11 0.09 0.06 0.04 0.07 0.09 0.03 0.01 0.02 0.05 0.07 0.12 0.40 0.78 0.91 0.87 0.87 0.84 0.79
0.00 0.00 0.00 0.00 0.00 0.01 0.02 0.04 0.04 0.05 0.07 0.09 0.10 0.11 0.11 0.09 0.11 0.12 0.11 0.11 0.09 0.08 0.11 0.14 0.15 0.16 0.17 0.17 0.18 0.16 0.09 0.06 0.04 0.02 0.02 0.07 0.20 0.41 0.68 0.83 0.91 0.94 0.93
0.00 0.00 0.00 0.00 0.00 0.01 0.01 0.02 0.03 0.04 0.05 0.07 0.08 0.09 0.08 0.09 0.11 0.14 0.14 0.13 0.10 0.11 0.13 0.16 0.16 0.15 0.16 0.15 0.16 0.15 0.13 0.11 0.08 0.07 0.04 0.05 0.09 0.13 0.30 0.53 0.71 0.84 0.93
0.00 0.00 0.00 0.00 0.00 0.01 0.01 0.02 0.02 0.02 0.03 0.05 0.05 0.05 0.05 0.07 0.06 0.05 0.04 0.04 0.05 0.06 0.06 0.05 0.05 0.06 0.08 0.10 0.10 0.11 0.13 0.13 0.14 0.12 0.10 0.09 0.08 0.08 0.13 0.27 0.47 0.67 0.84
0.00 0.00 0.00 0.00 0.00 0.01 0.01 0.02 0.02 0.02 0.02 0.02 0.02 0.02 0.03 0.04 0.03 0.03 0.03 0.02 0.02 0.03 0.02 0.02 0.02 0.01 0.02 0.03 0.04 0.06 0.09 0.10 0.11 0.13 0.13 0.14 0.12 0.10 0.11 0.17 0.28 0.54 0.75
0.00 0.00 0.00 0.00 0.00 0.01 0.01 0.02 0.02 0.02 0.02 0.02 0.02 0.02 0.02 0.02 0.02 0.02 0.02 0.02 0.02 0.01 0.01 0.01 0.01 0.01 0.00 0.01 0.01 0.01 0.03 0.05 0.07 0.08 0.11 0.15 0.17 0.15 0.14 0.15 0.18 0.34 0.60
0.00 0.00 0.00 0.00 0.00 0.01 0.01 0.02 0.02 0.01 0.01 0.01 0.02 0.01 0.01 0.02 0.01 0.02 0.02 0.02 0.01 0.01 0.01 0.01 0.01 0.01 0.01 0.00 0.00 0.00 0.00 0.01 0.02 0.03 0.05 0.10 0.18 0.21 0.19 0.18 0.18 0.21 0.40
0.00 0.00 0.00 0.00 0.00 0.01 0.01 0.01 0.01 0.01 0.01 0.01 0.01 0.01 0.01 0.01 0.01 0.01 0.01 0.01 0.01 0.01 0.02 0.02 0.01 0.01 0.01 0.01 0.01 0.00 0.00 0.00 0.01 0.02 0.03 0.05 0.09 0.17 0.23 0.23 0.22 0.19 0.25
0.00 0.00 0.00 0.00 0.00 0.00 0.01 0.01 0.01 0.01 0.01 0.01 0.01 0.01 0.01 0.01 0.01 0.01 0.01 0.01 0.01 0.01 0.01 0.01 0.01 0.01 0.01 0.01 0.01 0.00 0.00 0.00 0.00 0.01 0.02 0.04 0.05 0.09 0.17 0.24 0.26 0.20 0.17
0.00 0.00 0.00 0.00 0.00 0.00 0.01 0.01 0.01 0.01 0.00 0.00 0.00 0.00 0.01 0.01 0.01 0.01 0.01 0.01 0.00 0.01 0.01 0.01 0.01 0.01 0.01 0.02 0.02 0.01 0.00 0.00 0.00 0.00 0.00 0.01 0.03 0.05 0.09 0.19 0.27 0.26 0.21
0.00 0.00 0.00 0.00 0.00 0.00 0.00 0.00 0.00 0.00 0.00 0.00 0.00 0.00 0.00 0.00 0.00 0.00 0.00 0.00 0.00 0.01 0.01 0.01 0.01 0.02 0.03 0.03 0.06 0.10 0.04 0.00 0.00 0.00 0.00 0.00 0.01 0.02 0.06 0.11 0.21 0.27 0.27
0.00 0.00 0.00 0.00 0.00 0.00 0.00 0.00 0.00 0.00 0.00 0.00 0.00 0.00 0.00 0.00 0.00 0.00 0.00 0.00 0.00 0.00 0.01 0.01 0.02 0.05 0.07 0.04 0.08 0.23 0.30 0.15 0.05 0.00 0.00 0.00 0.01 0.01 0.03 0.07 0.14 0.22 0.29
0.00 0.00 0.00 0.00 0.00 0.00 0.00 0.00 0.00 0.00 0.00 0.00 0.00 0.00 0.00 0.00 0.00 0.00 0.00 0.00 0.00 0.00 0.01 0.03 0.04 0.06 0.11 0.12 0.09 0.13 0.23 0.27 0.29 0.13 0.01 0.01 0.01 0.02 0.02 0.03 0.07 0.14 0.22
0.00 0.00 0.00 0.00 0.00 0.00 0.00 0.00 0.00 0.00 0.00 0.00 0.00 0.00 0.00 0.00 0.00 0.00 0.00 0.00 0.00 0.01 0.02 0.03 0.05 0.08 0.13 0.19 0.18 0.17 0.14 0.13 0.18 0.28 0.12 0.02 0.03 0.03 0.03 0.03 0.05 0.09 0.15
0.00 0.00 0.00 0.00 0.00 0.00 0.00 0.00 0.00 0.00 0.00 0.00 0.00 0.00 0.00 0.00 0.00 0.00 0.00 0.00 0.00 0.01 0.02 0.04 0.07 0.10 0.14 0.17 0.20 0.21 0.24 0.25 0.19 0.25 0.22 0.07 0.03 0.02 0.03 0.03 0.04 0.08 0.13

GEFSSE_prec_meanprecacc_114.txt.gz
Total_Precipitation_Accumulation
0.02 0.05 0.14 0.19 0.17 0.14 0.13 0.13 0.14 0.12 0.12 0.13 0.14 0.16 0.18 0.19 0.21 0.22 0.22 0.22 0.21 0.20 0.20 0.22 0.21 0.20 0.18 0.17 0.17 0.17 0.16 0.15 0.14 0.15 0.18 0.20 0.22 0.20 0.19 0.19 0.17 0.17 0.23
0.04 0.06 0.11 0.14 0.12 0.11 0.11 0.11 0.11 0.09 0.09 0.10 0.09 0.10 0.11 0.14 0.17 0.18 0.20 0.21 0.21 0.21 0.19 0.19 0.20 0.19 0.18 0.19 0.20 0.19 0.17 0.14 0.10 0.11 0.11 0.10 0.15 0.19 0.20 0.22 0.21 0.26 0.26
0.03 0.05 0.07 0.10 0.10 0.10 0.10 0.09 0.08 0.07 0.07 0.07 0.07 0.07 0.08 0.10 0.12 0.14 0.16 0.16 0.18 0.19 0.19 0.19 0.19 0.21 0.19 0.20 0.22 0.20 0.18 0.14 0.09 0.07 0.07 0.10 0.16 0.17 0.19 0.21 0.20 0.24 0.27
0.01 0.03 0.04 0.07 0.09 0.09 0.09 0.08 0.07 0.07 0.06 0.06 0.06 0.07 0.07 0.07 0.07 0.08 0.10 0.12 0.16 0.20 0.24 0.22 0.22 0.24 0.21 0.19 0.20 0.19 0.21 0.17 0.10 0.06 0.02 0.07 0.21 0.23 0.24 0.25 0.23 0.26 0.29
0.01 0.01 0.03 0.07 0.09 0.09 0.09 0.08 0.08 0.07 0.07 0.08 0.07 0.07 0.07 0.07 0.06 0.05 0.05 0.06 0.14 0.21 0.24 0.27 0.26 0.26 0.25 0.23 0.21 0.21 0.24 0.21 0.12 0.05 0.01 0.03 0.16 0.28 0.27 0.27 0.25 0.26 0.28
0.00 0.01 0.03 0.07 0.09 0.10 0.09 0.09 0.08 0.07 0.08 0.08 0.07 0.08 0.08 0.08 0.06 0.05 0.04 0.04 0.07 0.14 0.20 0.25 0.28 0.31 0.31 0.25 0.22 0.26 0.31 0.29 0.12 0.02 0.01 0.02 0.13 0.29 0.29 0.27 0.26 0.24 0.25
0.00 0.02 0.05 0.08 0.09 0.09 0.10 0.10 0.09 0.08 0.09 0.09 0.07 0.08 0.09 0.08 0.08 0.07 0.06 0.06 0.05 0.06 0.12 0.18 0.22 0.28 0.32 0.28 0.27 0.31 0.39 0.30 0.10 0.07 0.04 0.03 0.11 0.38 0.51 0.41 0.31 0.26 0.25
0.00 0.02 0.04 0.06 0.08 0.09 0.11 0.12 0.11 0.10 0.12 0.11 0.10 0.09 0.07 0.07 0.08 0.09 0.09 0.08 0.07 0.07 0.09 0.11 0.16 0.23 0.29 0.30 0.31 0.35 0.39 0.24 0.09 0.10 0.10 0.08 0.19 0.54 0.66 0.67 0.52 0.34 0.27
0.00 0.00 0.01 0.02 0.04 0.07 0.11 0.13 0.11 0.10 0.11 0.11 0.10 0.08 0.07 0.06 0.09 0.12 0.11 0.08 0.08 0.09 0.09 0.08 0.08 0.11 0.18 0.27 0.31 0.30 0.28 0.19 0.10 0.16 0.14 0.19 0.22 0.58 0.72 0.82 0.71 0.50 0.35
0.00 0.00 0.00 0.01 0.02 0.04 0.07 0.12 0.11 0.09 0.09 0.09 0.08 0.08 0.07 0.08 0.08 0.10 0.09 0.07 0.07 0.09 0.09 0.08 0.07 0.07 0.08 0.12 0.15 0.16 0.13 0.10 0.09 0.16 0.28 0.25 0.25 0.63 0.79 0.84 0.75 0.63 0.51
0.00 0.00 0.00 0.00 0.01 0.02 0.04 0.08 0.10 0.10 0.09 0.08 0.07 0.06 0.06 0.05 0.04 0.04 0.04 0.05 0.07 0.07 0.07 0.08 0.09 0.08 0.06 0.04 0.04 0.05 0.04 0.02 0.06 0.17 0.23 0.24 0.38 0.74 0.85 0.84 0.79 0.71 0.65
0.00 0.00 0.00 0.00 0.01 0.02 0.03 0.05 0.08 0.09 0.08 0.08 0.08 0.08 0.08 0.06 0.05 0.05 0.04 0.06 0.08 0.08 0.08 0.10 0.11 0.09 0.07 0.04 0.07 0.09 0.03 0.01 0.02 0.05 0.07 0.12 0.40 0.79 0.91 0.88 0.88 0.85 0.80
0.00 0.00 0.00 0.00 0.00 0.01 0.02 0.04 0.05 0.06 0.08 0.09 0.11 0.12 0.12 0.10 0.11 0.12 0.11 0.11 0.09 0.09 0.11 0.14 0.15 0.16 0.17 0.17 0.18 0.16 0.09 0.06 0.04 0.02 0.02 0.07 0.20 0.41 0.69 0.83 0.91 0.94 0.94
0.00 0.00 0.00 0.00 0.00 0.01 0.02 0.03 0.03 0.05 0.06 0.07 0.09 0.09 0.09 0.09 0.12 0.14 0.15 0.13 0.10 0.11 0.13 0.16 0.16 0.15 0.16 0.15 0.16 0.15 0.13 0.11 0.08 0.07 0.04 0.05 0.09 0.13 0.31 0.53 0.71 0.85 0.94
0.00 0.00 0.00 0.00 0.00 0.01 0.02 0.02 0.03 0.03 0.04 0.05 0.05 0.05 0.05 0.07 0.07 0.06 0.04 0.04 0.05 0.06 0.07 0.06 0.06 0.06 0.08 0.10 0.11 0.11 0.13 0.14 0.14 0.12 0.10 0.09 0.08 0.08 0.13 0.27 0.47 0.67 0.84
0.00 0.00 0.00 0.00 0.00 0.01 0.02 0.02 0.03 0.03 0.03 0.03 0.03 0.03 0.03 0.04 0.04 0.03 0.03 0.03 0.03 0.03 0.03 0.02 0.02 0.02 0.02 0.03 0.04 0.06 0.09 0.10 0.12 0.13 0.13 0.14 0.12 0.10 0.11 0.17 0.28 0.54 0.75
0.00 0.00 0.00 0.00 0.00 0.01 0.02 0.03 0.03 0.03 0.02 0.02 0.02 0.02 0.02 0.02 0.02 0.03 0.03 0.03 0.02 0.02 0.02 0.01 0.01 0.01 0.01 0.01 0.01 0.01 0.03 0.05 0.07 0.08 0.11 0.15 0.17 0.15 0.14 0.15 0.18 0.34 0.60
0.00 0.00 0.00 0.00 0.00 0.01 0.02 0.02 0.03 0.02 0.02 0.02 0.02 0.02 0.02 0.02 0.02 0.02 0.03 0.03 0.02 0.02 0.02 0.01 0.01 0.01 0.01 0.01 0.01 0.00 0.00 0.01 0.02 0.03 0.05 0.10 0.18 0.21 0.19 0.18 0.18 0.21 0.40
0.00 0.00 0.00 0.00 0.00 0.01 0.01 0.02 0.02 0.02 0.02 0.02 0.02 0.02 0.02 0.02 0.01 0.02 0.02 0.02 0.02 0.02 0.02 0.02 0.02 0.01 0.01 0.01 0.01 0.00 0.00 0.00 0.01 0.02 0.03 0.05 0.09 0.17 0.23 0.23 0.22 0.19 0.25
0.00 0.00 0.00 0.00 0.00 0.00 0.01 0.02 0.02 0.01 0.01 0.01 0.01 0.01 0.01 0.01 0.01 0.01 0.01 0.01 0.01 0.02 0.02 0.01 0.01 0.01 0.01 0.01 0.01 0.00 0.00 0.00 0.00 0.01 0.02 0.04 0.05 0.09 0.17 0.24 0.26 0.20 0.17
0.00 0.00 0.00 0.00 0.00 0.01 0.01 0.02 0.02 0.01 0.01 0.01 0.01 0.01 0.01 0.01 0.01 0.01 0.01 0.01 0.01 0.01 0.01 0.01 0.01 0.01 0.01 0.02 0.02 0.01 0.00 0.00 0.00 0.00 0.00 0.01 0.03 0.05 0.09 0.19 0.27 0.26 0.21
0.00 0.00 0.00 0.00 0.00 0.00 0.01 0.01 0.01 0.01 0.00 0.00 0.00 0.00 0.00 0.00 0.00 0.00 0.00 0.00 0.00 0.01 0.01 0.01 0.01 0.03 0.03 0.03 0.06 0.10 0.04 0.01 0.00 0.00 0.00 0.00 0.01 0.02 0.06 0.11 0.21 0.27 0.27
0.00 0.00 0.00 0.00 0.00 0.00 0.00 0.00 0.00 0.00 0.00 0.00 0.00 0.00 0.00 0.00 0.00 0.00 0.00 0.00 0.00 0.00 0.01 0.01 0.02 0.05 0.07 0.04 0.08 0.23 0.30 0.15 0.05 0.00 0.00 0.00 0.01 0.01 0.03 0.07 0.14 0.22 0.29
0.00 0.00 0.00 0.00 0.00 0.00 0.00 0.00 0.00 0.00 0.00 0.00 0.00 0.00 0.00 0.00 0.00 0.00 0.00 0.00 0.00 0.00 0.01 0.03 0.04 0.06 0.12 0.12 0.09 0.13 0.23 0.27 0.29 0.13 0.01 0.01 0.01 0.02 0.02 0.03 0.07 0.14 0.22
0.00 0.00 0.00 0.00 0.00 0.00 0.00 0.00 0.00 0.00 0.00 0.00 0.00 0.00 0.00 0.00 0.00 0.00 0.00 0.00 0.00 0.01 0.02 0.03 0.05 0.08 0.14 0.19 0.18 0.17 0.14 0.13 0.18 0.28 0.12 0.02 0.03 0.03 0.03 0.03 0.05 0.09 0.15
0.00 0.00 0.00 0.00 0.00 0.00 0.00 0.00 0.00 0.00 0.00 0.00 0.00 0.00 0.00 0.00 0.00 0.00 0.00 0.00 0.00 0.01 0.02 0.04 0.07 0.10 0.14 0.17 0.20 0.21 0.24 0.25 0.19 0.25 0.22 0.07 0.03 0.02 0.03 0.03 0.04 0.08 0.13

GEFSSE_prec_meanprecacc_120.txt.gz
Total_Precipitation_Accumulation
0.02 0.05 0.15 0.20 0.18 0.15 0.14 0.15 0.15 0.12 0.12 0.13 0.15 0.16 0.18 0.20 0.21 0.22 0.22 0.23 0.21 0.20 0.20 0.22 0.22 0.21 0.19 0.18 0.17 0.18 0.16 0.15 0.14 0.16 0.18 0.21 0.22 0.20 0.20 0.19 0.17 0.18 0.23
0.04 0.06 0.12 0.15 0.13 0.12 0.12 0.13 0.12 0.09 0.09 0.10 0.09 0.10 0.12 0.14 0.17 0.19 0.20 0.21 0.22 0.21 0.19 0.20 0.20 0.19 0.18 0.19 0.21 0.19 0.17 0.14 0.11 0.11 0.11 0.10 0.15 0.19 0.20 0.22 0.21 0.26 0.26
0.03 0.05 0.08 0.11 0.11 0.11 0.12 0.10 0.09 0.07 0.07 0.07 0.07 0.08 0.09 0.10 0.12 0.14 0.16 0.16 0.18 0.19 0.20 0.19 0.20 0.22 0.19 0.20 0.22 0.20 0.18 0.14 0.09 0.07 0.07 0.10 0.16 0.18 0.20 0.21 0.20 0.24 0.27
0.01 0.03 0.04 0.08 0.10 0.11 0.10 0.10 0.08 0.07 0.07 0.06 0.06 0.07 0.07 0.08 0.07 0.08 0.10 0.12 0.16 0.20 0.24 0.23 0.22 0.24 0.21 0.19 0.20 0.20 0.21 0.17 0.10 0.06 0.02 0.07 0.21 0.24 0.25 0.25 0.23 0.27 0.29
0.01 0.01 0.03 0.07 0.09 0.10 0.10 0.10 0.08 0.07 0.07 0.08 0.07 0.07 0.07 0.07 0.06 0.05 0.05 0.06 0.14 0.21 0.25 0.27 0.26 0.26 0.25 0.23 0.21 0.21 0.24 0.21 0.12 0.05 0.01 0.03 0.16 0.29 0.27 0.27 0.25 0.26 0.28
0.00 0.01 0.03 0.08 0.10 0.11 0.10 0.10 0.08 0.07 0.08 0.09 0.08 0.08 0.08 0.08 0.06 0.05 0.04 0.04 0.07 0.14 0.20 0.25 0.28 0.31 0.31 0.25 0.23 0.26 0.31 0.29 0.12 0.02 0.01 0.02 0.13 0.29 0.29 0.27 0.26 0.24 0.25
0.00 0.02 0.05 0.09 0.10 0.10 0.11 0.11 0.09 0.09 0.09 0.09 0.08 0.08 0.09 0.08 0.08 0.07 0.06 0.06 0.05 0.06 0.12 0.18 0.22 0.28 0.32 0.28 0.27 0.31 0.39 0.30 0.10 0.07 0.04 0.03 0.11 0.38 0.51 0.41 0.31 0.26 0.26
0.00 0.02 0.04 0.07 0.09 0.10 0.11 0.13 0.11 0.11 0.12 0.12 0.10 0.09 0.07 0.07 0.08 0.09 0.09 0.08 0.07 0.07 0.09 0.11 0.16 0.23 0.29 0.30 0.31 0.35 0.39 0.24 0.09 0.10 0.10 0.08 0.19 0.54 0.67 0.68 0.52 0.34 0.28
0.00 0.00 0.01 0.02 0.05 0.08 0.11 0.13 0.11 0.10 0.11 0.11 0.10 0.08 0.07 0.06 0.09 0.12 0.11 0.08 0.08 0.09 0.09 0.08 0.08 0.11 0.18 0.27 0.31 0.30 0.28 0.19 0.10 0.16 0.14 0.19 0.22 0.58 0.72 0.82 0.71 0.50 0.36
0.00 0.00 0.00 0.01 0.02 0.04 0.07 0.12 0.11 0.09 0.10 0.09 0.09 0.08 0.07 0.08 0.08 0.10 0.09 0.07 0.07 0.09 0.09 0.08 0.07 0.07 0.08 0.12 0.15 0.16 0.13 0.10 0.09 0.16 0.28 0.25 0.25 0.63 0.79 0.84 0.75 0.64 0.52
0.00 0.00 0.00 0.00 0.01 0.02 0.04 0.08 0.10 0.10 0.09 0.08 0.08 0.07 0.06 0.05 0.04 0.04 0.04 0.05 0.07 0.07 0.07 0.08 0.09 0.08 0.07 0.04 0.04 0.06 0.04 0.02 0.06 0.17 0.23 0.24 0.38 0.75 0.85 0.85 0.80 0.72 0.66
0.00 0.00 0.00 0.00 0.01 0.02 0.03 0.06 0.08 0.09 0.08 0.08 0.08 0.08 0.08 0.06 0.05 0.05 0.04 0.06 0.08 0.08 0.08 0.10 0.11 0.09 0.07 0.04 0.07 0.09 0.03 0.01 0.02 0.05 0.07 0.12 0.40 0.79 0.92 0.88 0.89 0.86 0.82
0.00 0.00 0.00 0.00 0.01 0.01 0.02 0.04 0.05 0.06 0.08 0.09 0.11 0.12 0.12 0.10 0.11 0.12 0.11 0.11 0.09 0.09 0.11 0.14 0.15 0.16 0.17 0.17 0.18 0.16 0.09 0.06 0.04 0.02 0.02 0.07 0.20 0.41 0.69 0.84 0.92 0.95 0.95
0.00 0.00 0.00 0.00 0.01 0.01 0.02 0.03 0.03 0.05 0.06 0.07 0.09 0.09 0.09 0.09 0.12 0.14 0.15 0.13 0.10 0.11 0.13 0.16 0.16 0.15 0.16 0.15 0.16 0.15 0.13 0.11 0.08 0.07 0.04 0.05 0.09 0.13 0.31 0.54 0.71 0.85 0.95
0.00 0.00 0.00 0.00 0.00 0.01 0.02 0.02 0.03 0.03 0.04 0.05 0.06 0.05 0.05 0.07 0.07 0.06 0.04 0.04 0.05 0.06 0.07 0.06 0.06 0.06 0.08 0.10 0.11 0.11 0.13 0.14 0.14 0.12 0.10 0.09 0.08 0.08 0.13 0.27 0.47 0.68 0.84
0.00 0.00 0.00 0.00 0.00 0.01 0.02 0.02 0.03 0.03 0.03 0.03 0.03 0.03 0.03 0.04 0.04 0.04 0.03 0.03 0.03 0.03 0.03 0.02 0.02 0.02 0.02 0.03 0.04 0.06 0.09 0.10 0.12 0.13 0.13 0.14 0.12 0.10 0.11 0.17 0.28 0.54 0.76
0.00 0.00 0.00 0.00 0.00 0.01 0.02 0.03 0.03 0.03 0.02 0.02 0.03 0.02 0.02 0.02 0.02 0.03 0.03 0.03 0.03 0.02 0.02 0.01 0.01 0.01 0.01 0.01 0.01 0.01 0.03 0.05 0.07 0.08 0.11 0.15 0.17 0.15 0.14 0.15 0.18 0.34 0.60
0.00 0.00 0.00 0.00 0.00 0.01 0.02 0.03 0.03 0.02 0.02 0.02 0.02 0.02 0.02 0.02 0.02 0.03 0.03 0.03 0.02 0.02 0.02 0.01 0.01 0.01 0.01 0.01 0.01 0.00 0.00 0.01 0.02 0.03 0.05 0.10 0.18 0.21 0.19 0.18 0.18 0.21 0.40
0.00 0.00 0.00 0.00 0.00 0.01 0.01 0.02 0.02 0.02 0.02 0.02 0.02 0.02 0.02 0.02 0.02 0.02 0.02 0.02 0.02 0.02 0.02 0.02 0.02 0.01 0.01 0.01 0.01 0.00 0.00 0.00 0.01 0.02 0.03 0.05 0.09 0.17 0.23 0.23 0.22 0.19 0.25
0.00 0.00 0.00 0.00 0.00 0.00 0.01 0.02 0.02 0.02 0.01 0.01 0.01 0.02 0.01 0.01 0.01 0.01 0.01 0.01 0.01 0.02 0.02 0.01 0.01 0.01 0.01 0.01 0.01 0.01 0.00 0.00 0.00 0.01 0.02 0.04 0.05 0.09 0.17 0.24 0.26 0.20 0.17
0.00 0.00 0.00 0.00 0.00 0.01 0.01 0.02 0.02 0.01 0.01 0.01 0.01 0.01 0.01 0.01 0.01 0.01 0.01 0.01 0.01 0.01 0.01 0.01 0.01 0.01 0.01 0.02 0.02 0.01 0.00 0.00 0.00 0.00 0.00 0.01 0.03 0.05 0.09 0.19 0.27 0.26 0.21
0.00 0.00 0.00 0.00 0.00 0.00 0.01 0.01 0.01 0.01 0.01 0.00 0.00 0.01 0.01 0.00 0.00 0.01 0.01 0.00 0.00 0.01 0.01 0.01 0.01 0.03 0.03 0.03 0.06 0.10 0.04 0.01 0.00 0.00 0.00 0.00 0.01 0.02 0.06 0.11 0.21 0.27 0.27
0.00 0.00 0.00 0.00 0.00 0.00 0.00 0.01 0.01 0.01 0.01 0.01 0.00 0.00 0.00 0.00 0.00 0.00 0.00 0.00 0.00 0.01 0.01 0.01 0.02 0.05 0.07 0.04 0.08 0.23 0.30 0.15 0.05 0.00 0.00 0.00 0.01 0.01 0.03 0.07 0.14 0.22 0.29
0.00 0.00 0.00 0.00 0.00 0.00 0.00 0.00 0.00 0.00 0.00 0.00 0.00 0.00 0.00 0.00 0.00 0.00 0.00 0.00 0.00 0.01 0.01 0.03 0.04 0.06 0.12 0.12 0.09 0.13 0.23 0.27 0.29 0.13 0.01 0.01 0.01 0.02 0.02 0.03 0.07 0.14 0.22
0.00 0.00 0.00 0.00 0.00 0.00 0.00 0.00 0.00 0.00 0.00 0.00 0.00 0.00 0.00 0.00 0.00 0.00 0.00 0.00 0.00 0.01 0.02 0.03 0.05 0.08 0.14 0.19 0.18 0.17 0.14 0.13 0.18 0.28 0.12 0.02 0.03 0.03 0.03 0.03 0.05 0.09 0.15
0.00 0.00 0.00 0.00 0.00 0.00 0.00 0.00 0.00 0.00 0.00 0.00 0.00 0.00 0.00 0.00 0.00 0.00 0.00 0.00 0.00 0.01 0.02 0.04 0.07 0.10 0.14 0.17 0.20 0.21 0.24 0.25 0.19 0.25 0.22 0.07 0.03 0.02 0.03 0.03 0.04 0.08 0.13

GEFSSE_prec_meanprecacc_126.txt.gz
Total_Precipitation_Accumulation
0.02 0.05 0.17 0.23 0.20 0.17 0.16 0.16 0.16 0.13 0.13 0.14 0.16 0.18 0.19 0.21 0.22 0.23 0.23 0.23 0.22 0.21 0.21 0.23 0.23 0.22 0.20 0.18 0.18 0.18 0.17 0.15 0.14 0.16 0.18 0.21 0.22 0.21 0.20 0.20 0.17 0.18 0.24
0.04 0.07 0.14 0.17 0.16 0.14 0.14 0.14 0.13 0.10 0.10 0.10 0.10 0.11 0.13 0.15 0.18 0.19 0.21 0.22 0.23 0.22 0.20 0.20 0.20 0.20 0.18 0.19 0.21 0.19 0.17 0.14 0.11 0.11 0.11 0.10 0.15 0.19 0.20 0.22 0.22 0.26 0.26
0.03 0.05 0.09 0.13 0.13 0.13 0.14 0.11 0.09 0.08 0.07 0.07 0.07 0.08 0.09 0.10 0.12 0.15 0.16 0.17 0.18 0.19 0.20 0.19 0.20 0.22 0.19 0.20 0.22 0.20 0.19 0.14 0.09 0.07 0.07 0.10 0.16 0.18 0.20 0.21 0.20 0.25 0.27
0.01 0.03 0.05 0.10 0.11 0.12 0.12 0.11 0.09 0.08 0.07 0.07 0.07 0.07 0.08 0.08 0.08 0.08 0.10 0.12 0.16 0.20 0.24 0.23 0.22 0.24 0.21 0.19 0.20 0.20 0.21 0.17 0.10 0.06 0.02 0.07 0.21 0.24 0.25 0.25 0.23 0.27 0.29
0.01 0.01 0.04 0.08 0.11 0.12 0.12 0.11 0.09 0.08 0.08 0.08 0.08 0.07 0.08 0.07 0.06 0.05 0.05 0.07 0.15 0.21 0.25 0.27 0.26 0.26 0.25 0.23 0.21 0.22 0.24 0.21 0.12 0.05 0.01 0.03 0.16 0.29 0.27 0.27 0.25 0.27 0.28
0.00 0.01 0.03 0.09 0.12 0.12 0.12 0.12 0.09 0.08 0.09 0.09 0.08 0.08 0.09 0.08 0.06 0.05 0.04 0.04 0.07 0.14 0.20 0.25 0.28 0.31 0.31 0.25 0.23 0.26 0.31 0.29 0.12 0.02 0.01 0.02 0.13 0.29 0.30 0.28 0.26 0.25 0.25
0.00 0.02 0.05 0.10 0.12 0.11 0.12 0.13 0.10 0.10 0.10 0.10 0.08 0.08 0.09 0.09 0.08 0.07 0.06 0.06 0.05 0.06 0.12 0.18 0.22 0.28 0.32 0.28 0.27 0.31 0.39 0.30 0.10 0.07 0.04 0.03 0.11 0.39 0.52 0.41 0.32 0.27 0.27
0.00 0.02 0.05 0.08 0.10 0.11 0.13 0.14 0.12 0.12 0.13 0.12 0.10 0.09 0.08 0.07 0.08 0.09 0.09 0.08 0.07 0.07 0.09 0.11 0.16 0.23 0.29 0.30 0.31 0.35 0.39 0.24 0.09 0.10 0.10 0.08 0.19 0.54 0.67 0.68 0.53 0.35 0.29
0.00 0.00 0.01 0.03 0.06 0.09 0.12 0.14 0.12 0.11 0.12 0.12 0.11 0.08 0.07 0.07 0.09 0.12 0.11 0.08 0.08 0.09 0.09 0.08 0.08 0.11 0.18 0.27 0.31 0.30 0.28 0.19 0.10 0.16 0.14 0.19 0.22 0.59 0.73 0.82 0.72 0.51 0.37
0.00 0.00 0.00 0.01 0.02 0.04 0.08 0.13 0.12 0.10 0.10 0.10 0.09 0.08 0.08 0.08 0.08 0.10 0.09 0.07 0.07 0.09 0.09 0.08 0.08 0.07 0.09 0.12 0.15 0.16 0.13 0.10 0.09 0.16 0.28 0.25 0.25 0.64 0.80 0.85 0.76 0.65 0.53
0.00 0.00 0.00 0.01 0.01 0.02 0.04 0.08 0.10 0.11 0.10 0.09 0.08 0.07 0.06 0.05 0.04 0.04 0.04 0.05 0.07 0.07 0.07 0.08 0.09 0.08 0.07 0.04 0.04 0.06 0.04 0.02 0.06 0.17 0.23 0.24 0.38 0.75 0.86 0.86 0.81 0.73 0.68
0.00 0.00 0.00 0.00 0.01 0.02 0.03 0.06 0.09 0.09 0.09 0.08 0.08 0.08 0.08 0.06 0.05 0.05 0.04 0.06 0.08 0.08 0.08 0.10 0.11 0.09 0.07 0.04 0.07 0.09 0.03 0.01 0.02 0.05 0.07 0.12 0.40 0.79 0.92 0.89 0.90 0.87 0.83
0.00 0.00 0.00 0.00 0.01 0.02 0.02 0.04 0.05 0.06 0.08 0.09 0.11 0.12 0.12 0.10 0.11 0.12 0.11 0.11 0.09 0.09 0.11 0.14 0.15 0.16 0.17 0.17 0.18 0.16 0.09 0.06 0.04 0.02 0.02 0.07 0.20 0.41 0.69 0.84 0.92 0.96 0.95
0.00 0.00 0.00 0.00 0.01 0.01 0.02 0.03 0.03 0.05 0.06 0.07 0.09 0.09 0.09 0.09 0.12 0.14 0.15 0.13 0.10 0.11 0.13 0.16 0.16 0.15 0.16 0.15 0.16 0.15 0.13 0.11 0.08 0.07 0.04 0.05 0.09 0.14 0.31 0.54 0.72 0.85 0.95
0.00 0.00 0.00 0.00 0.01 0.01 0.02 0.03 0.03 0.03 0.04 0.05 0.06 0.05 0.05 0.07 0.07 0.06 0.04 0.04 0.05 0.06 0.07 0.06 0.06 0.06 0.08 0.10 0.11 0.11 0.13 0.14 0.14 0.12 0.10 0.09 0.08 0.08 0.13 0.27 0.47 0.68 0.85
0.00 0.00 0.00 0.00 0.00 0.01 0.02 0.03 0.03 0.03 0.03 0.03 0.03 0.03 0.03 0.04 0.04 0.04 0.03 0.03 0.03 0.03 0.03 0.02 0.02 0.02 0.02 0.03 0.04 0.06 0.09 0.10 0.12 0.13 0.13 0.14 0.12 0.10 0.11 0.17 0.28 0.54 0.76
0.00 0.00 0.00 0.00 0.00 0.01 0.02 0.03 0.03 0.03 0.02 0.02 0.03 0.02 0.02 0.02 0.02 0.03 0.03 0.03 0.03 0.02 0.02 0.01 0.01 0.01 0.01 0.01 0.01 0.01 0.03 0.05 0.07 0.08 0.11 0.15 0.17 0.15 0.14 0.15 0.18 0.34 0.60
0.00 0.00 0.00 0.00 0.00 0.01 0.02 0.03 0.03 0.02 0.02 0.02 0.02 0.02 0.02 0.02 0.02 0.03 0.03 0.03 0.02 0.02 0.02 0.01 0.01 0.01 0.01 0.01 0.01 0.00 0.00 0.01 0.02 0.03 0.05 0.10 0.18 0.21 0.19 0.18 0.18 0.21 0.40
0.00 0.00 0.00 0.00 0.00 0.01 0.02 0.02 0.02 0.02 0.02 0.02 0.02 0.02 0.02 0.02 0.02 0.02 0.02 0.02 0.02 0.02 0.02 0.02 0.02 0.01 0.01 0.01 0.01 0.00 0.00 0.00 0.01 0.02 0.03 0.05 0.09 0.17 0.23 0.23 0.22 0.19 0.25
0.00 0.00 0.00 0.00 0.00 0.01 0.01 0.02 0.02 0.02 0.02 0.01 0.01 0.02 0.01 0.01 0.01 0.02 0.02 0.01 0.01 0.02 0.02 0.01 0.01 0.01 0.01 0.01 0.01 0.01 0.00 0.00 0.00 0.01 0.02 0.04 0.05 0.09 0.17 0.24 0.26 0.20 0.17
0.00 0.00 0.00 0.00 0.00 0.01 0.01 0.02 0.02 0.02 0.01 0.01 0.01 0.01 0.01 0.01 0.01 0.01 0.01 0.01 0.01 0.01 0.01 0.01 0.01 0.01 0.01 0.02 0.02 0.01 0.00 0.00 0.00 0.00 0.00 0.01 0.03 0.05 0.09 0.19 0.27 0.26 0.21
0.00 0.00 0.00 0.00 0.00 0.00 0.01 0.01 0.01 0.01 0.01 0.00 0.01 0.01 0.01 0.01 0.01 0.01 0.01 0.01 0.01 0.01 0.01 0.01 0.01 0.03 0.03 0.03 0.06 0.10 0.04 0.01 0.00 0.00 0.00 0.00 0.01 0.02 0.06 0.11 0.21 0.27 0.27
0.00 0.00 0.00 0.00 0.00 0.00 0.00 0.01 0.01 0.01 0.01 0.01 0.01 0.01 0.01 0.01 0.00 0.00 0.00 0.01 0.00 0.01 0.01 0.02 0.02 0.05 0.07 0.04 0.08 0.23 0.30 0.15 0.05 0.00 0.00 0.00 0.01 0.01 0.03 0.07 0.14 0.22 0.29
0.00 0.00 0.00 0.00 0.00 0.00 0.00 0.01 0.01 0.01 0.01 0.00 0.00 0.00 0.01 0.00 0.00 0.00 0.00 0.00 0.00 0.01 0.02 0.03 0.04 0.06 0.12 0.12 0.09 0.13 0.23 0.27 0.29 0.13 0.01 0.01 0.01 0.02 0.02 0.03 0.07 0.14 0.22
0.00 0.00 0.00 0.00 0.00 0.00 0.00 0.00 0.00 0.00 0.00 0.00 0.00 0.01 0.01 0.01 0.00 0.00 0.00 0.00 0.00 0.01 0.02 0.04 0.06 0.08 0.14 0.19 0.18 0.17 0.14 0.13 0.18 0.28 0.12 0.02 0.03 0.03 0.03 0.03 0.05 0.09 0.15
0.00 0.00 0.00 0.00 0.00 0.00 0.00 0.01 0.01 0.00 0.00 0.00 0.00 0.01 0.01 0.01 0.01 0.00 0.00 0.00 0.01 0.01 0.02 0.04 0.07 0.11 0.14 0.17 0.20 0.21 0.24 0.25 0.19 0.25 0.22 0.07 0.03 0.02 0.03 0.03 0.04 0.08 0.13

GEFSSE_prec_meanprecacc_132.txt.gz
Total_Precipitation_Accumulation
0.02 0.06 0.19 0.26 0.22 0.18 0.17 0.17 0.17 0.14 0.14 0.15 0.16 0.19 0.21 0.22 0.24 0.24 0.24 0.24 0.22 0.22 0.22 0.24 0.24 0.23 0.20 0.19 0.18 0.18 0.17 0.16 0.15 0.16 0.19 0.21 0.23 0.21 0.20 0.20 0.17 0.18 0.24
0.04 0.07 0.16 0.19 0.17 0.15 0.16 0.15 0.13 0.11 0.10 0.11 0.11 0.12 0.13 0.16 0.19 0.20 0.21 0.22 0.23 0.22 0.20 0.21 0.21 0.20 0.19 0.20 0.21 0.19 0.17 0.14 0.11 0.11 0.11 0.10 0.16 0.19 0.21 0.22 0.22 0.26 0.27
0.03 0.05 0.11 0.15 0.14 0.14 0.15 0.12 0.10 0.08 0.08 0.07 0.08 0.09 0.10 0.11 0.13 0.15 0.17 0.17 0.18 0.19 0.20 0.19 0.20 0.22 0.19 0.20 0.23 0.20 0.19 0.14 0.09 0.07 0.07 0.10 0.16 0.18 0.20 0.21 0.20 0.25 0.27
0.01 0.03 0.06 0.11 0.12 0.14 0.13 0.12 0.10 0.08 0.07 0.07 0.07 0.08 0.08 0.08 0.08 0.09 0.11 0.13 0.17 0.20 0.25 0.23 0.22 0.24 0.21 0.19 0.20 0.20 0.21 0.17 0.10 0.06 0.02 0.07 0.21 0.24 0.25 0.26 0.23 0.27 0.29
0.01 0.02 0.04 0.10 0.12 0.13 0.13 0.12 0.10 0.08 0.08 0.09 0.08 0.08 0.08 0.07 0.06 0.06 0.05 0.07 0.15 0.21 0.25 0.27 0.26 0.26 0.25 0.23 0.21 0.22 0.24 0.21 0.12 0.05 0.01 0.03 0.16 0.29 0.28 0.28 0.26 0.27 0.29
0.00 0.01 0.04 0.10 0.13 0.14 0.13 0.13 0.10 0.08 0.09 0.10 0.09 0.09 0.09 0.09 0.06 0.05 0.04 0.04 0.07 0.14 0.20 0.25 0.28 0.31 0.32 0.25 0.23 0.26 0.31 0.29 0.12 0.02 0.01 0.02 0.13 0.29 0.30 0.28 0.27 0.26 0.26
0.00 0.02 0.06 0.11 0.13 0.13 0.14 0.14 0.11 0.10 0.11 0.10 0.08 0.09 0.09 0.09 0.08 0.07 0.06 0.06 0.05 0.06 0.12 0.18 0.22 0.29 0.32 0.28 0.27 0.31 0.39 0.30 0.10 0.07 0.04 0.03 0.11 0.39 0.52 0.42 0.32 0.28 0.27
0.00 0.02 0.06 0.10 0.13 0.13 0.14 0.15 0.14 0.13 0.15 0.13 0.11 0.09 0.08 0.07 0.08 0.09 0.09 0.09 0.08 0.07 0.09 0.11 0.16 0.23 0.29 0.30 0.31 0.35 0.39 0.24 0.09 0.10 0.10 0.08 0.19 0.55 0.67 0.68 0.54 0.36 0.30
0.00 0.01 0.02 0.05 0.08 0.11 0.14 0.16 0.13 0.12 0.13 0.13 0.11 0.09 0.07 0.07 0.09 0.12 0.11 0.08 0.08 0.09 0.09 0.08 0.08 0.11 0.18 0.27 0.31 0.30 0.28 0.19 0.10 0.16 0.14 0.19 0.23 0.59 0.74 0.83 0.73 0.52 0.38
0.00 0.00 0.01 0.03 0.04 0.06 0.09 0.14 0.13 0.11 0.11 0.11 0.09 0.08 0.08 0.08 0.08 0.10 0.09 0.07 0.08 0.09 0.09 0.08 0.08 0.08 0.09 0.12 0.15 0.16 0.13 0.10 0.09 0.16 0.28 0.25 0.25 0.64 0.81 0.86 0.77 0.66 0.55
0.01 0.01 0.01 0.02 0.03 0.04 0.05 0.09 0.11 0.11 0.11 0.09 0.08 0.07 0.06 0.05 0.04 0.04 0.04 0.05 0.07 0.07 0.07 0.08 0.09 0.08 0.07 0.04 0.04 0.06 0.04 0.02 0.06 0.17 0.23 0.24 0.38 0.75 0.86 0.86 0.82 0.74 0.69
0.01 0.01 0.01 0.01 0.02 0.03 0.04 0.07 0.10 0.10 0.09 0.08 0.08 0.08 0.08 0.06 0.05 0.05 0.04 0.07 0.09 0.08 0.08 0.10 0.11 0.09 0.07 0.04 0.07 0.09 0.03 0.01 0.02 0.05 0.07 0.12 0.40 0.79 0.93 0.89 0.90 0.88 0.83
0.00 0.01 0.01 0.01 0.01 0.02 0.03 0.05 0.06 0.06 0.08 0.09 0.11 0.12 0.12 0.10 0.11 0.12 0.11 0.11 0.10 0.09 0.11 0.14 0.15 0.16 0.17 0.17 0.18 0.16 0.09 0.06 0.04 0.02 0.02 0.07 0.20 0.41 0.69 0.84 0.93 0.96 0.95
0.00 0.00 0.01 0.01 0.01 0.02 0.02 0.03 0.04 0.05 0.06 0.07 0.09 0.09 0.09 0.09 0.12 0.14 0.15 0.13 0.10 0.11 0.13 0.16 0.16 0.15 0.16 0.15 0.16 0.15 0.13 0.11 0.08 0.07 0.04 0.05 0.09 0.14 0.31 0.54 0.72 0.86 0.95
0.00 0.00 0.00 0.01 0.01 0.02 0.02 0.03 0.03 0.03 0.04 0.05 0.06 0.05 0.05 0.07 0.07 0.06 0.04 0.04 0.05 0.06 0.07 0.06 0.06 0.07 0.08 0.10 0.11 0.11 0.13 0.14 0.14 0.12 0.10 0.09 0.08 0.08 0.13 0.27 0.47 0.68 0.85
0.00 0.00 0.00 0.01 0.01 0.01 0.02 0.03 0.03 0.03 0.03 0.03 0.03 0.03 0.03 0.04 0.04 0.04 0.03 0.03 0.03 0.03 0.03 0.02 0.02 0.02 0.02 0.03 0.04 0.06 0.09 0.10 0.12 0.13 0.13 0.14 0.12 0.10 0.11 0.17 0.29 0.54 0.76
0.00 0.00 0.00 0.00 0.01 0.01 0.02 0.03 0.03 0.03 0.02 0.02 0.03 0.02 0.02 0.02 0.02 0.03 0.03 0.03 0.03 0.02 0.02 0.01 0.01 0.01 0.01 0.01 0.01 0.01 0.03 0.05 0.07 0.08 0.11 0.15 0.17 0.15 0.14 0.15 0.18 0.34 0.60
0.00 0.00 0.00 0.00 0.01 0.01 0.02 0.03 0.03 0.03 0.02 0.02 0.02 0.02 0.02 0.02 0.02 0.03 0.03 0.03 0.02 0.02 0.02 0.01 0.01 0.01 0.01 0.01 0.01 0.00 0.00 0.01 0.02 0.03 0.05 0.10 0.18 0.21 0.19 0.18 0.18 0.21 0.40
0.00 0.00 0.00 0.00 0.00 0.01 0.02 0.02 0.02 0.02 0.02 0.02 0.02 0.02 0.02 0.02 0.02 0.02 0.02 0.02 0.02 0.02 0.02 0.02 0.02 0.01 0.01 0.01 0.01 0.00 0.00 0.00 0.01 0.02 0.03 0.05 0.09 0.17 0.23 0.23 0.22 0.19 0.25
0.00 0.00 0.00 0.00 0.00 0.01 0.02 0.03 0.03 0.02 0.02 0.02 0.02 0.02 0.01 0.01 0.01 0.02 0.02 0.01 0.02 0.02 0.02 0.02 0.01 0.01 0.01 0.01 0.01 0.01 0.00 0.00 0.00 0.01 0.02 0.04 0.05 0.09 0.17 0.24 0.26 0.20 0.17
0.00 0.00 0.00 0.00 0.00 0.01 0.02 0.02 0.03 0.02 0.01 0.01 0.01 0.01 0.01 0.01 0.01 0.01 0.01 0.01 0.01 0.01 0.01 0.01 0.01 0.01 0.01 0.02 0.02 0.01 0.00 0.00 0.00 0.00 0.00 0.01 0.03 0.05 0.09 0.19 0.27 0.26 0.21
0.00 0.00 0.00 0.00 0.00 0.00 0.01 0.01 0.01 0.01 0.01 0.01 0.01 0.01 0.01 0.01 0.01 0.01 0.01 0.01 0.01 0.01 0.01 0.01 0.01 0.03 0.03 0.03 0.07 0.10 0.04 0.01 0.00 0.00 0.00 0.00 0.01 0.02 0.06 0.11 0.21 0.27 0.27
0.00 0.00 0.00 0.00 0.00 0.00 0.00 0.01 0.01 0.01 0.01 0.01 0.01 0.01 0.01 0.01 0.01 0.01 0.01 0.01 0.01 0.01 0.02 0.02 0.03 0.05 0.07 0.04 0.08 0.23 0.30 0.15 0.05 0.00 0.00 0.00 0.01 0.01 0.03 0.07 0.14 0.22 0.29
0.00 0.00 0.00 0.00 0.00 0.00 0.00 0.01 0.01 0.01 0.01 0.00 0.00 0.01 0.01 0.01 0.00 0.00 0.01 0.01 0.01 0.01 0.02 0.03 0.04 0.06 0.12 0.12 0.09 0.13 0.23 0.27 0.29 0.13 0.01 0.01 0.01 0.02 0.02 0.03 0.07 0.14 0.22
0.00 0.00 0.00 0.00 0.00 0.00 0.00 0.01 0.01 0.01 0.00 0.00 0.00 0.01 0.01 0.01 0.01 0.01 0.01 0.01 0.01 0.01 0.02 0.04 0.06 0.08 0.14 0.19 0.18 0.17 0.14 0.13 0.18 0.28 0.12 0.02 0.03 0.03 0.03 0.03 0.05 0.09 0.15
0.00 0.00 0.00 0.00 0.00 0.00 0.00 0.01 0.01 0.01 0.00 0.00 0.01 0.01 0.01 0.01 0.01 0.01 0.01 0.01 0.01 0.01 0.02 0.05 0.08 0.11 0.14 0.17 0.20 0.21 0.24 0.25 0.19 0.25 0.22 0.07 0.03 0.02 0.03 0.03 0.04 0.08 0.13

GEFSSE_prec_meanprecacc_138.txt.gz
Total_Precipitation_Accumulation
0.02 0.06 0.19 0.26 0.22 0.18 0.17 0.17 0.17 0.15 0.14 0.15 0.17 0.19 0.21 0.23 0.24 0.24 0.24 0.24 0.23 0.22 0.23 0.25 0.25 0.24 0.21 0.19 0.18 0.18 0.17 0.16 0.15 0.16 0.19 0.21 0.23 0.21 0.20 0.20 0.17 0.18 0.24
0.04 0.07 0.16 0.20 0.18 0.15 0.16 0.16 0.14 0.11 0.11 0.12 0.12 0.13 0.14 0.16 0.19 0.21 0.22 0.23 0.24 0.23 0.21 0.22 0.22 0.21 0.19 0.20 0.21 0.20 0.17 0.14 0.11 0.11 0.11 0.10 0.16 0.20 0.21 0.22 0.22 0.26 0.27
0.03 0.05 0.11 0.16 0.15 0.15 0.15 0.13 0.11 0.09 0.08 0.08 0.08 0.10 0.11 0.12 0.14 0.16 0.18 0.17 0.19 0.19 0.20 0.20 0.20 0.22 0.19 0.20 0.23 0.20 0.19 0.14 0.09 0.07 0.07 0.10 0.16 0.19 0.21 0.22 0.21 0.25 0.28
0.01 0.03 0.07 0.11 0.13 0.14 0.14 0.12 0.10 0.08 0.08 0.08 0.08 0.09 0.09 0.09 0.09 0.09 0.11 0.13 0.17 0.20 0.25 0.23 0.22 0.25 0.21 0.19 0.20 0.20 0.21 0.17 0.10 0.06 0.02 0.07 0.21 0.25 0.26 0.27 0.24 0.28 0.30
0.01 0.02 0.05 0.10 0.13 0.14 0.13 0.12 0.11 0.09 0.08 0.09 0.09 0.09 0.09 0.08 0.07 0.06 0.06 0.07 0.15 0.21 0.25 0.27 0.26 0.26 0.25 0.23 0.21 0.22 0.24 0.21 0.12 0.05 0.01 0.03 0.16 0.30 0.28 0.28 0.27 0.28 0.30
0.01 0.01 0.05 0.11 0.14 0.15 0.14 0.14 0.10 0.09 0.09 0.10 0.09 0.10 0.10 0.09 0.07 0.05 0.05 0.04 0.07 0.14 0.20 0.25 0.28 0.31 0.32 0.25 0.23 0.26 0.31 0.29 0.12 0.02 0.01 0.02 0.13 0.30 0.31 0.29 0.28 0.27 0.27
0.01 0.02 0.06 0.12 0.14 0.14 0.15 0.15 0.12 0.11 0.12 0.11 0.09 0.10 0.10 0.09 0.08 0.07 0.07 0.06 0.05 0.07 0.12 0.18 0.23 0.29 0.32 0.28 0.27 0.31 0.39 0.30 0.10 0.07 0.04 0.03 0.11 0.40 0.53 0.42 0.33 0.29 0.29
0.01 0.03 0.06 0.11 0.14 0.14 0.15 0.17 0.15 0.14 0.16 0.14 0.12 0.10 0.09 0.08 0.09 0.10 0.09 0.09 0.08 0.07 0.09 0.12 0.17 0.23 0.29 0.31 0.31 0.35 0.39 0.24 0.09 0.10 0.10 0.08 0.20 0.55 0.68 0.69 0.55 0.37 0.31
0.00 0.01 0.03 0.06 0.10 0.12 0.15 0.16 0.14 0.13 0.15 0.14 0.12 0.09 0.08 0.07 0.10 0.12 0.11 0.09 0.09 0.09 0.09 0.08 0.09 0.11 0.19 0.28 0.31 0.30 0.28 0.19 0.10 0.16 0.14 0.19 0.23 0.60 0.74 0.84 0.74 0.54 0.39
0.00 0.01 0.02 0.04 0.06 0.07 0.10 0.15 0.13 0.12 0.12 0.12 0.10 0.08 0.08 0.08 0.09 0.10 0.09 0.07 0.08 0.09 0.09 0.09 0.08 0.08 0.09 0.12 0.15 0.16 0.13 0.10 0.09 0.16 0.28 0.26 0.25 0.65 0.81 0.87 0.79 0.68 0.56
0.01 0.01 0.02 0.03 0.04 0.05 0.06 0.10 0.12 0.12 0.11 0.10 0.08 0.07 0.06 0.05 0.04 0.04 0.04 0.05 0.07 0.08 0.07 0.08 0.10 0.08 0.07 0.04 0.04 0.06 0.04 0.02 0.06 0.17 0.23 0.24 0.38 0.76 0.87 0.87 0.83 0.75 0.70
0.01 0.01 0.01 0.02 0.03 0.04 0.05 0.07 0.10 0.11 0.10 0.08 0.08 0.08 0.08 0.06 0.05 0.05 0.04 0.07 0.09 0.08 0.08 0.10 0.11 0.09 0.07 0.04 0.07 0.09 0.03 0.01 0.02 0.05 0.07 0.12 0.40 0.80 0.93 0.90 0.91 0.88 0.84
0.00 0.01 0.01 0.02 0.02 0.03 0.03 0.05 0.07 0.07 0.09 0.10 0.11 0.12 0.12 0.10 0.11 0.12 0.11 0.11 0.10 0.09 0.11 0.14 0.15 0.16 0.17 0.17 0.18 0.16 0.09 0.06 0.04 0.02 0.02 0.07 0.20 0.42 0.69 0.84 0.93 0.96 0.96
0.00 0.00 0.01 0.01 0.02 0.03 0.03 0.03 0.04 0.06 0.07 0.08 0.09 0.09 0.09 0.09 0.12 0.14 0.15 0.13 0.10 0.11 0.13 0.16 0.16 0.16 0.16 0.15 0.16 0.15 0.13 0.11 0.08 0.07 0.04 0.05 0.09 0.14 0.31 0.54 0.72 0.86 0.96
0.00 0.00 0.01 0.01 0.02 0.02 0.03 0.03 0.03 0.04 0.04 0.05 0.06 0.05 0.05 0.07 0.07 0.06 0.04 0.04 0.05 0.06 0.07 0.06 0.06 0.07 0.08 0.10 0.11 0.11 0.13 0.14 0.14 0.12 0.10 0.09 0.08 0.08 0.13 0.27 0.47 0.68 0.85
0.00 0.00 0.00 0.01 0.01 0.02 0.02 0.03 0.03 0.03 0.03 0.03 0.03 0.03 0.03 0.04 0.04 0.04 0.03 0.03 0.03 0.03 0.03 0.03 0.02 0.02 0.02 0.03 0.04 0.06 0.09 0.10 0.12 0.13 0.13 0.14 0.12 0.10 0.11 0.17 0.29 0.54 0.76
0.00 0.00 0.00 0.01 0.02 0.02 0.03 0.04 0.03 0.03 0.02 0.03 0.03 0.02 0.02 0.02 0.02 0.03 0.03 0.03 0.03 0.02 0.02 0.01 0.01 0.01 0.01 0.01 0.01 0.01 0.03 0.05 0.07 0.08 0.11 0.15 0.17 0.15 0.14 0.15 0.18 0.34 0.60
0.00 0.00 0.00 0.00 0.01 0.02 0.02 0.03 0.03 0.03 0.02 0.02 0.02 0.02 0.02 0.02 0.02 0.03 0.03 0.03 0.02 0.02 0.02 0.02 0.01 0.01 0.01 0.01 0.01 0.00 0.00 0.01 0.02 0.03 0.05 0.10 0.18 0.21 0.19 0.18 0.18 0.21 0.40
0.00 0.00 0.00 0.00 0.01 0.01 0.02 0.03 0.03 0.02 0.02 0.02 0.02 0.02 0.02 0.02 0.02 0.02 0.02 0.02 0.02 0.02 0.02 0.02 0.02 0.01 0.01 0.01 0.01 0.01 0.00 0.01 0.01 0.02 0.03 0.05 0.09 0.17 0.23 0.23 0.22 0.19 0.25
0.00 0.00 0.00 0.00 0.00 0.01 0.02 0.03 0.03 0.02 0.02 0.02 0.02 0.02 0.01 0.01 0.01 0.02 0.02 0.02 0.02 0.02 0.02 0.02 0.02 0.01 0.01 0.01 0.01 0.01 0.00 0.00 0.00 0.01 0.02 0.04 0.05 0.09 0.17 0.24 0.26 0.20 0.17
0.00 0.00 0.00 0.00 0.00 0.01 0.02 0.03 0.03 0.02 0.02 0.01 0.01 0.01 0.01 0.01 0.01 0.01 0.01 0.01 0.01 0.01 0.02 0.01 0.01 0.01 0.01 0.02 0.02 0.01 0.00 0.00 0.00 0.00 0.00 0.01 0.03 0.05 0.09 0.19 0.27 0.26 0.21
0.00 0.00 0.00 0.00 0.01 0.01 0.01 0.01 0.01 0.01 0.01 0.01 0.01 0.01 0.01 0.01 0.01 0.01 0.01 0.01 0.01 0.01 0.02 0.01 0.02 0.03 0.03 0.03 0.07 0.10 0.05 0.01 0.00 0.00 0.00 0.00 0.01 0.02 0.06 0.11 0.21 0.27 0.27
0.00 0.00 0.00 0.00 0.00 0.01 0.01 0.01 0.01 0.02 0.02 0.01 0.01 0.01 0.01 0.01 0.01 0.01 0.01 0.01 0.01 0.01 0.02 0.02 0.03 0.05 0.07 0.05 0.08 0.23 0.30 0.15 0.05 0.00 0.00 0.00 0.01 0.01 0.03 0.07 0.14 0.22 0.29
0.00 0.00 0.00 0.00 0.00 0.00 0.01 0.01 0.01 0.01 0.01 0.01 0.01 0.01 0.01 0.01 0.01 0.01 0.01 0.01 0.01 0.01 0.02 0.03 0.04 0.06 0.12 0.12 0.09 0.13 0.23 0.27 0.29 0.13 0.01 0.01 0.01 0.02 0.02 0.03 0.07 0.14 0.22
0.00 0.00 0.00 0.00 0.00 0.00 0.01 0.01 0.01 0.01 0.00 0.00 0.00 0.01 0.01 0.01 0.01 0.01 0.01 0.01 0.01 0.01 0.02 0.04 0.06 0.08 0.14 0.19 0.19 0.17 0.14 0.13 0.18 0.28 0.13 0.02 0.03 0.03 0.03 0.03 0.05 0.09 0.15
0.00 0.00 0.00 0.00 0.00 0.00 0.01 0.01 0.01 0.01 0.00 0.00 0.01 0.01 0.01 0.01 0.01 0.01 0.01 0.01 0.01 0.01 0.03 0.05 0.08 0.11 0.14 0.17 0.20 0.21 0.24 0.25 0.20 0.26 0.22 0.07 0.03 0.02 0.03 0.03 0.04 0.08 0.13

GEFSSE_prec_meanprecacc_144.txt.gz
Total_Precipitation_Accumulation
0.02 0.06 0.20 0.27 0.23 0.19 0.18 0.19 0.18 0.16 0.15 0.16 0.18 0.20 0.22 0.23 0.24 0.25 0.24 0.25 0.23 0.23 0.24 0.27 0.26 0.24 0.22 0.20 0.19 0.19 0.17 0.16 0.15 0.16 0.19 0.22 0.23 0.22 0.20 0.20 0.17 0.18 0.24
0.04 0.07 0.17 0.21 0.19 0.16 0.17 0.17 0.15 0.12 0.12 0.12 0.13 0.13 0.15 0.17 0.20 0.21 0.22 0.23 0.24 0.24 0.22 0.22 0.22 0.21 0.19 0.20 0.22 0.20 0.17 0.14 0.11 0.11 0.12 0.11 0.17 0.21 0.22 0.23 0.22 0.27 0.27
0.03 0.06 0.12 0.17 0.15 0.16 0.16 0.14 0.11 0.09 0.09 0.09 0.09 0.11 0.12 0.13 0.14 0.17 0.18 0.18 0.20 0.20 0.21 0.20 0.21 0.23 0.19 0.20 0.23 0.20 0.19 0.15 0.09 0.07 0.07 0.10 0.17 0.20 0.22 0.23 0.22 0.26 0.29
0.01 0.04 0.07 0.12 0.14 0.15 0.15 0.13 0.11 0.09 0.08 0.08 0.09 0.10 0.10 0.10 0.10 0.10 0.12 0.14 0.18 0.21 0.25 0.23 0.22 0.25 0.22 0.19 0.20 0.20 0.21 0.17 0.10 0.06 0.02 0.07 0.22 0.26 0.27 0.28 0.26 0.29 0.31
0.01 0.02 0.05 0.11 0.13 0.15 0.14 0.13 0.11 0.09 0.09 0.10 0.10 0.10 0.10 0.09 0.07 0.07 0.06 0.08 0.15 0.21 0.25 0.27 0.26 0.26 0.25 0.23 0.21 0.22 0.24 0.21 0.12 0.05 0.01 0.03 0.16 0.31 0.29 0.30 0.29 0.30 0.31
0.01 0.02 0.05 0.11 0.15 0.16 0.15 0.15 0.11 0.09 0.10 0.11 0.10 0.10 0.11 0.10 0.07 0.06 0.05 0.05 0.07 0.14 0.21 0.25 0.28 0.31 0.32 0.25 0.23 0.26 0.31 0.29 0.12 0.02 0.01 0.02 0.13 0.31 0.32 0.30 0.29 0.29 0.30
0.01 0.02 0.07 0.13 0.16 0.15 0.16 0.16 0.13 0.12 0.12 0.12 0.10 0.11 0.11 0.10 0.09 0.07 0.07 0.06 0.05 0.07 0.12 0.18 0.23 0.29 0.32 0.28 0.27 0.31 0.39 0.30 0.10 0.07 0.04 0.03 0.12 0.41 0.54 0.44 0.35 0.30 0.30
0.01 0.03 0.07 0.12 0.15 0.15 0.16 0.17 0.15 0.15 0.17 0.15 0.12 0.12 0.09 0.08 0.09 0.10 0.09 0.09 0.08 0.08 0.09 0.12 0.17 0.23 0.29 0.31 0.31 0.35 0.39 0.24 0.09 0.10 0.10 0.08 0.21 0.57 0.70 0.71 0.56 0.39 0.33
0.00 0.01 0.03 0.07 0.11 0.13 0.15 0.17 0.15 0.14 0.15 0.14 0.13 0.11 0.08 0.07 0.10 0.13 0.11 0.09 0.09 0.10 0.10 0.09 0.09 0.12 0.19 0.28 0.31 0.30 0.28 0.19 0.10 0.16 0.14 0.19 0.24 0.61 0.76 0.85 0.75 0.55 0.41
0.01 0.01 0.02 0.05 0.06 0.08 0.11 0.15 0.14 0.12 0.13 0.13 0.11 0.09 0.08 0.08 0.09 0.11 0.09 0.08 0.08 0.09 0.09 0.09 0.08 0.08 0.09 0.12 0.15 0.16 0.13 0.10 0.09 0.16 0.28 0.26 0.26 0.66 0.82 0.88 0.79 0.68 0.57
0.01 0.01 0.02 0.04 0.05 0.05 0.07 0.10 0.12 0.13 0.12 0.11 0.09 0.07 0.07 0.05 0.04 0.04 0.04 0.06 0.07 0.08 0.08 0.08 0.10 0.08 0.07 0.04 0.04 0.06 0.04 0.02 0.06 0.17 0.23 0.24 0.39 0.77 0.88 0.88 0.84 0.76 0.70
0.01 0.01 0.02 0.03 0.04 0.05 0.05 0.08 0.11 0.11 0.10 0.09 0.08 0.08 0.08 0.06 0.05 0.05 0.05 0.07 0.09 0.08 0.08 0.10 0.11 0.09 0.07 0.04 0.07 0.09 0.03 0.01 0.02 0.05 0.07 0.12 0.40 0.80 0.94 0.90 0.91 0.88 0.84
0.00 0.01 0.01 0.02 0.03 0.04 0.04 0.05 0.07 0.08 0.09 0.10 0.11 0.12 0.12 0.10 0.11 0.12 0.11 0.12 0.10 0.09 0.11 0.14 0.15 0.16 0.17 0.17 0.18 0.16 0.09 0.06 0.04 0.02 0.02 0.07 0.20 0.42 0.70 0.85 0.93 0.96 0.96
0.00 0.01 0.01 0.02 0.02 0.03 0.03 0.04 0.04 0.06 0.07 0.08 0.09 0.09 0.09 0.09 0.12 0.14 0.15 0.13 0.10 0.11 0.13 0.16 0.16 0.16 0.16 0.15 0.16 0.15 0.13 0.11 0.08 0.07 0.04 0.05 0.09 0.14 0.31 0.54 0.72 0.86 0.96
0.01 0.01 0.01 0.02 0.02 0.03 0.03 0.03 0.04 0.04 0.04 0.05 0.06 0.05 0.05 0.07 0.07 0.06 0.04 0.04 0.05 0.06 0.07 0.06 0.06 0.07 0.08 0.10 0.11 0.11 0.13 0.14 0.14 0.12 0.10 0.09 0.08 0.08 0.13 0.27 0.48 0.68 0.85
0.01 0.01 0.01 0.01 0.02 0.02 0.03 0.03 0.03 0.03 0.03 0.03 0.03 0.03 0.03 0.04 0.04 0.04 0.03 0.03 0.03 0.03 0.03 0.03 0.02 0.02 0.02 0.03 0.04 0.06 0.09 0.10 0.12 0.13 0.13 0.14 0.12 0.10 0.11 0.17 0.29 0.54 0.76
0.01 0.01 0.02 0.02 0.02 0.02 0.03 0.04 0.03 0.03 0.02 0.03 0.03 0.02 0.02 0.02 0.02 0.03 0.03 0.03 0.03 0.02 0.02 0.01 0.01 0.01 0.01 0.01 0.01 0.01 0.03 0.05 0.07 0.08 0.11 0.15 0.17 0.15 0.14 0.15 0.18 0.34 0.60
0.02 0.02 0.02 0.03 0.02 0.02 0.03 0.03 0.03 0.03 0.02 0.02 0.02 0.02 0.02 0.02 0.02 0.03 0.03 0.03 0.02 0.02 0.02 0.02 0.01 0.01 0.01 0.01 0.01 0.00 0.00 0.01 0.02 0.03 0.05 0.10 0.18 0.21 0.19 0.18 0.18 0.21 0.40
0.01 0.02 0.02 0.03 0.02 0.02 0.03 0.03 0.03 0.03 0.02 0.02 0.02 0.02 0.02 0.02 0.02 0.02 0.02 0.02 0.02 0.02 0.02 0.02 0.02 0.01 0.01 0.01 0.01 0.01 0.00 0.01 0.01 0.02 0.03 0.05 0.09 0.17 0.23 0.23 0.22 0.19 0.25
0.01 0.02 0.02 0.03 0.03 0.03 0.03 0.04 0.03 0.03 0.02 0.02 0.02 0.02 0.01 0.01 0.01 0.02 0.02 0.02 0.02 0.02 0.02 0.02 0.02 0.01 0.01 0.01 0.01 0.01 0.00 0.00 0.00 0.01 0.02 0.04 0.05 0.09 0.17 0.24 0.26 0.20 0.17
0.02 0.02 0.03 0.03 0.03 0.04 0.04 0.04 0.03 0.03 0.02 0.01 0.01 0.01 0.01 0.01 0.01 0.01 0.01 0.01 0.01 0.01 0.02 0.01 0.01 0.01 0.01 0.02 0.02 0.01 0.00 0.00 0.00 0.00 0.00 0.01 0.03 0.05 0.09 0.19 0.27 0.26 0.21
0.01 0.02 0.02 0.03 0.03 0.03 0.03 0.02 0.01 0.01 0.01 0.01 0.01 0.01 0.01 0.01 0.01 0.01 0.01 0.01 0.01 0.01 0.02 0.01 0.02 0.03 0.03 0.03 0.07 0.10 0.05 0.01 0.00 0.00 0.00 0.00 0.01 0.02 0.06 0.11 0.21 0.27 0.27
0.01 0.01 0.02 0.02 0.02 0.02 0.02 0.02 0.02 0.02 0.02 0.01 0.01 0.01 0.01 0.01 0.01 0.01 0.01 0.01 0.01 0.01 0.02 0.02 0.03 0.05 0.07 0.05 0.08 0.23 0.30 0.15 0.05 0.00 0.00 0.00 0.01 0.01 0.03 0.07 0.14 0.22 0.29
0.00 0.01 0.02 0.02 0.02 0.02 0.02 0.02 0.01 0.01 0.01 0.01 0.01 0.01 0.01 0.01 0.01 0.01 0.01 0.01 0.01 0.01 0.02 0.03 0.04 0.06 0.12 0.12 0.09 0.13 0.23 0.27 0.29 0.13 0.01 0.01 0.01 0.02 0.02 0.03 0.07 0.14 0.22
0.00 0.01 0.01 0.02 0.02 0.02 0.02 0.01 0.01 0.01 0.00 0.00 0.00 0.01 0.01 0.01 0.01 0.01 0.01 0.01 0.01 0.01 0.02 0.04 0.06 0.08 0.14 0.19 0.19 0.17 0.14 0.13 0.18 0.28 0.13 0.02 0.03 0.03 0.03 0.03 0.05 0.09 0.15
0.00 0.01 0.01 0.01 0.02 0.03 0.03 0.02 0.01 0.01 0.01 0.00 0.01 0.01 0.01 0.01 0.01 0.01 0.01 0.01 0.01 0.01 0.03 0.05 0.08 0.11 0.14 0.18 0.20 0.21 0.24 0.25 0.20 0.26 0.22 0.07 0.03 0.02 0.03 0.03 0.04 0.08 0.13

GEFSSE_prec_meanprecacc_150.txt.gz
Total_Precipitation_Accumulation
0.02 0.06 0.23 0.30 0.26 0.21 0.20 0.20 0.20 0.17 0.16 0.17 0.19 0.21 0.23 0.23 0.25 0.25 0.25 0.25 0.24 0.24 0.25 0.28 0.27 0.25 0.22 0.20 0.19 0.19 0.18 0.16 0.15 0.17 0.20 0.23 0.24 0.22 0.21 0.20 0.18 0.18 0.25
0.04 0.07 0.19 0.23 0.21 0.18 0.19 0.19 0.17 0.13 0.12 0.13 0.13 0.14 0.15 0.18 0.20 0.22 0.23 0.24 0.25 0.25 0.23 0.23 0.23 0.22 0.20 0.21 0.22 0.20 0.18 0.15 0.11 0.11 0.12 0.11 0.18 0.22 0.23 0.24 0.24 0.28 0.29
0.03 0.06 0.14 0.19 0.17 0.17 0.18 0.16 0.13 0.10 0.10 0.10 0.10 0.11 0.12 0.13 0.15 0.17 0.19 0.19 0.20 0.21 0.22 0.21 0.21 0.23 0.20 0.21 0.23 0.20 0.19 0.15 0.09 0.07 0.07 0.10 0.18 0.22 0.23 0.24 0.24 0.28 0.31
0.01 0.04 0.08 0.14 0.16 0.17 0.17 0.15 0.12 0.10 0.09 0.09 0.09 0.10 0.11 0.11 0.11 0.11 0.13 0.15 0.19 0.22 0.26 0.24 0.23 0.25 0.22 0.20 0.21 0.20 0.21 0.17 0.10 0.06 0.02 0.07 0.22 0.28 0.29 0.30 0.28 0.31 0.33
0.01 0.02 0.07 0.13 0.16 0.18 0.17 0.15 0.13 0.11 0.10 0.11 0.10 0.11 0.11 0.10 0.08 0.08 0.07 0.09 0.16 0.22 0.25 0.28 0.26 0.26 0.26 0.23 0.21 0.22 0.24 0.21 0.12 0.05 0.01 0.03 0.16 0.32 0.31 0.32 0.31 0.32 0.33
0.01 0.02 0.06 0.14 0.17 0.18 0.18 0.17 0.13 0.11 0.11 0.12 0.11 0.11 0.12 0.11 0.08 0.07 0.06 0.06 0.08 0.14 0.21 0.25 0.29 0.32 0.32 0.25 0.23 0.26 0.31 0.29 0.12 0.02 0.01 0.02 0.13 0.32 0.33 0.32 0.31 0.31 0.31
0.01 0.03 0.08 0.15 0.18 0.18 0.18 0.18 0.14 0.13 0.14 0.13 0.11 0.12 0.12 0.11 0.09 0.08 0.08 0.07 0.06 0.07 0.13 0.18 0.23 0.29 0.32 0.28 0.27 0.31 0.39 0.30 0.10 0.07 0.04 0.03 0.12 0.42 0.56 0.46 0.36 0.31 0.31
0.01 0.03 0.08 0.15 0.19 0.19 0.19 0.19 0.17 0.16 0.18 0.16 0.13 0.13 0.10 0.09 0.10 0.10 0.10 0.09 0.08 0.08 0.10 0.12 0.17 0.24 0.29 0.31 0.31 0.35 0.39 0.24 0.09 0.10 0.10 0.09 0.22 0.59 0.72 0.72 0.57 0.40 0.34
0.01 0.02 0.05 0.10 0.14 0.17 0.18 0.19 0.16 0.15 0.17 0.15 0.14 0.12 0.09 0.08 0.11 0.13 0.12 0.09 0.09 0.10 0.10 0.09 0.09 0.12 0.19 0.28 0.31 0.30 0.28 0.19 0.10 0.16 0.15 0.20 0.25 0.63 0.76 0.86 0.76 0.56 0.42
0.01 0.02 0.04 0.07 0.09 0.10 0.13 0.17 0.15 0.13 0.14 0.14 0.12 0.10 0.09 0.09 0.10 0.11 0.10 0.08 0.08 0.10 0.10 0.09 0.08 0.08 0.09 0.12 0.15 0.16 0.13 0.10 0.09 0.16 0.28 0.26 0.27 0.67 0.83 0.88 0.81 0.69 0.57
0.02 0.03 0.04 0.06 0.07 0.07 0.09 0.12 0.14 0.14 0.13 0.12 0.10 0.08 0.07 0.06 0.05 0.04 0.04 0.06 0.08 0.08 0.08 0.08 0.10 0.09 0.07 0.04 0.04 0.06 0.04 0.02 0.06 0.17 0.23 0.24 0.39 0.77 0.89 0.89 0.84 0.76 0.70
0.02 0.03 0.04 0.04 0.05 0.06 0.07 0.10 0.13 0.13 0.12 0.10 0.09 0.09 0.08 0.06 0.05 0.05 0.05 0.07 0.10 0.09 0.08 0.10 0.11 0.09 0.07 0.04 0.07 0.09 0.03 0.01 0.02 0.05 0.07 0.13 0.41 0.81 0.94 0.90 0.91 0.88 0.84
0.01 0.03 0.03 0.04 0.04 0.05 0.05 0.07 0.08 0.09 0.11 0.11 0.12 0.12 0.12 0.10 0.11 0.12 0.12 0.12 0.10 0.09 0.12 0.14 0.15 0.16 0.17 0.17 0.18 0.16 0.09 0.06 0.04 0.02 0.02 0.07 0.21 0.42 0.70 0.85 0.93 0.96 0.96
0.02 0.03 0.04 0.04 0.05 0.05 0.04 0.05 0.05 0.07 0.08 0.08 0.10 0.10 0.09 0.09 0.12 0.14 0.15 0.13 0.10 0.11 0.13 0.16 0.16 0.16 0.16 0.15 0.16 0.15 0.13 0.11 0.08 0.07 0.04 0.05 0.09 0.14 0.31 0.54 0.72 0.86 0.96
0.03 0.04 0.04 0.05 0.05 0.05 0.05 0.05 0.05 0.05 0.05 0.06 0.06 0.06 0.05 0.07 0.07 0.06 0.04 0.04 0.05 0.06 0.07 0.06 0.06 0.07 0.08 0.10 0.11 0.11 0.13 0.14 0.14 0.12 0.10 0.09 0.08 0.08 0.14 0.28 0.48 0.68 0.85
0.02 0.03 0.04 0.04 0.04 0.04 0.05 0.05 0.04 0.04 0.04 0.04 0.03 0.03 0.03 0.04 0.04 0.04 0.03 0.03 0.03 0.03 0.03 0.03 0.02 0.02 0.02 0.03 0.04 0.06 0.09 0.10 0.12 0.13 0.13 0.14 0.12 0.10 0.12 0.17 0.29 0.54 0.76
0.03 0.03 0.04 0.05 0.06 0.05 0.05 0.05 0.05 0.04 0.03 0.03 0.03 0.02 0.02 0.02 0.02 0.03 0.03 0.03 0.03 0.02 0.02 0.01 0.01 0.01 0.01 0.01 0.01 0.01 0.03 0.05 0.07 0.08 0.11 0.15 0.17 0.15 0.14 0.15 0.18 0.34 0.60
0.07 0.06 0.07 0.06 0.06 0.06 0.06 0.05 0.05 0.04 0.03 0.02 0.02 0.02 0.02 0.02 0.02 0.03 0.03 0.03 0.02 0.02 0.02 0.02 0.01 0.01 0.01 0.01 0.01 0.00 0.00 0.01 0.02 0.03 0.05 0.10 0.18 0.21 0.19 0.18 0.18 0.21 0.40
0.07 0.08 0.08 0.09 0.07 0.06 0.07 0.06 0.05 0.04 0.03 0.02 0.02 0.02 0.02 0.02 0.02 0.02 0.02 0.02 0.02 0.02 0.02 0.02 0.02 0.01 0.01 0.01 0.01 0.01 0.00 0.01 0.01 0.02 0.03 0.05 0.09 0.17 0.23 0.23 0.22 0.19 0.25
0.07 0.08 0.09 0.10 0.10 0.09 0.08 0.08 0.07 0.05 0.04 0.03 0.02 0.02 0.01 0.01 0.01 0.02 0.02 0.02 0.02 0.02 0.02 0.02 0.02 0.01 0.01 0.01 0.01 0.01 0.00 0.00 0.00 0.01 0.02 0.04 0.05 0.09 0.17 0.24 0.26 0.20 0.17
0.07 0.08 0.10 0.11 0.10 0.11 0.10 0.09 0.07 0.05 0.03 0.02 0.02 0.01 0.01 0.01 0.01 0.01 0.01 0.01 0.01 0.01 0.02 0.01 0.01 0.01 0.01 0.02 0.02 0.01 0.00 0.00 0.00 0.00 0.00 0.01 0.03 0.05 0.09 0.19 0.27 0.26 0.21
0.06 0.07 0.07 0.09 0.09 0.10 0.08 0.06 0.05 0.04 0.03 0.02 0.01 0.01 0.01 0.01 0.01 0.01 0.01 0.01 0.01 0.01 0.02 0.01 0.02 0.03 0.03 0.03 0.07 0.10 0.05 0.01 0.00 0.00 0.00 0.00 0.01 0.02 0.06 0.11 0.21 0.27 0.27
0.04 0.05 0.06 0.07 0.08 0.08 0.09 0.09 0.08 0.07 0.06 0.04 0.02 0.01 0.01 0.01 0.01 0.01 0.01 0.01 0.01 0.01 0.02 0.02 0.03 0.05 0.07 0.05 0.08 0.23 0.30 0.15 0.05 0.00 0.00 0.00 0.01 0.01 0.03 0.07 0.14 0.22 0.29
0.03 0.03 0.05 0.07 0.08 0.08 0.09 0.09 0.08 0.06 0.05 0.03 0.02 0.01 0.01 0.01 0.01 0.01 0.01 0.01 0.01 0.01 0.02 0.03 0.04 0.06 0.12 0.12 0.09 0.13 0.23 0.27 0.29 0.13 0.01 0.01 0.01 0.02 0.02 0.03 0.07 0.14 0.22
0.03 0.04 0.04 0.06 0.08 0.09 0.09 0.07 0.07 0.06 0.04 0.03 0.02 0.02 0.02 0.01 0.01 0.01 0.01 0.01 0.01 0.01 0.02 0.04 0.06 0.08 0.14 0.20 0.19 0.17 0.14 0.13 0.18 0.29 0.13 0.02 0.03 0.03 0.03 0.03 0.05 0.09 0.15
0.03 0.04 0.05 0.06 0.07 0.10 0.11 0.08 0.06 0.06 0.05 0.03 0.03 0.02 0.02 0.01 0.01 0.01 0.01 0.01 0.01 0.02 0.03 0.05 0.08 0.11 0.15 0.18 0.20 0.21 0.24 0.26 0.20 0.26 0.22 0.08 0.03 0.03 0.03 0.04 0.04 0.08 0.13

GEFSSE_prec_meanprecacc_156.txt.gz
Total_Precipitation_Accumulation
0.02 0.06 0.24 0.32 0.27 0.22 0.21 0.23 0.22 0.18 0.18 0.19 0.21 0.22 0.23 0.24 0.26 0.26 0.25 0.26 0.25 0.24 0.26 0.29 0.28 0.26 0.23 0.21 0.20 0.20 0.18 0.17 0.16 0.17 0.20 0.24 0.25 0.23 0.22 0.21 0.18 0.20 0.27
0.04 0.07 0.20 0.25 0.22 0.19 0.21 0.21 0.18 0.15 0.14 0.15 0.15 0.15 0.16 0.18 0.21 0.23 0.24 0.25 0.26 0.26 0.24 0.24 0.24 0.23 0.21 0.21 0.22 0.20 0.18 0.15 0.11 0.11 0.12 0.12 0.19 0.24 0.24 0.26 0.25 0.31 0.31
0.03 0.06 0.15 0.20 0.19 0.19 0.20 0.18 0.14 0.12 0.11 0.11 0.11 0.12 0.13 0.14 0.16 0.18 0.20 0.20 0.21 0.22 0.22 0.22 0.22 0.24 0.21 0.21 0.24 0.21 0.19 0.15 0.10 0.08 0.08 0.11 0.19 0.24 0.26 0.27 0.26 0.31 0.33
0.01 0.04 0.09 0.15 0.17 0.18 0.19 0.17 0.14 0.12 0.11 0.10 0.11 0.11 0.12 0.12 0.12 0.12 0.14 0.16 0.19 0.22 0.26 0.24 0.23 0.26 0.23 0.20 0.21 0.20 0.21 0.17 0.10 0.06 0.02 0.08 0.23 0.30 0.31 0.33 0.30 0.33 0.35
0.01 0.03 0.07 0.14 0.17 0.19 0.19 0.17 0.14 0.12 0.12 0.12 0.11 0.11 0.12 0.11 0.10 0.09 0.09 0.10 0.17 0.23 0.26 0.28 0.27 0.27 0.26 0.24 0.22 0.22 0.24 0.21 0.12 0.05 0.01 0.03 0.18 0.35 0.34 0.34 0.33 0.34 0.34
0.01 0.02 0.07 0.15 0.19 0.20 0.20 0.19 0.14 0.13 0.13 0.13 0.12 0.12 0.13 0.12 0.10 0.08 0.07 0.06 0.09 0.15 0.21 0.26 0.29 0.32 0.32 0.25 0.23 0.26 0.31 0.29 0.12 0.02 0.01 0.03 0.15 0.35 0.37 0.34 0.33 0.32 0.33
0.01 0.03 0.09 0.17 0.21 0.21 0.21 0.20 0.16 0.15 0.16 0.14 0.12 0.13 0.13 0.12 0.11 0.09 0.08 0.07 0.06 0.08 0.13 0.19 0.23 0.29 0.33 0.29 0.28 0.31 0.39 0.30 0.10 0.07 0.05 0.04 0.14 0.45 0.58 0.47 0.37 0.32 0.33
0.01 0.04 0.09 0.18 0.23 0.23 0.23 0.23 0.19 0.18 0.20 0.17 0.15 0.14 0.12 0.10 0.11 0.12 0.11 0.10 0.09 0.09 0.10 0.12 0.17 0.24 0.30 0.31 0.31 0.35 0.39 0.24 0.09 0.10 0.10 0.10 0.24 0.61 0.73 0.73 0.58 0.40 0.34
0.01 0.02 0.07 0.14 0.20 0.23 0.24 0.24 0.20 0.18 0.19 0.17 0.15 0.13 0.10 0.09 0.12 0.15 0.13 0.10 0.10 0.10 0.10 0.09 0.09 0.12 0.19 0.28 0.31 0.30 0.28 0.19 0.10 0.16 0.15 0.21 0.26 0.64 0.77 0.87 0.77 0.57 0.43
0.03 0.03 0.07 0.12 0.16 0.19 0.21 0.23 0.19 0.16 0.16 0.15 0.14 0.11 0.10 0.10 0.11 0.12 0.10 0.09 0.09 0.10 0.10 0.09 0.09 0.08 0.09 0.12 0.15 0.16 0.13 0.10 0.09 0.16 0.28 0.27 0.28 0.68 0.84 0.90 0.82 0.70 0.58
0.05 0.06 0.08 0.12 0.16 0.16 0.18 0.19 0.20 0.19 0.17 0.15 0.12 0.10 0.08 0.07 0.06 0.05 0.05 0.07 0.08 0.09 0.08 0.09 0.10 0.09 0.07 0.04 0.04 0.06 0.04 0.02 0.06 0.17 0.23 0.24 0.40 0.78 0.90 0.90 0.85 0.76 0.70
0.05 0.06 0.08 0.11 0.13 0.16 0.16 0.18 0.21 0.20 0.17 0.13 0.11 0.10 0.09 0.07 0.06 0.05 0.05 0.08 0.10 0.09 0.09 0.11 0.12 0.09 0.07 0.04 0.07 0.09 0.03 0.01 0.02 0.05 0.07 0.13 0.42 0.82 0.95 0.91 0.92 0.89 0.84
0.03 0.06 0.09 0.11 0.12 0.15 0.15 0.16 0.16 0.15 0.16 0.15 0.14 0.13 0.13 0.11 0.11 0.12 0.12 0.13 0.10 0.09 0.12 0.15 0.15 0.16 0.17 0.17 0.18 0.16 0.09 0.06 0.04 0.02 0.02 0.08 0.22 0.44 0.71 0.85 0.93 0.97 0.96
0.06 0.07 0.09 0.12 0.14 0.15 0.16 0.16 0.13 0.12 0.12 0.12 0.12 0.11 0.10 0.09 0.12 0.14 0.15 0.13 0.11 0.11 0.14 0.16 0.16 0.16 0.16 0.15 0.16 0.15 0.13 0.11 0.08 0.07 0.04 0.05 0.10 0.15 0.32 0.54 0.72 0.86 0.96
0.08 0.08 0.10 0.13 0.14 0.15 0.17 0.16 0.14 0.11 0.09 0.09 0.08 0.06 0.06 0.07 0.07 0.06 0.04 0.04 0.05 0.06 0.07 0.06 0.06 0.07 0.08 0.10 0.11 0.11 0.13 0.14 0.14 0.12 0.10 0.09 0.08 0.08 0.14 0.28 0.48 0.68 0.85
0.08 0.08 0.10 0.12 0.14 0.16 0.16 0.14 0.12 0.11 0.09 0.07 0.05 0.04 0.04 0.04 0.04 0.04 0.04 0.03 0.03 0.03 0.03 0.03 0.02 0.02 0.02 0.03 0.04 0.06 0.09 0.10 0.12 0.13 0.13 0.14 0.12 0.10 0.12 0.17 0.29 0.54 0.76
0.09 0.09 0.12 0.13 0.16 0.16 0.16 0.15 0.12 0.10 0.09 0.08 0.06 0.04 0.03 0.02 0.03 0.03 0.04 0.04 0.03 0.02 0.02 0.01 0.01 0.01 0.01 0.01 0.01 0.01 0.03 0.05 0.07 0.08 0.11 0.15 0.17 0.15 0.14 0.16 0.18 0.34 0.60
0.14 0.14 0.16 0.17 0.18 0.18 0.17 0.16 0.14 0.12 0.10 0.09 0.07 0.05 0.03 0.03 0.03 0.03 0.03 0.03 0.02 0.02 0.02 0.02 0.01 0.01 0.01 0.01 0.01 0.00 0.00 0.01 0.02 0.03 0.05 0.10 0.18 0.21 0.19 0.18 0.18 0.21 0.40
0.13 0.16 0.18 0.21 0.19 0.17 0.19 0.18 0.15 0.14 0.13 0.10 0.08 0.07 0.04 0.02 0.02 0.03 0.03 0.02 0.02 0.02 0.02 0.02 0.02 0.01 0.01 0.01 0.01 0.01 0.00 0.01 0.01 0.02 0.03 0.05 0.09 0.17 0.23 0.23 0.22 0.19 0.25
0.13 0.16 0.18 0.21 0.22 0.21 0.22 0.22 0.19 0.17 0.15 0.13 0.10 0.08 0.05 0.03 0.02 0.02 0.03 0.02 0.02 0.02 0.02 0.02 0.02 0.01 0.01 0.01 0.01 0.01 0.00 0.00 0.00 0.01 0.02 0.04 0.05 0.09 0.17 0.24 0.26 0.20 0.17
0.13 0.15 0.18 0.22 0.22 0.25 0.24 0.23 0.19 0.16 0.13 0.11 0.11 0.09 0.07 0.04 0.02 0.02 0.02 0.02 0.01 0.01 0.02 0.01 0.01 0.01 0.01 0.02 0.02 0.01 0.00 0.00 0.00 0.00 0.00 0.01 0.03 0.05 0.09 0.19 0.27 0.26 0.21
0.13 0.14 0.14 0.19 0.20 0.21 0.20 0.16 0.15 0.14 0.12 0.09 0.08 0.07 0.07 0.06 0.03 0.02 0.01 0.01 0.01 0.01 0.02 0.01 0.02 0.03 0.03 0.03 0.07 0.10 0.05 0.01 0.00 0.00 0.00 0.00 0.01 0.02 0.06 0.11 0.21 0.27 0.27
0.12 0.12 0.13 0.16 0.19 0.20 0.21 0.21 0.20 0.19 0.19 0.15 0.09 0.07 0.05 0.04 0.04 0.03 0.01 0.01 0.01 0.01 0.02 0.02 0.03 0.05 0.07 0.05 0.08 0.23 0.30 0.16 0.05 0.00 0.00 0.00 0.01 0.01 0.03 0.07 0.14 0.22 0.29
0.09 0.10 0.12 0.17 0.20 0.20 0.22 0.22 0.19 0.18 0.17 0.13 0.09 0.06 0.05 0.04 0.03 0.03 0.02 0.02 0.02 0.01 0.02 0.03 0.04 0.06 0.12 0.12 0.09 0.13 0.23 0.28 0.29 0.13 0.01 0.01 0.01 0.02 0.02 0.03 0.07 0.14 0.23
0.08 0.11 0.12 0.15 0.21 0.23 0.23 0.20 0.18 0.17 0.15 0.12 0.11 0.10 0.07 0.06 0.04 0.03 0.03 0.03 0.02 0.02 0.02 0.04 0.06 0.08 0.14 0.20 0.19 0.17 0.15 0.13 0.18 0.29 0.13 0.02 0.03 0.03 0.03 0.04 0.05 0.10 0.16
0.08 0.12 0.14 0.15 0.17 0.23 0.28 0.23 0.17 0.14 0.16 0.16 0.13 0.11 0.09 0.07 0.05 0.04 0.03 0.03 0.03 0.02 0.03 0.05 0.08 0.11 0.15 0.18 0.21 0.22 0.25 0.26 0.20 0.26 0.23 0.08 0.04 0.03 0.04 0.04 0.05 0.08 0.13

GEFSSE_prec_meanprecacc_162.txt.gz
Total_Precipitation_Accumulation
0.02 0.06 0.24 0.33 0.28 0.23 0.23 0.24 0.24 0.21 0.19 0.19 0.22 0.23 0.24 0.25 0.26 0.26 0.26 0.26 0.25 0.25 0.27 0.30 0.29 0.27 0.24 0.22 0.20 0.20 0.18 0.17 0.16 0.18 0.21 0.25 0.26 0.24 0.23 0.22 0.20 0.21 0.29
0.04 0.07 0.21 0.26 0.23 0.21 0.22 0.23 0.20 0.16 0.14 0.16 0.16 0.16 0.17 0.19 0.22 0.23 0.24 0.26 0.27 0.27 0.25 0.25 0.25 0.23 0.21 0.22 0.23 0.21 0.18 0.15 0.12 0.12 0.13 0.14 0.21 0.26 0.26 0.28 0.27 0.33 0.33
0.03 0.06 0.15 0.21 0.20 0.20 0.22 0.19 0.15 0.13 0.12 0.12 0.12 0.14 0.14 0.15 0.17 0.19 0.21 0.21 0.22 0.23 0.23 0.23 0.23 0.25 0.21 0.22 0.24 0.21 0.19 0.15 0.10 0.08 0.08 0.12 0.21 0.27 0.27 0.28 0.28 0.32 0.34
0.01 0.04 0.09 0.16 0.18 0.20 0.21 0.19 0.15 0.13 0.12 0.12 0.12 0.13 0.13 0.14 0.13 0.13 0.15 0.17 0.21 0.23 0.27 0.25 0.24 0.27 0.23 0.20 0.21 0.21 0.21 0.17 0.10 0.07 0.03 0.09 0.24 0.32 0.34 0.35 0.32 0.34 0.36
0.01 0.03 0.08 0.15 0.19 0.21 0.21 0.20 0.16 0.14 0.14 0.14 0.13 0.13 0.13 0.13 0.11 0.10 0.10 0.11 0.18 0.24 0.26 0.29 0.28 0.28 0.27 0.24 0.22 0.22 0.24 0.21 0.12 0.05 0.02 0.04 0.19 0.38 0.37 0.35 0.34 0.35 0.36
0.01 0.02 0.08 0.16 0.21 0.23 0.23 0.22 0.17 0.15 0.15 0.15 0.14 0.14 0.15 0.15 0.11 0.10 0.09 0.08 0.10 0.16 0.22 0.27 0.30 0.32 0.33 0.26 0.23 0.26 0.31 0.29 0.13 0.03 0.02 0.04 0.16 0.39 0.39 0.35 0.34 0.34 0.34
0.01 0.03 0.10 0.18 0.23 0.24 0.25 0.24 0.19 0.18 0.18 0.17 0.14 0.15 0.15 0.14 0.13 0.11 0.09 0.08 0.07 0.08 0.14 0.19 0.23 0.30 0.33 0.29 0.28 0.31 0.39 0.31 0.10 0.07 0.05 0.05 0.15 0.48 0.60 0.48 0.39 0.34 0.33
0.01 0.04 0.11 0.20 0.26 0.27 0.29 0.29 0.24 0.23 0.24 0.21 0.17 0.16 0.14 0.13 0.13 0.13 0.11 0.11 0.10 0.09 0.11 0.13 0.18 0.24 0.30 0.31 0.31 0.35 0.39 0.24 0.09 0.10 0.11 0.10 0.25 0.63 0.74 0.74 0.59 0.41 0.35
0.02 0.03 0.09 0.18 0.25 0.29 0.31 0.31 0.28 0.24 0.24 0.22 0.19 0.17 0.13 0.11 0.14 0.16 0.14 0.11 0.11 0.12 0.11 0.10 0.10 0.13 0.20 0.28 0.31 0.30 0.28 0.19 0.10 0.16 0.15 0.21 0.27 0.65 0.78 0.88 0.78 0.58 0.44
0.03 0.05 0.09 0.18 0.23 0.27 0.31 0.32 0.29 0.25 0.24 0.22 0.20 0.17 0.13 0.12 0.13 0.14 0.11 0.10 0.10 0.11 0.11 0.10 0.09 0.09 0.10 0.13 0.15 0.16 0.13 0.10 0.09 0.16 0.28 0.27 0.28 0.69 0.85 0.91 0.83 0.71 0.59
0.06 0.07 0.11 0.20 0.25 0.28 0.31 0.31 0.33 0.30 0.28 0.24 0.20 0.16 0.13 0.10 0.08 0.07 0.05 0.08 0.09 0.10 0.09 0.10 0.11 0.10 0.07 0.04 0.04 0.06 0.04 0.02 0.06 0.18 0.23 0.25 0.40 0.80 0.91 0.91 0.85 0.77 0.71
0.06 0.09 0.13 0.19 0.24 0.30 0.31 0.33 0.38 0.36 0.30 0.24 0.20 0.16 0.13 0.11 0.08 0.06 0.06 0.09 0.11 0.10 0.10 0.12 0.13 0.10 0.07 0.04 0.07 0.09 0.03 0.01 0.02 0.05 0.07 0.14 0.43 0.84 0.97 0.91 0.92 0.89 0.84
0.05 0.09 0.13 0.18 0.24 0.31 0.32 0.33 0.33 0.32 0.29 0.26 0.22 0.19 0.17 0.14 0.14 0.14 0.13 0.14 0.11 0.10 0.13 0.16 0.16 0.16 0.17 0.17 0.18 0.16 0.09 0.06 0.04 0.03 0.03 0.09 0.23 0.46 0.72 0.86 0.93 0.97 0.96
0.10 0.12 0.15 0.20 0.26 0.30 0.33 0.37 0.33 0.30 0.27 0.24 0.23 0.19 0.15 0.13 0.14 0.15 0.16 0.14 0.11 0.12 0.14 0.17 0.16 0.16 0.16 0.15 0.16 0.15 0.13 0.11 0.08 0.07 0.04 0.06 0.11 0.16 0.32 0.54 0.72 0.86 0.96
0.12 0.16 0.18 0.22 0.26 0.29 0.34 0.38 0.39 0.32 0.25 0.21 0.20 0.17 0.13 0.11 0.09 0.07 0.05 0.05 0.05 0.07 0.07 0.06 0.06 0.07 0.08 0.10 0.11 0.11 0.13 0.14 0.14 0.12 0.10 0.09 0.09 0.09 0.14 0.28 0.48 0.68 0.85
0.11 0.14 0.20 0.23 0.27 0.31 0.33 0.34 0.35 0.38 0.32 0.24 0.18 0.14 0.11 0.09 0.07 0.06 0.05 0.04 0.03 0.03 0.03 0.03 0.02 0.02 0.02 0.03 0.04 0.06 0.09 0.10 0.12 0.13 0.13 0.14 0.12 0.11 0.12 0.17 0.29 0.54 0.76
0.11 0.15 0.22 0.25 0.30 0.34 0.36 0.37 0.35 0.37 0.37 0.30 0.24 0.19 0.13 0.08 0.06 0.05 0.05 0.05 0.03 0.02 0.02 0.01 0.01 0.01 0.01 0.01 0.01 0.01 0.03 0.05 0.07 0.08 0.11 0.15 0.17 0.15 0.14 0.16 0.18 0.34 0.60
0.15 0.18 0.25 0.28 0.31 0.36 0.39 0.41 0.37 0.36 0.36 0.33 0.25 0.23 0.19 0.14 0.11 0.09 0.06 0.05 0.03 0.02 0.02 0.02 0.01 0.01 0.01 0.01 0.01 0.00 0.00 0.01 0.02 0.03 0.05 0.10 0.18 0.21 0.19 0.18 0.18 0.21 0.40
0.14 0.19 0.27 0.33 0.32 0.32 0.40 0.42 0.43 0.42 0.39 0.35 0.31 0.24 0.18 0.13 0.11 0.10 0.08 0.05 0.03 0.02 0.03 0.02 0.02 0.01 0.01 0.01 0.01 0.01 0.00 0.01 0.01 0.02 0.03 0.05 0.09 0.17 0.23 0.23 0.22 0.19 0.25
0.14 0.18 0.25 0.34 0.35 0.35 0.41 0.46 0.46 0.48 0.46 0.40 0.34 0.29 0.21 0.12 0.08 0.07 0.07 0.05 0.04 0.03 0.03 0.02 0.02 0.01 0.01 0.01 0.01 0.01 0.00 0.00 0.00 0.01 0.02 0.04 0.05 0.09 0.17 0.24 0.26 0.20 0.17
0.15 0.18 0.24 0.36 0.38 0.42 0.44 0.44 0.42 0.41 0.44 0.40 0.33 0.32 0.28 0.18 0.11 0.09 0.08 0.06 0.04 0.04 0.03 0.02 0.01 0.01 0.02 0.02 0.03 0.01 0.00 0.00 0.00 0.00 0.00 0.01 0.03 0.05 0.09 0.19 0.27 0.26 0.21
0.15 0.16 0.18 0.31 0.38 0.40 0.39 0.36 0.34 0.34 0.37 0.40 0.33 0.29 0.29 0.24 0.16 0.11 0.08 0.07 0.06 0.05 0.05 0.04 0.02 0.03 0.03 0.03 0.07 0.10 0.05 0.01 0.00 0.00 0.00 0.00 0.01 0.03 0.06 0.11 0.21 0.27 0.27
0.14 0.14 0.17 0.24 0.34 0.38 0.40 0.44 0.43 0.43 0.46 0.47 0.40 0.31 0.25 0.24 0.21 0.15 0.09 0.06 0.06 0.05 0.05 0.05 0.04 0.06 0.07 0.05 0.08 0.24 0.30 0.16 0.05 0.00 0.00 0.00 0.01 0.01 0.03 0.07 0.14 0.22 0.29
0.11 0.14 0.16 0.23 0.31 0.37 0.41 0.46 0.45 0.42 0.40 0.41 0.38 0.32 0.25 0.20 0.21 0.17 0.13 0.09 0.06 0.05 0.05 0.06 0.06 0.07 0.12 0.13 0.09 0.13 0.23 0.28 0.30 0.13 0.01 0.01 0.01 0.02 0.02 0.03 0.07 0.14 0.23
0.11 0.16 0.18 0.22 0.30 0.37 0.40 0.41 0.44 0.41 0.35 0.33 0.38 0.38 0.32 0.24 0.18 0.17 0.14 0.12 0.08 0.06 0.05 0.07 0.08 0.10 0.15 0.20 0.19 0.17 0.15 0.14 0.19 0.29 0.13 0.02 0.03 0.03 0.03 0.04 0.05 0.10 0.16
0.10 0.17 0.22 0.23 0.26 0.34 0.43 0.41 0.40 0.40 0.39 0.38 0.36 0.38 0.39 0.31 0.23 0.17 0.14 0.13 0.11 0.08 0.06 0.07 0.10 0.12 0.16 0.19 0.21 0.22 0.25 0.26 0.21 0.27 0.23 0.08 0.04 0.03 0.04 0.04 0.05 0.08 0.13

GEFSSE_prec_meanprecacc_168.txt.gz
Total_Precipitation_Accumulation
0.02 0.06 0.25 0.34 0.29 0.24 0.24 0.25 0.25 0.21 0.19 0.20 0.22 0.23 0.24 0.25 0.27 0.27 0.26 0.27 0.26 0.26 0.28 0.31 0.30 0.28 0.25 0.22 0.21 0.21 0.19 0.18 0.17 0.19 0.22 0.26 0.28 0.25 0.24 0.23 0.21 0.22 0.31
0.04 0.07 0.21 0.27 0.24 0.22 0.24 0.24 0.21 0.17 0.15 0.16 0.16 0.17 0.18 0.19 0.22 0.24 0.25 0.27 0.28 0.28 0.27 0.27 0.26 0.24 0.22 0.22 0.23 0.21 0.19 0.16 0.13 0.13 0.14 0.15 0.23 0.28 0.28 0.29 0.28 0.35 0.35
0.03 0.06 0.16 0.22 0.21 0.22 0.24 0.21 0.17 0.14 0.13 0.13 0.13 0.14 0.15 0.16 0.18 0.20 0.21 0.22 0.23 0.25 0.25 0.24 0.24 0.25 0.22 0.22 0.24 0.22 0.20 0.15 0.10 0.08 0.09 0.13 0.23 0.29 0.29 0.29 0.30 0.35 0.36
0.01 0.04 0.10 0.17 0.20 0.22 0.23 0.22 0.18 0.15 0.14 0.13 0.13 0.14 0.14 0.15 0.14 0.13 0.16 0.18 0.22 0.25 0.28 0.26 0.25 0.27 0.23 0.21 0.22 0.21 0.22 0.18 0.11 0.07 0.03 0.09 0.26 0.35 0.36 0.37 0.34 0.36 0.38
0.01 0.03 0.08 0.16 0.20 0.23 0.24 0.23 0.20 0.18 0.16 0.16 0.15 0.15 0.15 0.15 0.13 0.12 0.11 0.12 0.20 0.25 0.27 0.29 0.28 0.28 0.27 0.24 0.22 0.22 0.24 0.22 0.13 0.05 0.02 0.04 0.20 0.41 0.40 0.38 0.36 0.37 0.38
0.01 0.02 0.08 0.17 0.23 0.25 0.26 0.26 0.22 0.21 0.21 0.19 0.17 0.17 0.18 0.18 0.14 0.12 0.10 0.09 0.11 0.17 0.23 0.27 0.30 0.33 0.33 0.26 0.24 0.27 0.31 0.29 0.13 0.03 0.02 0.04 0.17 0.41 0.41 0.36 0.36 0.35 0.35
0.02 0.04 0.10 0.19 0.25 0.27 0.28 0.29 0.26 0.25 0.25 0.23 0.19 0.19 0.19 0.18 0.17 0.15 0.12 0.10 0.08 0.09 0.14 0.20 0.24 0.30 0.33 0.29 0.28 0.31 0.39 0.31 0.10 0.07 0.05 0.05 0.17 0.50 0.62 0.50 0.40 0.35 0.34
0.02 0.05 0.11 0.22 0.28 0.30 0.32 0.34 0.32 0.31 0.34 0.30 0.26 0.23 0.20 0.19 0.18 0.18 0.14 0.12 0.11 0.10 0.11 0.13 0.18 0.25 0.30 0.31 0.31 0.35 0.39 0.24 0.09 0.10 0.11 0.11 0.26 0.65 0.77 0.76 0.60 0.42 0.35
0.02 0.04 0.10 0.20 0.29 0.34 0.37 0.37 0.36 0.35 0.35 0.33 0.30 0.25 0.21 0.18 0.20 0.21 0.17 0.13 0.12 0.12 0.11 0.10 0.10 0.13 0.20 0.28 0.32 0.30 0.28 0.19 0.10 0.17 0.15 0.21 0.29 0.67 0.80 0.88 0.79 0.58 0.44
0.05 0.06 0.12 0.22 0.28 0.33 0.38 0.41 0.38 0.36 0.36 0.35 0.32 0.29 0.23 0.19 0.19 0.19 0.15 0.11 0.11 0.12 0.11 0.10 0.10 0.09 0.10 0.13 0.16 0.17 0.13 0.10 0.09 0.16 0.28 0.27 0.30 0.70 0.86 0.91 0.83 0.72 0.59
0.09 0.09 0.14 0.25 0.32 0.36 0.39 0.38 0.42 0.43 0.43 0.40 0.37 0.32 0.27 0.20 0.14 0.11 0.08 0.09 0.10 0.11 0.10 0.10 0.11 0.10 0.08 0.05 0.04 0.06 0.04 0.02 0.06 0.18 0.24 0.25 0.41 0.81 0.92 0.92 0.86 0.78 0.71
0.10 0.11 0.15 0.23 0.31 0.38 0.39 0.41 0.48 0.48 0.46 0.42 0.37 0.34 0.29 0.23 0.15 0.10 0.09 0.11 0.12 0.11 0.11 0.12 0.13 0.10 0.07 0.04 0.07 0.09 0.03 0.01 0.02 0.05 0.08 0.14 0.44 0.85 0.98 0.92 0.93 0.89 0.84
0.11 0.14 0.16 0.23 0.30 0.39 0.42 0.42 0.44 0.44 0.44 0.44 0.42 0.38 0.35 0.30 0.25 0.21 0.17 0.17 0.13 0.11 0.14 0.16 0.16 0.16 0.17 0.17 0.18 0.16 0.09 0.06 0.04 0.03 0.03 0.09 0.24 0.47 0.73 0.86 0.94 0.97 0.97
0.15 0.18 0.21 0.26 0.33 0.38 0.43 0.46 0.43 0.42 0.42 0.41 0.42 0.40 0.35 0.30 0.27 0.24 0.22 0.17 0.13 0.13 0.15 0.17 0.16 0.16 0.16 0.15 0.16 0.15 0.13 0.11 0.08 0.07 0.04 0.06 0.12 0.18 0.33 0.55 0.73 0.86 0.96
0.17 0.21 0.25 0.31 0.35 0.39 0.45 0.49 0.50 0.44 0.41 0.38 0.38 0.36 0.33 0.31 0.25 0.17 0.12 0.09 0.07 0.08 0.08 0.07 0.06 0.07 0.08 0.10 0.11 0.11 0.13 0.14 0.14 0.12 0.10 0.09 0.09 0.10 0.15 0.29 0.48 0.69 0.86
0.16 0.20 0.26 0.32 0.37 0.42 0.44 0.44 0.46 0.49 0.45 0.42 0.38 0.33 0.31 0.29 0.26 0.21 0.15 0.10 0.06 0.04 0.04 0.03 0.02 0.02 0.02 0.03 0.04 0.06 0.09 0.10 0.12 0.13 0.13 0.14 0.13 0.11 0.13 0.18 0.29 0.55 0.76
0.16 0.20 0.29 0.34 0.40 0.45 0.48 0.48 0.47 0.50 0.51 0.46 0.43 0.41 0.35 0.27 0.23 0.21 0.18 0.13 0.08 0.05 0.04 0.03 0.02 0.02 0.01 0.01 0.01 0.02 0.03 0.05 0.07 0.09 0.11 0.15 0.17 0.16 0.14 0.16 0.18 0.34 0.60
0.20 0.24 0.32 0.37 0.42 0.47 0.53 0.56 0.51 0.50 0.52 0.51 0.45 0.46 0.43 0.36 0.29 0.26 0.23 0.19 0.12 0.07 0.06 0.05 0.04 0.04 0.03 0.02 0.01 0.01 0.01 0.01 0.02 0.03 0.06 0.10 0.18 0.22 0.20 0.18 0.18 0.22 0.41
0.19 0.24 0.34 0.42 0.42 0.43 0.53 0.60 0.60 0.57 0.56 0.55 0.51 0.48 0.44 0.41 0.36 0.30 0.26 0.22 0.17 0.13 0.11 0.10 0.09 0.07 0.05 0.04 0.03 0.02 0.01 0.01 0.01 0.02 0.03 0.05 0.09 0.17 0.23 0.23 0.23 0.19 0.25
0.20 0.25 0.32 0.44 0.46 0.47 0.55 0.65 0.67 0.66 0.63 0.61 0.57 0.50 0.45 0.40 0.36 0.32 0.28 0.22 0.17 0.12 0.08 0.07 0.06 0.04 0.03 0.03 0.03 0.02 0.01 0.00 0.00 0.01 0.02 0.04 0.05 0.09 0.17 0.24 0.26 0.20 0.18
0.20 0.23 0.31 0.45 0.50 0.55 0.59 0.63 0.63 0.59 0.61 0.60 0.58 0.56 0.50 0.46 0.41 0.37 0.33 0.27 0.20 0.12 0.07 0.05 0.04 0.04 0.04 0.03 0.04 0.02 0.01 0.00 0.00 0.00 0.00 0.01 0.03 0.05 0.09 0.19 0.27 0.26 0.21
0.19 0.20 0.24 0.38 0.49 0.53 0.54 0.55 0.54 0.53 0.55 0.59 0.55 0.56 0.56 0.52 0.50 0.43 0.35 0.31 0.25 0.18 0.11 0.06 0.05 0.06 0.06 0.06 0.08 0.11 0.05 0.01 0.00 0.00 0.00 0.00 0.01 0.03 0.06 0.11 0.21 0.27 0.27
0.17 0.18 0.21 0.31 0.44 0.50 0.54 0.65 0.68 0.69 0.71 0.70 0.66 0.58 0.54 0.54 0.53 0.52 0.43 0.34 0.30 0.25 0.17 0.09 0.07 0.08 0.10 0.07 0.09 0.24 0.31 0.16 0.05 0.00 0.00 0.00 0.01 0.01 0.03 0.07 0.14 0.22 0.29
0.13 0.17 0.20 0.30 0.42 0.49 0.55 0.64 0.68 0.66 0.66 0.64 0.60 0.57 0.52 0.49 0.52 0.50 0.48 0.42 0.34 0.29 0.23 0.15 0.09 0.09 0.14 0.14 0.11 0.14 0.23 0.28 0.30 0.13 0.01 0.01 0.02 0.02 0.02 0.03 0.07 0.14 0.23
0.12 0.18 0.21 0.28 0.41 0.51 0.58 0.59 0.63 0.61 0.57 0.56 0.62 0.64 0.61 0.53 0.48 0.49 0.47 0.44 0.38 0.32 0.28 0.24 0.18 0.14 0.16 0.21 0.20 0.18 0.15 0.14 0.19 0.29 0.13 0.03 0.03 0.03 0.03 0.04 0.05 0.10 0.16
0.12 0.20 0.25 0.28 0.35 0.49 0.60 0.62 0.60 0.58 0.57 0.59 0.61 0.65 0.70 0.64 0.53 0.47 0.45 0.42 0.38 0.33 0.26 0.24 0.24 0.23 0.21 0.21 0.22 0.23 0.26 0.26 0.21 0.27 0.23 0.08 0.04 0.03 0.04 0.04 0.05 0.08 0.13

GEFSSE_prec_meanprecacc_174.txt.gz
Total_Precipitation_Accumulation
0.02 0.06 0.26 0.35 0.31 0.26 0.26 0.28 0.27 0.23 0.21 0.22 0.24 0.25 0.27 0.28 0.29 0.29 0.28 0.28 0.27 0.28 0.30 0.33 0.32 0.29 0.26 0.23 0.22 0.21 0.20 0.19 0.18 0.20 0.24 0.27 0.29 0.27 0.25 0.24 0.22 0.24 0.32
0.04 0.07 0.22 0.28 0.26 0.25 0.27 0.27 0.24 0.19 0.17 0.19 0.19 0.19 0.20 0.22 0.25 0.26 0.27 0.28 0.29 0.30 0.29 0.29 0.27 0.26 0.23 0.23 0.24 0.22 0.20 0.17 0.14 0.14 0.15 0.16 0.24 0.30 0.29 0.30 0.29 0.36 0.36
0.03 0.06 0.16 0.23 0.23 0.25 0.28 0.25 0.21 0.17 0.16 0.16 0.16 0.18 0.18 0.19 0.20 0.22 0.23 0.23 0.25 0.26 0.27 0.26 0.25 0.27 0.23 0.23 0.25 0.22 0.21 0.16 0.11 0.09 0.09 0.13 0.24 0.32 0.32 0.31 0.32 0.37 0.39
0.02 0.04 0.10 0.18 0.22 0.25 0.27 0.26 0.23 0.19 0.18 0.17 0.18 0.19 0.19 0.19 0.17 0.17 0.18 0.20 0.24 0.26 0.30 0.28 0.26 0.28 0.24 0.21 0.22 0.21 0.22 0.18 0.11 0.07 0.03 0.09 0.27 0.39 0.39 0.39 0.37 0.40 0.41
0.01 0.03 0.09 0.18 0.23 0.27 0.29 0.28 0.27 0.24 0.22 0.22 0.21 0.21 0.21 0.20 0.17 0.16 0.15 0.15 0.22 0.27 0.29 0.31 0.29 0.29 0.27 0.25 0.23 0.23 0.25 0.22 0.13 0.05 0.02 0.05 0.21 0.45 0.43 0.41 0.39 0.39 0.39
0.01 0.03 0.09 0.19 0.26 0.29 0.31 0.33 0.30 0.28 0.28 0.26 0.24 0.25 0.25 0.24 0.20 0.17 0.15 0.13 0.14 0.19 0.25 0.29 0.31 0.33 0.33 0.27 0.24 0.28 0.32 0.30 0.13 0.03 0.02 0.04 0.19 0.45 0.45 0.39 0.37 0.37 0.36
0.02 0.04 0.11 0.22 0.29 0.31 0.34 0.36 0.34 0.34 0.34 0.31 0.29 0.29 0.28 0.27 0.24 0.23 0.18 0.14 0.12 0.12 0.17 0.22 0.25 0.31 0.34 0.29 0.29 0.32 0.40 0.31 0.10 0.07 0.05 0.05 0.18 0.54 0.65 0.52 0.41 0.36 0.35
0.02 0.06 0.13 0.25 0.33 0.36 0.39 0.42 0.40 0.41 0.44 0.41 0.38 0.34 0.31 0.30 0.28 0.27 0.21 0.18 0.16 0.14 0.14 0.16 0.20 0.26 0.31 0.32 0.32 0.36 0.40 0.24 0.09 0.10 0.11 0.11 0.28 0.68 0.79 0.78 0.61 0.42 0.36
0.03 0.06 0.12 0.23 0.33 0.40 0.45 0.46 0.45 0.43 0.47 0.46 0.43 0.39 0.36 0.34 0.34 0.34 0.27 0.21 0.19 0.18 0.16 0.13 0.12 0.14 0.20 0.29 0.32 0.30 0.28 0.19 0.10 0.17 0.15 0.22 0.31 0.69 0.82 0.90 0.80 0.59 0.45
0.07 0.09 0.15 0.25 0.32 0.38 0.44 0.48 0.47 0.44 0.48 0.49 0.48 0.45 0.41 0.40 0.39 0.37 0.30 0.22 0.20 0.20 0.17 0.14 0.12 0.10 0.11 0.13 0.16 0.17 0.13 0.10 0.09 0.17 0.29 0.28 0.32 0.72 0.88 0.93 0.84 0.73 0.60
0.11 0.12 0.17 0.28 0.36 0.41 0.44 0.44 0.51 0.53 0.55 0.53 0.52 0.46 0.43 0.39 0.34 0.29 0.25 0.24 0.22 0.19 0.15 0.14 0.14 0.12 0.09 0.05 0.05 0.06 0.04 0.02 0.07 0.18 0.24 0.26 0.43 0.83 0.94 0.93 0.87 0.78 0.72
0.12 0.14 0.19 0.28 0.35 0.43 0.46 0.49 0.57 0.57 0.56 0.54 0.49 0.47 0.43 0.39 0.34 0.29 0.26 0.26 0.26 0.21 0.17 0.17 0.16 0.12 0.08 0.05 0.07 0.10 0.03 0.01 0.02 0.05 0.08 0.15 0.45 0.87 1.00 0.94 0.94 0.90 0.85
0.13 0.17 0.21 0.28 0.36 0.45 0.49 0.50 0.53 0.54 0.53 0.55 0.55 0.52 0.49 0.45 0.42 0.41 0.38 0.37 0.29 0.23 0.22 0.21 0.21 0.19 0.18 0.18 0.18 0.16 0.09 0.06 0.04 0.03 0.03 0.10 0.25 0.49 0.76 0.88 0.95 0.97 0.97
0.16 0.20 0.25 0.32 0.39 0.45 0.50 0.55 0.54 0.53 0.52 0.50 0.53 0.54 0.50 0.45 0.42 0.41 0.40 0.36 0.31 0.26 0.23 0.22 0.20 0.18 0.18 0.16 0.17 0.15 0.13 0.11 0.08 0.07 0.05 0.07 0.13 0.19 0.36 0.58 0.74 0.87 0.97
0.19 0.23 0.28 0.35 0.41 0.46 0.53 0.57 0.60 0.57 0.53 0.48 0.48 0.49 0.49 0.45 0.39 0.33 0.29 0.26 0.24 0.22 0.18 0.13 0.10 0.10 0.10 0.11 0.11 0.11 0.13 0.14 0.14 0.12 0.10 0.10 0.10 0.11 0.17 0.31 0.50 0.70 0.87
0.19 0.23 0.28 0.35 0.43 0.48 0.52 0.53 0.55 0.59 0.57 0.53 0.48 0.44 0.44 0.43 0.39 0.37 0.32 0.28 0.25 0.20 0.16 0.12 0.09 0.06 0.04 0.04 0.05 0.06 0.09 0.10 0.12 0.13 0.14 0.15 0.13 0.12 0.15 0.20 0.31 0.56 0.78
0.19 0.24 0.33 0.37 0.45 0.52 0.55 0.57 0.56 0.58 0.59 0.57 0.54 0.52 0.47 0.42 0.37 0.37 0.36 0.32 0.27 0.24 0.19 0.15 0.12 0.08 0.05 0.03 0.02 0.02 0.03 0.05 0.07 0.09 0.11 0.16 0.18 0.16 0.16 0.18 0.20 0.36 0.62
0.23 0.28 0.37 0.42 0.46 0.54 0.61 0.64 0.61 0.60 0.60 0.60 0.57 0.58 0.54 0.49 0.44 0.42 0.39 0.36 0.30 0.27 0.25 0.21 0.17 0.12 0.08 0.06 0.04 0.03 0.01 0.02 0.03 0.04 0.06 0.10 0.18 0.22 0.21 0.20 0.20 0.23 0.42
0.22 0.28 0.38 0.47 0.47 0.49 0.61 0.68 0.69 0.67 0.66 0.64 0.61 0.59 0.56 0.52 0.48 0.45 0.43 0.40 0.38 0.35 0.32 0.29 0.24 0.18 0.13 0.09 0.06 0.04 0.02 0.02 0.02 0.03 0.04 0.05 0.09 0.17 0.23 0.24 0.23 0.20 0.27
0.22 0.28 0.36 0.49 0.52 0.53 0.63 0.73 0.76 0.77 0.74 0.72 0.67 0.61 0.58 0.54 0.49 0.44 0.42 0.39 0.37 0.36 0.33 0.29 0.24 0.17 0.13 0.10 0.07 0.04 0.02 0.01 0.01 0.01 0.02 0.04 0.06 0.09 0.18 0.25 0.26 0.21 0.18
0.22 0.27 0.34 0.50 0.55 0.62 0.67 0.72 0.72 0.70 0.72 0.71 0.68 0.66 0.61 0.59 0.56 0.52 0.47 0.43 0.38 0.34 0.31 0.27 0.24 0.21 0.16 0.12 0.10 0.07 0.04 0.02 0.01 0.00 0.01 0.02 0.03 0.05 0.09 0.19 0.28 0.26 0.21
0.21 0.23 0.28 0.43 0.54 0.59 0.61 0.63 0.63 0.62 0.65 0.69 0.66 0.68 0.68 0.65 0.65 0.59 0.51 0.48 0.43 0.38 0.33 0.29 0.25 0.24 0.21 0.17 0.16 0.18 0.11 0.05 0.02 0.01 0.01 0.01 0.01 0.03 0.06 0.11 0.22 0.28 0.27
0.18 0.20 0.25 0.35 0.49 0.56 0.61 0.73 0.77 0.80 0.83 0.84 0.77 0.70 0.67 0.69 0.69 0.70 0.61 0.51 0.46 0.42 0.38 0.32 0.26 0.24 0.25 0.20 0.18 0.31 0.36 0.20 0.07 0.02 0.01 0.01 0.01 0.01 0.03 0.07 0.14 0.23 0.29
0.14 0.18 0.23 0.34 0.46 0.55 0.63 0.72 0.77 0.75 0.77 0.76 0.71 0.67 0.63 0.64 0.68 0.67 0.68 0.62 0.52 0.45 0.41 0.37 0.30 0.26 0.28 0.27 0.21 0.22 0.28 0.31 0.31 0.15 0.02 0.01 0.02 0.02 0.02 0.03 0.08 0.14 0.23
0.13 0.19 0.23 0.32 0.46 0.57 0.66 0.67 0.70 0.68 0.64 0.67 0.75 0.76 0.72 0.68 0.67 0.68 0.66 0.66 0.60 0.51 0.44 0.41 0.38 0.33 0.34 0.35 0.31 0.25 0.21 0.18 0.21 0.31 0.14 0.03 0.03 0.03 0.03 0.04 0.06 0.10 0.16
0.13 0.21 0.28 0.32 0.40 0.56 0.69 0.71 0.68 0.65 0.65 0.69 0.75 0.80 0.83 0.79 0.72 0.67 0.66 0.62 0.60 0.54 0.46 0.41 0.40 0.39 0.39 0.38 0.35 0.32 0.33 0.32 0.24 0.29 0.25 0.09 0.04 0.03 0.04 0.04 0.05 0.08 0.13

GEFSSE_prec_meanprecacc_180.txt.gz
Total_Precipitation_Accumulation
0.02 0.06 0.26 0.36 0.32 0.28 0.28 0.30 0.31 0.27 0.25 0.28 0.29 0.30 0.32 0.32 0.34 0.33 0.31 0.31 0.30 0.30 0.32 0.37 0.37 0.34 0.30 0.26 0.23 0.22 0.20 0.20 0.20 0.22 0.25 0.28 0.29 0.28 0.26 0.25 0.23 0.25 0.34
0.04 0.07 0.23 0.29 0.27 0.26 0.29 0.29 0.27 0.23 0.21 0.24 0.27 0.27 0.29 0.29 0.30 0.30 0.30 0.31 0.32 0.32 0.32 0.33 0.33 0.32 0.28 0.25 0.25 0.22 0.20 0.18 0.15 0.14 0.16 0.16 0.25 0.31 0.30 0.30 0.30 0.37 0.38
0.03 0.06 0.17 0.24 0.25 0.27 0.30 0.27 0.24 0.21 0.20 0.21 0.23 0.27 0.27 0.27 0.26 0.27 0.27 0.27 0.28 0.30 0.32 0.31 0.31 0.33 0.27 0.25 0.26 0.23 0.21 0.17 0.11 0.09 0.09 0.14 0.26 0.35 0.33 0.32 0.33 0.39 0.40
0.02 0.04 0.11 0.19 0.24 0.28 0.31 0.30 0.27 0.24 0.23 0.23 0.24 0.27 0.28 0.26 0.23 0.22 0.22 0.24 0.28 0.31 0.34 0.32 0.31 0.33 0.28 0.24 0.23 0.22 0.23 0.19 0.11 0.07 0.03 0.10 0.28 0.42 0.41 0.40 0.39 0.42 0.42
0.01 0.03 0.10 0.19 0.25 0.31 0.33 0.33 0.32 0.30 0.29 0.29 0.29 0.30 0.31 0.30 0.25 0.23 0.20 0.22 0.29 0.32 0.34 0.35 0.34 0.34 0.31 0.28 0.25 0.24 0.25 0.22 0.13 0.05 0.02 0.05 0.23 0.48 0.46 0.43 0.41 0.41 0.40
0.01 0.03 0.10 0.20 0.29 0.34 0.36 0.38 0.35 0.35 0.35 0.33 0.33 0.35 0.36 0.36 0.31 0.27 0.23 0.21 0.21 0.25 0.30 0.34 0.37 0.39 0.37 0.30 0.28 0.29 0.32 0.30 0.13 0.03 0.03 0.05 0.20 0.49 0.48 0.41 0.39 0.37 0.37
0.02 0.04 0.12 0.23 0.31 0.35 0.38 0.42 0.40 0.41 0.42 0.39 0.38 0.40 0.42 0.41 0.39 0.36 0.30 0.24 0.20 0.19 0.22 0.27 0.31 0.36 0.38 0.34 0.33 0.34 0.40 0.31 0.10 0.07 0.06 0.06 0.20 0.57 0.68 0.54 0.42 0.37 0.36
0.02 0.06 0.14 0.26 0.35 0.40 0.44 0.48 0.46 0.47 0.51 0.50 0.49 0.47 0.45 0.43 0.42 0.42 0.36 0.30 0.26 0.22 0.22 0.22 0.26 0.32 0.37 0.38 0.36 0.38 0.40 0.24 0.09 0.10 0.11 0.12 0.30 0.71 0.82 0.79 0.62 0.44 0.38
0.04 0.07 0.13 0.25 0.35 0.44 0.49 0.51 0.51 0.50 0.54 0.54 0.54 0.53 0.50 0.50 0.51 0.51 0.46 0.38 0.33 0.30 0.27 0.22 0.20 0.21 0.27 0.35 0.36 0.32 0.29 0.19 0.10 0.17 0.16 0.23 0.32 0.72 0.84 0.91 0.81 0.61 0.46
0.07 0.10 0.16 0.26 0.35 0.41 0.48 0.53 0.53 0.51 0.56 0.57 0.57 0.56 0.54 0.55 0.57 0.57 0.49 0.39 0.35 0.33 0.28 0.23 0.19 0.17 0.16 0.19 0.21 0.19 0.14 0.10 0.09 0.17 0.29 0.29 0.33 0.75 0.90 0.94 0.86 0.74 0.61
0.12 0.13 0.19 0.30 0.39 0.44 0.47 0.48 0.56 0.59 0.63 0.62 0.61 0.56 0.54 0.50 0.47 0.44 0.40 0.38 0.39 0.36 0.30 0.25 0.22 0.18 0.14 0.10 0.09 0.09 0.06 0.03 0.07 0.18 0.24 0.27 0.45 0.85 0.96 0.94 0.89 0.80 0.73
0.13 0.15 0.21 0.30 0.38 0.46 0.48 0.52 0.61 0.61 0.62 0.62 0.59 0.57 0.53 0.48 0.44 0.40 0.36 0.37 0.40 0.40 0.35 0.31 0.26 0.20 0.15 0.09 0.11 0.12 0.04 0.02 0.02 0.05 0.08 0.16 0.47 0.90 1.02 0.95 0.95 0.91 0.87
0.15 0.19 0.23 0.31 0.39 0.48 0.51 0.52 0.56 0.57 0.59 0.62 0.65 0.63 0.62 0.57 0.53 0.52 0.48 0.47 0.42 0.39 0.38 0.35 0.33 0.27 0.24 0.22 0.21 0.18 0.10 0.07 0.04 0.03 0.04 0.11 0.26 0.51 0.78 0.90 0.97 0.99 0.98
0.19 0.23 0.28 0.35 0.43 0.48 0.53 0.58 0.56 0.56 0.56 0.57 0.62 0.64 0.63 0.61 0.56 0.53 0.50 0.45 0.42 0.40 0.39 0.36 0.31 0.26 0.23 0.20 0.20 0.17 0.14 0.12 0.09 0.08 0.05 0.07 0.14 0.22 0.38 0.60 0.76 0.89 0.98
0.22 0.26 0.31 0.39 0.45 0.50 0.56 0.61 0.63 0.60 0.55 0.52 0.55 0.58 0.59 0.58 0.55 0.50 0.42 0.35 0.33 0.34 0.33 0.28 0.23 0.18 0.16 0.16 0.15 0.14 0.15 0.14 0.14 0.13 0.11 0.10 0.11 0.13 0.20 0.33 0.53 0.73 0.89
0.20 0.25 0.32 0.40 0.47 0.52 0.55 0.57 0.59 0.62 0.60 0.58 0.54 0.51 0.52 0.53 0.52 0.51 0.48 0.43 0.36 0.31 0.29 0.26 0.22 0.17 0.13 0.11 0.10 0.10 0.11 0.11 0.12 0.14 0.14 0.15 0.14 0.13 0.17 0.22 0.34 0.59 0.81
0.21 0.27 0.36 0.42 0.50 0.56 0.59 0.61 0.61 0.62 0.63 0.61 0.60 0.57 0.53 0.50 0.48 0.49 0.50 0.46 0.41 0.36 0.31 0.27 0.24 0.21 0.17 0.13 0.10 0.08 0.07 0.07 0.08 0.09 0.12 0.16 0.18 0.17 0.17 0.20 0.23 0.39 0.65
0.24 0.30 0.39 0.46 0.51 0.59 0.65 0.68 0.65 0.65 0.65 0.65 0.62 0.64 0.60 0.54 0.52 0.52 0.52 0.50 0.44 0.39 0.36 0.32 0.27 0.23 0.19 0.16 0.13 0.10 0.08 0.06 0.05 0.05 0.06 0.11 0.19 0.22 0.21 0.21 0.21 0.26 0.45
0.23 0.29 0.40 0.49 0.50 0.54 0.66 0.73 0.74 0.72 0.71 0.69 0.69 0.66 0.63 0.58 0.54 0.53 0.53 0.52 0.52 0.49 0.45 0.41 0.34 0.28 0.22 0.19 0.15 0.13 0.09 0.07 0.06 0.06 0.05 0.06 0.10 0.18 0.24 0.24 0.24 0.22 0.29
0.23 0.29 0.37 0.51 0.54 0.57 0.68 0.80 0.84 0.84 0.80 0.76 0.72 0.67 0.64 0.61 0.56 0.51 0.51 0.51 0.51 0.51 0.48 0.43 0.37 0.29 0.24 0.21 0.19 0.16 0.12 0.08 0.06 0.05 0.05 0.05 0.06 0.10 0.18 0.25 0.26 0.21 0.19
0.24 0.28 0.36 0.52 0.57 0.64 0.71 0.77 0.81 0.78 0.79 0.76 0.73 0.71 0.67 0.66 0.63 0.58 0.53 0.51 0.50 0.47 0.44 0.40 0.38 0.34 0.29 0.25 0.27 0.25 0.21 0.14 0.09 0.06 0.05 0.04 0.04 0.06 0.10 0.20 0.28 0.26 0.21
0.23 0.24 0.30 0.45 0.56 0.61 0.64 0.67 0.69 0.72 0.73 0.75 0.71 0.72 0.73 0.71 0.71 0.65 0.57 0.55 0.53 0.50 0.46 0.42 0.39 0.39 0.34 0.30 0.31 0.33 0.27 0.23 0.16 0.09 0.06 0.04 0.03 0.04 0.07 0.12 0.22 0.28 0.28
0.20 0.22 0.26 0.37 0.51 0.58 0.64 0.77 0.81 0.88 0.94 0.91 0.83 0.75 0.72 0.74 0.75 0.75 0.66 0.58 0.56 0.55 0.51 0.45 0.40 0.39 0.39 0.33 0.30 0.44 0.48 0.31 0.16 0.09 0.06 0.04 0.04 0.03 0.04 0.08 0.15 0.23 0.29
0.16 0.20 0.25 0.37 0.50 0.58 0.66 0.77 0.82 0.81 0.85 0.85 0.77 0.72 0.68 0.69 0.73 0.73 0.73 0.69 0.61 0.57 0.52 0.48 0.43 0.40 0.43 0.43 0.37 0.34 0.39 0.39 0.38 0.21 0.08 0.05 0.05 0.05 0.05 0.05 0.08 0.15 0.23
0.15 0.21 0.25 0.35 0.50 0.62 0.69 0.71 0.76 0.74 0.70 0.74 0.81 0.81 0.77 0.73 0.73 0.74 0.72 0.73 0.70 0.63 0.55 0.52 0.50 0.48 0.48 0.50 0.46 0.38 0.32 0.28 0.29 0.38 0.21 0.09 0.08 0.07 0.06 0.06 0.07 0.11 0.16
0.15 0.23 0.30 0.35 0.45 0.61 0.73 0.76 0.73 0.71 0.70 0.75 0.81 0.85 0.88 0.84 0.77 0.72 0.71 0.69 0.69 0.66 0.57 0.52 0.52 0.52 0.52 0.50 0.47 0.44 0.44 0.42 0.33 0.37 0.32 0.15 0.10 0.09 0.08 0.07 0.07 0.10 0.14

GEFSSE_prec_meanprecacc_186.txt.gz
Total_Precipitation_Accumulation
0.02 0.06 0.27 0.37 0.33 0.29 0.29 0.32 0.33 0.29 0.28 0.31 0.33 0.36 0.37 0.38 0.38 0.36 0.33 0.33 0.32 0.32 0.35 0.40 0.41 0.42 0.38 0.33 0.26 0.24 0.22 0.21 0.21 0.23 0.26 0.29 0.30 0.28 0.27 0.25 0.23 0.26 0.35
0.04 0.08 0.23 0.30 0.28 0.28 0.30 0.31 0.30 0.26 0.24 0.27 0.31 0.34 0.37 0.37 0.37 0.36 0.35 0.34 0.34 0.34 0.35 0.36 0.37 0.37 0.36 0.31 0.28 0.25 0.22 0.20 0.15 0.15 0.16 0.17 0.26 0.32 0.31 0.31 0.31 0.38 0.39
0.03 0.06 0.17 0.24 0.25 0.28 0.32 0.30 0.27 0.25 0.23 0.24 0.27 0.32 0.34 0.35 0.35 0.36 0.35 0.32 0.33 0.35 0.36 0.35 0.35 0.38 0.34 0.31 0.30 0.25 0.24 0.19 0.12 0.09 0.10 0.14 0.27 0.36 0.34 0.33 0.34 0.40 0.41
0.02 0.05 0.11 0.20 0.25 0.29 0.32 0.32 0.30 0.27 0.26 0.26 0.29 0.32 0.33 0.33 0.32 0.32 0.33 0.33 0.38 0.39 0.41 0.39 0.37 0.39 0.34 0.29 0.28 0.26 0.25 0.20 0.12 0.07 0.04 0.11 0.30 0.43 0.42 0.41 0.40 0.43 0.44
0.01 0.03 0.10 0.19 0.26 0.32 0.34 0.35 0.34 0.33 0.33 0.34 0.33 0.35 0.36 0.36 0.32 0.31 0.28 0.31 0.40 0.41 0.42 0.43 0.42 0.41 0.37 0.33 0.30 0.29 0.29 0.24 0.14 0.06 0.02 0.06 0.25 0.51 0.48 0.45 0.42 0.42 0.41
0.01 0.03 0.10 0.20 0.29 0.34 0.37 0.40 0.37 0.38 0.39 0.39 0.38 0.40 0.41 0.41 0.37 0.35 0.33 0.33 0.34 0.37 0.40 0.42 0.44 0.46 0.45 0.38 0.36 0.38 0.39 0.34 0.14 0.03 0.03 0.06 0.22 0.51 0.49 0.43 0.40 0.38 0.38
0.02 0.05 0.12 0.23 0.32 0.36 0.39 0.43 0.42 0.43 0.45 0.43 0.43 0.45 0.46 0.45 0.44 0.43 0.40 0.36 0.32 0.31 0.33 0.37 0.38 0.41 0.44 0.40 0.40 0.43 0.48 0.36 0.12 0.08 0.06 0.07 0.21 0.59 0.70 0.55 0.43 0.37 0.37
0.02 0.06 0.14 0.27 0.36 0.40 0.44 0.49 0.48 0.49 0.54 0.54 0.53 0.51 0.50 0.48 0.47 0.47 0.43 0.39 0.36 0.34 0.34 0.35 0.36 0.40 0.43 0.43 0.42 0.44 0.46 0.28 0.11 0.11 0.12 0.13 0.30 0.72 0.83 0.81 0.63 0.45 0.39
0.04 0.07 0.14 0.26 0.36 0.44 0.50 0.52 0.52 0.52 0.56 0.57 0.58 0.57 0.54 0.54 0.55 0.56 0.52 0.47 0.44 0.41 0.40 0.37 0.35 0.33 0.35 0.42 0.42 0.37 0.33 0.23 0.11 0.17 0.16 0.24 0.33 0.73 0.85 0.93 0.82 0.62 0.48
0.08 0.11 0.17 0.27 0.36 0.42 0.48 0.54 0.54 0.52 0.57 0.60 0.60 0.60 0.59 0.59 0.61 0.62 0.57 0.51 0.47 0.45 0.41 0.37 0.34 0.30 0.27 0.27 0.27 0.25 0.19 0.15 0.11 0.17 0.30 0.30 0.34 0.76 0.91 0.96 0.87 0.75 0.62
0.12 0.15 0.21 0.33 0.41 0.45 0.48 0.49 0.56 0.60 0.64 0.64 0.63 0.60 0.59 0.55 0.52 0.49 0.47 0.49 0.49 0.46 0.41 0.36 0.34 0.31 0.26 0.21 0.18 0.16 0.10 0.06 0.08 0.19 0.25 0.28 0.46 0.86 0.98 0.96 0.90 0.81 0.74
0.13 0.16 0.23 0.33 0.42 0.49 0.50 0.53 0.62 0.62 0.63 0.63 0.60 0.60 0.57 0.53 0.50 0.46 0.42 0.43 0.46 0.47 0.45 0.42 0.38 0.32 0.26 0.20 0.21 0.20 0.09 0.04 0.04 0.07 0.09 0.17 0.48 0.91 1.04 0.97 0.96 0.92 0.88
0.15 0.20 0.25 0.34 0.43 0.52 0.54 0.54 0.57 0.58 0.60 0.63 0.66 0.65 0.65 0.63 0.60 0.59 0.54 0.53 0.48 0.44 0.44 0.43 0.41 0.36 0.33 0.29 0.29 0.25 0.15 0.09 0.06 0.04 0.05 0.12 0.28 0.53 0.80 0.92 0.98 1.00 1.00
0.20 0.24 0.30 0.38 0.46 0.52 0.57 0.60 0.58 0.57 0.56 0.58 0.63 0.66 0.66 0.65 0.63 0.62 0.59 0.54 0.50 0.47 0.46 0.44 0.41 0.35 0.31 0.27 0.26 0.22 0.19 0.15 0.11 0.09 0.06 0.09 0.16 0.24 0.41 0.62 0.78 0.90 1.00
0.22 0.27 0.33 0.43 0.49 0.53 0.60 0.64 0.66 0.62 0.57 0.53 0.56 0.60 0.61 0.61 0.61 0.58 0.53 0.48 0.46 0.45 0.42 0.36 0.31 0.27 0.24 0.24 0.23 0.20 0.20 0.19 0.19 0.16 0.13 0.12 0.12 0.15 0.23 0.37 0.56 0.75 0.91
0.20 0.26 0.33 0.43 0.52 0.58 0.60 0.62 0.63 0.66 0.62 0.59 0.55 0.52 0.55 0.56 0.56 0.57 0.56 0.54 0.49 0.43 0.40 0.37 0.32 0.27 0.22 0.19 0.17 0.17 0.17 0.16 0.17 0.18 0.16 0.17 0.16 0.16 0.20 0.26 0.38 0.62 0.84
0.21 0.28 0.38 0.46 0.58 0.66 0.66 0.66 0.66 0.66 0.67 0.64 0.62 0.59 0.55 0.53 0.51 0.54 0.57 0.54 0.51 0.47 0.42 0.38 0.36 0.33 0.28 0.21 0.17 0.14 0.13 0.13 0.13 0.14 0.15 0.19 0.21 0.20 0.20 0.23 0.27 0.42 0.68
0.25 0.31 0.41 0.50 0.60 0.69 0.73 0.74 0.71 0.69 0.69 0.69 0.65 0.66 0.63 0.57 0.54 0.55 0.57 0.56 0.52 0.49 0.46 0.42 0.39 0.36 0.32 0.27 0.21 0.17 0.14 0.13 0.11 0.10 0.10 0.14 0.21 0.24 0.23 0.23 0.25 0.30 0.49
0.23 0.30 0.42 0.53 0.56 0.63 0.75 0.80 0.79 0.77 0.76 0.75 0.73 0.69 0.66 0.62 0.57 0.55 0.56 0.56 0.58 0.57 0.53 0.49 0.44 0.39 0.35 0.31 0.28 0.23 0.17 0.14 0.12 0.11 0.09 0.09 0.13 0.20 0.26 0.27 0.27 0.25 0.32
0.23 0.30 0.39 0.54 0.58 0.63 0.74 0.90 0.91 0.88 0.86 0.83 0.79 0.72 0.68 0.66 0.60 0.54 0.54 0.54 0.56 0.57 0.54 0.51 0.46 0.39 0.35 0.33 0.32 0.29 0.22 0.17 0.14 0.11 0.10 0.10 0.10 0.13 0.21 0.28 0.29 0.23 0.22
0.24 0.29 0.38 0.54 0.60 0.68 0.76 0.84 0.90 0.83 0.84 0.83 0.80 0.77 0.71 0.70 0.68 0.62 0.56 0.54 0.54 0.53 0.50 0.46 0.46 0.44 0.41 0.40 0.42 0.40 0.34 0.26 0.20 0.15 0.11 0.09 0.09 0.10 0.13 0.23 0.31 0.28 0.23
0.23 0.25 0.31 0.47 0.58 0.64 0.68 0.70 0.74 0.76 0.78 0.81 0.78 0.81 0.80 0.76 0.76 0.70 0.60 0.58 0.57 0.55 0.52 0.47 0.45 0.48 0.46 0.44 0.46 0.50 0.44 0.37 0.29 0.19 0.15 0.11 0.09 0.09 0.12 0.17 0.26 0.30 0.29
0.21 0.22 0.27 0.39 0.53 0.61 0.67 0.80 0.84 0.90 0.97 0.96 0.90 0.82 0.80 0.81 0.80 0.79 0.70 0.61 0.60 0.59 0.57 0.51 0.45 0.45 0.47 0.44 0.43 0.59 0.62 0.42 0.26 0.18 0.15 0.12 0.10 0.10 0.10 0.13 0.20 0.26 0.32
0.17 0.20 0.25 0.39 0.52 0.60 0.68 0.78 0.84 0.83 0.87 0.88 0.82 0.79 0.74 0.75 0.79 0.77 0.77 0.71 0.65 0.62 0.57 0.54 0.50 0.46 0.49 0.51 0.47 0.47 0.51 0.49 0.46 0.29 0.16 0.13 0.12 0.11 0.10 0.11 0.14 0.20 0.26
0.17 0.22 0.26 0.36 0.53 0.64 0.71 0.73 0.77 0.76 0.72 0.76 0.86 0.86 0.83 0.79 0.79 0.79 0.76 0.76 0.73 0.67 0.61 0.58 0.58 0.56 0.55 0.57 0.54 0.48 0.43 0.38 0.38 0.46 0.28 0.17 0.16 0.14 0.12 0.12 0.13 0.17 0.21
0.19 0.26 0.32 0.36 0.47 0.63 0.75 0.77 0.74 0.73 0.72 0.76 0.85 0.91 0.93 0.89 0.83 0.78 0.76 0.74 0.73 0.69 0.62 0.58 0.59 0.61 0.61 0.58 0.55 0.51 0.52 0.51 0.42 0.45 0.39 0.23 0.19 0.17 0.16 0.16 0.15 0.17 0.20

GEFSSE_prec_meanprecacc_192.txt.gz
Total_Precipitation_Accumulation
0.02 0.06 0.27 0.38 0.34 0.30 0.31 0.33 0.33 0.30 0.29 0.31 0.34 0.37 0.39 0.39 0.40 0.38 0.36 0.36 0.36 0.34 0.37 0.42 0.44 0.45 0.41 0.36 0.30 0.27 0.24 0.24 0.24 0.25 0.28 0.31 0.31 0.29 0.28 0.26 0.24 0.27 0.37
0.04 0.08 0.23 0.30 0.29 0.28 0.32 0.33 0.31 0.26 0.25 0.28 0.32 0.36 0.39 0.39 0.39 0.38 0.38 0.38 0.39 0.38 0.38 0.39 0.40 0.41 0.40 0.34 0.31 0.27 0.25 0.23 0.18 0.17 0.17 0.18 0.27 0.33 0.32 0.31 0.32 0.39 0.40
0.03 0.06 0.17 0.25 0.26 0.29 0.33 0.31 0.28 0.26 0.24 0.26 0.30 0.35 0.37 0.38 0.38 0.39 0.38 0.37 0.38 0.39 0.40 0.40 0.41 0.43 0.37 0.34 0.32 0.28 0.27 0.21 0.14 0.10 0.10 0.15 0.27 0.37 0.35 0.33 0.35 0.41 0.43
0.02 0.05 0.11 0.20 0.25 0.30 0.33 0.33 0.31 0.28 0.28 0.28 0.30 0.35 0.37 0.36 0.34 0.34 0.35 0.36 0.43 0.45 0.48 0.46 0.44 0.45 0.38 0.32 0.31 0.29 0.28 0.22 0.14 0.09 0.04 0.11 0.30 0.44 0.43 0.42 0.41 0.44 0.45
0.01 0.03 0.10 0.19 0.26 0.32 0.35 0.36 0.35 0.33 0.34 0.35 0.35 0.36 0.39 0.40 0.36 0.35 0.32 0.34 0.44 0.47 0.48 0.51 0.49 0.47 0.42 0.36 0.33 0.32 0.33 0.28 0.16 0.07 0.03 0.07 0.26 0.52 0.49 0.46 0.43 0.43 0.43
0.01 0.03 0.10 0.21 0.29 0.35 0.37 0.40 0.38 0.38 0.40 0.40 0.39 0.41 0.43 0.44 0.41 0.39 0.37 0.36 0.37 0.41 0.46 0.50 0.51 0.53 0.49 0.41 0.39 0.40 0.42 0.36 0.16 0.04 0.04 0.07 0.23 0.53 0.51 0.44 0.41 0.39 0.39
0.02 0.05 0.12 0.23 0.32 0.36 0.40 0.44 0.42 0.43 0.46 0.44 0.44 0.46 0.48 0.49 0.49 0.48 0.44 0.40 0.35 0.35 0.38 0.44 0.46 0.48 0.49 0.44 0.44 0.46 0.52 0.39 0.15 0.10 0.07 0.08 0.22 0.61 0.72 0.57 0.45 0.39 0.38
0.03 0.06 0.14 0.27 0.36 0.40 0.45 0.49 0.48 0.50 0.55 0.55 0.55 0.53 0.52 0.51 0.53 0.52 0.49 0.44 0.40 0.37 0.38 0.40 0.43 0.47 0.50 0.48 0.46 0.48 0.51 0.33 0.14 0.14 0.14 0.14 0.32 0.74 0.86 0.84 0.65 0.46 0.40
0.04 0.07 0.14 0.26 0.37 0.45 0.50 0.52 0.52 0.52 0.57 0.59 0.60 0.59 0.56 0.56 0.58 0.59 0.57 0.51 0.47 0.44 0.43 0.41 0.39 0.38 0.41 0.46 0.47 0.43 0.39 0.28 0.16 0.20 0.19 0.26 0.35 0.75 0.88 0.96 0.84 0.63 0.49
0.08 0.11 0.18 0.28 0.36 0.43 0.49 0.54 0.55 0.53 0.59 0.62 0.63 0.62 0.60 0.61 0.63 0.65 0.60 0.54 0.50 0.47 0.43 0.40 0.37 0.34 0.32 0.32 0.32 0.30 0.24 0.21 0.15 0.21 0.33 0.32 0.37 0.79 0.95 0.99 0.89 0.77 0.64
0.12 0.15 0.22 0.34 0.43 0.48 0.51 0.51 0.58 0.61 0.65 0.66 0.65 0.61 0.61 0.57 0.54 0.51 0.50 0.53 0.53 0.50 0.45 0.40 0.38 0.35 0.31 0.25 0.22 0.20 0.16 0.12 0.14 0.24 0.29 0.31 0.48 0.89 1.02 1.01 0.93 0.83 0.75
0.13 0.16 0.23 0.33 0.43 0.53 0.55 0.58 0.65 0.65 0.64 0.64 0.61 0.60 0.59 0.55 0.52 0.47 0.44 0.46 0.50 0.52 0.51 0.48 0.42 0.36 0.30 0.23 0.24 0.24 0.13 0.08 0.08 0.11 0.14 0.21 0.51 0.94 1.08 1.02 1.00 0.95 0.90
0.15 0.20 0.25 0.34 0.44 0.55 0.58 0.59 0.62 0.63 0.62 0.64 0.67 0.66 0.66 0.64 0.63 0.61 0.56 0.55 0.50 0.47 0.47 0.47 0.46 0.39 0.36 0.32 0.31 0.28 0.18 0.14 0.10 0.07 0.08 0.15 0.30 0.57 0.85 0.98 1.03 1.04 1.03
0.20 0.24 0.30 0.38 0.47 0.54 0.61 0.65 0.63 0.62 0.61 0.60 0.64 0.66 0.66 0.66 0.64 0.64 0.61 0.55 0.52 0.50 0.49 0.47 0.43 0.38 0.35 0.31 0.29 0.25 0.22 0.19 0.15 0.13 0.09 0.11 0.18 0.27 0.46 0.70 0.85 0.96 1.04
0.22 0.27 0.33 0.43 0.49 0.55 0.63 0.69 0.71 0.66 0.61 0.57 0.58 0.61 0.63 0.63 0.62 0.59 0.54 0.50 0.47 0.47 0.45 0.40 0.35 0.30 0.28 0.28 0.26 0.23 0.23 0.22 0.22 0.19 0.16 0.15 0.15 0.18 0.27 0.44 0.64 0.82 0.97
0.20 0.26 0.33 0.43 0.52 0.59 0.62 0.65 0.69 0.71 0.67 0.63 0.58 0.54 0.56 0.58 0.59 0.60 0.58 0.55 0.50 0.45 0.43 0.41 0.37 0.32 0.27 0.25 0.22 0.21 0.20 0.20 0.21 0.22 0.20 0.21 0.19 0.19 0.24 0.34 0.47 0.71 0.91
0.21 0.28 0.38 0.46 0.58 0.67 0.68 0.68 0.69 0.72 0.75 0.70 0.66 0.62 0.57 0.54 0.55 0.59 0.62 0.58 0.53 0.48 0.44 0.42 0.41 0.38 0.33 0.27 0.22 0.20 0.18 0.17 0.17 0.17 0.19 0.23 0.24 0.23 0.24 0.30 0.36 0.52 0.77
0.25 0.31 0.41 0.50 0.60 0.70 0.75 0.77 0.74 0.74 0.77 0.78 0.73 0.71 0.66 0.59 0.57 0.60 0.63 0.62 0.56 0.52 0.49 0.46 0.43 0.40 0.36 0.30 0.25 0.22 0.19 0.17 0.15 0.14 0.14 0.17 0.24 0.27 0.26 0.27 0.31 0.39 0.60
0.23 0.30 0.42 0.53 0.56 0.63 0.76 0.83 0.82 0.81 0.82 0.83 0.81 0.75 0.70 0.64 0.59 0.60 0.62 0.61 0.63 0.63 0.58 0.54 0.48 0.43 0.38 0.34 0.30 0.26 0.21 0.18 0.17 0.16 0.14 0.13 0.16 0.23 0.28 0.29 0.31 0.31 0.42
0.23 0.30 0.39 0.54 0.58 0.63 0.75 0.92 0.94 0.91 0.91 0.89 0.83 0.76 0.73 0.69 0.63 0.58 0.58 0.59 0.60 0.61 0.59 0.55 0.50 0.43 0.39 0.36 0.35 0.32 0.26 0.21 0.19 0.17 0.15 0.14 0.14 0.16 0.24 0.30 0.32 0.28 0.28
0.24 0.29 0.38 0.54 0.60 0.68 0.76 0.86 0.92 0.85 0.87 0.87 0.82 0.79 0.75 0.75 0.73 0.66 0.61 0.59 0.58 0.56 0.52 0.49 0.50 0.49 0.45 0.43 0.46 0.43 0.37 0.30 0.25 0.21 0.18 0.15 0.13 0.13 0.17 0.27 0.34 0.32 0.27
0.23 0.25 0.31 0.47 0.58 0.64 0.69 0.72 0.75 0.78 0.80 0.84 0.80 0.82 0.82 0.79 0.82 0.77 0.66 0.64 0.62 0.58 0.54 0.50 0.49 0.51 0.50 0.49 0.51 0.53 0.47 0.42 0.34 0.25 0.22 0.19 0.15 0.14 0.16 0.21 0.30 0.35 0.34
0.21 0.22 0.27 0.39 0.53 0.61 0.67 0.81 0.86 0.93 1.00 1.00 0.92 0.84 0.81 0.83 0.82 0.85 0.77 0.66 0.65 0.63 0.59 0.54 0.49 0.49 0.51 0.48 0.48 0.64 0.67 0.47 0.30 0.23 0.21 0.20 0.19 0.17 0.16 0.19 0.26 0.32 0.37
0.17 0.20 0.25 0.39 0.52 0.60 0.68 0.80 0.85 0.85 0.90 0.90 0.84 0.80 0.76 0.77 0.81 0.80 0.82 0.78 0.70 0.66 0.61 0.57 0.53 0.51 0.54 0.56 0.52 0.52 0.56 0.54 0.53 0.36 0.21 0.20 0.21 0.21 0.19 0.18 0.22 0.27 0.33
0.17 0.22 0.26 0.36 0.53 0.64 0.71 0.74 0.79 0.78 0.74 0.79 0.89 0.89 0.84 0.81 0.81 0.81 0.78 0.81 0.78 0.71 0.64 0.61 0.61 0.60 0.61 0.62 0.58 0.52 0.48 0.43 0.44 0.52 0.35 0.23 0.24 0.24 0.23 0.23 0.23 0.26 0.30
0.19 0.26 0.32 0.36 0.47 0.64 0.76 0.78 0.76 0.76 0.74 0.80 0.88 0.94 0.95 0.91 0.84 0.79 0.78 0.77 0.77 0.73 0.65 0.61 0.61 0.64 0.66 0.63 0.59 0.56 0.57 0.55 0.46 0.50 0.45 0.30 0.28 0.26 0.27 0.29 0.28 0.28 0.30

GEFSSE_prec_meanprecacc_198.txt.gz
Total_Precipitation_Accumulation
0.03 0.07 0.29 0.40 0.37 0.33 0.33 0.36 0.35 0.31 0.31 0.34 0.37 0.39 0.40 0.41 0.42 0.39 0.37 0.38 0.38 0.37 0.39 0.46 0.49 0.48 0.44 0.38 0.32 0.30 0.26 0.26 0.25 0.28 0.30 0.33 0.33 0.31 0.30 0.28 0.26 0.29 0.40
0.05 0.09 0.25 0.32 0.32 0.31 0.35 0.35 0.33 0.28 0.27 0.31 0.35 0.39 0.40 0.41 0.41 0.40 0.40 0.40 0.41 0.41 0.41 0.44 0.45 0.45 0.43 0.38 0.34 0.30 0.27 0.25 0.20 0.19 0.20 0.20 0.29 0.36 0.34 0.33 0.33 0.40 0.42
0.04 0.07 0.19 0.27 0.28 0.31 0.35 0.34 0.31 0.28 0.27 0.28 0.32 0.39 0.41 0.40 0.40 0.41 0.41 0.40 0.42 0.43 0.45 0.46 0.46 0.46 0.40 0.37 0.35 0.30 0.29 0.24 0.16 0.12 0.12 0.16 0.29 0.40 0.37 0.35 0.36 0.43 0.43
0.02 0.05 0.12 0.21 0.26 0.32 0.35 0.36 0.33 0.30 0.30 0.30 0.32 0.37 0.41 0.40 0.38 0.38 0.40 0.41 0.47 0.49 0.51 0.50 0.47 0.47 0.40 0.35 0.33 0.31 0.30 0.24 0.16 0.10 0.05 0.12 0.31 0.47 0.46 0.44 0.43 0.45 0.46
0.01 0.04 0.10 0.20 0.27 0.33 0.37 0.38 0.37 0.35 0.36 0.37 0.37 0.38 0.41 0.43 0.40 0.38 0.36 0.40 0.49 0.51 0.53 0.54 0.52 0.50 0.44 0.38 0.35 0.35 0.36 0.31 0.18 0.08 0.03 0.07 0.26 0.54 0.53 0.48 0.45 0.44 0.43
0.01 0.03 0.10 0.21 0.30 0.36 0.39 0.42 0.39 0.39 0.41 0.41 0.41 0.43 0.45 0.46 0.44 0.43 0.41 0.40 0.41 0.45 0.51 0.54 0.54 0.55 0.51 0.43 0.41 0.44 0.46 0.40 0.18 0.05 0.04 0.07 0.23 0.55 0.55 0.48 0.43 0.41 0.40
0.02 0.05 0.12 0.24 0.34 0.38 0.41 0.45 0.44 0.44 0.47 0.46 0.45 0.48 0.50 0.51 0.52 0.50 0.47 0.42 0.38 0.38 0.42 0.47 0.49 0.50 0.52 0.47 0.46 0.49 0.55 0.42 0.17 0.10 0.08 0.09 0.23 0.63 0.76 0.62 0.48 0.41 0.40
0.03 0.07 0.14 0.28 0.37 0.42 0.46 0.51 0.49 0.50 0.56 0.56 0.56 0.54 0.53 0.53 0.54 0.53 0.50 0.46 0.42 0.40 0.42 0.45 0.47 0.50 0.53 0.52 0.49 0.51 0.54 0.36 0.17 0.15 0.14 0.15 0.33 0.76 0.90 0.88 0.69 0.50 0.43
0.05 0.08 0.15 0.26 0.37 0.47 0.52 0.55 0.56 0.54 0.58 0.60 0.60 0.60 0.58 0.58 0.60 0.61 0.58 0.53 0.48 0.46 0.46 0.44 0.42 0.42 0.44 0.50 0.50 0.46 0.41 0.31 0.17 0.21 0.20 0.27 0.36 0.77 0.92 1.01 0.89 0.68 0.53
0.08 0.12 0.19 0.29 0.37 0.45 0.52 0.58 0.59 0.57 0.62 0.64 0.64 0.63 0.62 0.64 0.66 0.67 0.62 0.55 0.51 0.49 0.45 0.42 0.40 0.36 0.34 0.35 0.36 0.34 0.28 0.23 0.17 0.22 0.34 0.33 0.38 0.81 0.99 1.04 0.95 0.84 0.70
0.13 0.15 0.22 0.35 0.45 0.49 0.52 0.54 0.62 0.66 0.70 0.70 0.70 0.64 0.62 0.59 0.56 0.54 0.52 0.54 0.54 0.52 0.47 0.42 0.40 0.37 0.33 0.27 0.25 0.24 0.20 0.14 0.16 0.26 0.30 0.32 0.50 0.91 1.06 1.07 1.00 0.90 0.83
0.13 0.16 0.23 0.34 0.44 0.54 0.56 0.59 0.68 0.69 0.69 0.69 0.65 0.65 0.61 0.56 0.53 0.49 0.46 0.48 0.52 0.54 0.53 0.50 0.45 0.39 0.33 0.25 0.27 0.28 0.16 0.10 0.10 0.13 0.15 0.23 0.53 0.97 1.12 1.07 1.07 1.03 0.98
0.15 0.20 0.25 0.34 0.44 0.55 0.59 0.61 0.64 0.66 0.67 0.70 0.72 0.69 0.68 0.65 0.63 0.61 0.57 0.57 0.52 0.49 0.49 0.49 0.48 0.42 0.37 0.33 0.32 0.30 0.21 0.17 0.12 0.10 0.10 0.17 0.32 0.59 0.88 1.03 1.09 1.11 1.11
0.20 0.24 0.30 0.38 0.47 0.54 0.62 0.66 0.65 0.65 0.64 0.65 0.70 0.72 0.70 0.68 0.65 0.64 0.62 0.57 0.53 0.51 0.51 0.48 0.45 0.40 0.37 0.32 0.30 0.26 0.23 0.21 0.17 0.15 0.11 0.13 0.20 0.29 0.50 0.75 0.93 1.05 1.14
0.22 0.27 0.33 0.43 0.49 0.55 0.63 0.70 0.73 0.68 0.63 0.60 0.63 0.67 0.67 0.65 0.63 0.60 0.55 0.51 0.49 0.48 0.46 0.41 0.37 0.32 0.29 0.29 0.28 0.25 0.24 0.24 0.23 0.21 0.18 0.17 0.17 0.20 0.30 0.49 0.72 0.93 1.09
0.21 0.26 0.33 0.43 0.52 0.59 0.62 0.65 0.69 0.73 0.69 0.66 0.62 0.58 0.60 0.61 0.61 0.61 0.58 0.56 0.52 0.47 0.45 0.43 0.38 0.33 0.28 0.26 0.24 0.23 0.23 0.22 0.23 0.24 0.22 0.23 0.21 0.21 0.27 0.37 0.54 0.82 1.04
0.21 0.28 0.38 0.46 0.58 0.67 0.68 0.68 0.69 0.73 0.76 0.73 0.69 0.65 0.61 0.58 0.57 0.61 0.63 0.59 0.54 0.50 0.47 0.45 0.43 0.40 0.35 0.29 0.24 0.21 0.19 0.19 0.18 0.19 0.21 0.25 0.26 0.25 0.26 0.33 0.41 0.61 0.89
0.25 0.31 0.42 0.50 0.60 0.70 0.75 0.77 0.74 0.74 0.77 0.80 0.76 0.74 0.70 0.65 0.62 0.63 0.64 0.63 0.57 0.54 0.52 0.49 0.46 0.43 0.39 0.33 0.27 0.24 0.20 0.18 0.16 0.15 0.15 0.18 0.26 0.29 0.28 0.29 0.34 0.45 0.71
0.23 0.30 0.42 0.53 0.56 0.63 0.76 0.83 0.82 0.81 0.83 0.84 0.82 0.79 0.75 0.70 0.66 0.66 0.64 0.63 0.64 0.64 0.60 0.57 0.53 0.47 0.41 0.36 0.32 0.28 0.23 0.20 0.18 0.17 0.15 0.14 0.17 0.24 0.30 0.31 0.33 0.35 0.49
0.23 0.30 0.39 0.54 0.58 0.63 0.75 0.92 0.94 0.91 0.91 0.90 0.84 0.78 0.77 0.75 0.70 0.66 0.65 0.62 0.61 0.62 0.61 0.58 0.55 0.49 0.43 0.39 0.37 0.33 0.27 0.22 0.20 0.18 0.16 0.15 0.15 0.17 0.26 0.32 0.34 0.30 0.32
0.24 0.29 0.38 0.54 0.60 0.68 0.76 0.86 0.92 0.85 0.87 0.88 0.83 0.79 0.76 0.78 0.79 0.74 0.69 0.64 0.61 0.57 0.54 0.51 0.53 0.54 0.51 0.47 0.48 0.45 0.39 0.32 0.26 0.22 0.18 0.16 0.14 0.14 0.18 0.29 0.37 0.35 0.30
0.23 0.25 0.31 0.47 0.58 0.64 0.69 0.72 0.76 0.78 0.81 0.84 0.80 0.82 0.82 0.80 0.84 0.81 0.72 0.70 0.66 0.60 0.56 0.52 0.51 0.54 0.55 0.54 0.55 0.56 0.49 0.44 0.36 0.27 0.23 0.20 0.16 0.15 0.18 0.24 0.33 0.39 0.39
0.21 0.22 0.27 0.39 0.53 0.61 0.67 0.81 0.86 0.93 1.00 1.00 0.92 0.84 0.82 0.83 0.84 0.87 0.81 0.73 0.71 0.68 0.62 0.56 0.51 0.51 0.54 0.51 0.51 0.67 0.70 0.50 0.32 0.24 0.22 0.21 0.20 0.18 0.18 0.21 0.29 0.36 0.43
0.17 0.20 0.25 0.39 0.52 0.60 0.68 0.80 0.85 0.85 0.90 0.90 0.84 0.80 0.76 0.78 0.82 0.81 0.84 0.81 0.76 0.72 0.66 0.60 0.56 0.53 0.56 0.58 0.54 0.54 0.59 0.57 0.56 0.37 0.22 0.20 0.22 0.22 0.21 0.21 0.25 0.31 0.38
0.17 0.22 0.26 0.36 0.53 0.64 0.71 0.74 0.79 0.78 0.74 0.79 0.89 0.89 0.85 0.81 0.81 0.82 0.80 0.83 0.81 0.75 0.70 0.67 0.65 0.63 0.63 0.63 0.60 0.54 0.50 0.46 0.47 0.56 0.37 0.24 0.25 0.25 0.25 0.26 0.27 0.30 0.35
0.19 0.26 0.32 0.36 0.47 0.64 0.76 0.78 0.76 0.76 0.74 0.80 0.89 0.94 0.95 0.91 0.85 0.80 0.79 0.79 0.79 0.76 0.68 0.65 0.66 0.68 0.69 0.65 0.61 0.57 0.58 0.57 0.49 0.53 0.48 0.33 0.30 0.27 0.29 0.32 0.34 0.34 0.35

GEFSSE_prec_meanprecacc_204.txt.gz
Total_Precipitation_Accumulation
0.03 0.08 0.31 0.42 0.39 0.35 0.36 0.38 0.38 0.34 0.34 0.37 0.39 0.42 0.43 0.43 0.44 0.41 0.39 0.40 0.40 0.39 0.41 0.47 0.51 0.52 0.48 0.41 0.35 0.32 0.28 0.27 0.27 0.29 0.32 0.35 0.35 0.33 0.32 0.29 0.27 0.30 0.42
0.05 0.09 0.27 0.34 0.34 0.34 0.37 0.38 0.36 0.31 0.30 0.33 0.37 0.41 0.42 0.42 0.43 0.43 0.42 0.43 0.45 0.45 0.44 0.46 0.47 0.48 0.48 0.40 0.36 0.32 0.29 0.26 0.21 0.20 0.20 0.21 0.30 0.38 0.37 0.35 0.34 0.42 0.43
0.04 0.07 0.19 0.28 0.29 0.32 0.37 0.35 0.33 0.30 0.28 0.30 0.34 0.41 0.43 0.42 0.42 0.43 0.43 0.44 0.47 0.52 0.53 0.49 0.48 0.49 0.43 0.39 0.37 0.32 0.31 0.25 0.17 0.13 0.12 0.16 0.30 0.42 0.39 0.37 0.38 0.44 0.45
0.02 0.05 0.12 0.22 0.27 0.33 0.36 0.37 0.34 0.31 0.31 0.32 0.35 0.40 0.44 0.42 0.39 0.40 0.42 0.44 0.51 0.54 0.57 0.54 0.51 0.51 0.43 0.37 0.35 0.33 0.32 0.26 0.17 0.11 0.05 0.12 0.32 0.49 0.48 0.47 0.45 0.47 0.47
0.01 0.04 0.11 0.21 0.28 0.35 0.39 0.39 0.38 0.36 0.36 0.38 0.38 0.41 0.44 0.46 0.41 0.40 0.38 0.42 0.52 0.54 0.56 0.58 0.55 0.53 0.46 0.40 0.36 0.36 0.38 0.33 0.19 0.09 0.04 0.07 0.27 0.57 0.56 0.52 0.49 0.47 0.45
0.02 0.03 0.11 0.22 0.33 0.38 0.42 0.45 0.41 0.41 0.42 0.42 0.42 0.45 0.47 0.49 0.46 0.44 0.42 0.41 0.42 0.47 0.53 0.57 0.56 0.58 0.54 0.45 0.43 0.45 0.47 0.42 0.19 0.06 0.05 0.07 0.24 0.57 0.59 0.53 0.49 0.45 0.43
0.02 0.05 0.13 0.26 0.37 0.42 0.45 0.49 0.47 0.47 0.49 0.47 0.47 0.49 0.52 0.53 0.54 0.51 0.48 0.43 0.38 0.39 0.43 0.49 0.50 0.53 0.54 0.49 0.49 0.52 0.57 0.43 0.18 0.11 0.08 0.09 0.24 0.65 0.79 0.65 0.53 0.46 0.44
0.03 0.07 0.15 0.29 0.39 0.45 0.50 0.55 0.54 0.54 0.59 0.59 0.58 0.55 0.55 0.55 0.57 0.56 0.52 0.47 0.42 0.41 0.43 0.46 0.48 0.51 0.55 0.54 0.52 0.55 0.57 0.37 0.17 0.15 0.15 0.16 0.34 0.77 0.93 0.91 0.73 0.54 0.48
0.05 0.09 0.16 0.28 0.39 0.48 0.54 0.58 0.60 0.58 0.62 0.64 0.63 0.62 0.59 0.59 0.62 0.63 0.59 0.54 0.49 0.48 0.47 0.45 0.43 0.43 0.46 0.51 0.52 0.49 0.44 0.33 0.18 0.22 0.20 0.27 0.37 0.78 0.95 1.04 0.93 0.72 0.57
0.09 0.13 0.20 0.30 0.39 0.46 0.54 0.61 0.61 0.60 0.66 0.69 0.69 0.66 0.64 0.65 0.67 0.69 0.63 0.57 0.52 0.50 0.47 0.43 0.41 0.38 0.36 0.36 0.37 0.35 0.29 0.25 0.17 0.23 0.34 0.34 0.39 0.83 1.02 1.08 0.99 0.89 0.76
0.13 0.15 0.23 0.36 0.45 0.50 0.53 0.54 0.63 0.68 0.73 0.74 0.75 0.69 0.66 0.61 0.57 0.55 0.53 0.56 0.56 0.54 0.48 0.44 0.42 0.39 0.34 0.29 0.26 0.25 0.21 0.15 0.17 0.27 0.31 0.33 0.51 0.93 1.10 1.11 1.05 0.96 0.91
0.13 0.17 0.24 0.35 0.44 0.54 0.56 0.60 0.69 0.70 0.71 0.72 0.69 0.70 0.66 0.59 0.54 0.50 0.47 0.48 0.53 0.55 0.54 0.52 0.47 0.41 0.35 0.27 0.28 0.29 0.17 0.11 0.12 0.14 0.16 0.24 0.54 0.99 1.15 1.10 1.11 1.09 1.05
0.16 0.20 0.26 0.34 0.44 0.55 0.59 0.61 0.65 0.67 0.69 0.72 0.74 0.73 0.72 0.70 0.67 0.64 0.59 0.57 0.52 0.49 0.50 0.51 0.50 0.44 0.39 0.35 0.34 0.31 0.22 0.18 0.13 0.11 0.11 0.18 0.34 0.61 0.91 1.06 1.13 1.15 1.17
0.20 0.25 0.30 0.38 0.47 0.54 0.62 0.66 0.65 0.65 0.65 0.66 0.72 0.75 0.74 0.72 0.68 0.67 0.63 0.58 0.54 0.52 0.51 0.49 0.47 0.42 0.39 0.34 0.32 0.27 0.24 0.22 0.18 0.16 0.12 0.14 0.21 0.31 0.53 0.79 0.97 1.10 1.21
0.22 0.27 0.33 0.43 0.49 0.55 0.63 0.70 0.73 0.69 0.64 0.61 0.65 0.69 0.70 0.68 0.66 0.62 0.57 0.53 0.50 0.49 0.47 0.42 0.38 0.33 0.30 0.31 0.30 0.27 0.25 0.24 0.24 0.22 0.18 0.18 0.18 0.21 0.32 0.52 0.76 0.98 1.17
0.21 0.26 0.34 0.43 0.52 0.59 0.62 0.65 0.69 0.73 0.69 0.66 0.63 0.60 0.63 0.64 0.64 0.65 0.61 0.58 0.53 0.48 0.46 0.44 0.39 0.34 0.30 0.28 0.26 0.25 0.24 0.23 0.24 0.24 0.23 0.23 0.22 0.22 0.28 0.40 0.57 0.86 1.10
0.21 0.28 0.38 0.46 0.58 0.67 0.68 0.68 0.69 0.73 0.76 0.73 0.69 0.66 0.63 0.60 0.60 0.66 0.67 0.61 0.56 0.51 0.48 0.46 0.44 0.41 0.36 0.30 0.26 0.23 0.21 0.20 0.19 0.20 0.22 0.26 0.27 0.26 0.27 0.34 0.43 0.64 0.93
0.25 0.31 0.42 0.50 0.60 0.70 0.75 0.77 0.74 0.74 0.77 0.80 0.76 0.75 0.71 0.66 0.65 0.68 0.71 0.66 0.59 0.55 0.53 0.50 0.47 0.45 0.40 0.35 0.30 0.26 0.23 0.20 0.17 0.16 0.16 0.19 0.27 0.29 0.29 0.30 0.35 0.47 0.74
0.23 0.30 0.42 0.53 0.56 0.63 0.76 0.83 0.82 0.81 0.83 0.84 0.82 0.79 0.75 0.71 0.68 0.71 0.73 0.71 0.68 0.66 0.61 0.58 0.53 0.47 0.42 0.39 0.35 0.30 0.26 0.22 0.19 0.18 0.16 0.15 0.18 0.25 0.31 0.32 0.34 0.36 0.51
0.23 0.30 0.39 0.54 0.58 0.63 0.75 0.92 0.94 0.91 0.91 0.90 0.84 0.78 0.77 0.76 0.71 0.69 0.71 0.72 0.71 0.68 0.63 0.59 0.56 0.49 0.44 0.41 0.39 0.36 0.30 0.25 0.22 0.19 0.17 0.16 0.15 0.18 0.26 0.33 0.35 0.32 0.34
0.24 0.29 0.38 0.54 0.60 0.68 0.76 0.86 0.92 0.86 0.87 0.88 0.83 0.80 0.76 0.78 0.79 0.75 0.72 0.71 0.71 0.66 0.59 0.54 0.54 0.55 0.52 0.50 0.52 0.49 0.42 0.34 0.29 0.23 0.19 0.17 0.15 0.15 0.19 0.29 0.37 0.36 0.32
0.23 0.25 0.31 0.47 0.58 0.64 0.69 0.72 0.76 0.78 0.81 0.84 0.80 0.82 0.82 0.80 0.85 0.82 0.74 0.73 0.72 0.68 0.61 0.56 0.53 0.55 0.56 0.56 0.58 0.60 0.53 0.47 0.39 0.30 0.25 0.21 0.17 0.16 0.19 0.24 0.34 0.40 0.39
0.21 0.22 0.27 0.39 0.53 0.61 0.67 0.81 0.86 0.93 1.01 1.00 0.92 0.84 0.82 0.84 0.84 0.88 0.82 0.74 0.73 0.73 0.68 0.59 0.54 0.53 0.55 0.52 0.52 0.70 0.73 0.53 0.35 0.27 0.25 0.23 0.21 0.19 0.19 0.22 0.29 0.37 0.43
0.17 0.20 0.25 0.39 0.52 0.60 0.68 0.80 0.85 0.85 0.90 0.91 0.84 0.80 0.76 0.78 0.82 0.82 0.84 0.82 0.77 0.74 0.69 0.65 0.59 0.56 0.58 0.59 0.55 0.55 0.61 0.60 0.58 0.40 0.25 0.23 0.23 0.24 0.22 0.21 0.25 0.31 0.39
0.17 0.22 0.26 0.36 0.53 0.64 0.71 0.74 0.79 0.78 0.74 0.79 0.89 0.89 0.85 0.82 0.82 0.82 0.80 0.84 0.82 0.77 0.71 0.69 0.68 0.66 0.66 0.66 0.61 0.55 0.51 0.48 0.50 0.58 0.40 0.27 0.28 0.27 0.27 0.27 0.28 0.31 0.36
0.19 0.26 0.32 0.36 0.47 0.64 0.76 0.78 0.76 0.76 0.75 0.80 0.89 0.94 0.95 0.91 0.85 0.80 0.80 0.79 0.80 0.77 0.70 0.67 0.68 0.70 0.71 0.67 0.62 0.58 0.60 0.58 0.50 0.55 0.50 0.35 0.33 0.30 0.30 0.33 0.35 0.35 0.37

GEFSSE_prec_meanprecacc_210.txt.gz
Total_Precipitation_Accumulation
0.05 0.09 0.31 0.42 0.41 0.37 0.39 0.41 0.41 0.36 0.36 0.40 0.41 0.43 0.45 0.45 0.46 0.44 0.41 0.42 0.44 0.42 0.44 0.50 0.53 0.53 0.50 0.43 0.36 0.33 0.30 0.29 0.28 0.30 0.32 0.36 0.36 0.35 0.34 0.31 0.28 0.33 0.44
0.06 0.10 0.27 0.35 0.35 0.36 0.39 0.40 0.39 0.34 0.32 0.37 0.40 0.44 0.44 0.44 0.46 0.45 0.45 0.46 0.48 0.48 0.49 0.50 0.50 0.51 0.50 0.42 0.37 0.33 0.31 0.27 0.22 0.20 0.21 0.22 0.31 0.41 0.39 0.36 0.36 0.44 0.45
0.05 0.08 0.20 0.28 0.30 0.33 0.39 0.37 0.35 0.32 0.30 0.32 0.38 0.45 0.45 0.44 0.44 0.46 0.46 0.46 0.50 0.54 0.56 0.51 0.51 0.52 0.45 0.41 0.39 0.34 0.32 0.26 0.18 0.14 0.13 0.17 0.32 0.45 0.41 0.39 0.39 0.45 0.46
0.02 0.05 0.13 0.22 0.28 0.34 0.38 0.38 0.36 0.33 0.33 0.34 0.37 0.43 0.47 0.45 0.41 0.42 0.44 0.47 0.54 0.56 0.59 0.56 0.53 0.54 0.45 0.39 0.37 0.34 0.34 0.27 0.18 0.12 0.07 0.14 0.35 0.51 0.50 0.49 0.47 0.49 0.49
0.02 0.04 0.11 0.21 0.28 0.35 0.40 0.41 0.40 0.38 0.38 0.40 0.41 0.44 0.47 0.49 0.44 0.42 0.40 0.44 0.54 0.56 0.57 0.59 0.56 0.54 0.49 0.42 0.38 0.38 0.39 0.34 0.21 0.10 0.05 0.09 0.30 0.60 0.59 0.55 0.51 0.49 0.48
0.02 0.04 0.11 0.23 0.33 0.39 0.43 0.46 0.43 0.43 0.44 0.44 0.44 0.47 0.50 0.51 0.49 0.48 0.45 0.44 0.44 0.48 0.54 0.58 0.57 0.59 0.55 0.46 0.44 0.46 0.49 0.42 0.20 0.07 0.06 0.09 0.27 0.60 0.63 0.57 0.51 0.47 0.46
0.03 0.06 0.14 0.26 0.37 0.43 0.46 0.51 0.49 0.49 0.52 0.50 0.49 0.52 0.54 0.56 0.58 0.55 0.51 0.45 0.40 0.40 0.44 0.50 0.51 0.54 0.55 0.51 0.50 0.53 0.58 0.44 0.19 0.13 0.11 0.12 0.27 0.69 0.84 0.69 0.56 0.49 0.47
0.03 0.08 0.16 0.30 0.40 0.45 0.51 0.57 0.55 0.56 0.61 0.61 0.60 0.58 0.58 0.58 0.59 0.58 0.54 0.49 0.44 0.43 0.45 0.47 0.49 0.52 0.56 0.55 0.53 0.57 0.58 0.38 0.18 0.17 0.17 0.19 0.37 0.81 0.97 0.95 0.76 0.58 0.51
0.05 0.09 0.16 0.28 0.39 0.48 0.55 0.60 0.61 0.60 0.64 0.65 0.65 0.64 0.62 0.62 0.65 0.65 0.61 0.55 0.50 0.49 0.49 0.46 0.44 0.44 0.47 0.52 0.53 0.50 0.45 0.34 0.19 0.23 0.22 0.29 0.39 0.80 0.98 1.08 0.97 0.76 0.61
0.09 0.13 0.20 0.31 0.40 0.47 0.54 0.61 0.62 0.61 0.67 0.69 0.70 0.67 0.66 0.68 0.71 0.72 0.65 0.58 0.53 0.51 0.47 0.44 0.42 0.38 0.36 0.37 0.37 0.36 0.30 0.26 0.18 0.24 0.37 0.36 0.40 0.84 1.04 1.11 1.02 0.92 0.80
0.13 0.16 0.24 0.37 0.46 0.51 0.54 0.55 0.63 0.69 0.74 0.75 0.75 0.70 0.67 0.64 0.61 0.58 0.55 0.57 0.56 0.54 0.49 0.45 0.43 0.39 0.35 0.29 0.27 0.25 0.21 0.16 0.18 0.29 0.34 0.35 0.52 0.95 1.12 1.13 1.07 0.99 0.94
0.14 0.17 0.25 0.36 0.45 0.54 0.56 0.60 0.69 0.71 0.71 0.73 0.70 0.71 0.67 0.61 0.56 0.52 0.50 0.50 0.53 0.56 0.55 0.53 0.47 0.41 0.35 0.27 0.29 0.30 0.18 0.13 0.14 0.15 0.18 0.26 0.56 1.00 1.16 1.12 1.13 1.10 1.08
0.16 0.21 0.26 0.35 0.45 0.56 0.60 0.61 0.65 0.68 0.69 0.72 0.75 0.74 0.75 0.72 0.69 0.67 0.63 0.61 0.54 0.50 0.51 0.51 0.51 0.44 0.40 0.35 0.35 0.31 0.22 0.18 0.15 0.12 0.12 0.19 0.34 0.62 0.93 1.08 1.15 1.17 1.19
0.20 0.26 0.30 0.39 0.48 0.55 0.62 0.67 0.65 0.66 0.65 0.66 0.72 0.76 0.76 0.74 0.71 0.70 0.67 0.61 0.56 0.53 0.52 0.50 0.48 0.42 0.39 0.34 0.33 0.28 0.25 0.23 0.19 0.17 0.13 0.15 0.22 0.31 0.54 0.80 0.99 1.12 1.23
0.23 0.28 0.33 0.43 0.49 0.55 0.63 0.70 0.73 0.69 0.64 0.62 0.65 0.70 0.71 0.70 0.68 0.65 0.61 0.56 0.53 0.51 0.48 0.43 0.38 0.33 0.31 0.31 0.30 0.27 0.26 0.25 0.25 0.23 0.19 0.19 0.18 0.22 0.33 0.53 0.78 1.01 1.19
0.21 0.26 0.34 0.43 0.52 0.59 0.62 0.65 0.69 0.73 0.70 0.66 0.64 0.60 0.63 0.65 0.65 0.66 0.64 0.62 0.56 0.50 0.48 0.45 0.40 0.35 0.30 0.28 0.26 0.25 0.25 0.24 0.25 0.26 0.24 0.25 0.23 0.23 0.28 0.40 0.58 0.88 1.13
0.21 0.28 0.38 0.46 0.58 0.67 0.68 0.68 0.69 0.73 0.76 0.73 0.69 0.67 0.63 0.60 0.61 0.67 0.69 0.66 0.61 0.55 0.51 0.48 0.46 0.44 0.38 0.32 0.27 0.24 0.22 0.21 0.21 0.22 0.24 0.27 0.28 0.27 0.28 0.34 0.43 0.65 0.95
0.25 0.31 0.42 0.50 0.60 0.70 0.75 0.77 0.74 0.74 0.77 0.80 0.76 0.75 0.71 0.66 0.66 0.69 0.72 0.70 0.65 0.61 0.58 0.53 0.49 0.47 0.43 0.37 0.31 0.27 0.24 0.21 0.19 0.17 0.17 0.21 0.28 0.31 0.30 0.31 0.36 0.48 0.75
0.23 0.30 0.42 0.53 0.56 0.63 0.76 0.83 0.82 0.81 0.83 0.84 0.83 0.79 0.76 0.71 0.69 0.72 0.75 0.75 0.74 0.72 0.66 0.62 0.56 0.49 0.44 0.40 0.36 0.32 0.27 0.23 0.21 0.20 0.18 0.16 0.19 0.27 0.32 0.33 0.34 0.37 0.51
0.23 0.30 0.39 0.54 0.58 0.63 0.75 0.92 0.94 0.91 0.91 0.90 0.84 0.78 0.77 0.76 0.71 0.69 0.72 0.74 0.77 0.76 0.70 0.65 0.59 0.51 0.45 0.42 0.40 0.37 0.30 0.26 0.23 0.21 0.19 0.18 0.17 0.19 0.28 0.34 0.36 0.32 0.35
0.24 0.29 0.38 0.54 0.60 0.68 0.76 0.86 0.92 0.86 0.87 0.88 0.83 0.80 0.76 0.78 0.79 0.76 0.73 0.72 0.75 0.76 0.68 0.61 0.59 0.57 0.53 0.51 0.53 0.49 0.42 0.34 0.29 0.25 0.22 0.20 0.17 0.17 0.21 0.31 0.39 0.36 0.32
0.23 0.25 0.31 0.47 0.58 0.64 0.69 0.72 0.76 0.78 0.81 0.84 0.80 0.83 0.83 0.80 0.85 0.82 0.74 0.74 0.74 0.73 0.71 0.63 0.59 0.59 0.58 0.57 0.59 0.61 0.54 0.48 0.40 0.31 0.28 0.25 0.21 0.20 0.22 0.26 0.36 0.41 0.40
0.21 0.22 0.27 0.39 0.53 0.61 0.67 0.81 0.86 0.93 1.01 1.00 0.92 0.84 0.82 0.84 0.84 0.88 0.82 0.75 0.75 0.76 0.73 0.66 0.59 0.58 0.58 0.54 0.53 0.71 0.74 0.53 0.35 0.28 0.26 0.26 0.25 0.24 0.24 0.26 0.32 0.39 0.44
0.17 0.20 0.25 0.39 0.52 0.60 0.68 0.80 0.85 0.85 0.90 0.91 0.84 0.80 0.76 0.78 0.82 0.82 0.85 0.83 0.78 0.75 0.72 0.68 0.63 0.59 0.61 0.61 0.56 0.56 0.61 0.61 0.59 0.41 0.26 0.24 0.27 0.29 0.28 0.27 0.30 0.35 0.41
0.17 0.22 0.26 0.36 0.53 0.64 0.71 0.74 0.79 0.78 0.74 0.79 0.89 0.89 0.85 0.82 0.82 0.82 0.81 0.84 0.82 0.77 0.72 0.72 0.72 0.70 0.69 0.67 0.62 0.55 0.52 0.48 0.50 0.59 0.40 0.28 0.30 0.30 0.32 0.34 0.34 0.36 0.39
0.19 0.26 0.32 0.36 0.47 0.64 0.76 0.78 0.76 0.76 0.75 0.80 0.89 0.94 0.95 0.91 0.85 0.81 0.80 0.79 0.80 0.78 0.70 0.68 0.70 0.73 0.74 0.70 0.64 0.59 0.60 0.59 0.51 0.56 0.51 0.36 0.34 0.32 0.34 0.38 0.42 0.43 0.42

GEFSSE_prec_meanprecacc_216.txt.gz
Total_Precipitation_Accumulation
0.05 0.10 0.32 0.44 0.41 0.37 0.39 0.41 0.41 0.37 0.36 0.41 0.43 0.45 0.46 0.47 0.48 0.46 0.42 0.43 0.45 0.44 0.47 0.52 0.54 0.55 0.51 0.44 0.37 0.34 0.30 0.29 0.29 0.31 0.34 0.37 0.37 0.36 0.35 0.32 0.29 0.34 0.45
0.07 0.10 0.27 0.35 0.36 0.37 0.40 0.41 0.40 0.34 0.33 0.39 0.42 0.45 0.46 0.46 0.47 0.46 0.46 0.48 0.50 0.50 0.51 0.51 0.51 0.52 0.51 0.43 0.38 0.34 0.31 0.28 0.22 0.20 0.21 0.22 0.32 0.42 0.40 0.37 0.36 0.45 0.46
0.05 0.08 0.20 0.29 0.31 0.34 0.39 0.38 0.35 0.33 0.31 0.33 0.39 0.47 0.47 0.46 0.45 0.47 0.47 0.48 0.52 0.56 0.57 0.53 0.53 0.53 0.46 0.41 0.39 0.35 0.33 0.26 0.18 0.14 0.13 0.17 0.32 0.45 0.42 0.41 0.41 0.47 0.48
0.02 0.06 0.13 0.22 0.28 0.34 0.38 0.39 0.36 0.34 0.34 0.35 0.38 0.44 0.49 0.46 0.42 0.43 0.46 0.49 0.56 0.58 0.60 0.57 0.55 0.55 0.46 0.39 0.37 0.35 0.35 0.28 0.18 0.12 0.07 0.14 0.35 0.53 0.52 0.53 0.50 0.51 0.51
0.02 0.04 0.11 0.21 0.29 0.36 0.40 0.41 0.40 0.38 0.39 0.41 0.42 0.45 0.48 0.51 0.47 0.44 0.42 0.46 0.56 0.58 0.59 0.60 0.57 0.55 0.49 0.43 0.38 0.38 0.40 0.35 0.21 0.10 0.06 0.10 0.30 0.61 0.62 0.59 0.56 0.53 0.50
0.02 0.04 0.12 0.23 0.34 0.39 0.43 0.46 0.43 0.43 0.45 0.45 0.45 0.49 0.52 0.53 0.51 0.51 0.48 0.45 0.45 0.50 0.56 0.59 0.59 0.60 0.56 0.47 0.45 0.47 0.49 0.43 0.20 0.07 0.06 0.09 0.27 0.62 0.67 0.61 0.56 0.51 0.49
0.03 0.06 0.14 0.27 0.38 0.43 0.46 0.51 0.49 0.49 0.52 0.50 0.50 0.53 0.56 0.57 0.59 0.57 0.54 0.48 0.41 0.41 0.45 0.52 0.53 0.55 0.56 0.51 0.51 0.54 0.59 0.45 0.19 0.13 0.11 0.12 0.27 0.71 0.88 0.73 0.60 0.53 0.51
0.04 0.08 0.16 0.30 0.40 0.46 0.51 0.57 0.55 0.56 0.62 0.61 0.61 0.59 0.59 0.59 0.61 0.59 0.55 0.50 0.45 0.44 0.45 0.47 0.49 0.53 0.56 0.55 0.54 0.57 0.59 0.38 0.18 0.17 0.17 0.19 0.38 0.84 1.01 1.00 0.80 0.62 0.55
0.05 0.09 0.16 0.28 0.39 0.48 0.55 0.60 0.61 0.60 0.64 0.65 0.65 0.64 0.63 0.63 0.66 0.67 0.62 0.56 0.51 0.50 0.49 0.46 0.44 0.44 0.47 0.52 0.53 0.50 0.46 0.34 0.19 0.23 0.22 0.30 0.40 0.82 1.01 1.11 1.00 0.80 0.65
0.09 0.13 0.20 0.31 0.40 0.47 0.54 0.61 0.62 0.61 0.67 0.69 0.70 0.67 0.66 0.68 0.71 0.73 0.66 0.58 0.54 0.52 0.48 0.44 0.42 0.39 0.37 0.37 0.37 0.36 0.30 0.26 0.18 0.25 0.37 0.36 0.41 0.86 1.07 1.13 1.05 0.95 0.83
0.14 0.17 0.24 0.37 0.46 0.51 0.54 0.55 0.63 0.69 0.74 0.75 0.75 0.70 0.67 0.64 0.61 0.58 0.56 0.58 0.57 0.55 0.50 0.46 0.44 0.40 0.35 0.30 0.27 0.25 0.21 0.16 0.18 0.30 0.34 0.35 0.53 0.96 1.14 1.15 1.08 1.00 0.96
0.14 0.17 0.25 0.36 0.45 0.55 0.57 0.60 0.70 0.71 0.72 0.73 0.70 0.71 0.67 0.61 0.56 0.52 0.50 0.50 0.54 0.56 0.56 0.54 0.49 0.42 0.35 0.27 0.29 0.30 0.18 0.13 0.14 0.16 0.18 0.26 0.57 1.01 1.17 1.14 1.14 1.12 1.09
0.16 0.21 0.27 0.37 0.47 0.56 0.60 0.62 0.66 0.68 0.69 0.72 0.75 0.74 0.75 0.73 0.70 0.68 0.64 0.62 0.55 0.51 0.52 0.53 0.52 0.45 0.40 0.35 0.35 0.31 0.22 0.18 0.15 0.12 0.12 0.19 0.35 0.63 0.95 1.10 1.17 1.19 1.21
0.21 0.26 0.31 0.40 0.49 0.56 0.63 0.67 0.65 0.66 0.65 0.66 0.73 0.76 0.76 0.74 0.71 0.71 0.67 0.62 0.58 0.55 0.54 0.52 0.49 0.43 0.40 0.35 0.33 0.28 0.25 0.23 0.19 0.17 0.13 0.15 0.23 0.33 0.55 0.82 1.00 1.14 1.24
0.23 0.29 0.34 0.43 0.49 0.55 0.64 0.70 0.73 0.69 0.64 0.62 0.65 0.70 0.71 0.70 0.68 0.65 0.61 0.57 0.54 0.52 0.50 0.45 0.40 0.34 0.32 0.32 0.30 0.27 0.26 0.25 0.25 0.23 0.19 0.19 0.19 0.23 0.34 0.55 0.80 1.02 1.21
0.21 0.27 0.34 0.43 0.53 0.59 0.62 0.65 0.69 0.73 0.70 0.66 0.64 0.60 0.63 0.65 0.66 0.66 0.65 0.63 0.58 0.52 0.50 0.47 0.42 0.36 0.31 0.29 0.27 0.25 0.25 0.24 0.25 0.26 0.24 0.25 0.23 0.23 0.29 0.42 0.60 0.90 1.15
0.22 0.29 0.39 0.47 0.58 0.67 0.68 0.68 0.69 0.73 0.76 0.73 0.69 0.67 0.63 0.60 0.61 0.67 0.69 0.66 0.61 0.56 0.52 0.51 0.50 0.47 0.42 0.35 0.28 0.24 0.22 0.21 0.21 0.22 0.24 0.27 0.28 0.27 0.28 0.36 0.45 0.67 0.97
0.25 0.31 0.42 0.50 0.60 0.70 0.75 0.77 0.74 0.74 0.77 0.80 0.76 0.75 0.71 0.67 0.66 0.69 0.72 0.70 0.65 0.62 0.59 0.55 0.52 0.50 0.46 0.41 0.35 0.29 0.25 0.22 0.19 0.18 0.18 0.21 0.28 0.31 0.30 0.32 0.37 0.50 0.77
0.23 0.30 0.42 0.53 0.56 0.63 0.76 0.83 0.82 0.81 0.83 0.84 0.83 0.79 0.76 0.71 0.69 0.72 0.75 0.75 0.74 0.72 0.67 0.63 0.58 0.51 0.46 0.42 0.39 0.34 0.29 0.25 0.22 0.21 0.18 0.17 0.20 0.27 0.33 0.34 0.36 0.39 0.54
0.23 0.30 0.39 0.54 0.58 0.63 0.75 0.92 0.94 0.91 0.91 0.90 0.84 0.78 0.77 0.76 0.71 0.69 0.72 0.74 0.78 0.76 0.71 0.66 0.62 0.54 0.48 0.44 0.43 0.39 0.32 0.27 0.24 0.22 0.20 0.18 0.18 0.20 0.29 0.36 0.38 0.34 0.37
0.24 0.29 0.38 0.54 0.60 0.68 0.76 0.86 0.92 0.86 0.87 0.88 0.83 0.80 0.76 0.78 0.80 0.76 0.73 0.73 0.75 0.76 0.69 0.62 0.60 0.60 0.57 0.54 0.57 0.52 0.44 0.35 0.30 0.26 0.23 0.20 0.18 0.17 0.21 0.32 0.40 0.38 0.34
0.23 0.25 0.31 0.47 0.58 0.64 0.69 0.72 0.76 0.78 0.81 0.84 0.80 0.83 0.83 0.80 0.85 0.82 0.75 0.74 0.74 0.74 0.71 0.64 0.60 0.60 0.60 0.59 0.62 0.64 0.57 0.50 0.41 0.31 0.28 0.25 0.21 0.20 0.22 0.27 0.36 0.43 0.42
0.21 0.22 0.27 0.39 0.53 0.61 0.67 0.81 0.86 0.93 1.01 1.00 0.92 0.84 0.82 0.84 0.84 0.88 0.82 0.75 0.75 0.76 0.73 0.66 0.60 0.59 0.60 0.55 0.55 0.73 0.76 0.55 0.36 0.28 0.27 0.26 0.25 0.25 0.24 0.27 0.33 0.40 0.46
0.17 0.20 0.25 0.39 0.52 0.60 0.68 0.80 0.85 0.85 0.90 0.91 0.84 0.80 0.76 0.78 0.83 0.82 0.85 0.83 0.78 0.76 0.73 0.69 0.63 0.60 0.62 0.63 0.58 0.57 0.62 0.62 0.59 0.41 0.26 0.25 0.27 0.29 0.28 0.27 0.30 0.36 0.42
0.17 0.22 0.26 0.36 0.53 0.64 0.71 0.74 0.79 0.78 0.74 0.79 0.89 0.89 0.85 0.82 0.82 0.82 0.81 0.84 0.83 0.77 0.73 0.72 0.73 0.71 0.70 0.69 0.64 0.57 0.53 0.49 0.51 0.60 0.41 0.28 0.30 0.30 0.32 0.34 0.34 0.37 0.41
0.19 0.26 0.32 0.36 0.47 0.64 0.76 0.78 0.76 0.76 0.75 0.80 0.89 0.94 0.95 0.91 0.85 0.81 0.80 0.79 0.80 0.78 0.70 0.68 0.71 0.75 0.75 0.71 0.66 0.60 0.61 0.60 0.52 0.57 0.52 0.36 0.35 0.33 0.34 0.39 0.43 0.44 0.44

GEFSSE_prec_meanprecacc_222.txt.gz
Total_Precipitation_Accumulation
0.06 0.11 0.36 0.46 0.43 0.39 0.40 0.42 0.42 0.38 0.38 0.42 0.44 0.46 0.47 0.47 0.48 0.46 0.43 0.44 0.47 0.46 0.49 0.55 0.57 0.57 0.53 0.45 0.39 0.35 0.32 0.30 0.30 0.32 0.35 0.38 0.39 0.39 0.37 0.33 0.30 0.34 0.46
0.07 0.11 0.29 0.37 0.38 0.39 0.42 0.42 0.40 0.35 0.34 0.40 0.43 0.46 0.46 0.46 0.47 0.47 0.47 0.48 0.51 0.51 0.52 0.53 0.54 0.54 0.52 0.44 0.39 0.35 0.32 0.28 0.23 0.21 0.21 0.23 0.33 0.43 0.42 0.39 0.38 0.46 0.48
0.06 0.09 0.22 0.31 0.33 0.36 0.41 0.39 0.36 0.34 0.32 0.35 0.40 0.48 0.48 0.46 0.46 0.48 0.48 0.49 0.53 0.58 0.59 0.55 0.54 0.54 0.47 0.42 0.40 0.35 0.33 0.27 0.19 0.14 0.13 0.18 0.33 0.46 0.44 0.43 0.43 0.49 0.50
0.03 0.06 0.14 0.24 0.30 0.36 0.40 0.40 0.38 0.35 0.35 0.36 0.40 0.45 0.50 0.47 0.43 0.44 0.47 0.50 0.57 0.59 0.61 0.59 0.56 0.56 0.47 0.40 0.38 0.36 0.35 0.29 0.19 0.12 0.07 0.14 0.35 0.54 0.54 0.55 0.53 0.53 0.53
0.02 0.05 0.12 0.23 0.30 0.37 0.42 0.43 0.41 0.39 0.40 0.42 0.43 0.46 0.49 0.52 0.49 0.45 0.43 0.47 0.56 0.58 0.60 0.61 0.58 0.57 0.51 0.44 0.40 0.39 0.40 0.35 0.21 0.10 0.06 0.10 0.31 0.63 0.65 0.62 0.58 0.55 0.51
0.02 0.05 0.13 0.25 0.35 0.41 0.44 0.48 0.44 0.44 0.46 0.45 0.46 0.50 0.53 0.54 0.53 0.52 0.49 0.46 0.46 0.50 0.56 0.60 0.60 0.62 0.58 0.49 0.46 0.48 0.50 0.43 0.21 0.07 0.06 0.09 0.28 0.64 0.70 0.64 0.58 0.53 0.52
0.03 0.06 0.14 0.28 0.39 0.44 0.48 0.52 0.50 0.50 0.52 0.51 0.50 0.53 0.56 0.59 0.61 0.58 0.54 0.48 0.42 0.41 0.45 0.52 0.54 0.56 0.57 0.52 0.51 0.55 0.60 0.45 0.19 0.13 0.11 0.12 0.28 0.72 0.90 0.76 0.62 0.55 0.53
0.04 0.09 0.17 0.31 0.41 0.47 0.53 0.58 0.56 0.57 0.62 0.62 0.61 0.59 0.59 0.60 0.61 0.60 0.56 0.51 0.46 0.45 0.46 0.48 0.50 0.54 0.57 0.56 0.54 0.57 0.59 0.39 0.18 0.17 0.17 0.19 0.39 0.85 1.02 1.01 0.82 0.63 0.57
0.06 0.10 0.17 0.29 0.40 0.50 0.57 0.61 0.62 0.61 0.64 0.65 0.66 0.65 0.63 0.63 0.66 0.67 0.63 0.56 0.52 0.51 0.50 0.47 0.45 0.45 0.48 0.53 0.54 0.50 0.46 0.34 0.19 0.23 0.22 0.30 0.41 0.84 1.03 1.13 1.02 0.82 0.67
0.11 0.14 0.21 0.32 0.41 0.48 0.55 0.62 0.63 0.62 0.67 0.69 0.70 0.68 0.66 0.68 0.71 0.73 0.67 0.59 0.54 0.53 0.49 0.46 0.44 0.40 0.38 0.38 0.39 0.37 0.30 0.26 0.18 0.25 0.37 0.36 0.42 0.88 1.10 1.15 1.06 0.96 0.84
0.16 0.18 0.25 0.38 0.47 0.52 0.55 0.55 0.64 0.69 0.74 0.75 0.76 0.71 0.68 0.64 0.61 0.58 0.56 0.58 0.57 0.55 0.51 0.48 0.46 0.42 0.37 0.31 0.28 0.26 0.21 0.16 0.18 0.30 0.34 0.35 0.54 0.98 1.15 1.16 1.09 1.02 0.97
0.15 0.18 0.25 0.37 0.46 0.55 0.57 0.61 0.71 0.72 0.72 0.73 0.71 0.72 0.68 0.61 0.57 0.52 0.50 0.50 0.54 0.57 0.57 0.56 0.51 0.45 0.37 0.28 0.30 0.30 0.18 0.13 0.14 0.16 0.18 0.26 0.57 1.02 1.18 1.15 1.15 1.13 1.10
0.17 0.22 0.27 0.38 0.48 0.56 0.60 0.62 0.66 0.69 0.70 0.74 0.76 0.75 0.75 0.73 0.70 0.68 0.64 0.62 0.55 0.52 0.53 0.53 0.54 0.47 0.41 0.36 0.35 0.32 0.23 0.18 0.15 0.12 0.12 0.19 0.36 0.64 0.96 1.10 1.17 1.20 1.22
0.21 0.27 0.31 0.40 0.50 0.56 0.64 0.68 0.67 0.67 0.67 0.68 0.73 0.76 0.76 0.74 0.71 0.71 0.68 0.62 0.58 0.55 0.54 0.53 0.50 0.44 0.41 0.35 0.34 0.29 0.25 0.23 0.19 0.17 0.13 0.16 0.23 0.34 0.57 0.83 1.01 1.14 1.25
0.24 0.29 0.35 0.44 0.50 0.56 0.65 0.72 0.74 0.70 0.65 0.63 0.66 0.71 0.72 0.71 0.68 0.65 0.62 0.58 0.55 0.52 0.50 0.45 0.41 0.36 0.33 0.33 0.31 0.28 0.27 0.25 0.25 0.23 0.19 0.19 0.19 0.23 0.35 0.56 0.81 1.04 1.23
0.22 0.28 0.35 0.44 0.53 0.60 0.64 0.66 0.70 0.73 0.70 0.67 0.64 0.61 0.64 0.66 0.66 0.67 0.65 0.63 0.58 0.52 0.50 0.48 0.43 0.37 0.32 0.30 0.27 0.26 0.25 0.25 0.25 0.26 0.24 0.25 0.23 0.23 0.30 0.43 0.62 0.92 1.17
0.22 0.29 0.39 0.48 0.60 0.68 0.69 0.69 0.69 0.73 0.76 0.73 0.70 0.67 0.63 0.61 0.61 0.67 0.69 0.66 0.61 0.56 0.52 0.51 0.50 0.48 0.42 0.36 0.30 0.26 0.23 0.22 0.22 0.22 0.24 0.27 0.28 0.27 0.28 0.36 0.46 0.69 1.00
0.26 0.32 0.42 0.51 0.62 0.71 0.75 0.77 0.74 0.74 0.77 0.80 0.76 0.75 0.71 0.67 0.66 0.69 0.72 0.70 0.65 0.62 0.59 0.55 0.52 0.50 0.46 0.42 0.37 0.33 0.29 0.24 0.21 0.18 0.18 0.22 0.29 0.31 0.31 0.32 0.38 0.51 0.79
0.24 0.30 0.43 0.54 0.57 0.63 0.77 0.83 0.82 0.81 0.83 0.84 0.83 0.79 0.76 0.71 0.69 0.72 0.75 0.75 0.74 0.73 0.68 0.64 0.58 0.51 0.46 0.43 0.39 0.36 0.31 0.28 0.25 0.23 0.20 0.18 0.21 0.28 0.34 0.35 0.38 0.41 0.56
0.24 0.31 0.40 0.55 0.59 0.63 0.76 0.92 0.94 0.91 0.91 0.90 0.84 0.78 0.77 0.76 0.71 0.69 0.72 0.75 0.78 0.76 0.71 0.66 0.62 0.54 0.48 0.45 0.43 0.40 0.33 0.28 0.26 0.23 0.21 0.20 0.19 0.21 0.30 0.38 0.41 0.38 0.40
0.24 0.29 0.38 0.55 0.60 0.69 0.77 0.86 0.92 0.86 0.87 0.88 0.83 0.80 0.76 0.78 0.80 0.76 0.73 0.73 0.76 0.76 0.69 0.62 0.61 0.61 0.58 0.55 0.58 0.54 0.46 0.37 0.31 0.27 0.24 0.21 0.18 0.18 0.22 0.33 0.42 0.40 0.36
0.23 0.25 0.31 0.47 0.58 0.64 0.69 0.72 0.76 0.78 0.81 0.84 0.80 0.83 0.83 0.80 0.85 0.82 0.75 0.74 0.74 0.74 0.71 0.64 0.61 0.61 0.60 0.60 0.63 0.66 0.59 0.53 0.43 0.33 0.29 0.26 0.22 0.20 0.23 0.27 0.37 0.43 0.42
0.21 0.22 0.27 0.39 0.53 0.61 0.68 0.82 0.87 0.93 1.01 1.00 0.92 0.84 0.82 0.84 0.84 0.88 0.82 0.75 0.75 0.76 0.73 0.66 0.60 0.59 0.60 0.56 0.55 0.74 0.77 0.56 0.38 0.30 0.28 0.27 0.26 0.25 0.24 0.27 0.33 0.40 0.46
0.17 0.20 0.26 0.39 0.53 0.60 0.69 0.80 0.86 0.86 0.90 0.91 0.84 0.80 0.76 0.78 0.83 0.82 0.85 0.83 0.78 0.76 0.73 0.69 0.64 0.60 0.63 0.63 0.58 0.57 0.63 0.62 0.60 0.42 0.27 0.26 0.28 0.30 0.29 0.28 0.31 0.36 0.43
0.17 0.22 0.26 0.36 0.53 0.64 0.71 0.74 0.79 0.78 0.74 0.79 0.89 0.89 0.85 0.82 0.82 0.82 0.81 0.84 0.83 0.77 0.73 0.72 0.73 0.71 0.70 0.69 0.64 0.57 0.53 0.49 0.51 0.60 0.42 0.29 0.31 0.31 0.33 0.35 0.35 0.38 0.41
0.19 0.26 0.32 0.36 0.47 0.64 0.76 0.78 0.76 0.76 0.75 0.80 0.89 0.94 0.95 0.91 0.85 0.81 0.80 0.79 0.80 0.78 0.71 0.68 0.71 0.75 0.75 0.71 0.66 0.61 0.62 0.61 0.52 0.57 0.53 0.37 0.35 0.33 0.35 0.39 0.44 0.45 0.44

GEFSSE_prec_meanprecacc_228.txt.gz
Total_Precipitation_Accumulation
0.06 0.12 0.38 0.48 0.45 0.40 0.42 0.44 0.43 0.39 0.39 0.44 0.46 0.48 0.49 0.50 0.50 0.48 0.44 0.46 0.49 0.48 0.51 0.57 0.59 0.60 0.55 0.47 0.41 0.37 0.33 0.32 0.32 0.34 0.36 0.40 0.41 0.40 0.38 0.35 0.31 0.36 0.48
0.07 0.12 0.31 0.39 0.40 0.40 0.44 0.44 0.41 0.36 0.35 0.41 0.45 0.48 0.48 0.48 0.48 0.48 0.48 0.50 0.52 0.53 0.54 0.55 0.55 0.55 0.53 0.45 0.40 0.36 0.33 0.30 0.24 0.22 0.22 0.23 0.34 0.44 0.43 0.40 0.40 0.48 0.50
0.06 0.10 0.23 0.33 0.36 0.39 0.43 0.41 0.38 0.35 0.33 0.36 0.43 0.50 0.50 0.48 0.47 0.49 0.50 0.51 0.55 0.59 0.60 0.56 0.55 0.55 0.47 0.43 0.41 0.36 0.34 0.28 0.19 0.15 0.13 0.18 0.33 0.47 0.45 0.45 0.45 0.51 0.52
0.03 0.07 0.15 0.26 0.34 0.40 0.42 0.43 0.39 0.36 0.36 0.38 0.42 0.48 0.52 0.49 0.45 0.45 0.48 0.51 0.58 0.60 0.62 0.59 0.56 0.57 0.48 0.41 0.39 0.36 0.36 0.29 0.20 0.13 0.07 0.15 0.36 0.56 0.57 0.57 0.54 0.54 0.54
0.03 0.06 0.14 0.25 0.33 0.41 0.45 0.45 0.43 0.41 0.42 0.44 0.45 0.48 0.51 0.55 0.50 0.46 0.43 0.47 0.57 0.59 0.60 0.62 0.59 0.58 0.52 0.45 0.40 0.40 0.41 0.36 0.21 0.10 0.06 0.10 0.31 0.65 0.67 0.63 0.59 0.56 0.52
0.03 0.06 0.14 0.27 0.37 0.43 0.46 0.49 0.46 0.46 0.47 0.47 0.48 0.53 0.54 0.56 0.54 0.53 0.50 0.46 0.46 0.51 0.57 0.61 0.61 0.63 0.58 0.49 0.47 0.49 0.50 0.44 0.21 0.07 0.07 0.10 0.28 0.65 0.72 0.65 0.59 0.54 0.53
0.04 0.07 0.16 0.30 0.41 0.46 0.49 0.53 0.52 0.52 0.54 0.52 0.52 0.54 0.57 0.59 0.62 0.60 0.55 0.48 0.42 0.42 0.46 0.53 0.55 0.57 0.58 0.52 0.52 0.55 0.60 0.45 0.19 0.13 0.12 0.12 0.28 0.73 0.91 0.77 0.64 0.56 0.55
0.05 0.09 0.18 0.33 0.44 0.50 0.55 0.60 0.58 0.59 0.64 0.64 0.63 0.61 0.60 0.61 0.62 0.60 0.57 0.52 0.47 0.45 0.47 0.49 0.51 0.55 0.58 0.56 0.55 0.58 0.59 0.39 0.19 0.17 0.17 0.20 0.39 0.86 1.04 1.03 0.84 0.65 0.59
0.07 0.11 0.19 0.31 0.43 0.53 0.61 0.64 0.65 0.64 0.67 0.67 0.67 0.66 0.64 0.64 0.67 0.69 0.64 0.57 0.53 0.52 0.51 0.48 0.46 0.46 0.48 0.53 0.55 0.52 0.46 0.34 0.19 0.23 0.23 0.31 0.41 0.86 1.05 1.14 1.03 0.82 0.67
0.12 0.15 0.22 0.34 0.42 0.50 0.58 0.65 0.66 0.64 0.69 0.71 0.72 0.70 0.67 0.69 0.72 0.74 0.67 0.59 0.55 0.53 0.50 0.46 0.44 0.40 0.38 0.39 0.39 0.38 0.31 0.26 0.18 0.25 0.37 0.37 0.42 0.90 1.12 1.17 1.07 0.97 0.84
0.17 0.19 0.26 0.40 0.48 0.53 0.56 0.57 0.67 0.72 0.76 0.76 0.77 0.73 0.71 0.65 0.61 0.59 0.56 0.58 0.58 0.56 0.52 0.49 0.47 0.43 0.38 0.31 0.28 0.26 0.22 0.16 0.19 0.30 0.34 0.36 0.54 0.99 1.16 1.17 1.10 1.02 0.98
0.16 0.19 0.27 0.40 0.48 0.57 0.58 0.62 0.73 0.75 0.74 0.75 0.71 0.73 0.70 0.62 0.58 0.53 0.51 0.51 0.55 0.58 0.58 0.57 0.52 0.46 0.38 0.29 0.30 0.31 0.18 0.13 0.14 0.16 0.18 0.26 0.57 1.02 1.19 1.15 1.16 1.14 1.11
0.18 0.23 0.29 0.40 0.50 0.59 0.62 0.64 0.69 0.72 0.73 0.76 0.77 0.75 0.76 0.74 0.71 0.69 0.64 0.62 0.56 0.52 0.53 0.54 0.55 0.47 0.42 0.37 0.36 0.33 0.23 0.19 0.15 0.12 0.12 0.19 0.36 0.64 0.97 1.12 1.18 1.21 1.24
0.22 0.28 0.33 0.42 0.52 0.59 0.66 0.70 0.68 0.69 0.70 0.71 0.75 0.78 0.77 0.75 0.72 0.72 0.68 0.63 0.59 0.56 0.55 0.54 0.52 0.46 0.41 0.36 0.34 0.30 0.26 0.24 0.20 0.17 0.13 0.16 0.23 0.34 0.58 0.84 1.02 1.16 1.28
0.25 0.31 0.36 0.45 0.52 0.58 0.67 0.73 0.76 0.72 0.67 0.65 0.69 0.73 0.74 0.73 0.70 0.66 0.63 0.59 0.55 0.53 0.50 0.46 0.41 0.36 0.33 0.33 0.31 0.28 0.27 0.26 0.26 0.23 0.20 0.20 0.19 0.23 0.36 0.57 0.83 1.07 1.26
0.23 0.29 0.36 0.46 0.55 0.62 0.66 0.69 0.72 0.74 0.71 0.68 0.66 0.62 0.65 0.67 0.67 0.68 0.66 0.64 0.58 0.52 0.50 0.48 0.43 0.38 0.32 0.30 0.28 0.26 0.26 0.25 0.26 0.26 0.25 0.25 0.24 0.23 0.30 0.44 0.63 0.94 1.20
0.23 0.31 0.41 0.50 0.62 0.70 0.71 0.72 0.72 0.74 0.77 0.74 0.70 0.67 0.64 0.61 0.62 0.67 0.69 0.66 0.62 0.56 0.52 0.51 0.50 0.48 0.43 0.36 0.30 0.26 0.23 0.22 0.22 0.22 0.24 0.28 0.29 0.28 0.29 0.37 0.47 0.69 1.02
0.27 0.33 0.44 0.53 0.63 0.72 0.77 0.79 0.76 0.75 0.79 0.80 0.76 0.75 0.71 0.67 0.66 0.69 0.73 0.70 0.65 0.62 0.59 0.55 0.52 0.50 0.47 0.42 0.37 0.33 0.29 0.25 0.21 0.19 0.18 0.22 0.29 0.32 0.31 0.33 0.39 0.51 0.80
0.26 0.32 0.44 0.55 0.58 0.65 0.78 0.85 0.84 0.83 0.83 0.84 0.83 0.79 0.76 0.71 0.69 0.72 0.75 0.75 0.74 0.73 0.68 0.64 0.58 0.51 0.46 0.43 0.40 0.36 0.32 0.29 0.26 0.24 0.21 0.19 0.22 0.29 0.34 0.36 0.39 0.41 0.57
0.27 0.33 0.42 0.57 0.60 0.64 0.77 0.93 0.94 0.92 0.92 0.90 0.84 0.78 0.77 0.76 0.72 0.69 0.72 0.75 0.78 0.77 0.71 0.66 0.63 0.55 0.48 0.45 0.43 0.40 0.34 0.29 0.26 0.24 0.22 0.20 0.19 0.22 0.32 0.39 0.42 0.39 0.41
0.26 0.31 0.41 0.57 0.62 0.70 0.78 0.86 0.92 0.86 0.87 0.88 0.83 0.80 0.76 0.78 0.80 0.76 0.73 0.73 0.76 0.77 0.69 0.62 0.61 0.61 0.58 0.55 0.59 0.54 0.46 0.37 0.31 0.27 0.24 0.21 0.18 0.18 0.22 0.34 0.43 0.42 0.37
0.24 0.26 0.33 0.49 0.61 0.66 0.70 0.72 0.76 0.79 0.81 0.84 0.81 0.83 0.83 0.80 0.85 0.82 0.75 0.74 0.75 0.74 0.71 0.64 0.61 0.62 0.60 0.61 0.64 0.67 0.59 0.53 0.43 0.33 0.29 0.26 0.22 0.21 0.23 0.27 0.37 0.44 0.43
0.21 0.23 0.28 0.41 0.55 0.63 0.69 0.82 0.87 0.93 1.01 1.00 0.92 0.85 0.82 0.84 0.84 0.88 0.82 0.75 0.75 0.76 0.73 0.66 0.60 0.59 0.60 0.56 0.56 0.74 0.78 0.57 0.38 0.30 0.28 0.28 0.26 0.25 0.25 0.27 0.33 0.40 0.46
0.17 0.21 0.27 0.40 0.54 0.62 0.70 0.81 0.86 0.86 0.90 0.91 0.84 0.80 0.76 0.78 0.83 0.82 0.85 0.83 0.78 0.76 0.73 0.69 0.64 0.60 0.63 0.63 0.58 0.58 0.63 0.62 0.60 0.42 0.27 0.26 0.29 0.30 0.29 0.28 0.31 0.36 0.43
0.17 0.22 0.26 0.37 0.54 0.65 0.73 0.75 0.79 0.79 0.75 0.80 0.89 0.89 0.85 0.82 0.82 0.82 0.81 0.84 0.83 0.77 0.73 0.72 0.73 0.71 0.70 0.69 0.64 0.57 0.54 0.50 0.51 0.61 0.42 0.29 0.31 0.31 0.33 0.35 0.35 0.38 0.41
0.19 0.26 0.33 0.37 0.48 0.65 0.77 0.78 0.77 0.76 0.75 0.80 0.89 0.94 0.95 0.91 0.85 0.81 0.80 0.79 0.80 0.78 0.71 0.68 0.71 0.75 0.75 0.71 0.66 0.61 0.62 0.61 0.52 0.58 0.53 0.37 0.35 0.33 0.35 0.40 0.44 0.45 0.45

GEFSSE_prec_meanprecacc_234.txt.gz
Total_Precipitation_Accumulation
0.07 0.12 0.38 0.49 0.46 0.41 0.43 0.45 0.44 0.39 0.40 0.46 0.48 0.51 0.52 0.51 0.51 0.49 0.46 0.48 0.51 0.50 0.53 0.59 0.61 0.61 0.57 0.48 0.41 0.37 0.34 0.33 0.33 0.35 0.37 0.42 0.43 0.42 0.40 0.36 0.33 0.38 0.51
0.08 0.13 0.31 0.40 0.42 0.42 0.46 0.46 0.43 0.37 0.37 0.43 0.48 0.51 0.51 0.50 0.50 0.50 0.50 0.51 0.54 0.55 0.56 0.57 0.56 0.56 0.54 0.46 0.41 0.36 0.34 0.30 0.25 0.23 0.23 0.25 0.36 0.46 0.44 0.41 0.40 0.49 0.51
0.07 0.10 0.23 0.34 0.37 0.41 0.45 0.43 0.40 0.36 0.35 0.38 0.44 0.52 0.52 0.49 0.48 0.50 0.51 0.53 0.57 0.61 0.62 0.57 0.56 0.55 0.48 0.43 0.41 0.36 0.35 0.29 0.20 0.15 0.14 0.19 0.35 0.49 0.46 0.45 0.45 0.51 0.53
0.04 0.08 0.16 0.27 0.35 0.41 0.44 0.44 0.41 0.38 0.38 0.39 0.44 0.50 0.54 0.50 0.46 0.47 0.50 0.53 0.60 0.61 0.63 0.60 0.57 0.57 0.48 0.42 0.39 0.37 0.36 0.30 0.20 0.13 0.08 0.16 0.37 0.59 0.60 0.58 0.55 0.55 0.55
0.04 0.07 0.15 0.26 0.35 0.43 0.47 0.48 0.45 0.43 0.43 0.46 0.48 0.51 0.54 0.57 0.52 0.48 0.45 0.48 0.58 0.60 0.61 0.63 0.59 0.58 0.52 0.45 0.40 0.40 0.41 0.36 0.22 0.11 0.07 0.11 0.33 0.67 0.71 0.65 0.59 0.56 0.53
0.05 0.07 0.15 0.28 0.38 0.45 0.49 0.52 0.48 0.48 0.49 0.49 0.50 0.56 0.58 0.60 0.57 0.55 0.51 0.47 0.47 0.51 0.58 0.62 0.62 0.63 0.58 0.49 0.47 0.49 0.51 0.44 0.21 0.08 0.08 0.12 0.30 0.67 0.75 0.67 0.60 0.55 0.53
0.05 0.08 0.16 0.30 0.41 0.47 0.51 0.55 0.53 0.54 0.56 0.54 0.54 0.57 0.60 0.62 0.64 0.61 0.57 0.49 0.43 0.42 0.47 0.54 0.56 0.58 0.58 0.53 0.52 0.55 0.60 0.45 0.19 0.14 0.13 0.14 0.30 0.74 0.93 0.79 0.66 0.57 0.57
0.06 0.10 0.18 0.34 0.45 0.52 0.57 0.61 0.59 0.60 0.66 0.66 0.65 0.64 0.63 0.63 0.64 0.62 0.58 0.53 0.47 0.46 0.47 0.49 0.51 0.55 0.58 0.57 0.55 0.58 0.59 0.39 0.19 0.18 0.18 0.21 0.40 0.88 1.06 1.04 0.85 0.65 0.59
0.08 0.11 0.19 0.32 0.44 0.54 0.63 0.67 0.67 0.66 0.69 0.70 0.69 0.68 0.66 0.67 0.70 0.72 0.66 0.58 0.53 0.52 0.52 0.49 0.46 0.46 0.48 0.53 0.55 0.52 0.46 0.34 0.19 0.24 0.23 0.32 0.42 0.88 1.06 1.15 1.03 0.83 0.68
0.13 0.16 0.24 0.35 0.44 0.52 0.60 0.68 0.68 0.66 0.71 0.73 0.74 0.73 0.71 0.71 0.74 0.77 0.70 0.61 0.56 0.54 0.51 0.47 0.45 0.41 0.38 0.39 0.40 0.38 0.31 0.26 0.19 0.25 0.38 0.37 0.44 0.91 1.13 1.17 1.07 0.97 0.85
0.18 0.21 0.29 0.43 0.51 0.55 0.58 0.58 0.69 0.73 0.77 0.77 0.78 0.75 0.73 0.67 0.63 0.61 0.58 0.59 0.60 0.58 0.53 0.49 0.48 0.43 0.38 0.31 0.28 0.26 0.22 0.17 0.19 0.30 0.35 0.36 0.55 0.99 1.17 1.17 1.11 1.03 0.99
0.17 0.21 0.30 0.43 0.51 0.59 0.60 0.64 0.76 0.77 0.76 0.76 0.72 0.75 0.72 0.65 0.60 0.55 0.54 0.53 0.57 0.60 0.60 0.58 0.53 0.46 0.38 0.29 0.30 0.31 0.19 0.14 0.15 0.17 0.19 0.26 0.58 1.03 1.20 1.16 1.16 1.15 1.13
0.19 0.25 0.31 0.43 0.54 0.62 0.65 0.66 0.71 0.74 0.75 0.78 0.80 0.78 0.78 0.76 0.73 0.71 0.67 0.66 0.58 0.54 0.56 0.56 0.56 0.48 0.43 0.37 0.37 0.33 0.24 0.20 0.16 0.13 0.13 0.19 0.37 0.65 0.97 1.12 1.19 1.23 1.26
0.24 0.31 0.35 0.45 0.56 0.64 0.70 0.72 0.70 0.71 0.72 0.73 0.80 0.83 0.81 0.79 0.75 0.74 0.71 0.66 0.61 0.58 0.58 0.56 0.53 0.47 0.42 0.36 0.35 0.30 0.26 0.24 0.20 0.18 0.14 0.16 0.24 0.35 0.59 0.85 1.04 1.18 1.30
0.27 0.34 0.39 0.49 0.55 0.62 0.70 0.76 0.78 0.74 0.70 0.68 0.73 0.78 0.79 0.78 0.74 0.69 0.65 0.61 0.57 0.55 0.52 0.48 0.43 0.39 0.34 0.33 0.32 0.29 0.28 0.26 0.26 0.24 0.20 0.20 0.20 0.24 0.37 0.58 0.84 1.08 1.27
0.26 0.31 0.39 0.49 0.58 0.65 0.69 0.72 0.75 0.77 0.74 0.71 0.70 0.69 0.71 0.73 0.72 0.71 0.68 0.67 0.60 0.54 0.52 0.50 0.45 0.41 0.35 0.32 0.28 0.26 0.26 0.25 0.26 0.26 0.25 0.26 0.24 0.23 0.30 0.44 0.64 0.95 1.20
0.25 0.33 0.44 0.53 0.65 0.73 0.73 0.74 0.74 0.76 0.79 0.77 0.73 0.72 0.70 0.68 0.67 0.71 0.72 0.68 0.63 0.56 0.53 0.51 0.51 0.50 0.45 0.38 0.32 0.27 0.24 0.23 0.22 0.22 0.24 0.28 0.29 0.28 0.29 0.37 0.47 0.70 1.02
0.29 0.35 0.47 0.56 0.66 0.74 0.80 0.82 0.78 0.77 0.80 0.82 0.77 0.77 0.75 0.71 0.70 0.72 0.74 0.71 0.65 0.62 0.59 0.55 0.52 0.51 0.48 0.43 0.38 0.35 0.30 0.26 0.21 0.19 0.19 0.22 0.29 0.32 0.31 0.33 0.39 0.51 0.80
0.29 0.34 0.47 0.58 0.60 0.67 0.80 0.87 0.86 0.84 0.84 0.85 0.83 0.80 0.77 0.73 0.70 0.73 0.76 0.75 0.74 0.73 0.68 0.64 0.58 0.51 0.47 0.43 0.40 0.37 0.33 0.30 0.27 0.25 0.21 0.19 0.22 0.29 0.35 0.36 0.39 0.41 0.57
0.30 0.37 0.46 0.60 0.62 0.66 0.79 0.95 0.95 0.92 0.92 0.90 0.85 0.78 0.78 0.77 0.72 0.70 0.72 0.75 0.78 0.77 0.71 0.66 0.63 0.55 0.48 0.45 0.43 0.40 0.34 0.29 0.26 0.24 0.22 0.21 0.20 0.22 0.32 0.39 0.42 0.39 0.42
0.30 0.35 0.44 0.60 0.64 0.72 0.79 0.87 0.93 0.86 0.87 0.88 0.83 0.80 0.76 0.79 0.80 0.76 0.73 0.73 0.76 0.77 0.69 0.62 0.61 0.61 0.58 0.55 0.59 0.54 0.46 0.37 0.31 0.27 0.24 0.21 0.19 0.18 0.22 0.34 0.43 0.42 0.38
0.27 0.29 0.35 0.51 0.63 0.68 0.71 0.73 0.76 0.79 0.81 0.84 0.81 0.83 0.83 0.81 0.85 0.83 0.75 0.75 0.75 0.74 0.71 0.65 0.61 0.62 0.61 0.61 0.64 0.67 0.59 0.53 0.43 0.33 0.29 0.26 0.22 0.21 0.23 0.27 0.37 0.44 0.43
0.24 0.26 0.30 0.42 0.57 0.66 0.71 0.83 0.87 0.94 1.01 1.00 0.93 0.85 0.82 0.84 0.85 0.88 0.82 0.75 0.75 0.76 0.73 0.66 0.60 0.60 0.60 0.56 0.56 0.75 0.78 0.57 0.38 0.30 0.28 0.28 0.26 0.25 0.25 0.27 0.33 0.40 0.46
0.19 0.23 0.28 0.42 0.56 0.64 0.72 0.82 0.87 0.86 0.90 0.91 0.85 0.80 0.77 0.79 0.83 0.82 0.85 0.83 0.78 0.76 0.73 0.69 0.64 0.60 0.63 0.63 0.58 0.58 0.63 0.62 0.61 0.42 0.27 0.26 0.29 0.30 0.29 0.28 0.31 0.36 0.43
0.20 0.24 0.29 0.40 0.56 0.67 0.74 0.76 0.80 0.79 0.75 0.80 0.89 0.89 0.85 0.82 0.82 0.83 0.81 0.84 0.83 0.77 0.73 0.72 0.73 0.71 0.70 0.69 0.64 0.57 0.54 0.50 0.51 0.61 0.42 0.29 0.31 0.31 0.33 0.35 0.35 0.38 0.42
0.21 0.29 0.35 0.40 0.50 0.67 0.79 0.80 0.77 0.77 0.76 0.81 0.89 0.94 0.96 0.91 0.86 0.81 0.81 0.80 0.81 0.78 0.71 0.68 0.71 0.75 0.75 0.71 0.66 0.61 0.62 0.61 0.53 0.58 0.53 0.37 0.35 0.33 0.35 0.40 0.44 0.45 0.45

GEFSSE_prec_meanprecacc_240.txt.gz
Total_Precipitation_Accumulation
0.07 0.13 0.39 0.49 0.47 0.43 0.44 0.46 0.45 0.41 0.41 0.47 0.50 0.53 0.53 0.52 0.52 0.50 0.47 0.49 0.52 0.51 0.54 0.60 0.63 0.63 0.58 0.49 0.42 0.38 0.34 0.34 0.34 0.36 0.38 0.43 0.44 0.43 0.41 0.36 0.33 0.39 0.52
0.08 0.13 0.32 0.41 0.42 0.43 0.46 0.46 0.44 0.39 0.39 0.45 0.49 0.53 0.52 0.51 0.51 0.51 0.51 0.53 0.55 0.56 0.57 0.58 0.57 0.56 0.55 0.47 0.41 0.37 0.34 0.31 0.25 0.23 0.23 0.26 0.37 0.47 0.45 0.41 0.40 0.50 0.52
0.07 0.10 0.24 0.35 0.38 0.42 0.46 0.44 0.41 0.37 0.35 0.39 0.46 0.54 0.53 0.50 0.49 0.51 0.52 0.54 0.58 0.62 0.62 0.58 0.56 0.56 0.48 0.43 0.42 0.37 0.35 0.29 0.21 0.16 0.14 0.20 0.36 0.50 0.47 0.46 0.46 0.52 0.53
0.04 0.08 0.16 0.28 0.37 0.43 0.45 0.45 0.41 0.39 0.38 0.40 0.45 0.52 0.56 0.51 0.47 0.48 0.51 0.54 0.60 0.62 0.64 0.61 0.57 0.58 0.48 0.42 0.40 0.37 0.36 0.31 0.21 0.14 0.08 0.17 0.38 0.61 0.62 0.59 0.55 0.55 0.55
0.05 0.08 0.16 0.28 0.36 0.44 0.48 0.49 0.46 0.44 0.44 0.47 0.49 0.53 0.56 0.58 0.54 0.50 0.45 0.49 0.59 0.60 0.62 0.63 0.60 0.59 0.52 0.45 0.41 0.40 0.42 0.37 0.22 0.11 0.07 0.12 0.34 0.69 0.73 0.66 0.60 0.57 0.53
0.05 0.08 0.16 0.29 0.39 0.46 0.50 0.53 0.48 0.48 0.50 0.50 0.52 0.57 0.61 0.61 0.59 0.56 0.51 0.48 0.48 0.52 0.58 0.62 0.62 0.63 0.59 0.49 0.47 0.49 0.51 0.45 0.22 0.08 0.08 0.12 0.31 0.69 0.77 0.69 0.61 0.56 0.54
0.06 0.09 0.17 0.31 0.43 0.49 0.53 0.57 0.54 0.55 0.57 0.56 0.55 0.59 0.62 0.64 0.65 0.62 0.57 0.50 0.44 0.43 0.47 0.54 0.56 0.58 0.59 0.53 0.52 0.56 0.61 0.46 0.19 0.14 0.13 0.15 0.31 0.76 0.95 0.81 0.68 0.59 0.58
0.07 0.11 0.20 0.36 0.46 0.54 0.60 0.64 0.62 0.62 0.67 0.67 0.67 0.65 0.65 0.65 0.64 0.63 0.58 0.53 0.48 0.46 0.47 0.50 0.52 0.55 0.58 0.57 0.55 0.58 0.60 0.39 0.19 0.18 0.18 0.21 0.42 0.90 1.08 1.06 0.86 0.67 0.60
0.09 0.12 0.21 0.34 0.45 0.57 0.67 0.70 0.70 0.68 0.71 0.71 0.71 0.69 0.68 0.69 0.72 0.73 0.67 0.59 0.54 0.53 0.52 0.49 0.47 0.46 0.49 0.53 0.55 0.52 0.47 0.34 0.19 0.24 0.23 0.32 0.44 0.90 1.08 1.16 1.04 0.83 0.68
0.14 0.17 0.25 0.37 0.46 0.54 0.63 0.71 0.70 0.68 0.73 0.75 0.76 0.75 0.73 0.73 0.76 0.78 0.71 0.62 0.57 0.55 0.51 0.47 0.46 0.42 0.39 0.39 0.40 0.38 0.31 0.26 0.19 0.25 0.38 0.37 0.45 0.93 1.14 1.19 1.09 0.99 0.87
0.19 0.22 0.30 0.44 0.53 0.57 0.60 0.61 0.71 0.75 0.79 0.79 0.80 0.76 0.74 0.69 0.65 0.62 0.59 0.60 0.61 0.59 0.53 0.50 0.49 0.44 0.38 0.31 0.28 0.26 0.22 0.17 0.19 0.30 0.35 0.37 0.56 1.00 1.18 1.19 1.12 1.04 1.00
0.19 0.23 0.30 0.44 0.53 0.61 0.62 0.66 0.77 0.78 0.78 0.77 0.73 0.76 0.73 0.66 0.61 0.56 0.56 0.56 0.59 0.61 0.61 0.59 0.55 0.47 0.38 0.29 0.30 0.31 0.19 0.14 0.15 0.17 0.19 0.27 0.58 1.04 1.21 1.17 1.18 1.16 1.14
0.20 0.26 0.32 0.44 0.55 0.64 0.67 0.68 0.74 0.76 0.77 0.79 0.80 0.79 0.79 0.78 0.75 0.72 0.70 0.70 0.63 0.58 0.59 0.60 0.60 0.49 0.43 0.37 0.37 0.33 0.24 0.20 0.16 0.13 0.13 0.20 0.37 0.66 0.99 1.13 1.20 1.24 1.26
0.27 0.33 0.37 0.46 0.58 0.65 0.72 0.75 0.73 0.74 0.74 0.75 0.81 0.84 0.83 0.80 0.77 0.75 0.72 0.68 0.65 0.63 0.61 0.58 0.56 0.48 0.42 0.36 0.35 0.30 0.27 0.24 0.20 0.18 0.14 0.16 0.24 0.35 0.59 0.86 1.04 1.19 1.30
0.30 0.36 0.42 0.51 0.57 0.63 0.71 0.78 0.81 0.77 0.73 0.70 0.75 0.80 0.81 0.80 0.75 0.70 0.66 0.63 0.60 0.59 0.56 0.51 0.46 0.41 0.35 0.33 0.32 0.29 0.28 0.26 0.26 0.24 0.20 0.20 0.20 0.24 0.37 0.58 0.84 1.08 1.28
0.28 0.34 0.42 0.52 0.62 0.67 0.70 0.73 0.76 0.79 0.77 0.73 0.72 0.71 0.74 0.76 0.75 0.73 0.70 0.69 0.63 0.58 0.56 0.53 0.49 0.44 0.37 0.33 0.29 0.27 0.26 0.25 0.26 0.27 0.25 0.26 0.24 0.23 0.30 0.44 0.64 0.95 1.21
0.29 0.37 0.49 0.57 0.69 0.77 0.76 0.75 0.76 0.78 0.80 0.77 0.74 0.73 0.72 0.70 0.71 0.75 0.76 0.72 0.66 0.59 0.56 0.54 0.54 0.53 0.47 0.40 0.34 0.28 0.25 0.23 0.22 0.22 0.25 0.28 0.29 0.28 0.29 0.37 0.47 0.70 1.02
0.37 0.41 0.52 0.61 0.70 0.78 0.83 0.85 0.80 0.78 0.81 0.82 0.78 0.78 0.76 0.73 0.73 0.77 0.80 0.76 0.70 0.66 0.62 0.58 0.54 0.53 0.49 0.45 0.41 0.37 0.32 0.27 0.22 0.20 0.20 0.24 0.30 0.33 0.32 0.33 0.39 0.52 0.81
0.36 0.40 0.53 0.63 0.64 0.70 0.83 0.89 0.88 0.86 0.86 0.86 0.84 0.81 0.79 0.75 0.73 0.77 0.82 0.82 0.79 0.77 0.72 0.67 0.60 0.53 0.48 0.44 0.41 0.38 0.34 0.31 0.29 0.27 0.23 0.21 0.23 0.30 0.35 0.37 0.39 0.41 0.57
0.38 0.45 0.53 0.65 0.66 0.69 0.81 0.97 0.98 0.94 0.93 0.91 0.86 0.79 0.79 0.78 0.74 0.72 0.76 0.80 0.83 0.81 0.76 0.70 0.65 0.56 0.49 0.45 0.44 0.41 0.34 0.29 0.26 0.25 0.23 0.22 0.20 0.22 0.32 0.39 0.42 0.39 0.42
0.36 0.42 0.50 0.63 0.66 0.74 0.81 0.89 0.94 0.88 0.88 0.89 0.84 0.81 0.77 0.80 0.82 0.78 0.75 0.75 0.79 0.79 0.72 0.65 0.64 0.62 0.58 0.56 0.59 0.54 0.46 0.38 0.32 0.28 0.24 0.21 0.19 0.18 0.22 0.34 0.43 0.42 0.38
0.31 0.33 0.39 0.55 0.66 0.70 0.73 0.75 0.78 0.80 0.82 0.85 0.81 0.84 0.84 0.82 0.86 0.84 0.77 0.77 0.76 0.75 0.72 0.66 0.62 0.62 0.61 0.61 0.64 0.67 0.59 0.53 0.43 0.33 0.30 0.26 0.22 0.21 0.23 0.27 0.38 0.44 0.43
0.27 0.29 0.33 0.44 0.60 0.68 0.73 0.85 0.88 0.95 1.02 1.01 0.93 0.85 0.83 0.85 0.85 0.89 0.84 0.77 0.77 0.77 0.74 0.67 0.61 0.60 0.60 0.56 0.56 0.75 0.78 0.57 0.38 0.30 0.28 0.28 0.26 0.25 0.25 0.27 0.33 0.40 0.46
0.23 0.26 0.31 0.45 0.58 0.66 0.73 0.84 0.88 0.87 0.91 0.91 0.85 0.81 0.77 0.79 0.84 0.83 0.86 0.84 0.79 0.77 0.73 0.69 0.64 0.61 0.63 0.63 0.58 0.58 0.63 0.63 0.61 0.42 0.27 0.26 0.29 0.30 0.29 0.28 0.31 0.36 0.43
0.23 0.27 0.31 0.42 0.58 0.70 0.77 0.78 0.82 0.80 0.75 0.80 0.90 0.89 0.86 0.82 0.83 0.83 0.82 0.85 0.83 0.78 0.73 0.73 0.73 0.71 0.70 0.69 0.64 0.57 0.54 0.50 0.51 0.61 0.42 0.29 0.31 0.31 0.33 0.35 0.35 0.38 0.42
0.23 0.30 0.37 0.42 0.52 0.69 0.81 0.82 0.79 0.78 0.76 0.81 0.89 0.95 0.96 0.92 0.86 0.82 0.81 0.81 0.81 0.78 0.71 0.69 0.71 0.75 0.76 0.72 0.66 0.61 0.62 0.61 0.53 0.58 0.53 0.37 0.35 0.33 0.35 0.40 0.44 0.45 0.45